<?xml version="1.0" encoding="UTF-8" standalone="no" ?>
<gpx xmlns="http://www.topografix.com/GPX/1/1" xmlns:xsi="http://www.w3.org/2001/XMLSchema-instance" xsi:schemaLocation="http://www.topografix.com/GPX/1/1 http://www.topografix.com/GPX/1/1/gpx.xsd" version="1.1" creator="VisuGPX - https://www.visugpx.com">
  <metadata>
    <name>15537954-Schlierbach Bourg en BRESSE</name>
  </metadata>
  <trk>
    <name><![CDATA[15537954-Schlierbach Bourg en BRESSE]]></name>
    <trkseg>
      <trkpt lat="47.68308" lon="7.40714">
        <ele>266</ele>
        <time>2022-09-12T19:08:25Z</time>
      </trkpt>
      <trkpt lat="47.683" lon="7.40698">
        <ele>266</ele>
        <time>2022-09-12T19:08:36Z</time>
      </trkpt>
      <trkpt lat="47.68298" lon="7.40687">
        <ele>266</ele>
        <time>2022-09-12T19:08:42Z</time>
      </trkpt>
      <trkpt lat="47.68278" lon="7.4064">
        <ele>267</ele>
        <time>2022-09-12T19:09:12Z</time>
      </trkpt>
      <trkpt lat="47.68271" lon="7.40619">
        <ele>267</ele>
        <time>2022-09-12T19:09:24Z</time>
      </trkpt>
      <trkpt lat="47.68249" lon="7.40528">
        <ele>269</ele>
        <time>2022-09-12T19:10:17Z</time>
      </trkpt>
      <trkpt lat="47.68228" lon="7.40458">
        <ele>268</ele>
        <time>2022-09-12T19:10:58Z</time>
      </trkpt>
      <trkpt lat="47.68215" lon="7.40389">
        <ele>268</ele>
        <time>2022-09-12T19:11:37Z</time>
      </trkpt>
      <trkpt lat="47.68203" lon="7.40312">
        <ele>269</ele>
        <time>2022-09-12T19:12:19Z</time>
      </trkpt>
      <trkpt lat="47.68202" lon="7.40258">
        <ele>270</ele>
        <time>2022-09-12T19:12:48Z</time>
      </trkpt>
      <trkpt lat="47.68204" lon="7.4012">
        <ele>275</ele>
        <time>2022-09-12T19:14:03Z</time>
      </trkpt>
      <trkpt lat="47.6821" lon="7.40051">
        <ele>279</ele>
        <time>2022-09-12T19:14:40Z</time>
      </trkpt>
      <trkpt lat="47.68234" lon="7.39847">
        <ele>286</ele>
        <time>2022-09-12T19:16:32Z</time>
      </trkpt>
      <trkpt lat="47.68241" lon="7.39793">
        <ele>286</ele>
        <time>2022-09-12T19:17:01Z</time>
      </trkpt>
      <trkpt lat="47.68252" lon="7.39732">
        <ele>285</ele>
        <time>2022-09-12T19:17:35Z</time>
      </trkpt>
      <trkpt lat="47.68254" lon="7.3971">
        <ele>284</ele>
        <time>2022-09-12T19:17:47Z</time>
      </trkpt>
      <trkpt lat="47.6825" lon="7.39683">
        <ele>284</ele>
        <time>2022-09-12T19:18:02Z</time>
      </trkpt>
      <trkpt lat="47.68242" lon="7.39656">
        <ele>282</ele>
        <time>2022-09-12T19:18:18Z</time>
      </trkpt>
      <trkpt lat="47.68223" lon="7.39607">
        <ele>280</ele>
        <time>2022-09-12T19:18:49Z</time>
      </trkpt>
      <trkpt lat="47.68216" lon="7.39581">
        <ele>279</ele>
        <time>2022-09-12T19:19:04Z</time>
      </trkpt>
      <trkpt lat="47.68214" lon="7.3956">
        <ele>278</ele>
        <time>2022-09-12T19:19:15Z</time>
      </trkpt>
      <trkpt lat="47.68204" lon="7.39338">
        <ele>267</ele>
        <time>2022-09-12T19:21:15Z</time>
      </trkpt>
      <trkpt lat="47.68209" lon="7.39283">
        <ele>264</ele>
        <time>2022-09-12T19:21:45Z</time>
      </trkpt>
      <trkpt lat="47.6823" lon="7.39172">
        <ele>259</ele>
        <time>2022-09-12T19:22:47Z</time>
      </trkpt>
      <trkpt lat="47.68246" lon="7.39068">
        <ele>257</ele>
        <time>2022-09-12T19:23:45Z</time>
      </trkpt>
      <trkpt lat="47.68253" lon="7.3904">
        <ele>256</ele>
        <time>2022-09-12T19:24:01Z</time>
      </trkpt>
      <trkpt lat="47.68261" lon="7.39026">
        <ele>256</ele>
        <time>2022-09-12T19:24:11Z</time>
      </trkpt>
      <trkpt lat="47.68255" lon="7.38992">
        <ele>255</ele>
        <time>2022-09-12T19:24:30Z</time>
      </trkpt>
      <trkpt lat="47.6825" lon="7.38943">
        <ele>255</ele>
        <time>2022-09-12T19:24:56Z</time>
      </trkpt>
      <trkpt lat="47.68241" lon="7.3889">
        <ele>255</ele>
        <time>2022-09-12T19:25:26Z</time>
      </trkpt>
      <trkpt lat="47.68242" lon="7.38882">
        <ele>255</ele>
        <time>2022-09-12T19:25:30Z</time>
      </trkpt>
      <trkpt lat="47.68246" lon="7.38873">
        <ele>255</ele>
        <time>2022-09-12T19:25:36Z</time>
      </trkpt>
      <trkpt lat="47.68258" lon="7.38854">
        <ele>255</ele>
        <time>2022-09-12T19:25:50Z</time>
      </trkpt>
      <trkpt lat="47.68327" lon="7.38784">
        <ele>257</ele>
        <time>2022-09-12T19:26:57Z</time>
      </trkpt>
      <trkpt lat="47.68326" lon="7.38775">
        <ele>257</ele>
        <time>2022-09-12T19:27:02Z</time>
      </trkpt>
      <trkpt lat="47.68319" lon="7.38765">
        <ele>257</ele>
        <time>2022-09-12T19:27:10Z</time>
      </trkpt>
      <trkpt lat="47.68311" lon="7.38758">
        <ele>257</ele>
        <time>2022-09-12T19:27:17Z</time>
      </trkpt>
      <trkpt lat="47.6828" lon="7.38689">
        <ele>258</ele>
        <time>2022-09-12T19:28:02Z</time>
      </trkpt>
      <trkpt lat="47.68262" lon="7.38639">
        <ele>259</ele>
        <time>2022-09-12T19:28:32Z</time>
      </trkpt>
      <trkpt lat="47.68248" lon="7.38591">
        <ele>260</ele>
        <time>2022-09-12T19:29:01Z</time>
      </trkpt>
      <trkpt lat="47.68234" lon="7.38531">
        <ele>258</ele>
        <time>2022-09-12T19:29:35Z</time>
      </trkpt>
      <trkpt lat="47.6822" lon="7.38417">
        <ele>258</ele>
        <time>2022-09-12T19:30:37Z</time>
      </trkpt>
      <trkpt lat="47.68221" lon="7.38387">
        <ele>259</ele>
        <time>2022-09-12T19:30:54Z</time>
      </trkpt>
      <trkpt lat="47.68219" lon="7.38372">
        <ele>259</ele>
        <time>2022-09-12T19:31:02Z</time>
      </trkpt>
      <trkpt lat="47.68215" lon="7.38354">
        <ele>259</ele>
        <time>2022-09-12T19:31:12Z</time>
      </trkpt>
      <trkpt lat="47.68212" lon="7.38347">
        <ele>259</ele>
        <time>2022-09-12T19:31:16Z</time>
      </trkpt>
      <trkpt lat="47.68206" lon="7.38292">
        <ele>260</ele>
        <time>2022-09-12T19:31:47Z</time>
      </trkpt>
      <trkpt lat="47.68206" lon="7.38221">
        <ele>263</ele>
        <time>2022-09-12T19:32:25Z</time>
      </trkpt>
      <trkpt lat="47.68209" lon="7.3817">
        <ele>267</ele>
        <time>2022-09-12T19:32:52Z</time>
      </trkpt>
      <trkpt lat="47.68214" lon="7.38112">
        <ele>269</ele>
        <time>2022-09-12T19:33:24Z</time>
      </trkpt>
      <trkpt lat="47.68222" lon="7.38066">
        <ele>271</ele>
        <time>2022-09-12T19:33:50Z</time>
      </trkpt>
      <trkpt lat="47.68244" lon="7.37968">
        <ele>276</ele>
        <time>2022-09-12T19:34:45Z</time>
      </trkpt>
      <trkpt lat="47.68252" lon="7.37921">
        <ele>278</ele>
        <time>2022-09-12T19:35:11Z</time>
      </trkpt>
      <trkpt lat="47.68259" lon="7.37868">
        <ele>277</ele>
        <time>2022-09-12T19:35:40Z</time>
      </trkpt>
      <trkpt lat="47.68262" lon="7.37809">
        <ele>276</ele>
        <time>2022-09-12T19:36:12Z</time>
      </trkpt>
      <trkpt lat="47.68262" lon="7.37761">
        <ele>276</ele>
        <time>2022-09-12T19:36:38Z</time>
      </trkpt>
      <trkpt lat="47.68259" lon="7.37702">
        <ele>275</ele>
        <time>2022-09-12T19:37:10Z</time>
      </trkpt>
      <trkpt lat="47.68238" lon="7.37432">
        <ele>278</ele>
        <time>2022-09-12T19:39:37Z</time>
      </trkpt>
      <trkpt lat="47.68231" lon="7.37367">
        <ele>281</ele>
        <time>2022-09-12T19:40:12Z</time>
      </trkpt>
      <trkpt lat="47.6822" lon="7.37305">
        <ele>282</ele>
        <time>2022-09-12T19:40:47Z</time>
      </trkpt>
      <trkpt lat="47.68208" lon="7.37255">
        <ele>282</ele>
        <time>2022-09-12T19:41:15Z</time>
      </trkpt>
      <trkpt lat="47.68145" lon="7.37052">
        <ele>282</ele>
        <time>2022-09-12T19:43:16Z</time>
      </trkpt>
      <trkpt lat="47.68062" lon="7.367">
        <ele>288</ele>
        <time>2022-09-12T19:46:37Z</time>
      </trkpt>
      <trkpt lat="47.68062" lon="7.36688">
        <ele>288</ele>
        <time>2022-09-12T19:46:43Z</time>
      </trkpt>
      <trkpt lat="47.68055" lon="7.36638">
        <ele>289</ele>
        <time>2022-09-12T19:47:11Z</time>
      </trkpt>
      <trkpt lat="47.68041" lon="7.36645">
        <ele>289</ele>
        <time>2022-09-12T19:47:23Z</time>
      </trkpt>
      <trkpt lat="47.67977" lon="7.36665">
        <ele>287</ele>
        <time>2022-09-12T19:48:15Z</time>
      </trkpt>
      <trkpt lat="47.67888" lon="7.36681">
        <ele>287</ele>
        <time>2022-09-12T19:49:27Z</time>
      </trkpt>
      <trkpt lat="47.67873" lon="7.36686">
        <ele>287</ele>
        <time>2022-09-12T19:49:39Z</time>
      </trkpt>
      <trkpt lat="47.67862" lon="7.36693">
        <ele>287</ele>
        <time>2022-09-12T19:49:49Z</time>
      </trkpt>
      <trkpt lat="47.67849" lon="7.36707">
        <ele>286</ele>
        <time>2022-09-12T19:50:02Z</time>
      </trkpt>
      <trkpt lat="47.67808" lon="7.36769">
        <ele>284</ele>
        <time>2022-09-12T19:50:48Z</time>
      </trkpt>
      <trkpt lat="47.67795" lon="7.36782">
        <ele>283</ele>
        <time>2022-09-12T19:51:01Z</time>
      </trkpt>
      <trkpt lat="47.67771" lon="7.36796">
        <ele>281</ele>
        <time>2022-09-12T19:51:22Z</time>
      </trkpt>
      <trkpt lat="47.67743" lon="7.36804">
        <ele>279</ele>
        <time>2022-09-12T19:51:44Z</time>
      </trkpt>
      <trkpt lat="47.67683" lon="7.36814">
        <ele>275</ele>
        <time>2022-09-12T19:52:33Z</time>
      </trkpt>
      <trkpt lat="47.67661" lon="7.36815">
        <ele>273</ele>
        <time>2022-09-12T19:52:50Z</time>
      </trkpt>
      <trkpt lat="47.67654" lon="7.36809">
        <ele>273</ele>
        <time>2022-09-12T19:52:57Z</time>
      </trkpt>
      <trkpt lat="47.67647" lon="7.36796">
        <ele>272</ele>
        <time>2022-09-12T19:53:06Z</time>
      </trkpt>
      <trkpt lat="47.67625" lon="7.36728">
        <ele>271</ele>
        <time>2022-09-12T19:53:47Z</time>
      </trkpt>
      <trkpt lat="47.67618" lon="7.36719">
        <ele>270</ele>
        <time>2022-09-12T19:53:54Z</time>
      </trkpt>
      <trkpt lat="47.67606" lon="7.36717">
        <ele>270</ele>
        <time>2022-09-12T19:54:04Z</time>
      </trkpt>
      <trkpt lat="47.67527" lon="7.36729">
        <ele>270</ele>
        <time>2022-09-12T19:55:07Z</time>
      </trkpt>
      <trkpt lat="47.67392" lon="7.36753">
        <ele>274</ele>
        <time>2022-09-12T19:56:56Z</time>
      </trkpt>
      <trkpt lat="47.67312" lon="7.36761">
        <ele>273</ele>
        <time>2022-09-12T19:58:00Z</time>
      </trkpt>
      <trkpt lat="47.67303" lon="7.36758">
        <ele>273</ele>
        <time>2022-09-12T19:58:08Z</time>
      </trkpt>
      <trkpt lat="47.67299" lon="7.36754">
        <ele>273</ele>
        <time>2022-09-12T19:58:11Z</time>
      </trkpt>
      <trkpt lat="47.67217" lon="7.36616">
        <ele>272</ele>
        <time>2022-09-12T19:59:51Z</time>
      </trkpt>
      <trkpt lat="47.672" lon="7.36574">
        <ele>272</ele>
        <time>2022-09-12T20:00:17Z</time>
      </trkpt>
      <trkpt lat="47.67174" lon="7.36492">
        <ele>271</ele>
        <time>2022-09-12T20:01:06Z</time>
      </trkpt>
      <trkpt lat="47.67158" lon="7.36458">
        <ele>270</ele>
        <time>2022-09-12T20:01:28Z</time>
      </trkpt>
      <trkpt lat="47.66956" lon="7.36166">
        <ele>278</ele>
        <time>2022-09-12T20:05:14Z</time>
      </trkpt>
      <trkpt lat="47.66864" lon="7.36052">
        <ele>282</ele>
        <time>2022-09-12T20:06:50Z</time>
      </trkpt>
      <trkpt lat="47.668" lon="7.35965">
        <ele>285</ele>
        <time>2022-09-12T20:07:59Z</time>
      </trkpt>
      <trkpt lat="47.66777" lon="7.35924">
        <ele>286</ele>
        <time>2022-09-12T20:08:28Z</time>
      </trkpt>
      <trkpt lat="47.66597" lon="7.35529">
        <ele>285</ele>
        <time>2022-09-12T20:12:45Z</time>
      </trkpt>
      <trkpt lat="47.66529" lon="7.35405">
        <ele>283</ele>
        <time>2022-09-12T20:14:12Z</time>
      </trkpt>
      <trkpt lat="47.66508" lon="7.3537">
        <ele>281</ele>
        <time>2022-09-12T20:14:37Z</time>
      </trkpt>
      <trkpt lat="47.66389" lon="7.35192">
        <ele>277</ele>
        <time>2022-09-12T20:16:52Z</time>
      </trkpt>
      <trkpt lat="47.66319" lon="7.35048">
        <ele>277</ele>
        <time>2022-09-12T20:18:28Z</time>
      </trkpt>
      <trkpt lat="47.66289" lon="7.34967">
        <ele>278</ele>
        <time>2022-09-12T20:19:18Z</time>
      </trkpt>
      <trkpt lat="47.66267" lon="7.34925">
        <ele>279</ele>
        <time>2022-09-12T20:19:46Z</time>
      </trkpt>
      <trkpt lat="47.66251" lon="7.34908">
        <ele>278</ele>
        <time>2022-09-12T20:20:02Z</time>
      </trkpt>
      <trkpt lat="47.6623" lon="7.34895">
        <ele>279</ele>
        <time>2022-09-12T20:20:20Z</time>
      </trkpt>
      <trkpt lat="47.66092" lon="7.34851">
        <ele>280</ele>
        <time>2022-09-12T20:22:13Z</time>
      </trkpt>
      <trkpt lat="47.66067" lon="7.34835">
        <ele>280</ele>
        <time>2022-09-12T20:22:35Z</time>
      </trkpt>
      <trkpt lat="47.65992" lon="7.3477">
        <ele>281</ele>
        <time>2022-09-12T20:23:45Z</time>
      </trkpt>
      <trkpt lat="47.65893" lon="7.34709">
        <ele>278</ele>
        <time>2022-09-12T20:25:11Z</time>
      </trkpt>
      <trkpt lat="47.65802" lon="7.34636">
        <ele>280</ele>
        <time>2022-09-12T20:26:33Z</time>
      </trkpt>
      <trkpt lat="47.65745" lon="7.34596">
        <ele>281</ele>
        <time>2022-09-12T20:27:24Z</time>
      </trkpt>
      <trkpt lat="47.65651" lon="7.34507">
        <ele>282</ele>
        <time>2022-09-12T20:28:53Z</time>
      </trkpt>
      <trkpt lat="47.65638" lon="7.34487">
        <ele>284</ele>
        <time>2022-09-12T20:29:08Z</time>
      </trkpt>
      <trkpt lat="47.65612" lon="7.3444">
        <ele>288</ele>
        <time>2022-09-12T20:29:41Z</time>
      </trkpt>
      <trkpt lat="47.65599" lon="7.34421">
        <ele>290</ele>
        <time>2022-09-12T20:29:56Z</time>
      </trkpt>
      <trkpt lat="47.65559" lon="7.3438">
        <ele>293</ele>
        <time>2022-09-12T20:30:34Z</time>
      </trkpt>
      <trkpt lat="47.65543" lon="7.34361">
        <ele>295</ele>
        <time>2022-09-12T20:30:51Z</time>
      </trkpt>
      <trkpt lat="47.65536" lon="7.34343">
        <ele>296</ele>
        <time>2022-09-12T20:31:02Z</time>
      </trkpt>
      <trkpt lat="47.65535" lon="7.34323">
        <ele>297</ele>
        <time>2022-09-12T20:31:13Z</time>
      </trkpt>
      <trkpt lat="47.6554" lon="7.34269">
        <ele>297</ele>
        <time>2022-09-12T20:31:42Z</time>
      </trkpt>
      <trkpt lat="47.65541" lon="7.34232">
        <ele>298</ele>
        <time>2022-09-12T20:32:02Z</time>
      </trkpt>
      <trkpt lat="47.65539" lon="7.34167">
        <ele>299</ele>
        <time>2022-09-12T20:32:37Z</time>
      </trkpt>
      <trkpt lat="47.65536" lon="7.34136">
        <ele>300</ele>
        <time>2022-09-12T20:32:54Z</time>
      </trkpt>
      <trkpt lat="47.65529" lon="7.34099">
        <ele>301</ele>
        <time>2022-09-12T20:33:15Z</time>
      </trkpt>
      <trkpt lat="47.65497" lon="7.3397">
        <ele>303</ele>
        <time>2022-09-12T20:34:29Z</time>
      </trkpt>
      <trkpt lat="47.65487" lon="7.33942">
        <ele>304</ele>
        <time>2022-09-12T20:34:46Z</time>
      </trkpt>
      <trkpt lat="47.65476" lon="7.33916">
        <ele>305</ele>
        <time>2022-09-12T20:35:03Z</time>
      </trkpt>
      <trkpt lat="47.65451" lon="7.33874">
        <ele>307</ele>
        <time>2022-09-12T20:35:33Z</time>
      </trkpt>
      <trkpt lat="47.65415" lon="7.33821">
        <ele>307</ele>
        <time>2022-09-12T20:36:14Z</time>
      </trkpt>
      <trkpt lat="47.65379" lon="7.33752">
        <ele>305</ele>
        <time>2022-09-12T20:37:01Z</time>
      </trkpt>
      <trkpt lat="47.65353" lon="7.33699">
        <ele>302</ele>
        <time>2022-09-12T20:37:36Z</time>
      </trkpt>
      <trkpt lat="47.65315" lon="7.33575">
        <ele>298</ele>
        <time>2022-09-12T20:38:50Z</time>
      </trkpt>
      <trkpt lat="47.65281" lon="7.33492">
        <ele>296</ele>
        <time>2022-09-12T20:39:42Z</time>
      </trkpt>
      <trkpt lat="47.65248" lon="7.33435">
        <ele>293</ele>
        <time>2022-09-12T20:40:22Z</time>
      </trkpt>
      <trkpt lat="47.65232" lon="7.33422">
        <ele>293</ele>
        <time>2022-09-12T20:40:37Z</time>
      </trkpt>
      <trkpt lat="47.65215" lon="7.33419">
        <ele>292</ele>
        <time>2022-09-12T20:40:51Z</time>
      </trkpt>
      <trkpt lat="47.65178" lon="7.33427">
        <ele>291</ele>
        <time>2022-09-12T20:41:21Z</time>
      </trkpt>
      <trkpt lat="47.65171" lon="7.33426">
        <ele>291</ele>
        <time>2022-09-12T20:41:26Z</time>
      </trkpt>
      <trkpt lat="47.65158" lon="7.3342">
        <ele>291</ele>
        <time>2022-09-12T20:41:37Z</time>
      </trkpt>
      <trkpt lat="47.65147" lon="7.33409">
        <ele>290</ele>
        <time>2022-09-12T20:41:48Z</time>
      </trkpt>
      <trkpt lat="47.65135" lon="7.33391">
        <ele>290</ele>
        <time>2022-09-12T20:42:02Z</time>
      </trkpt>
      <trkpt lat="47.65121" lon="7.33359">
        <ele>290</ele>
        <time>2022-09-12T20:42:22Z</time>
      </trkpt>
      <trkpt lat="47.65112" lon="7.33326">
        <ele>290</ele>
        <time>2022-09-12T20:42:41Z</time>
      </trkpt>
      <trkpt lat="47.65032" lon="7.32637">
        <ele>304</ele>
        <time>2022-09-12T20:48:58Z</time>
      </trkpt>
      <trkpt lat="47.65027" lon="7.32612">
        <ele>304</ele>
        <time>2022-09-12T20:49:12Z</time>
      </trkpt>
      <trkpt lat="47.65019" lon="7.32586">
        <ele>305</ele>
        <time>2022-09-12T20:49:28Z</time>
      </trkpt>
      <trkpt lat="47.64864" lon="7.3224">
        <ele>312</ele>
        <time>2022-09-12T20:53:12Z</time>
      </trkpt>
      <trkpt lat="47.64823" lon="7.32142">
        <ele>311</ele>
        <time>2022-09-12T20:54:14Z</time>
      </trkpt>
      <trkpt lat="47.64708" lon="7.31879">
        <ele>310</ele>
        <time>2022-09-12T20:57:03Z</time>
      </trkpt>
      <trkpt lat="47.64632" lon="7.31699">
        <ele>314</ele>
        <time>2022-09-12T20:58:58Z</time>
      </trkpt>
      <trkpt lat="47.64563" lon="7.31524">
        <ele>315</ele>
        <time>2022-09-12T21:00:47Z</time>
      </trkpt>
      <trkpt lat="47.64522" lon="7.31427">
        <ele>315</ele>
        <time>2022-09-12T21:01:49Z</time>
      </trkpt>
      <trkpt lat="47.64487" lon="7.31337">
        <ele>313</ele>
        <time>2022-09-12T21:02:45Z</time>
      </trkpt>
      <trkpt lat="47.64484" lon="7.31319">
        <ele>312</ele>
        <time>2022-09-12T21:02:55Z</time>
      </trkpt>
      <trkpt lat="47.64484" lon="7.31286">
        <ele>311</ele>
        <time>2022-09-12T21:03:13Z</time>
      </trkpt>
      <trkpt lat="47.64489" lon="7.31269">
        <ele>311</ele>
        <time>2022-09-12T21:03:23Z</time>
      </trkpt>
      <trkpt lat="47.64539" lon="7.31144">
        <ele>311</ele>
        <time>2022-09-12T21:04:41Z</time>
      </trkpt>
      <trkpt lat="47.64542" lon="7.31127">
        <ele>311</ele>
        <time>2022-09-12T21:04:51Z</time>
      </trkpt>
      <trkpt lat="47.64541" lon="7.31113">
        <ele>311</ele>
        <time>2022-09-12T21:04:58Z</time>
      </trkpt>
      <trkpt lat="47.64536" lon="7.311">
        <ele>311</ele>
        <time>2022-09-12T21:05:07Z</time>
      </trkpt>
      <trkpt lat="47.64506" lon="7.31053">
        <ele>310</ele>
        <time>2022-09-12T21:05:41Z</time>
      </trkpt>
      <trkpt lat="47.64464" lon="7.31006">
        <ele>310</ele>
        <time>2022-09-12T21:06:24Z</time>
      </trkpt>
      <trkpt lat="47.64446" lon="7.30991">
        <ele>311</ele>
        <time>2022-09-12T21:06:40Z</time>
      </trkpt>
      <trkpt lat="47.64367" lon="7.30938">
        <ele>314</ele>
        <time>2022-09-12T21:07:50Z</time>
      </trkpt>
      <trkpt lat="47.64356" lon="7.30934">
        <ele>314</ele>
        <time>2022-09-12T21:07:59Z</time>
      </trkpt>
      <trkpt lat="47.64338" lon="7.30934">
        <ele>315</ele>
        <time>2022-09-12T21:08:13Z</time>
      </trkpt>
      <trkpt lat="47.64324" lon="7.30939">
        <ele>315</ele>
        <time>2022-09-12T21:08:25Z</time>
      </trkpt>
      <trkpt lat="47.64252" lon="7.30997">
        <ele>310</ele>
        <time>2022-09-12T21:09:30Z</time>
      </trkpt>
      <trkpt lat="47.64241" lon="7.30999">
        <ele>310</ele>
        <time>2022-09-12T21:09:39Z</time>
      </trkpt>
      <trkpt lat="47.64231" lon="7.30997">
        <ele>310</ele>
        <time>2022-09-12T21:09:47Z</time>
      </trkpt>
      <trkpt lat="47.64224" lon="7.30992">
        <ele>310</ele>
        <time>2022-09-12T21:09:53Z</time>
      </trkpt>
      <trkpt lat="47.64212" lon="7.30978">
        <ele>310</ele>
        <time>2022-09-12T21:10:06Z</time>
      </trkpt>
      <trkpt lat="47.64105" lon="7.30759">
        <ele>314</ele>
        <time>2022-09-12T21:12:31Z</time>
      </trkpt>
      <trkpt lat="47.64091" lon="7.30737">
        <ele>314</ele>
        <time>2022-09-12T21:12:48Z</time>
      </trkpt>
      <trkpt lat="47.64071" lon="7.30717">
        <ele>316</ele>
        <time>2022-09-12T21:13:07Z</time>
      </trkpt>
      <trkpt lat="47.64022" lon="7.30676">
        <ele>319</ele>
        <time>2022-09-12T21:13:52Z</time>
      </trkpt>
      <trkpt lat="47.63925" lon="7.30617">
        <ele>314</ele>
        <time>2022-09-12T21:15:16Z</time>
      </trkpt>
      <trkpt lat="47.63903" lon="7.306">
        <ele>312</ele>
        <time>2022-09-12T21:15:36Z</time>
      </trkpt>
      <trkpt lat="47.63676" lon="7.30358">
        <ele>304</ele>
        <time>2022-09-12T21:19:20Z</time>
      </trkpt>
      <trkpt lat="47.63492" lon="7.30206">
        <ele>304</ele>
        <time>2022-09-12T21:22:08Z</time>
      </trkpt>
      <trkpt lat="47.63459" lon="7.30175">
        <ele>304</ele>
        <time>2022-09-12T21:22:40Z</time>
      </trkpt>
      <trkpt lat="47.63427" lon="7.3014">
        <ele>304</ele>
        <time>2022-09-12T21:23:11Z</time>
      </trkpt>
      <trkpt lat="47.6322" lon="7.29877">
        <ele>314</ele>
        <time>2022-09-12T21:26:50Z</time>
      </trkpt>
      <trkpt lat="47.63154" lon="7.29801">
        <ele>313</ele>
        <time>2022-09-12T21:27:57Z</time>
      </trkpt>
      <trkpt lat="47.62988" lon="7.29606">
        <ele>312</ele>
        <time>2022-09-12T21:30:46Z</time>
      </trkpt>
      <trkpt lat="47.62896" lon="7.29509">
        <ele>315</ele>
        <time>2022-09-12T21:32:16Z</time>
      </trkpt>
      <trkpt lat="47.62872" lon="7.2949">
        <ele>316</ele>
        <time>2022-09-12T21:32:38Z</time>
      </trkpt>
      <trkpt lat="47.62774" lon="7.29462">
        <ele>315</ele>
        <time>2022-09-12T21:33:58Z</time>
      </trkpt>
      <trkpt lat="47.62688" lon="7.29433">
        <ele>312</ele>
        <time>2022-09-12T21:35:09Z</time>
      </trkpt>
      <trkpt lat="47.62581" lon="7.29404">
        <ele>305</ele>
        <time>2022-09-12T21:36:36Z</time>
      </trkpt>
      <trkpt lat="47.62569" lon="7.29399">
        <ele>304</ele>
        <time>2022-09-12T21:36:46Z</time>
      </trkpt>
      <trkpt lat="47.62537" lon="7.29379">
        <ele>302</ele>
        <time>2022-09-12T21:37:14Z</time>
      </trkpt>
      <trkpt lat="47.62478" lon="7.29309">
        <ele>297</ele>
        <time>2022-09-12T21:38:14Z</time>
      </trkpt>
      <trkpt lat="47.62376" lon="7.29231">
        <ele>291</ele>
        <time>2022-09-12T21:39:46Z</time>
      </trkpt>
      <trkpt lat="47.62363" lon="7.29226">
        <ele>291</ele>
        <time>2022-09-12T21:39:57Z</time>
      </trkpt>
      <trkpt lat="47.62355" lon="7.29225">
        <ele>290</ele>
        <time>2022-09-12T21:40:03Z</time>
      </trkpt>
      <trkpt lat="47.623" lon="7.29227">
        <ele>289</ele>
        <time>2022-09-12T21:40:47Z</time>
      </trkpt>
      <trkpt lat="47.62284" lon="7.29227">
        <ele>289</ele>
        <time>2022-09-12T21:41:00Z</time>
      </trkpt>
      <trkpt lat="47.62161" lon="7.29232">
        <ele>289</ele>
        <time>2022-09-12T21:42:38Z</time>
      </trkpt>
      <trkpt lat="47.62161" lon="7.29242">
        <ele>289</ele>
        <time>2022-09-12T21:42:44Z</time>
      </trkpt>
      <trkpt lat="47.62155" lon="7.29241">
        <ele>289</ele>
        <time>2022-09-12T21:42:49Z</time>
      </trkpt>
      <trkpt lat="47.62161" lon="7.29242">
        <ele>289</ele>
        <time>2022-09-12T21:42:54Z</time>
      </trkpt>
      <trkpt lat="47.62161" lon="7.29179">
        <ele>288</ele>
        <time>2022-09-12T21:43:28Z</time>
      </trkpt>
      <trkpt lat="47.62156" lon="7.28927">
        <ele>288</ele>
        <time>2022-09-12T21:45:44Z</time>
      </trkpt>
      <trkpt lat="47.62152" lon="7.28829">
        <ele>287</ele>
        <time>2022-09-12T21:46:37Z</time>
      </trkpt>
      <trkpt lat="47.62147" lon="7.28764">
        <ele>286</ele>
        <time>2022-09-12T21:47:12Z</time>
      </trkpt>
      <trkpt lat="47.62142" lon="7.28725">
        <ele>286</ele>
        <time>2022-09-12T21:47:33Z</time>
      </trkpt>
      <trkpt lat="47.62083" lon="7.28399">
        <ele>286</ele>
        <time>2022-09-12T21:50:35Z</time>
      </trkpt>
      <trkpt lat="47.62079" lon="7.28354">
        <ele>286</ele>
        <time>2022-09-12T21:51:00Z</time>
      </trkpt>
      <trkpt lat="47.62069" lon="7.28309">
        <ele>286</ele>
        <time>2022-09-12T21:51:26Z</time>
      </trkpt>
      <trkpt lat="47.62063" lon="7.28251">
        <ele>287</ele>
        <time>2022-09-12T21:51:57Z</time>
      </trkpt>
      <trkpt lat="47.62059" lon="7.28204">
        <ele>286</ele>
        <time>2022-09-12T21:52:23Z</time>
      </trkpt>
      <trkpt lat="47.62043" lon="7.28076">
        <ele>286</ele>
        <time>2022-09-12T21:53:33Z</time>
      </trkpt>
      <trkpt lat="47.62038" lon="7.28019">
        <ele>286</ele>
        <time>2022-09-12T21:54:04Z</time>
      </trkpt>
      <trkpt lat="47.62034" lon="7.27989">
        <ele>286</ele>
        <time>2022-09-12T21:54:21Z</time>
      </trkpt>
      <trkpt lat="47.62025" lon="7.2795">
        <ele>286</ele>
        <time>2022-09-12T21:54:43Z</time>
      </trkpt>
      <trkpt lat="47.62019" lon="7.27885">
        <ele>286</ele>
        <time>2022-09-12T21:55:18Z</time>
      </trkpt>
      <trkpt lat="47.62015" lon="7.27813">
        <ele>288</ele>
        <time>2022-09-12T21:55:57Z</time>
      </trkpt>
      <trkpt lat="47.62015" lon="7.27717">
        <ele>288</ele>
        <time>2022-09-12T21:56:49Z</time>
      </trkpt>
      <trkpt lat="47.62038" lon="7.27559">
        <ele>286</ele>
        <time>2022-09-12T21:58:16Z</time>
      </trkpt>
      <trkpt lat="47.62045" lon="7.27529">
        <ele>286</ele>
        <time>2022-09-12T21:58:33Z</time>
      </trkpt>
      <trkpt lat="47.62051" lon="7.27514">
        <ele>285</ele>
        <time>2022-09-12T21:58:43Z</time>
      </trkpt>
      <trkpt lat="47.62074" lon="7.2747">
        <ele>285</ele>
        <time>2022-09-12T21:59:13Z</time>
      </trkpt>
      <trkpt lat="47.62091" lon="7.27442">
        <ele>285</ele>
        <time>2022-09-12T21:59:33Z</time>
      </trkpt>
      <trkpt lat="47.62103" lon="7.2743">
        <ele>284</ele>
        <time>2022-09-12T21:59:45Z</time>
      </trkpt>
      <trkpt lat="47.62091" lon="7.27409">
        <ele>285</ele>
        <time>2022-09-12T22:00:00Z</time>
      </trkpt>
      <trkpt lat="47.6208" lon="7.27397">
        <ele>286</ele>
        <time>2022-09-12T22:00:11Z</time>
      </trkpt>
      <trkpt lat="47.6196" lon="7.27323">
        <ele>292</ele>
        <time>2022-09-12T22:01:55Z</time>
      </trkpt>
      <trkpt lat="47.61937" lon="7.27298">
        <ele>293</ele>
        <time>2022-09-12T22:02:17Z</time>
      </trkpt>
      <trkpt lat="47.61925" lon="7.27277">
        <ele>294</ele>
        <time>2022-09-12T22:02:32Z</time>
      </trkpt>
      <trkpt lat="47.61915" lon="7.27217">
        <ele>295</ele>
        <time>2022-09-12T22:03:06Z</time>
      </trkpt>
      <trkpt lat="47.61908" lon="7.27156">
        <ele>294</ele>
        <time>2022-09-12T22:03:39Z</time>
      </trkpt>
      <trkpt lat="47.61904" lon="7.27133">
        <ele>293</ele>
        <time>2022-09-12T22:03:52Z</time>
      </trkpt>
      <trkpt lat="47.61896" lon="7.27108">
        <ele>292</ele>
        <time>2022-09-12T22:04:07Z</time>
      </trkpt>
      <trkpt lat="47.61868" lon="7.27049">
        <ele>292</ele>
        <time>2022-09-12T22:04:46Z</time>
      </trkpt>
      <trkpt lat="47.61818" lon="7.26954">
        <ele>294</ele>
        <time>2022-09-12T22:05:51Z</time>
      </trkpt>
      <trkpt lat="47.61698" lon="7.26786">
        <ele>292</ele>
        <time>2022-09-12T22:08:03Z</time>
      </trkpt>
      <trkpt lat="47.61673" lon="7.26744">
        <ele>292</ele>
        <time>2022-09-12T22:08:33Z</time>
      </trkpt>
      <trkpt lat="47.61664" lon="7.26709">
        <ele>291</ele>
        <time>2022-09-12T22:08:53Z</time>
      </trkpt>
      <trkpt lat="47.61659" lon="7.26664">
        <ele>290</ele>
        <time>2022-09-12T22:09:18Z</time>
      </trkpt>
      <trkpt lat="47.61651" lon="7.26608">
        <ele>293</ele>
        <time>2022-09-12T22:09:49Z</time>
      </trkpt>
      <trkpt lat="47.61638" lon="7.26566">
        <ele>294</ele>
        <time>2022-09-12T22:10:14Z</time>
      </trkpt>
      <trkpt lat="47.61603" lon="7.26495">
        <ele>296</ele>
        <time>2022-09-12T22:11:01Z</time>
      </trkpt>
      <trkpt lat="47.61479" lon="7.26269">
        <ele>306</ele>
        <time>2022-09-12T22:13:39Z</time>
      </trkpt>
      <trkpt lat="47.61467" lon="7.2625">
        <ele>307</ele>
        <time>2022-09-12T22:13:53Z</time>
      </trkpt>
      <trkpt lat="47.61453" lon="7.26237">
        <ele>309</ele>
        <time>2022-09-12T22:14:06Z</time>
      </trkpt>
      <trkpt lat="47.61439" lon="7.26229">
        <ele>310</ele>
        <time>2022-09-12T22:14:18Z</time>
      </trkpt>
      <trkpt lat="47.614" lon="7.26218">
        <ele>313</ele>
        <time>2022-09-12T22:14:50Z</time>
      </trkpt>
      <trkpt lat="47.6128" lon="7.26196">
        <ele>323</ele>
        <time>2022-09-12T22:16:26Z</time>
      </trkpt>
      <trkpt lat="47.61238" lon="7.26192">
        <ele>327</ele>
        <time>2022-09-12T22:17:00Z</time>
      </trkpt>
      <trkpt lat="47.61104" lon="7.26195">
        <ele>337</ele>
        <time>2022-09-12T22:18:47Z</time>
      </trkpt>
      <trkpt lat="47.61066" lon="7.26192">
        <ele>340</ele>
        <time>2022-09-12T22:19:18Z</time>
      </trkpt>
      <trkpt lat="47.61003" lon="7.26182">
        <ele>346</ele>
        <time>2022-09-12T22:20:09Z</time>
      </trkpt>
      <trkpt lat="47.60858" lon="7.26118">
        <ele>350</ele>
        <time>2022-09-12T22:22:10Z</time>
      </trkpt>
      <trkpt lat="47.60817" lon="7.26094">
        <ele>352</ele>
        <time>2022-09-12T22:22:45Z</time>
      </trkpt>
      <trkpt lat="47.60797" lon="7.26071">
        <ele>354</ele>
        <time>2022-09-12T22:23:05Z</time>
      </trkpt>
      <trkpt lat="47.60756" lon="7.26016">
        <ele>353</ele>
        <time>2022-09-12T22:23:50Z</time>
      </trkpt>
      <trkpt lat="47.60707" lon="7.25954">
        <ele>356</ele>
        <time>2022-09-12T22:24:41Z</time>
      </trkpt>
      <trkpt lat="47.60673" lon="7.25906">
        <ele>357</ele>
        <time>2022-09-12T22:25:19Z</time>
      </trkpt>
      <trkpt lat="47.60646" lon="7.25851">
        <ele>358</ele>
        <time>2022-09-12T22:25:56Z</time>
      </trkpt>
      <trkpt lat="47.6061" lon="7.25799">
        <ele>360</ele>
        <time>2022-09-12T22:26:36Z</time>
      </trkpt>
      <trkpt lat="47.60575" lon="7.25771">
        <ele>361</ele>
        <time>2022-09-12T22:27:08Z</time>
      </trkpt>
      <trkpt lat="47.60509" lon="7.25747">
        <ele>359</ele>
        <time>2022-09-12T22:28:02Z</time>
      </trkpt>
      <trkpt lat="47.60471" lon="7.25729">
        <ele>358</ele>
        <time>2022-09-12T22:28:34Z</time>
      </trkpt>
      <trkpt lat="47.60444" lon="7.25709">
        <ele>358</ele>
        <time>2022-09-12T22:28:58Z</time>
      </trkpt>
      <trkpt lat="47.6042" lon="7.25683">
        <ele>357</ele>
        <time>2022-09-12T22:29:22Z</time>
      </trkpt>
      <trkpt lat="47.60406" lon="7.25663">
        <ele>358</ele>
        <time>2022-09-12T22:29:37Z</time>
      </trkpt>
      <trkpt lat="47.60385" lon="7.25628">
        <ele>360</ele>
        <time>2022-09-12T22:30:03Z</time>
      </trkpt>
      <trkpt lat="47.60359" lon="7.25576">
        <ele>363</ele>
        <time>2022-09-12T22:30:38Z</time>
      </trkpt>
      <trkpt lat="47.60326" lon="7.25503">
        <ele>368</ele>
        <time>2022-09-12T22:31:25Z</time>
      </trkpt>
      <trkpt lat="47.60308" lon="7.25479">
        <ele>369</ele>
        <time>2022-09-12T22:31:45Z</time>
      </trkpt>
      <trkpt lat="47.60283" lon="7.25469">
        <ele>371</ele>
        <time>2022-09-12T22:32:05Z</time>
      </trkpt>
      <trkpt lat="47.60225" lon="7.25465">
        <ele>373</ele>
        <time>2022-09-12T22:32:52Z</time>
      </trkpt>
      <trkpt lat="47.60152" lon="7.25451">
        <ele>374</ele>
        <time>2022-09-12T22:33:51Z</time>
      </trkpt>
      <trkpt lat="47.60085" lon="7.25427">
        <ele>376</ele>
        <time>2022-09-12T22:34:46Z</time>
      </trkpt>
      <trkpt lat="47.60067" lon="7.25417">
        <ele>377</ele>
        <time>2022-09-12T22:35:01Z</time>
      </trkpt>
      <trkpt lat="47.6006" lon="7.25409">
        <ele>377</ele>
        <time>2022-09-12T22:35:08Z</time>
      </trkpt>
      <trkpt lat="47.60054" lon="7.25395">
        <ele>377</ele>
        <time>2022-09-12T22:35:17Z</time>
      </trkpt>
      <trkpt lat="47.60048" lon="7.25372">
        <ele>377</ele>
        <time>2022-09-12T22:35:31Z</time>
      </trkpt>
      <trkpt lat="47.6004" lon="7.25353">
        <ele>378</ele>
        <time>2022-09-12T22:35:43Z</time>
      </trkpt>
      <trkpt lat="47.6002" lon="7.2532">
        <ele>378</ele>
        <time>2022-09-12T22:36:07Z</time>
      </trkpt>
      <trkpt lat="47.59989" lon="7.25282">
        <ele>377</ele>
        <time>2022-09-12T22:36:39Z</time>
      </trkpt>
      <trkpt lat="47.59946" lon="7.25249">
        <ele>375</ele>
        <time>2022-09-12T22:37:18Z</time>
      </trkpt>
      <trkpt lat="47.59934" lon="7.25248">
        <ele>375</ele>
        <time>2022-09-12T22:37:27Z</time>
      </trkpt>
      <trkpt lat="47.5991" lon="7.25258">
        <ele>375</ele>
        <time>2022-09-12T22:37:47Z</time>
      </trkpt>
      <trkpt lat="47.59842" lon="7.25293">
        <ele>366</ele>
        <time>2022-09-12T22:38:45Z</time>
      </trkpt>
      <trkpt lat="47.59791" lon="7.25313">
        <ele>363</ele>
        <time>2022-09-12T22:39:27Z</time>
      </trkpt>
      <trkpt lat="47.59701" lon="7.2536">
        <ele>357</ele>
        <time>2022-09-12T22:40:43Z</time>
      </trkpt>
      <trkpt lat="47.59679" lon="7.25366">
        <ele>356</ele>
        <time>2022-09-12T22:41:01Z</time>
      </trkpt>
      <trkpt lat="47.59624" lon="7.25366">
        <ele>350</ele>
        <time>2022-09-12T22:41:45Z</time>
      </trkpt>
      <trkpt lat="47.59612" lon="7.2537">
        <ele>349</ele>
        <time>2022-09-12T22:41:55Z</time>
      </trkpt>
      <trkpt lat="47.59508" lon="7.25411">
        <ele>342</ele>
        <time>2022-09-12T22:43:21Z</time>
      </trkpt>
      <trkpt lat="47.59481" lon="7.2543">
        <ele>340</ele>
        <time>2022-09-12T22:43:45Z</time>
      </trkpt>
      <trkpt lat="47.59419" lon="7.25486">
        <ele>335</ele>
        <time>2022-09-12T22:44:44Z</time>
      </trkpt>
      <trkpt lat="47.59404" lon="7.25494">
        <ele>334</ele>
        <time>2022-09-12T22:44:56Z</time>
      </trkpt>
      <trkpt lat="47.5938" lon="7.25501">
        <ele>333</ele>
        <time>2022-09-12T22:45:16Z</time>
      </trkpt>
      <trkpt lat="47.59299" lon="7.25509">
        <ele>329</ele>
        <time>2022-09-12T22:46:21Z</time>
      </trkpt>
      <trkpt lat="47.59281" lon="7.2551">
        <ele>328</ele>
        <time>2022-09-12T22:46:35Z</time>
      </trkpt>
      <trkpt lat="47.59223" lon="7.25502">
        <ele>323</ele>
        <time>2022-09-12T22:47:22Z</time>
      </trkpt>
      <trkpt lat="47.59193" lon="7.25501">
        <ele>322</ele>
        <time>2022-09-12T22:47:46Z</time>
      </trkpt>
      <trkpt lat="47.59094" lon="7.25502">
        <ele>317</ele>
        <time>2022-09-12T22:49:05Z</time>
      </trkpt>
      <trkpt lat="47.59074" lon="7.25493">
        <ele>317</ele>
        <time>2022-09-12T22:49:22Z</time>
      </trkpt>
      <trkpt lat="47.59062" lon="7.25487">
        <ele>317</ele>
        <time>2022-09-12T22:49:32Z</time>
      </trkpt>
      <trkpt lat="47.59054" lon="7.25472">
        <ele>316</ele>
        <time>2022-09-12T22:49:42Z</time>
      </trkpt>
      <trkpt lat="47.59051" lon="7.25461">
        <ele>316</ele>
        <time>2022-09-12T22:49:49Z</time>
      </trkpt>
      <trkpt lat="47.59031" lon="7.25466">
        <ele>316</ele>
        <time>2022-09-12T22:50:05Z</time>
      </trkpt>
      <trkpt lat="47.59007" lon="7.2546">
        <ele>316</ele>
        <time>2022-09-12T22:50:25Z</time>
      </trkpt>
      <trkpt lat="47.58981" lon="7.25444">
        <ele>316</ele>
        <time>2022-09-12T22:50:47Z</time>
      </trkpt>
      <trkpt lat="47.58964" lon="7.25434">
        <ele>316</ele>
        <time>2022-09-12T22:51:02Z</time>
      </trkpt>
      <trkpt lat="47.58946" lon="7.25415">
        <ele>316</ele>
        <time>2022-09-12T22:51:19Z</time>
      </trkpt>
      <trkpt lat="47.58892" lon="7.25336">
        <ele>316</ele>
        <time>2022-09-12T22:52:20Z</time>
      </trkpt>
      <trkpt lat="47.58888" lon="7.25324">
        <ele>316</ele>
        <time>2022-09-12T22:52:27Z</time>
      </trkpt>
      <trkpt lat="47.58883" lon="7.25316">
        <ele>316</ele>
        <time>2022-09-12T22:52:33Z</time>
      </trkpt>
      <trkpt lat="47.58879" lon="7.25314">
        <ele>316</ele>
        <time>2022-09-12T22:52:37Z</time>
      </trkpt>
      <trkpt lat="47.58873" lon="7.25315">
        <ele>316</ele>
        <time>2022-09-12T22:52:41Z</time>
      </trkpt>
      <trkpt lat="47.58868" lon="7.25322">
        <ele>316</ele>
        <time>2022-09-12T22:52:47Z</time>
      </trkpt>
      <trkpt lat="47.58854" lon="7.25334">
        <ele>316</ele>
        <time>2022-09-12T22:53:00Z</time>
      </trkpt>
      <trkpt lat="47.5873" lon="7.2547">
        <ele>318</ele>
        <time>2022-09-12T22:55:03Z</time>
      </trkpt>
      <trkpt lat="47.58684" lon="7.25518">
        <ele>320</ele>
        <time>2022-09-12T22:55:48Z</time>
      </trkpt>
      <trkpt lat="47.58665" lon="7.25533">
        <ele>320</ele>
        <time>2022-09-12T22:56:06Z</time>
      </trkpt>
      <trkpt lat="47.58649" lon="7.25536">
        <ele>321</ele>
        <time>2022-09-12T22:56:19Z</time>
      </trkpt>
      <trkpt lat="47.58636" lon="7.25535">
        <ele>322</ele>
        <time>2022-09-12T22:56:29Z</time>
      </trkpt>
      <trkpt lat="47.58625" lon="7.25522">
        <ele>323</ele>
        <time>2022-09-12T22:56:40Z</time>
      </trkpt>
      <trkpt lat="47.58612" lon="7.25502">
        <ele>324</ele>
        <time>2022-09-12T22:56:55Z</time>
      </trkpt>
      <trkpt lat="47.58582" lon="7.25442">
        <ele>324</ele>
        <time>2022-09-12T22:57:36Z</time>
      </trkpt>
      <trkpt lat="47.58521" lon="7.2529">
        <ele>322</ele>
        <time>2022-09-12T22:59:11Z</time>
      </trkpt>
      <trkpt lat="47.58444" lon="7.25108">
        <ele>322</ele>
        <time>2022-09-12T23:01:07Z</time>
      </trkpt>
      <trkpt lat="47.58376" lon="7.24925">
        <ele>325</ele>
        <time>2022-09-12T23:03:00Z</time>
      </trkpt>
      <trkpt lat="47.5837" lon="7.24906">
        <ele>325</ele>
        <time>2022-09-12T23:03:11Z</time>
      </trkpt>
      <trkpt lat="47.5834" lon="7.24826">
        <ele>327</ele>
        <time>2022-09-12T23:04:01Z</time>
      </trkpt>
      <trkpt lat="47.58319" lon="7.24776">
        <ele>329</ele>
        <time>2022-09-12T23:04:33Z</time>
      </trkpt>
      <trkpt lat="47.58309" lon="7.24763">
        <ele>329</ele>
        <time>2022-09-12T23:04:43Z</time>
      </trkpt>
      <trkpt lat="47.58299" lon="7.24759">
        <ele>330</ele>
        <time>2022-09-12T23:04:52Z</time>
      </trkpt>
      <trkpt lat="47.5828" lon="7.2476">
        <ele>330</ele>
        <time>2022-09-12T23:05:07Z</time>
      </trkpt>
      <trkpt lat="47.58209" lon="7.24783">
        <ele>331</ele>
        <time>2022-09-12T23:06:05Z</time>
      </trkpt>
      <trkpt lat="47.58198" lon="7.24785">
        <ele>332</ele>
        <time>2022-09-12T23:06:14Z</time>
      </trkpt>
      <trkpt lat="47.58187" lon="7.24783">
        <ele>332</ele>
        <time>2022-09-12T23:06:23Z</time>
      </trkpt>
      <trkpt lat="47.58098" lon="7.24743">
        <ele>336</ele>
        <time>2022-09-12T23:07:37Z</time>
      </trkpt>
      <trkpt lat="47.58083" lon="7.2474">
        <ele>336</ele>
        <time>2022-09-12T23:07:49Z</time>
      </trkpt>
      <trkpt lat="47.57869" lon="7.24748">
        <ele>340</ele>
        <time>2022-09-12T23:10:41Z</time>
      </trkpt>
      <trkpt lat="47.57849" lon="7.24747">
        <ele>340</ele>
        <time>2022-09-12T23:10:57Z</time>
      </trkpt>
      <trkpt lat="47.57811" lon="7.24731">
        <ele>340</ele>
        <time>2022-09-12T23:11:28Z</time>
      </trkpt>
      <trkpt lat="47.57626" lon="7.2461">
        <ele>342</ele>
        <time>2022-09-12T23:14:10Z</time>
      </trkpt>
      <trkpt lat="47.57564" lon="7.24566">
        <ele>343</ele>
        <time>2022-09-12T23:15:05Z</time>
      </trkpt>
      <trkpt lat="47.57534" lon="7.24531">
        <ele>344</ele>
        <time>2022-09-12T23:15:36Z</time>
      </trkpt>
      <trkpt lat="47.57442" lon="7.24412">
        <ele>347</ele>
        <time>2022-09-12T23:17:14Z</time>
      </trkpt>
      <trkpt lat="47.57418" lon="7.24384">
        <ele>348</ele>
        <time>2022-09-12T23:17:38Z</time>
      </trkpt>
      <trkpt lat="47.57282" lon="7.24283">
        <ele>349</ele>
        <time>2022-09-12T23:19:40Z</time>
      </trkpt>
      <trkpt lat="47.57271" lon="7.24272">
        <ele>349</ele>
        <time>2022-09-12T23:19:50Z</time>
      </trkpt>
      <trkpt lat="47.57266" lon="7.24264">
        <ele>350</ele>
        <time>2022-09-12T23:19:56Z</time>
      </trkpt>
      <trkpt lat="47.57252" lon="7.24221">
        <ele>352</ele>
        <time>2022-09-12T23:20:22Z</time>
      </trkpt>
      <trkpt lat="47.57247" lon="7.24211">
        <ele>353</ele>
        <time>2022-09-12T23:20:29Z</time>
      </trkpt>
      <trkpt lat="47.57239" lon="7.24208">
        <ele>353</ele>
        <time>2022-09-12T23:20:36Z</time>
      </trkpt>
      <trkpt lat="47.57199" lon="7.24206">
        <ele>351</ele>
        <time>2022-09-12T23:21:08Z</time>
      </trkpt>
      <trkpt lat="47.57177" lon="7.24204">
        <ele>350</ele>
        <time>2022-09-12T23:21:25Z</time>
      </trkpt>
      <trkpt lat="47.57168" lon="7.24202">
        <ele>350</ele>
        <time>2022-09-12T23:21:32Z</time>
      </trkpt>
      <trkpt lat="47.5708" lon="7.2414">
        <ele>351</ele>
        <time>2022-09-12T23:22:51Z</time>
      </trkpt>
      <trkpt lat="47.57063" lon="7.24123">
        <ele>351</ele>
        <time>2022-09-12T23:23:07Z</time>
      </trkpt>
      <trkpt lat="47.57047" lon="7.24114">
        <ele>351</ele>
        <time>2022-09-12T23:23:21Z</time>
      </trkpt>
      <trkpt lat="47.5699" lon="7.24103">
        <ele>351</ele>
        <time>2022-09-12T23:24:07Z</time>
      </trkpt>
      <trkpt lat="47.56978" lon="7.24098">
        <ele>351</ele>
        <time>2022-09-12T23:24:17Z</time>
      </trkpt>
      <trkpt lat="47.56959" lon="7.24085">
        <ele>350</ele>
        <time>2022-09-12T23:24:33Z</time>
      </trkpt>
      <trkpt lat="47.56931" lon="7.24055">
        <ele>351</ele>
        <time>2022-09-12T23:25:01Z</time>
      </trkpt>
      <trkpt lat="47.56876" lon="7.23986">
        <ele>356</ele>
        <time>2022-09-12T23:25:59Z</time>
      </trkpt>
      <trkpt lat="47.5685" lon="7.23958">
        <ele>358</ele>
        <time>2022-09-12T23:26:24Z</time>
      </trkpt>
      <trkpt lat="47.56804" lon="7.23921">
        <ele>361</ele>
        <time>2022-09-12T23:27:06Z</time>
      </trkpt>
      <trkpt lat="47.56662" lon="7.23848">
        <ele>364</ele>
        <time>2022-09-12T23:29:07Z</time>
      </trkpt>
      <trkpt lat="47.56626" lon="7.23835">
        <ele>365</ele>
        <time>2022-09-12T23:29:36Z</time>
      </trkpt>
      <trkpt lat="47.56588" lon="7.23829">
        <ele>367</ele>
        <time>2022-09-12T23:30:07Z</time>
      </trkpt>
      <trkpt lat="47.56515" lon="7.23835">
        <ele>367</ele>
        <time>2022-09-12T23:31:06Z</time>
      </trkpt>
      <trkpt lat="47.5649" lon="7.23841">
        <ele>368</ele>
        <time>2022-09-12T23:31:26Z</time>
      </trkpt>
      <trkpt lat="47.56467" lon="7.23851">
        <ele>369</ele>
        <time>2022-09-12T23:31:45Z</time>
      </trkpt>
      <trkpt lat="47.56353" lon="7.23925">
        <ele>373</ele>
        <time>2022-09-12T23:33:25Z</time>
      </trkpt>
      <trkpt lat="47.56291" lon="7.23961">
        <ele>375</ele>
        <time>2022-09-12T23:34:18Z</time>
      </trkpt>
      <trkpt lat="47.56227" lon="7.24002">
        <ele>371</ele>
        <time>2022-09-12T23:35:14Z</time>
      </trkpt>
      <trkpt lat="47.56208" lon="7.24022">
        <ele>370</ele>
        <time>2022-09-12T23:35:32Z</time>
      </trkpt>
      <trkpt lat="47.56071" lon="7.24287">
        <ele>364</ele>
        <time>2022-09-12T23:38:33Z</time>
      </trkpt>
      <trkpt lat="47.56024" lon="7.24413">
        <ele>373</ele>
        <time>2022-09-12T23:39:51Z</time>
      </trkpt>
      <trkpt lat="47.56009" lon="7.24439">
        <ele>373</ele>
        <time>2022-09-12T23:40:09Z</time>
      </trkpt>
      <trkpt lat="47.55985" lon="7.24465">
        <ele>374</ele>
        <time>2022-09-12T23:40:33Z</time>
      </trkpt>
      <trkpt lat="47.55868" lon="7.24556">
        <ele>378</ele>
        <time>2022-09-12T23:42:19Z</time>
      </trkpt>
      <trkpt lat="47.55718" lon="7.24686">
        <ele>378</ele>
        <time>2022-09-12T23:44:38Z</time>
      </trkpt>
      <trkpt lat="47.5569" lon="7.24702">
        <ele>379</ele>
        <time>2022-09-12T23:45:02Z</time>
      </trkpt>
      <trkpt lat="47.55582" lon="7.24739">
        <ele>380</ele>
        <time>2022-09-12T23:46:31Z</time>
      </trkpt>
      <trkpt lat="47.5551" lon="7.2478">
        <ele>385</ele>
        <time>2022-09-12T23:47:32Z</time>
      </trkpt>
      <trkpt lat="47.55424" lon="7.2485">
        <ele>385</ele>
        <time>2022-09-12T23:48:51Z</time>
      </trkpt>
      <trkpt lat="47.55209" lon="7.25065">
        <ele>391</ele>
        <time>2022-09-12T23:52:19Z</time>
      </trkpt>
      <trkpt lat="47.55179" lon="7.25091">
        <ele>390</ele>
        <time>2022-09-12T23:52:46Z</time>
      </trkpt>
      <trkpt lat="47.55161" lon="7.25102">
        <ele>389</ele>
        <time>2022-09-12T23:53:02Z</time>
      </trkpt>
      <trkpt lat="47.55016" lon="7.25173">
        <ele>391</ele>
        <time>2022-09-12T23:55:04Z</time>
      </trkpt>
      <trkpt lat="47.5499" lon="7.25189">
        <ele>392</ele>
        <time>2022-09-12T23:55:27Z</time>
      </trkpt>
      <trkpt lat="47.54946" lon="7.25229">
        <ele>390</ele>
        <time>2022-09-12T23:56:08Z</time>
      </trkpt>
      <trkpt lat="47.5489" lon="7.25294">
        <ele>389</ele>
        <time>2022-09-12T23:57:05Z</time>
      </trkpt>
      <trkpt lat="47.54874" lon="7.25308">
        <ele>389</ele>
        <time>2022-09-12T23:57:20Z</time>
      </trkpt>
      <trkpt lat="47.54777" lon="7.25375">
        <ele>390</ele>
        <time>2022-09-12T23:58:46Z</time>
      </trkpt>
      <trkpt lat="47.54754" lon="7.25393">
        <ele>390</ele>
        <time>2022-09-12T23:59:07Z</time>
      </trkpt>
      <trkpt lat="47.54732" lon="7.25416">
        <ele>390</ele>
        <time>2022-09-12T23:59:28Z</time>
      </trkpt>
      <trkpt lat="47.54673" lon="7.25485">
        <ele>392</ele>
        <time>2022-09-13T00:00:28Z</time>
      </trkpt>
      <trkpt lat="47.54653" lon="7.25504">
        <ele>392</ele>
        <time>2022-09-13T00:00:47Z</time>
      </trkpt>
      <trkpt lat="47.54627" lon="7.25523">
        <ele>391</ele>
        <time>2022-09-13T00:01:11Z</time>
      </trkpt>
      <trkpt lat="47.54605" lon="7.25533">
        <ele>391</ele>
        <time>2022-09-13T00:01:29Z</time>
      </trkpt>
      <trkpt lat="47.54408" lon="7.25602">
        <ele>394</ele>
        <time>2022-09-13T00:04:11Z</time>
      </trkpt>
      <trkpt lat="47.54383" lon="7.25619">
        <ele>394</ele>
        <time>2022-09-13T00:04:33Z</time>
      </trkpt>
      <trkpt lat="47.54282" lon="7.25716">
        <ele>398</ele>
        <time>2022-09-13T00:06:09Z</time>
      </trkpt>
      <trkpt lat="47.54258" lon="7.25734">
        <ele>398</ele>
        <time>2022-09-13T00:06:31Z</time>
      </trkpt>
      <trkpt lat="47.54213" lon="7.2575">
        <ele>397</ele>
        <time>2022-09-13T00:07:08Z</time>
      </trkpt>
      <trkpt lat="47.5418" lon="7.25767">
        <ele>397</ele>
        <time>2022-09-13T00:07:36Z</time>
      </trkpt>
      <trkpt lat="47.54162" lon="7.25782">
        <ele>396</ele>
        <time>2022-09-13T00:07:53Z</time>
      </trkpt>
      <trkpt lat="47.53978" lon="7.26013">
        <ele>402</ele>
        <time>2022-09-13T00:11:06Z</time>
      </trkpt>
      <trkpt lat="47.53831" lon="7.26199">
        <ele>403</ele>
        <time>2022-09-13T00:13:40Z</time>
      </trkpt>
      <trkpt lat="47.53759" lon="7.26301">
        <ele>404</ele>
        <time>2022-09-13T00:15:00Z</time>
      </trkpt>
      <trkpt lat="47.53653" lon="7.26443">
        <ele>404</ele>
        <time>2022-09-13T00:16:55Z</time>
      </trkpt>
      <trkpt lat="47.53624" lon="7.26474">
        <ele>405</ele>
        <time>2022-09-13T00:17:23Z</time>
      </trkpt>
      <trkpt lat="47.53594" lon="7.26499">
        <ele>406</ele>
        <time>2022-09-13T00:17:51Z</time>
      </trkpt>
      <trkpt lat="47.5359" lon="7.26494">
        <ele>406</ele>
        <time>2022-09-13T00:17:55Z</time>
      </trkpt>
      <trkpt lat="47.53582" lon="7.26495">
        <ele>406</ele>
        <time>2022-09-13T00:18:01Z</time>
      </trkpt>
      <trkpt lat="47.53579" lon="7.265">
        <ele>406</ele>
        <time>2022-09-13T00:18:05Z</time>
      </trkpt>
      <trkpt lat="47.53579" lon="7.26512">
        <ele>406</ele>
        <time>2022-09-13T00:18:12Z</time>
      </trkpt>
      <trkpt lat="47.53569" lon="7.26521">
        <ele>407</ele>
        <time>2022-09-13T00:18:21Z</time>
      </trkpt>
      <trkpt lat="47.53539" lon="7.26544">
        <ele>408</ele>
        <time>2022-09-13T00:18:48Z</time>
      </trkpt>
      <trkpt lat="47.5353" lon="7.26547">
        <ele>409</ele>
        <time>2022-09-13T00:18:55Z</time>
      </trkpt>
      <trkpt lat="47.53502" lon="7.26551">
        <ele>410</ele>
        <time>2022-09-13T00:19:18Z</time>
      </trkpt>
      <trkpt lat="47.5348" lon="7.26548">
        <ele>411</ele>
        <time>2022-09-13T00:19:36Z</time>
      </trkpt>
      <trkpt lat="47.53409" lon="7.26534">
        <ele>413</ele>
        <time>2022-09-13T00:20:33Z</time>
      </trkpt>
      <trkpt lat="47.53385" lon="7.26538">
        <ele>414</ele>
        <time>2022-09-13T00:20:52Z</time>
      </trkpt>
      <trkpt lat="47.53373" lon="7.26546">
        <ele>414</ele>
        <time>2022-09-13T00:21:03Z</time>
      </trkpt>
      <trkpt lat="47.53353" lon="7.2657">
        <ele>415</ele>
        <time>2022-09-13T00:21:23Z</time>
      </trkpt>
      <trkpt lat="47.53333" lon="7.26606">
        <ele>417</ele>
        <time>2022-09-13T00:21:49Z</time>
      </trkpt>
      <trkpt lat="47.53306" lon="7.2667">
        <ele>419</ele>
        <time>2022-09-13T00:22:29Z</time>
      </trkpt>
      <trkpt lat="47.53265" lon="7.26738">
        <ele>422</ele>
        <time>2022-09-13T00:23:19Z</time>
      </trkpt>
      <trkpt lat="47.53234" lon="7.26776">
        <ele>423</ele>
        <time>2022-09-13T00:23:51Z</time>
      </trkpt>
      <trkpt lat="47.53189" lon="7.26823">
        <ele>424</ele>
        <time>2022-09-13T00:24:35Z</time>
      </trkpt>
      <trkpt lat="47.5288" lon="7.271">
        <ele>423</ele>
        <time>2022-09-13T00:29:24Z</time>
      </trkpt>
      <trkpt lat="47.52777" lon="7.272">
        <ele>422</ele>
        <time>2022-09-13T00:31:03Z</time>
      </trkpt>
      <trkpt lat="47.5275" lon="7.27233">
        <ele>422</ele>
        <time>2022-09-13T00:31:31Z</time>
      </trkpt>
      <trkpt lat="47.52726" lon="7.27267">
        <ele>423</ele>
        <time>2022-09-13T00:31:57Z</time>
      </trkpt>
      <trkpt lat="47.52673" lon="7.27356">
        <ele>424</ele>
        <time>2022-09-13T00:33:02Z</time>
      </trkpt>
      <trkpt lat="47.52563" lon="7.27572">
        <ele>426</ele>
        <time>2022-09-13T00:35:28Z</time>
      </trkpt>
      <trkpt lat="47.525" lon="7.27702">
        <ele>425</ele>
        <time>2022-09-13T00:36:54Z</time>
      </trkpt>
      <trkpt lat="47.52494" lon="7.27715">
        <ele>426</ele>
        <time>2022-09-13T00:37:03Z</time>
      </trkpt>
      <trkpt lat="47.52314" lon="7.28131">
        <ele>453</ele>
        <time>2022-09-13T00:41:30Z</time>
      </trkpt>
      <trkpt lat="47.52222" lon="7.28328">
        <ele>445</ele>
        <time>2022-09-13T00:43:40Z</time>
      </trkpt>
      <trkpt lat="47.5206" lon="7.2865">
        <ele>457</ele>
        <time>2022-09-13T00:47:17Z</time>
      </trkpt>
      <trkpt lat="47.52011" lon="7.2874">
        <ele>461</ele>
        <time>2022-09-13T00:48:19Z</time>
      </trkpt>
      <trkpt lat="47.51917" lon="7.28905">
        <ele>465</ele>
        <time>2022-09-13T00:50:16Z</time>
      </trkpt>
      <trkpt lat="47.5185" lon="7.29013">
        <ele>466</ele>
        <time>2022-09-13T00:51:35Z</time>
      </trkpt>
      <trkpt lat="47.51813" lon="7.29056">
        <ele>463</ele>
        <time>2022-09-13T00:52:13Z</time>
      </trkpt>
      <trkpt lat="47.51687" lon="7.29163">
        <ele>456</ele>
        <time>2022-09-13T00:54:09Z</time>
      </trkpt>
      <trkpt lat="47.51529" lon="7.29276">
        <ele>453</ele>
        <time>2022-09-13T00:56:30Z</time>
      </trkpt>
      <trkpt lat="47.51507" lon="7.293">
        <ele>453</ele>
        <time>2022-09-13T00:56:52Z</time>
      </trkpt>
      <trkpt lat="47.51488" lon="7.2933">
        <ele>453</ele>
        <time>2022-09-13T00:57:14Z</time>
      </trkpt>
      <trkpt lat="47.5146" lon="7.29393">
        <ele>455</ele>
        <time>2022-09-13T00:57:55Z</time>
      </trkpt>
      <trkpt lat="47.51397" lon="7.29563">
        <ele>458</ele>
        <time>2022-09-13T00:59:39Z</time>
      </trkpt>
      <trkpt lat="47.51358" lon="7.29649">
        <ele>458</ele>
        <time>2022-09-13T01:00:35Z</time>
      </trkpt>
      <trkpt lat="47.51331" lon="7.29694">
        <ele>457</ele>
        <time>2022-09-13T01:01:08Z</time>
      </trkpt>
      <trkpt lat="47.51299" lon="7.29737">
        <ele>457</ele>
        <time>2022-09-13T01:01:43Z</time>
      </trkpt>
      <trkpt lat="47.51259" lon="7.29778">
        <ele>458</ele>
        <time>2022-09-13T01:02:22Z</time>
      </trkpt>
      <trkpt lat="47.51209" lon="7.29814">
        <ele>458</ele>
        <time>2022-09-13T01:03:06Z</time>
      </trkpt>
      <trkpt lat="47.5118" lon="7.29827">
        <ele>458</ele>
        <time>2022-09-13T01:03:30Z</time>
      </trkpt>
      <trkpt lat="47.51136" lon="7.29832">
        <ele>458</ele>
        <time>2022-09-13T01:04:06Z</time>
      </trkpt>
      <trkpt lat="47.51057" lon="7.29812">
        <ele>459</ele>
        <time>2022-09-13T01:05:10Z</time>
      </trkpt>
      <trkpt lat="47.5104" lon="7.2981">
        <ele>459</ele>
        <time>2022-09-13T01:05:23Z</time>
      </trkpt>
      <trkpt lat="47.51021" lon="7.29813">
        <ele>459</ele>
        <time>2022-09-13T01:05:39Z</time>
      </trkpt>
      <trkpt lat="47.5092" lon="7.29833">
        <ele>463</ele>
        <time>2022-09-13T01:07:00Z</time>
      </trkpt>
      <trkpt lat="47.5089" lon="7.29845">
        <ele>463</ele>
        <time>2022-09-13T01:07:25Z</time>
      </trkpt>
      <trkpt lat="47.50865" lon="7.29861">
        <ele>464</ele>
        <time>2022-09-13T01:07:47Z</time>
      </trkpt>
      <trkpt lat="47.50724" lon="7.29985">
        <ele>469</ele>
        <time>2022-09-13T01:09:58Z</time>
      </trkpt>
      <trkpt lat="47.50633" lon="7.30072">
        <ele>470</ele>
        <time>2022-09-13T01:11:25Z</time>
      </trkpt>
      <trkpt lat="47.50605" lon="7.30096">
        <ele>470</ele>
        <time>2022-09-13T01:11:51Z</time>
      </trkpt>
      <trkpt lat="47.50583" lon="7.30111">
        <ele>470</ele>
        <time>2022-09-13T01:12:10Z</time>
      </trkpt>
      <trkpt lat="47.50553" lon="7.30125">
        <ele>471</ele>
        <time>2022-09-13T01:12:36Z</time>
      </trkpt>
      <trkpt lat="47.50432" lon="7.3017">
        <ele>472</ele>
        <time>2022-09-13T01:14:15Z</time>
      </trkpt>
      <trkpt lat="47.50411" lon="7.3017">
        <ele>472</ele>
        <time>2022-09-13T01:14:32Z</time>
      </trkpt>
      <trkpt lat="47.50384" lon="7.30164">
        <ele>473</ele>
        <time>2022-09-13T01:14:54Z</time>
      </trkpt>
      <trkpt lat="47.50369" lon="7.30158">
        <ele>474</ele>
        <time>2022-09-13T01:15:07Z</time>
      </trkpt>
      <trkpt lat="47.50365" lon="7.30167">
        <ele>474</ele>
        <time>2022-09-13T01:15:12Z</time>
      </trkpt>
      <trkpt lat="47.50361" lon="7.30168">
        <ele>474</ele>
        <time>2022-09-13T01:15:16Z</time>
      </trkpt>
      <trkpt lat="47.50357" lon="7.30165">
        <ele>474</ele>
        <time>2022-09-13T01:15:19Z</time>
      </trkpt>
      <trkpt lat="47.50347" lon="7.30177">
        <ele>475</ele>
        <time>2022-09-13T01:15:30Z</time>
      </trkpt>
      <trkpt lat="47.50297" lon="7.3022">
        <ele>479</ele>
        <time>2022-09-13T01:16:16Z</time>
      </trkpt>
      <trkpt lat="47.50293" lon="7.30234">
        <ele>479</ele>
        <time>2022-09-13T01:16:24Z</time>
      </trkpt>
      <trkpt lat="47.50275" lon="7.30312">
        <ele>478</ele>
        <time>2022-09-13T01:17:09Z</time>
      </trkpt>
      <trkpt lat="47.50261" lon="7.30353">
        <ele>477</ele>
        <time>2022-09-13T01:17:34Z</time>
      </trkpt>
      <trkpt lat="47.50246" lon="7.30388">
        <ele>476</ele>
        <time>2022-09-13T01:17:56Z</time>
      </trkpt>
      <trkpt lat="47.50236" lon="7.30405">
        <ele>475</ele>
        <time>2022-09-13T01:18:08Z</time>
      </trkpt>
      <trkpt lat="47.50225" lon="7.30419">
        <ele>475</ele>
        <time>2022-09-13T01:18:20Z</time>
      </trkpt>
      <trkpt lat="47.50198" lon="7.30447">
        <ele>475</ele>
        <time>2022-09-13T01:18:46Z</time>
      </trkpt>
      <trkpt lat="47.50154" lon="7.30482">
        <ele>474</ele>
        <time>2022-09-13T01:19:26Z</time>
      </trkpt>
      <trkpt lat="47.50085" lon="7.30525">
        <ele>472</ele>
        <time>2022-09-13T01:20:26Z</time>
      </trkpt>
      <trkpt lat="47.50074" lon="7.30534">
        <ele>472</ele>
        <time>2022-09-13T01:20:36Z</time>
      </trkpt>
      <trkpt lat="47.50057" lon="7.30561">
        <ele>471</ele>
        <time>2022-09-13T01:20:56Z</time>
      </trkpt>
      <trkpt lat="47.5005" lon="7.30557">
        <ele>471</ele>
        <time>2022-09-13T01:21:02Z</time>
      </trkpt>
      <trkpt lat="47.50043" lon="7.3056">
        <ele>471</ele>
        <time>2022-09-13T01:21:08Z</time>
      </trkpt>
      <trkpt lat="47.50038" lon="7.30569">
        <ele>471</ele>
        <time>2022-09-13T01:21:14Z</time>
      </trkpt>
      <trkpt lat="47.50038" lon="7.30577">
        <ele>471</ele>
        <time>2022-09-13T01:21:19Z</time>
      </trkpt>
      <trkpt lat="47.50029" lon="7.30582">
        <ele>471</ele>
        <time>2022-09-13T01:21:26Z</time>
      </trkpt>
      <trkpt lat="47.50018" lon="7.30593">
        <ele>471</ele>
        <time>2022-09-13T01:21:37Z</time>
      </trkpt>
      <trkpt lat="47.50004" lon="7.30614">
        <ele>472</ele>
        <time>2022-09-13T01:21:53Z</time>
      </trkpt>
      <trkpt lat="47.49958" lon="7.30712">
        <ele>480</ele>
        <time>2022-09-13T01:22:57Z</time>
      </trkpt>
      <trkpt lat="47.4993" lon="7.30761">
        <ele>482</ele>
        <time>2022-09-13T01:23:32Z</time>
      </trkpt>
      <trkpt lat="47.49713" lon="7.31117">
        <ele>487</ele>
        <time>2022-09-13T01:27:51Z</time>
      </trkpt>
      <trkpt lat="47.49697" lon="7.31148">
        <ele>488</ele>
        <time>2022-09-13T01:28:13Z</time>
      </trkpt>
      <trkpt lat="47.49664" lon="7.31235">
        <ele>486</ele>
        <time>2022-09-13T01:29:07Z</time>
      </trkpt>
      <trkpt lat="47.49654" lon="7.31246">
        <ele>486</ele>
        <time>2022-09-13T01:29:17Z</time>
      </trkpt>
      <trkpt lat="47.49596" lon="7.31273">
        <ele>492</ele>
        <time>2022-09-13T01:30:05Z</time>
      </trkpt>
      <trkpt lat="47.49588" lon="7.31284">
        <ele>492</ele>
        <time>2022-09-13T01:30:14Z</time>
      </trkpt>
      <trkpt lat="47.49584" lon="7.31294">
        <ele>492</ele>
        <time>2022-09-13T01:30:20Z</time>
      </trkpt>
      <trkpt lat="47.49579" lon="7.31314">
        <ele>491</ele>
        <time>2022-09-13T01:30:32Z</time>
      </trkpt>
      <trkpt lat="47.49578" lon="7.31341">
        <ele>491</ele>
        <time>2022-09-13T01:30:46Z</time>
      </trkpt>
      <trkpt lat="47.4958" lon="7.31348">
        <ele>492</ele>
        <time>2022-09-13T01:30:51Z</time>
      </trkpt>
      <trkpt lat="47.49551" lon="7.31366">
        <ele>495</ele>
        <time>2022-09-13T01:31:16Z</time>
      </trkpt>
      <trkpt lat="47.49504" lon="7.31383">
        <ele>494</ele>
        <time>2022-09-13T01:31:54Z</time>
      </trkpt>
      <trkpt lat="47.49433" lon="7.314">
        <ele>496</ele>
        <time>2022-09-13T01:32:52Z</time>
      </trkpt>
      <trkpt lat="47.49429" lon="7.31399">
        <ele>496</ele>
        <time>2022-09-13T01:32:55Z</time>
      </trkpt>
      <trkpt lat="47.49423" lon="7.31378">
        <ele>498</ele>
        <time>2022-09-13T01:33:08Z</time>
      </trkpt>
      <trkpt lat="47.4942" lon="7.31376">
        <ele>498</ele>
        <time>2022-09-13T01:33:10Z</time>
      </trkpt>
      <trkpt lat="47.49397" lon="7.31381">
        <ele>502</ele>
        <time>2022-09-13T01:33:29Z</time>
      </trkpt>
      <trkpt lat="47.49363" lon="7.31382">
        <ele>508</ele>
        <time>2022-09-13T01:33:56Z</time>
      </trkpt>
      <trkpt lat="47.49358" lon="7.31385">
        <ele>508</ele>
        <time>2022-09-13T01:34:00Z</time>
      </trkpt>
      <trkpt lat="47.49354" lon="7.31394">
        <ele>507</ele>
        <time>2022-09-13T01:34:06Z</time>
      </trkpt>
      <trkpt lat="47.49348" lon="7.31445">
        <ele>506</ele>
        <time>2022-09-13T01:34:34Z</time>
      </trkpt>
      <trkpt lat="47.49342" lon="7.31463">
        <ele>507</ele>
        <time>2022-09-13T01:34:45Z</time>
      </trkpt>
      <trkpt lat="47.49307" lon="7.31558">
        <ele>524</ele>
        <time>2022-09-13T01:35:44Z</time>
      </trkpt>
      <trkpt lat="47.49289" lon="7.31596">
        <ele>532</ele>
        <time>2022-09-13T01:36:09Z</time>
      </trkpt>
      <trkpt lat="47.49272" lon="7.31619">
        <ele>535</ele>
        <time>2022-09-13T01:36:27Z</time>
      </trkpt>
      <trkpt lat="47.49239" lon="7.31647">
        <ele>537</ele>
        <time>2022-09-13T01:36:58Z</time>
      </trkpt>
      <trkpt lat="47.49131" lon="7.31762">
        <ele>536</ele>
        <time>2022-09-13T01:38:44Z</time>
      </trkpt>
      <trkpt lat="47.49122" lon="7.31774">
        <ele>536</ele>
        <time>2022-09-13T01:38:54Z</time>
      </trkpt>
      <trkpt lat="47.49117" lon="7.31787">
        <ele>535</ele>
        <time>2022-09-13T01:39:02Z</time>
      </trkpt>
      <trkpt lat="47.49112" lon="7.31809">
        <ele>533</ele>
        <time>2022-09-13T01:39:15Z</time>
      </trkpt>
      <trkpt lat="47.49114" lon="7.31835">
        <ele>530</ele>
        <time>2022-09-13T01:39:29Z</time>
      </trkpt>
      <trkpt lat="47.49167" lon="7.32022">
        <ele>537</ele>
        <time>2022-09-13T01:41:18Z</time>
      </trkpt>
      <trkpt lat="47.49167" lon="7.32041">
        <ele>537</ele>
        <time>2022-09-13T01:41:29Z</time>
      </trkpt>
      <trkpt lat="47.49166" lon="7.3205">
        <ele>537</ele>
        <time>2022-09-13T01:41:34Z</time>
      </trkpt>
      <trkpt lat="47.49161" lon="7.32064">
        <ele>537</ele>
        <time>2022-09-13T01:41:42Z</time>
      </trkpt>
      <trkpt lat="47.49153" lon="7.32072">
        <ele>537</ele>
        <time>2022-09-13T01:41:50Z</time>
      </trkpt>
      <trkpt lat="47.49143" lon="7.32076">
        <ele>537</ele>
        <time>2022-09-13T01:41:58Z</time>
      </trkpt>
      <trkpt lat="47.49131" lon="7.32073">
        <ele>538</ele>
        <time>2022-09-13T01:42:08Z</time>
      </trkpt>
      <trkpt lat="47.49119" lon="7.32064">
        <ele>538</ele>
        <time>2022-09-13T01:42:19Z</time>
      </trkpt>
      <trkpt lat="47.49074" lon="7.31994">
        <ele>542</ele>
        <time>2022-09-13T01:43:11Z</time>
      </trkpt>
      <trkpt lat="47.49036" lon="7.31947">
        <ele>545</ele>
        <time>2022-09-13T01:43:51Z</time>
      </trkpt>
      <trkpt lat="47.48892" lon="7.31805">
        <ele>561</ele>
        <time>2022-09-13T01:46:09Z</time>
      </trkpt>
      <trkpt lat="47.48881" lon="7.31787">
        <ele>564</ele>
        <time>2022-09-13T01:46:22Z</time>
      </trkpt>
      <trkpt lat="47.48877" lon="7.31768">
        <ele>566</ele>
        <time>2022-09-13T01:46:33Z</time>
      </trkpt>
      <trkpt lat="47.48878" lon="7.31751">
        <ele>567</ele>
        <time>2022-09-13T01:46:42Z</time>
      </trkpt>
      <trkpt lat="47.48882" lon="7.31736">
        <ele>567</ele>
        <time>2022-09-13T01:46:51Z</time>
      </trkpt>
      <trkpt lat="47.48907" lon="7.31676">
        <ele>569</ele>
        <time>2022-09-13T01:47:29Z</time>
      </trkpt>
      <trkpt lat="47.48911" lon="7.3166">
        <ele>569</ele>
        <time>2022-09-13T01:47:38Z</time>
      </trkpt>
      <trkpt lat="47.48911" lon="7.31646">
        <ele>569</ele>
        <time>2022-09-13T01:47:46Z</time>
      </trkpt>
      <trkpt lat="47.48893" lon="7.31451">
        <ele>562</ele>
        <time>2022-09-13T01:49:32Z</time>
      </trkpt>
      <trkpt lat="47.4885" lon="7.30981">
        <ele>563</ele>
        <time>2022-09-13T01:53:49Z</time>
      </trkpt>
      <trkpt lat="47.48848" lon="7.30968">
        <ele>564</ele>
        <time>2022-09-13T01:53:56Z</time>
      </trkpt>
      <trkpt lat="47.48843" lon="7.3095">
        <ele>564</ele>
        <time>2022-09-13T01:54:07Z</time>
      </trkpt>
      <trkpt lat="47.48823" lon="7.309">
        <ele>564</ele>
        <time>2022-09-13T01:54:38Z</time>
      </trkpt>
      <trkpt lat="47.48752" lon="7.30753">
        <ele>560</ele>
        <time>2022-09-13T01:56:16Z</time>
      </trkpt>
      <trkpt lat="47.48701" lon="7.30658">
        <ele>554</ele>
        <time>2022-09-13T01:57:22Z</time>
      </trkpt>
      <trkpt lat="47.4869" lon="7.30643">
        <ele>552</ele>
        <time>2022-09-13T01:57:34Z</time>
      </trkpt>
      <trkpt lat="47.48631" lon="7.30593">
        <ele>548</ele>
        <time>2022-09-13T01:58:28Z</time>
      </trkpt>
      <trkpt lat="47.48615" lon="7.30575">
        <ele>548</ele>
        <time>2022-09-13T01:58:44Z</time>
      </trkpt>
      <trkpt lat="47.48593" lon="7.3053">
        <ele>550</ele>
        <time>2022-09-13T01:59:14Z</time>
      </trkpt>
      <trkpt lat="47.48555" lon="7.30435">
        <ele>554</ele>
        <time>2022-09-13T02:00:14Z</time>
      </trkpt>
      <trkpt lat="47.48535" lon="7.30392">
        <ele>555</ele>
        <time>2022-09-13T02:00:42Z</time>
      </trkpt>
      <trkpt lat="47.48499" lon="7.30325">
        <ele>556</ele>
        <time>2022-09-13T02:01:29Z</time>
      </trkpt>
      <trkpt lat="47.48474" lon="7.30269">
        <ele>558</ele>
        <time>2022-09-13T02:02:05Z</time>
      </trkpt>
      <trkpt lat="47.48435" lon="7.30171">
        <ele>557</ele>
        <time>2022-09-13T02:03:06Z</time>
      </trkpt>
      <trkpt lat="47.48415" lon="7.30106">
        <ele>556</ele>
        <time>2022-09-13T02:03:45Z</time>
      </trkpt>
      <trkpt lat="47.48408" lon="7.30071">
        <ele>555</ele>
        <time>2022-09-13T02:04:05Z</time>
      </trkpt>
      <trkpt lat="47.4839" lon="7.29935">
        <ele>551</ele>
        <time>2022-09-13T02:05:20Z</time>
      </trkpt>
      <trkpt lat="47.48384" lon="7.29912">
        <ele>552</ele>
        <time>2022-09-13T02:05:33Z</time>
      </trkpt>
      <trkpt lat="47.48374" lon="7.29886">
        <ele>553</ele>
        <time>2022-09-13T02:05:49Z</time>
      </trkpt>
      <trkpt lat="47.48338" lon="7.29817">
        <ele>558</ele>
        <time>2022-09-13T02:06:36Z</time>
      </trkpt>
      <trkpt lat="47.48301" lon="7.29765">
        <ele>560</ele>
        <time>2022-09-13T02:07:17Z</time>
      </trkpt>
      <trkpt lat="47.48293" lon="7.29752">
        <ele>560</ele>
        <time>2022-09-13T02:07:27Z</time>
      </trkpt>
      <trkpt lat="47.48276" lon="7.29711">
        <ele>560</ele>
        <time>2022-09-13T02:07:53Z</time>
      </trkpt>
      <trkpt lat="47.48256" lon="7.29656">
        <ele>559</ele>
        <time>2022-09-13T02:08:27Z</time>
      </trkpt>
      <trkpt lat="47.48246" lon="7.29625">
        <ele>560</ele>
        <time>2022-09-13T02:08:45Z</time>
      </trkpt>
      <trkpt lat="47.48212" lon="7.29461">
        <ele>563</ele>
        <time>2022-09-13T02:10:18Z</time>
      </trkpt>
      <trkpt lat="47.48192" lon="7.29387">
        <ele>563</ele>
        <time>2022-09-13T02:11:01Z</time>
      </trkpt>
      <trkpt lat="47.48183" lon="7.29361">
        <ele>564</ele>
        <time>2022-09-13T02:11:17Z</time>
      </trkpt>
      <trkpt lat="47.48136" lon="7.29239">
        <ele>565</ele>
        <time>2022-09-13T02:12:33Z</time>
      </trkpt>
      <trkpt lat="47.48108" lon="7.29148">
        <ele>563</ele>
        <time>2022-09-13T02:13:27Z</time>
      </trkpt>
      <trkpt lat="47.48068" lon="7.29028">
        <ele>557</ele>
        <time>2022-09-13T02:14:40Z</time>
      </trkpt>
      <trkpt lat="47.48051" lon="7.28954">
        <ele>557</ele>
        <time>2022-09-13T02:15:22Z</time>
      </trkpt>
      <trkpt lat="47.48038" lon="7.28869">
        <ele>556</ele>
        <time>2022-09-13T02:16:09Z</time>
      </trkpt>
      <trkpt lat="47.48031" lon="7.28841">
        <ele>556</ele>
        <time>2022-09-13T02:16:25Z</time>
      </trkpt>
      <trkpt lat="47.48019" lon="7.28807">
        <ele>556</ele>
        <time>2022-09-13T02:16:46Z</time>
      </trkpt>
      <trkpt lat="47.47999" lon="7.28763">
        <ele>557</ele>
        <time>2022-09-13T02:17:15Z</time>
      </trkpt>
      <trkpt lat="47.47972" lon="7.28712">
        <ele>564</ele>
        <time>2022-09-13T02:17:50Z</time>
      </trkpt>
      <trkpt lat="47.47955" lon="7.28693">
        <ele>567</ele>
        <time>2022-09-13T02:18:07Z</time>
      </trkpt>
      <trkpt lat="47.47925" lon="7.28664">
        <ele>571</ele>
        <time>2022-09-13T02:18:35Z</time>
      </trkpt>
      <trkpt lat="47.47915" lon="7.2865">
        <ele>572</ele>
        <time>2022-09-13T02:18:46Z</time>
      </trkpt>
      <trkpt lat="47.47875" lon="7.28585">
        <ele>572</ele>
        <time>2022-09-13T02:19:34Z</time>
      </trkpt>
      <trkpt lat="47.47787" lon="7.28432">
        <ele>575</ele>
        <time>2022-09-13T02:21:23Z</time>
      </trkpt>
      <trkpt lat="47.47773" lon="7.28409">
        <ele>575</ele>
        <time>2022-09-13T02:21:39Z</time>
      </trkpt>
      <trkpt lat="47.47753" lon="7.28386">
        <ele>575</ele>
        <time>2022-09-13T02:22:00Z</time>
      </trkpt>
      <trkpt lat="47.47736" lon="7.2837">
        <ele>576</ele>
        <time>2022-09-13T02:22:16Z</time>
      </trkpt>
      <trkpt lat="47.47655" lon="7.28296">
        <ele>579</ele>
        <time>2022-09-13T02:23:32Z</time>
      </trkpt>
      <trkpt lat="47.47631" lon="7.28266">
        <ele>579</ele>
        <time>2022-09-13T02:23:57Z</time>
      </trkpt>
      <trkpt lat="47.47614" lon="7.28235">
        <ele>580</ele>
        <time>2022-09-13T02:24:19Z</time>
      </trkpt>
      <trkpt lat="47.47557" lon="7.28119">
        <ele>580</ele>
        <time>2022-09-13T02:25:36Z</time>
      </trkpt>
      <trkpt lat="47.47309" lon="7.2763">
        <ele>561</ele>
        <time>2022-09-13T02:31:07Z</time>
      </trkpt>
      <trkpt lat="47.47297" lon="7.27602">
        <ele>560</ele>
        <time>2022-09-13T02:31:25Z</time>
      </trkpt>
      <trkpt lat="47.47287" lon="7.27562">
        <ele>560</ele>
        <time>2022-09-13T02:31:48Z</time>
      </trkpt>
      <trkpt lat="47.47284" lon="7.27531">
        <ele>560</ele>
        <time>2022-09-13T02:32:05Z</time>
      </trkpt>
      <trkpt lat="47.47281" lon="7.27297">
        <ele>552</ele>
        <time>2022-09-13T02:34:12Z</time>
      </trkpt>
      <trkpt lat="47.47279" lon="7.27223">
        <ele>553</ele>
        <time>2022-09-13T02:34:52Z</time>
      </trkpt>
      <trkpt lat="47.47266" lon="7.27059">
        <ele>550</ele>
        <time>2022-09-13T02:36:21Z</time>
      </trkpt>
      <trkpt lat="47.47267" lon="7.27018">
        <ele>550</ele>
        <time>2022-09-13T02:36:44Z</time>
      </trkpt>
      <trkpt lat="47.47274" lon="7.26922">
        <ele>559</ele>
        <time>2022-09-13T02:37:36Z</time>
      </trkpt>
      <trkpt lat="47.47273" lon="7.269">
        <ele>561</ele>
        <time>2022-09-13T02:37:48Z</time>
      </trkpt>
      <trkpt lat="47.47267" lon="7.26868">
        <ele>564</ele>
        <time>2022-09-13T02:38:06Z</time>
      </trkpt>
      <trkpt lat="47.47258" lon="7.26837">
        <ele>567</ele>
        <time>2022-09-13T02:38:24Z</time>
      </trkpt>
      <trkpt lat="47.47246" lon="7.26809">
        <ele>566</ele>
        <time>2022-09-13T02:38:42Z</time>
      </trkpt>
      <trkpt lat="47.47231" lon="7.26786">
        <ele>565</ele>
        <time>2022-09-13T02:38:59Z</time>
      </trkpt>
      <trkpt lat="47.47202" lon="7.26753">
        <ele>563</ele>
        <time>2022-09-13T02:39:29Z</time>
      </trkpt>
      <trkpt lat="47.47185" lon="7.26739">
        <ele>562</ele>
        <time>2022-09-13T02:39:44Z</time>
      </trkpt>
      <trkpt lat="47.47165" lon="7.26728">
        <ele>561</ele>
        <time>2022-09-13T02:40:01Z</time>
      </trkpt>
      <trkpt lat="47.47099" lon="7.26706">
        <ele>558</ele>
        <time>2022-09-13T02:40:55Z</time>
      </trkpt>
      <trkpt lat="47.47045" lon="7.26685">
        <ele>557</ele>
        <time>2022-09-13T02:41:40Z</time>
      </trkpt>
      <trkpt lat="47.468" lon="7.26573">
        <ele>542</ele>
        <time>2022-09-13T02:45:05Z</time>
      </trkpt>
      <trkpt lat="47.46782" lon="7.26561">
        <ele>541</ele>
        <time>2022-09-13T02:45:21Z</time>
      </trkpt>
      <trkpt lat="47.46732" lon="7.26517">
        <ele>540</ele>
        <time>2022-09-13T02:46:08Z</time>
      </trkpt>
      <trkpt lat="47.46695" lon="7.26494">
        <ele>540</ele>
        <time>2022-09-13T02:46:40Z</time>
      </trkpt>
      <trkpt lat="47.46657" lon="7.26477">
        <ele>541</ele>
        <time>2022-09-13T02:47:12Z</time>
      </trkpt>
      <trkpt lat="47.46623" lon="7.26465">
        <ele>543</ele>
        <time>2022-09-13T02:47:40Z</time>
      </trkpt>
      <trkpt lat="47.46587" lon="7.26447">
        <ele>545</ele>
        <time>2022-09-13T02:48:10Z</time>
      </trkpt>
      <trkpt lat="47.46555" lon="7.26423">
        <ele>547</ele>
        <time>2022-09-13T02:48:39Z</time>
      </trkpt>
      <trkpt lat="47.46242" lon="7.26147">
        <ele>563</ele>
        <time>2022-09-13T02:53:31Z</time>
      </trkpt>
      <trkpt lat="47.46218" lon="7.26121">
        <ele>565</ele>
        <time>2022-09-13T02:53:54Z</time>
      </trkpt>
      <trkpt lat="47.4621" lon="7.26106">
        <ele>565</ele>
        <time>2022-09-13T02:54:05Z</time>
      </trkpt>
      <trkpt lat="47.46204" lon="7.26092">
        <ele>565</ele>
        <time>2022-09-13T02:54:14Z</time>
      </trkpt>
      <trkpt lat="47.46166" lon="7.25923">
        <ele>570</ele>
        <time>2022-09-13T02:55:50Z</time>
      </trkpt>
      <trkpt lat="47.46148" lon="7.2586">
        <ele>571</ele>
        <time>2022-09-13T02:56:27Z</time>
      </trkpt>
      <trkpt lat="47.46137" lon="7.25837">
        <ele>572</ele>
        <time>2022-09-13T02:56:42Z</time>
      </trkpt>
      <trkpt lat="47.46126" lon="7.25816">
        <ele>572</ele>
        <time>2022-09-13T02:56:57Z</time>
      </trkpt>
      <trkpt lat="47.46099" lon="7.25778">
        <ele>573</ele>
        <time>2022-09-13T02:57:27Z</time>
      </trkpt>
      <trkpt lat="47.46083" lon="7.25737">
        <ele>574</ele>
        <time>2022-09-13T02:57:52Z</time>
      </trkpt>
      <trkpt lat="47.46066" lon="7.25702">
        <ele>575</ele>
        <time>2022-09-13T02:58:16Z</time>
      </trkpt>
      <trkpt lat="47.46043" lon="7.25668">
        <ele>576</ele>
        <time>2022-09-13T02:58:42Z</time>
      </trkpt>
      <trkpt lat="47.46015" lon="7.2564">
        <ele>578</ele>
        <time>2022-09-13T02:59:09Z</time>
      </trkpt>
      <trkpt lat="47.45842" lon="7.25492">
        <ele>597</ele>
        <time>2022-09-13T03:01:49Z</time>
      </trkpt>
      <trkpt lat="47.45815" lon="7.25474">
        <ele>602</ele>
        <time>2022-09-13T03:02:12Z</time>
      </trkpt>
      <trkpt lat="47.45762" lon="7.25452">
        <ele>616</ele>
        <time>2022-09-13T03:02:57Z</time>
      </trkpt>
      <trkpt lat="47.45752" lon="7.25443">
        <ele>618</ele>
        <time>2022-09-13T03:03:06Z</time>
      </trkpt>
      <trkpt lat="47.45742" lon="7.25431">
        <ele>620</ele>
        <time>2022-09-13T03:03:16Z</time>
      </trkpt>
      <trkpt lat="47.45736" lon="7.2542">
        <ele>621</ele>
        <time>2022-09-13T03:03:24Z</time>
      </trkpt>
      <trkpt lat="47.45723" lon="7.25389">
        <ele>624</ele>
        <time>2022-09-13T03:03:44Z</time>
      </trkpt>
      <trkpt lat="47.45661" lon="7.25216">
        <ele>634</ele>
        <time>2022-09-13T03:05:30Z</time>
      </trkpt>
      <trkpt lat="47.45638" lon="7.25158">
        <ele>641</ele>
        <time>2022-09-13T03:06:06Z</time>
      </trkpt>
      <trkpt lat="47.45623" lon="7.25127">
        <ele>645</ele>
        <time>2022-09-13T03:06:27Z</time>
      </trkpt>
      <trkpt lat="47.45593" lon="7.25081">
        <ele>653</ele>
        <time>2022-09-13T03:07:01Z</time>
      </trkpt>
      <trkpt lat="47.45566" lon="7.25049">
        <ele>656</ele>
        <time>2022-09-13T03:07:29Z</time>
      </trkpt>
      <trkpt lat="47.45545" lon="7.2503">
        <ele>659</ele>
        <time>2022-09-13T03:07:49Z</time>
      </trkpt>
      <trkpt lat="47.45522" lon="7.25014">
        <ele>662</ele>
        <time>2022-09-13T03:08:09Z</time>
      </trkpt>
      <trkpt lat="47.45484" lon="7.24993">
        <ele>667</ele>
        <time>2022-09-13T03:08:42Z</time>
      </trkpt>
      <trkpt lat="47.45463" lon="7.24986">
        <ele>669</ele>
        <time>2022-09-13T03:08:59Z</time>
      </trkpt>
      <trkpt lat="47.4541" lon="7.24976">
        <ele>677</ele>
        <time>2022-09-13T03:09:42Z</time>
      </trkpt>
      <trkpt lat="47.45374" lon="7.2498">
        <ele>682</ele>
        <time>2022-09-13T03:10:10Z</time>
      </trkpt>
      <trkpt lat="47.45348" lon="7.24988">
        <ele>685</ele>
        <time>2022-09-13T03:10:32Z</time>
      </trkpt>
      <trkpt lat="47.45327" lon="7.24997">
        <ele>688</ele>
        <time>2022-09-13T03:10:49Z</time>
      </trkpt>
      <trkpt lat="47.45301" lon="7.25013">
        <ele>689</ele>
        <time>2022-09-13T03:11:12Z</time>
      </trkpt>
      <trkpt lat="47.4519" lon="7.25108">
        <ele>697</ele>
        <time>2022-09-13T03:12:54Z</time>
      </trkpt>
      <trkpt lat="47.45164" lon="7.25126">
        <ele>700</ele>
        <time>2022-09-13T03:13:17Z</time>
      </trkpt>
      <trkpt lat="47.45146" lon="7.25132">
        <ele>702</ele>
        <time>2022-09-13T03:13:32Z</time>
      </trkpt>
      <trkpt lat="47.45122" lon="7.25133">
        <ele>704</ele>
        <time>2022-09-13T03:13:51Z</time>
      </trkpt>
      <trkpt lat="47.44993" lon="7.25106">
        <ele>711</ele>
        <time>2022-09-13T03:15:36Z</time>
      </trkpt>
      <trkpt lat="47.44976" lon="7.25104">
        <ele>711</ele>
        <time>2022-09-13T03:15:49Z</time>
      </trkpt>
      <trkpt lat="47.44963" lon="7.25105">
        <ele>710</ele>
        <time>2022-09-13T03:16:00Z</time>
      </trkpt>
      <trkpt lat="47.4495" lon="7.2511">
        <ele>710</ele>
        <time>2022-09-13T03:16:11Z</time>
      </trkpt>
      <trkpt lat="47.44937" lon="7.25118">
        <ele>710</ele>
        <time>2022-09-13T03:16:22Z</time>
      </trkpt>
      <trkpt lat="47.44922" lon="7.25135">
        <ele>711</ele>
        <time>2022-09-13T03:16:37Z</time>
      </trkpt>
      <trkpt lat="47.44853" lon="7.25229">
        <ele>710</ele>
        <time>2022-09-13T03:17:52Z</time>
      </trkpt>
      <trkpt lat="47.44834" lon="7.25246">
        <ele>708</ele>
        <time>2022-09-13T03:18:10Z</time>
      </trkpt>
      <trkpt lat="47.44807" lon="7.25263">
        <ele>705</ele>
        <time>2022-09-13T03:18:33Z</time>
      </trkpt>
      <trkpt lat="47.44787" lon="7.2527">
        <ele>703</ele>
        <time>2022-09-13T03:18:50Z</time>
      </trkpt>
      <trkpt lat="47.44761" lon="7.25271">
        <ele>699</ele>
        <time>2022-09-13T03:19:11Z</time>
      </trkpt>
      <trkpt lat="47.44397" lon="7.25227">
        <ele>672</ele>
        <time>2022-09-13T03:24:03Z</time>
      </trkpt>
      <trkpt lat="47.44288" lon="7.25223">
        <ele>671</ele>
        <time>2022-09-13T03:25:30Z</time>
      </trkpt>
      <trkpt lat="47.44265" lon="7.25213">
        <ele>671</ele>
        <time>2022-09-13T03:25:50Z</time>
      </trkpt>
      <trkpt lat="47.44248" lon="7.25194">
        <ele>671</ele>
        <time>2022-09-13T03:26:07Z</time>
      </trkpt>
      <trkpt lat="47.44211" lon="7.25136">
        <ele>671</ele>
        <time>2022-09-13T03:26:50Z</time>
      </trkpt>
      <trkpt lat="47.44184" lon="7.2511">
        <ele>670</ele>
        <time>2022-09-13T03:27:16Z</time>
      </trkpt>
      <trkpt lat="47.44123" lon="7.25064">
        <ele>671</ele>
        <time>2022-09-13T03:28:10Z</time>
      </trkpt>
      <trkpt lat="47.44083" lon="7.25038">
        <ele>672</ele>
        <time>2022-09-13T03:28:45Z</time>
      </trkpt>
      <trkpt lat="47.44046" lon="7.25019">
        <ele>673</ele>
        <time>2022-09-13T03:29:17Z</time>
      </trkpt>
      <trkpt lat="47.43981" lon="7.24991">
        <ele>675</ele>
        <time>2022-09-13T03:30:11Z</time>
      </trkpt>
      <trkpt lat="47.4361" lon="7.2486">
        <ele>694</ele>
        <time>2022-09-13T03:35:16Z</time>
      </trkpt>
      <trkpt lat="47.43395" lon="7.24795">
        <ele>696</ele>
        <time>2022-09-13T03:38:12Z</time>
      </trkpt>
      <trkpt lat="47.43324" lon="7.2477">
        <ele>691</ele>
        <time>2022-09-13T03:39:11Z</time>
      </trkpt>
      <trkpt lat="47.43198" lon="7.2472">
        <ele>686</ele>
        <time>2022-09-13T03:40:55Z</time>
      </trkpt>
      <trkpt lat="47.43168" lon="7.24714">
        <ele>684</ele>
        <time>2022-09-13T03:41:19Z</time>
      </trkpt>
      <trkpt lat="47.43079" lon="7.24707">
        <ele>675</ele>
        <time>2022-09-13T03:42:31Z</time>
      </trkpt>
      <trkpt lat="47.42954" lon="7.24703">
        <ele>657</ele>
        <time>2022-09-13T03:44:11Z</time>
      </trkpt>
      <trkpt lat="47.4289" lon="7.24697">
        <ele>654</ele>
        <time>2022-09-13T03:45:02Z</time>
      </trkpt>
      <trkpt lat="47.42865" lon="7.24688">
        <ele>653</ele>
        <time>2022-09-13T03:45:23Z</time>
      </trkpt>
      <trkpt lat="47.42767" lon="7.24638">
        <ele>651</ele>
        <time>2022-09-13T03:46:46Z</time>
      </trkpt>
      <trkpt lat="47.4269" lon="7.24603">
        <ele>646</ele>
        <time>2022-09-13T03:47:50Z</time>
      </trkpt>
      <trkpt lat="47.42667" lon="7.246">
        <ele>645</ele>
        <time>2022-09-13T03:48:09Z</time>
      </trkpt>
      <trkpt lat="47.42643" lon="7.24608">
        <ele>645</ele>
        <time>2022-09-13T03:48:28Z</time>
      </trkpt>
      <trkpt lat="47.42642" lon="7.24591">
        <ele>644</ele>
        <time>2022-09-13T03:48:38Z</time>
      </trkpt>
      <trkpt lat="47.42651" lon="7.24556">
        <ele>644</ele>
        <time>2022-09-13T03:48:58Z</time>
      </trkpt>
      <trkpt lat="47.42659" lon="7.24518">
        <ele>644</ele>
        <time>2022-09-13T03:49:19Z</time>
      </trkpt>
      <trkpt lat="47.42661" lon="7.24496">
        <ele>644</ele>
        <time>2022-09-13T03:49:31Z</time>
      </trkpt>
      <trkpt lat="47.42656" lon="7.244">
        <ele>647</ele>
        <time>2022-09-13T03:50:24Z</time>
      </trkpt>
      <trkpt lat="47.42655" lon="7.24271">
        <ele>642</ele>
        <time>2022-09-13T03:51:33Z</time>
      </trkpt>
      <trkpt lat="47.42652" lon="7.24201">
        <ele>644</ele>
        <time>2022-09-13T03:52:11Z</time>
      </trkpt>
      <trkpt lat="47.42647" lon="7.24158">
        <ele>646</ele>
        <time>2022-09-13T03:52:35Z</time>
      </trkpt>
      <trkpt lat="47.42636" lon="7.241">
        <ele>648</ele>
        <time>2022-09-13T03:53:08Z</time>
      </trkpt>
      <trkpt lat="47.42633" lon="7.24073">
        <ele>648</ele>
        <time>2022-09-13T03:53:23Z</time>
      </trkpt>
      <trkpt lat="47.42632" lon="7.24035">
        <ele>645</ele>
        <time>2022-09-13T03:53:43Z</time>
      </trkpt>
      <trkpt lat="47.42633" lon="7.23995">
        <ele>642</ele>
        <time>2022-09-13T03:54:05Z</time>
      </trkpt>
      <trkpt lat="47.4263" lon="7.23962">
        <ele>640</ele>
        <time>2022-09-13T03:54:23Z</time>
      </trkpt>
      <trkpt lat="47.42614" lon="7.23879">
        <ele>634</ele>
        <time>2022-09-13T03:55:10Z</time>
      </trkpt>
      <trkpt lat="47.42599" lon="7.2372">
        <ele>630</ele>
        <time>2022-09-13T03:56:37Z</time>
      </trkpt>
      <trkpt lat="47.42585" lon="7.23552">
        <ele>611</ele>
        <time>2022-09-13T03:58:08Z</time>
      </trkpt>
      <trkpt lat="47.42554" lon="7.23322">
        <ele>602</ele>
        <time>2022-09-13T04:00:15Z</time>
      </trkpt>
      <trkpt lat="47.42554" lon="7.23134">
        <ele>596</ele>
        <time>2022-09-13T04:01:57Z</time>
      </trkpt>
      <trkpt lat="47.42553" lon="7.23114">
        <ele>596</ele>
        <time>2022-09-13T04:02:08Z</time>
      </trkpt>
      <trkpt lat="47.42549" lon="7.23081">
        <ele>594</ele>
        <time>2022-09-13T04:02:26Z</time>
      </trkpt>
      <trkpt lat="47.42538" lon="7.23031">
        <ele>590</ele>
        <time>2022-09-13T04:02:55Z</time>
      </trkpt>
      <trkpt lat="47.42526" lon="7.22921">
        <ele>584</ele>
        <time>2022-09-13T04:03:55Z</time>
      </trkpt>
      <trkpt lat="47.42521" lon="7.22828">
        <ele>576</ele>
        <time>2022-09-13T04:04:46Z</time>
      </trkpt>
      <trkpt lat="47.42521" lon="7.22778">
        <ele>573</ele>
        <time>2022-09-13T04:05:13Z</time>
      </trkpt>
      <trkpt lat="47.4252" lon="7.22761">
        <ele>572</ele>
        <time>2022-09-13T04:05:22Z</time>
      </trkpt>
      <trkpt lat="47.42513" lon="7.22741">
        <ele>571</ele>
        <time>2022-09-13T04:05:34Z</time>
      </trkpt>
      <trkpt lat="47.42498" lon="7.22713">
        <ele>573</ele>
        <time>2022-09-13T04:05:53Z</time>
      </trkpt>
      <trkpt lat="47.42479" lon="7.22693">
        <ele>575</ele>
        <time>2022-09-13T04:06:12Z</time>
      </trkpt>
      <trkpt lat="47.42458" lon="7.22664">
        <ele>575</ele>
        <time>2022-09-13T04:06:35Z</time>
      </trkpt>
      <trkpt lat="47.42436" lon="7.22618">
        <ele>576</ele>
        <time>2022-09-13T04:07:06Z</time>
      </trkpt>
      <trkpt lat="47.42406" lon="7.22563">
        <ele>574</ele>
        <time>2022-09-13T04:07:44Z</time>
      </trkpt>
      <trkpt lat="47.4238" lon="7.22508">
        <ele>571</ele>
        <time>2022-09-13T04:08:20Z</time>
      </trkpt>
      <trkpt lat="47.42372" lon="7.22469">
        <ele>568</ele>
        <time>2022-09-13T04:08:42Z</time>
      </trkpt>
      <trkpt lat="47.42371" lon="7.22449">
        <ele>568</ele>
        <time>2022-09-13T04:08:53Z</time>
      </trkpt>
      <trkpt lat="47.42372" lon="7.22419">
        <ele>568</ele>
        <time>2022-09-13T04:09:09Z</time>
      </trkpt>
      <trkpt lat="47.4241" lon="7.22128">
        <ele>556</ele>
        <time>2022-09-13T04:11:50Z</time>
      </trkpt>
      <trkpt lat="47.42451" lon="7.21912">
        <ele>560</ele>
        <time>2022-09-13T04:13:52Z</time>
      </trkpt>
      <trkpt lat="47.42453" lon="7.21879">
        <ele>559</ele>
        <time>2022-09-13T04:14:09Z</time>
      </trkpt>
      <trkpt lat="47.42454" lon="7.21855">
        <ele>559</ele>
        <time>2022-09-13T04:14:23Z</time>
      </trkpt>
      <trkpt lat="47.42451" lon="7.21817">
        <ele>556</ele>
        <time>2022-09-13T04:14:43Z</time>
      </trkpt>
      <trkpt lat="47.42446" lon="7.21784">
        <ele>551</ele>
        <time>2022-09-13T04:15:02Z</time>
      </trkpt>
      <trkpt lat="47.42434" lon="7.21738">
        <ele>545</ele>
        <time>2022-09-13T04:15:28Z</time>
      </trkpt>
      <trkpt lat="47.42401" lon="7.21651">
        <ele>542</ele>
        <time>2022-09-13T04:16:22Z</time>
      </trkpt>
      <trkpt lat="47.42385" lon="7.21591">
        <ele>541</ele>
        <time>2022-09-13T04:16:57Z</time>
      </trkpt>
      <trkpt lat="47.42353" lon="7.21459">
        <ele>536</ele>
        <time>2022-09-13T04:18:13Z</time>
      </trkpt>
      <trkpt lat="47.4234" lon="7.21386">
        <ele>532</ele>
        <time>2022-09-13T04:18:54Z</time>
      </trkpt>
      <trkpt lat="47.42336" lon="7.21273">
        <ele>529</ele>
        <time>2022-09-13T04:19:55Z</time>
      </trkpt>
      <trkpt lat="47.4234" lon="7.21228">
        <ele>528</ele>
        <time>2022-09-13T04:20:20Z</time>
      </trkpt>
      <trkpt lat="47.42352" lon="7.21135">
        <ele>527</ele>
        <time>2022-09-13T04:21:11Z</time>
      </trkpt>
      <trkpt lat="47.42353" lon="7.21106">
        <ele>527</ele>
        <time>2022-09-13T04:21:27Z</time>
      </trkpt>
      <trkpt lat="47.42358" lon="7.21078">
        <ele>527</ele>
        <time>2022-09-13T04:21:43Z</time>
      </trkpt>
      <trkpt lat="47.42371" lon="7.21044">
        <ele>527</ele>
        <time>2022-09-13T04:22:04Z</time>
      </trkpt>
      <trkpt lat="47.4238" lon="7.21011">
        <ele>527</ele>
        <time>2022-09-13T04:22:23Z</time>
      </trkpt>
      <trkpt lat="47.42385" lon="7.20984">
        <ele>527</ele>
        <time>2022-09-13T04:22:38Z</time>
      </trkpt>
      <trkpt lat="47.42387" lon="7.20943">
        <ele>526</ele>
        <time>2022-09-13T04:23:01Z</time>
      </trkpt>
      <trkpt lat="47.42385" lon="7.20899">
        <ele>526</ele>
        <time>2022-09-13T04:23:24Z</time>
      </trkpt>
      <trkpt lat="47.42375" lon="7.2083">
        <ele>524</ele>
        <time>2022-09-13T04:24:03Z</time>
      </trkpt>
      <trkpt lat="47.42367" lon="7.20786">
        <ele>524</ele>
        <time>2022-09-13T04:24:27Z</time>
      </trkpt>
      <trkpt lat="47.42353" lon="7.20695">
        <ele>524</ele>
        <time>2022-09-13T04:25:18Z</time>
      </trkpt>
      <trkpt lat="47.42348" lon="7.20611">
        <ele>525</ele>
        <time>2022-09-13T04:26:04Z</time>
      </trkpt>
      <trkpt lat="47.42349" lon="7.20534">
        <ele>524</ele>
        <time>2022-09-13T04:26:45Z</time>
      </trkpt>
      <trkpt lat="47.42348" lon="7.20508">
        <ele>523</ele>
        <time>2022-09-13T04:26:59Z</time>
      </trkpt>
      <trkpt lat="47.42327" lon="7.20457">
        <ele>520</ele>
        <time>2022-09-13T04:27:32Z</time>
      </trkpt>
      <trkpt lat="47.42314" lon="7.20412">
        <ele>518</ele>
        <time>2022-09-13T04:27:58Z</time>
      </trkpt>
      <trkpt lat="47.42309" lon="7.20403">
        <ele>517</ele>
        <time>2022-09-13T04:28:05Z</time>
      </trkpt>
      <trkpt lat="47.42305" lon="7.20398">
        <ele>517</ele>
        <time>2022-09-13T04:28:09Z</time>
      </trkpt>
      <trkpt lat="47.42296" lon="7.20393">
        <ele>516</ele>
        <time>2022-09-13T04:28:16Z</time>
      </trkpt>
      <trkpt lat="47.42222" lon="7.2039">
        <ele>514</ele>
        <time>2022-09-13T04:29:16Z</time>
      </trkpt>
      <trkpt lat="47.42203" lon="7.20379">
        <ele>514</ele>
        <time>2022-09-13T04:29:32Z</time>
      </trkpt>
      <trkpt lat="47.42192" lon="7.20362">
        <ele>513</ele>
        <time>2022-09-13T04:29:45Z</time>
      </trkpt>
      <trkpt lat="47.42166" lon="7.20283">
        <ele>512</ele>
        <time>2022-09-13T04:30:32Z</time>
      </trkpt>
      <trkpt lat="47.42151" lon="7.20249">
        <ele>512</ele>
        <time>2022-09-13T04:30:54Z</time>
      </trkpt>
      <trkpt lat="47.42141" lon="7.20233">
        <ele>512</ele>
        <time>2022-09-13T04:31:06Z</time>
      </trkpt>
      <trkpt lat="47.42124" lon="7.20213">
        <ele>512</ele>
        <time>2022-09-13T04:31:24Z</time>
      </trkpt>
      <trkpt lat="47.42112" lon="7.20195">
        <ele>512</ele>
        <time>2022-09-13T04:31:37Z</time>
      </trkpt>
      <trkpt lat="47.42099" lon="7.20162">
        <ele>512</ele>
        <time>2022-09-13T04:31:58Z</time>
      </trkpt>
      <trkpt lat="47.42066" lon="7.20012">
        <ele>509</ele>
        <time>2022-09-13T04:33:23Z</time>
      </trkpt>
      <trkpt lat="47.42059" lon="7.19992">
        <ele>509</ele>
        <time>2022-09-13T04:33:36Z</time>
      </trkpt>
      <trkpt lat="47.42036" lon="7.1995">
        <ele>510</ele>
        <time>2022-09-13T04:34:05Z</time>
      </trkpt>
      <trkpt lat="47.42033" lon="7.19937">
        <ele>510</ele>
        <time>2022-09-13T04:34:12Z</time>
      </trkpt>
      <trkpt lat="47.42025" lon="7.19938">
        <ele>510</ele>
        <time>2022-09-13T04:34:19Z</time>
      </trkpt>
      <trkpt lat="47.42017" lon="7.19937">
        <ele>511</ele>
        <time>2022-09-13T04:34:25Z</time>
      </trkpt>
      <trkpt lat="47.41921" lon="7.19897">
        <ele>515</ele>
        <time>2022-09-13T04:35:45Z</time>
      </trkpt>
      <trkpt lat="47.41904" lon="7.19892">
        <ele>515</ele>
        <time>2022-09-13T04:35:59Z</time>
      </trkpt>
      <trkpt lat="47.4189" lon="7.19892">
        <ele>515</ele>
        <time>2022-09-13T04:36:10Z</time>
      </trkpt>
      <trkpt lat="47.41875" lon="7.19896">
        <ele>515</ele>
        <time>2022-09-13T04:36:22Z</time>
      </trkpt>
      <trkpt lat="47.41841" lon="7.19913">
        <ele>516</ele>
        <time>2022-09-13T04:36:51Z</time>
      </trkpt>
      <trkpt lat="47.41819" lon="7.1992">
        <ele>518</ele>
        <time>2022-09-13T04:37:09Z</time>
      </trkpt>
      <trkpt lat="47.41797" lon="7.1992">
        <ele>520</ele>
        <time>2022-09-13T04:37:27Z</time>
      </trkpt>
      <trkpt lat="47.41778" lon="7.19916">
        <ele>521</ele>
        <time>2022-09-13T04:37:42Z</time>
      </trkpt>
      <trkpt lat="47.41737" lon="7.19894">
        <ele>523</ele>
        <time>2022-09-13T04:38:17Z</time>
      </trkpt>
      <trkpt lat="47.41665" lon="7.19844">
        <ele>522</ele>
        <time>2022-09-13T04:39:21Z</time>
      </trkpt>
      <trkpt lat="47.41624" lon="7.19806">
        <ele>521</ele>
        <time>2022-09-13T04:39:59Z</time>
      </trkpt>
      <trkpt lat="47.41612" lon="7.19798">
        <ele>520</ele>
        <time>2022-09-13T04:40:10Z</time>
      </trkpt>
      <trkpt lat="47.41584" lon="7.19793">
        <ele>520</ele>
        <time>2022-09-13T04:40:33Z</time>
      </trkpt>
      <trkpt lat="47.41453" lon="7.19834">
        <ele>521</ele>
        <time>2022-09-13T04:42:20Z</time>
      </trkpt>
      <trkpt lat="47.41378" lon="7.19854">
        <ele>524</ele>
        <time>2022-09-13T04:43:21Z</time>
      </trkpt>
      <trkpt lat="47.4135" lon="7.19857">
        <ele>526</ele>
        <time>2022-09-13T04:43:43Z</time>
      </trkpt>
      <trkpt lat="47.41292" lon="7.19843">
        <ele>526</ele>
        <time>2022-09-13T04:44:30Z</time>
      </trkpt>
      <trkpt lat="47.4129" lon="7.19837">
        <ele>525</ele>
        <time>2022-09-13T04:44:34Z</time>
      </trkpt>
      <trkpt lat="47.41287" lon="7.19834">
        <ele>525</ele>
        <time>2022-09-13T04:44:37Z</time>
      </trkpt>
      <trkpt lat="47.41281" lon="7.19834">
        <ele>525</ele>
        <time>2022-09-13T04:44:42Z</time>
      </trkpt>
      <trkpt lat="47.41278" lon="7.1984">
        <ele>525</ele>
        <time>2022-09-13T04:44:46Z</time>
      </trkpt>
      <trkpt lat="47.41279" lon="7.19848">
        <ele>526</ele>
        <time>2022-09-13T04:44:50Z</time>
      </trkpt>
      <trkpt lat="47.4128" lon="7.19851">
        <ele>526</ele>
        <time>2022-09-13T04:44:52Z</time>
      </trkpt>
      <trkpt lat="47.41269" lon="7.19865">
        <ele>527</ele>
        <time>2022-09-13T04:45:04Z</time>
      </trkpt>
      <trkpt lat="47.4125" lon="7.19882">
        <ele>527</ele>
        <time>2022-09-13T04:45:21Z</time>
      </trkpt>
      <trkpt lat="47.41244" lon="7.19891">
        <ele>528</ele>
        <time>2022-09-13T04:45:28Z</time>
      </trkpt>
      <trkpt lat="47.41232" lon="7.19925">
        <ele>530</ele>
        <time>2022-09-13T04:45:49Z</time>
      </trkpt>
      <trkpt lat="47.41218" lon="7.20083">
        <ele>536</ele>
        <time>2022-09-13T04:47:15Z</time>
      </trkpt>
      <trkpt lat="47.41186" lon="7.20245">
        <ele>537</ele>
        <time>2022-09-13T04:48:47Z</time>
      </trkpt>
      <trkpt lat="47.41184" lon="7.2029">
        <ele>538</ele>
        <time>2022-09-13T04:49:11Z</time>
      </trkpt>
      <trkpt lat="47.41189" lon="7.20538">
        <ele>539</ele>
        <time>2022-09-13T04:51:26Z</time>
      </trkpt>
      <trkpt lat="47.41186" lon="7.20558">
        <ele>539</ele>
        <time>2022-09-13T04:51:37Z</time>
      </trkpt>
      <trkpt lat="47.41181" lon="7.20571">
        <ele>539</ele>
        <time>2022-09-13T04:51:45Z</time>
      </trkpt>
      <trkpt lat="47.41154" lon="7.20616">
        <ele>539</ele>
        <time>2022-09-13T04:52:17Z</time>
      </trkpt>
      <trkpt lat="47.41144" lon="7.20637">
        <ele>540</ele>
        <time>2022-09-13T04:52:31Z</time>
      </trkpt>
      <trkpt lat="47.41127" lon="7.2069">
        <ele>541</ele>
        <time>2022-09-13T04:53:03Z</time>
      </trkpt>
      <trkpt lat="47.41128" lon="7.20734">
        <ele>543</ele>
        <time>2022-09-13T04:53:27Z</time>
      </trkpt>
      <trkpt lat="47.41124" lon="7.20747">
        <ele>543</ele>
        <time>2022-09-13T04:53:35Z</time>
      </trkpt>
      <trkpt lat="47.41117" lon="7.20754">
        <ele>543</ele>
        <time>2022-09-13T04:53:41Z</time>
      </trkpt>
      <trkpt lat="47.41089" lon="7.20769">
        <ele>542</ele>
        <time>2022-09-13T04:54:05Z</time>
      </trkpt>
      <trkpt lat="47.41065" lon="7.20788">
        <ele>542</ele>
        <time>2022-09-13T04:54:27Z</time>
      </trkpt>
      <trkpt lat="47.41043" lon="7.20812">
        <ele>542</ele>
        <time>2022-09-13T04:54:49Z</time>
      </trkpt>
      <trkpt lat="47.41028" lon="7.20831">
        <ele>543</ele>
        <time>2022-09-13T04:55:05Z</time>
      </trkpt>
      <trkpt lat="47.40993" lon="7.20866">
        <ele>547</ele>
        <time>2022-09-13T04:55:39Z</time>
      </trkpt>
      <trkpt lat="47.40965" lon="7.2089">
        <ele>552</ele>
        <time>2022-09-13T04:56:05Z</time>
      </trkpt>
      <trkpt lat="47.40949" lon="7.209">
        <ele>553</ele>
        <time>2022-09-13T04:56:18Z</time>
      </trkpt>
      <trkpt lat="47.40874" lon="7.20921">
        <ele>554</ele>
        <time>2022-09-13T04:57:20Z</time>
      </trkpt>
      <trkpt lat="47.40806" lon="7.20951">
        <ele>556</ele>
        <time>2022-09-13T04:58:16Z</time>
      </trkpt>
      <trkpt lat="47.40787" lon="7.20953">
        <ele>556</ele>
        <time>2022-09-13T04:58:32Z</time>
      </trkpt>
      <trkpt lat="47.40727" lon="7.20943">
        <ele>556</ele>
        <time>2022-09-13T04:59:20Z</time>
      </trkpt>
      <trkpt lat="47.40684" lon="7.20944">
        <ele>560</ele>
        <time>2022-09-13T04:59:54Z</time>
      </trkpt>
      <trkpt lat="47.40643" lon="7.20951">
        <ele>561</ele>
        <time>2022-09-13T05:00:27Z</time>
      </trkpt>
      <trkpt lat="47.40556" lon="7.20958">
        <ele>560</ele>
        <time>2022-09-13T05:01:37Z</time>
      </trkpt>
      <trkpt lat="47.40539" lon="7.20965">
        <ele>559</ele>
        <time>2022-09-13T05:01:51Z</time>
      </trkpt>
      <trkpt lat="47.40477" lon="7.21002">
        <ele>558</ele>
        <time>2022-09-13T05:02:45Z</time>
      </trkpt>
      <trkpt lat="47.40441" lon="7.2102">
        <ele>560</ele>
        <time>2022-09-13T05:03:15Z</time>
      </trkpt>
      <trkpt lat="47.40392" lon="7.2105">
        <ele>561</ele>
        <time>2022-09-13T05:03:58Z</time>
      </trkpt>
      <trkpt lat="47.40373" lon="7.21056">
        <ele>562</ele>
        <time>2022-09-13T05:04:13Z</time>
      </trkpt>
      <trkpt lat="47.40361" lon="7.21055">
        <ele>562</ele>
        <time>2022-09-13T05:04:23Z</time>
      </trkpt>
      <trkpt lat="47.40327" lon="7.2104">
        <ele>564</ele>
        <time>2022-09-13T05:04:51Z</time>
      </trkpt>
      <trkpt lat="47.40308" lon="7.21039">
        <ele>564</ele>
        <time>2022-09-13T05:05:07Z</time>
      </trkpt>
      <trkpt lat="47.40291" lon="7.21042">
        <ele>564</ele>
        <time>2022-09-13T05:05:20Z</time>
      </trkpt>
      <trkpt lat="47.40184" lon="7.21088">
        <ele>568</ele>
        <time>2022-09-13T05:06:50Z</time>
      </trkpt>
      <trkpt lat="47.40145" lon="7.21118">
        <ele>575</ele>
        <time>2022-09-13T05:07:25Z</time>
      </trkpt>
      <trkpt lat="47.40121" lon="7.21128">
        <ele>578</ele>
        <time>2022-09-13T05:07:45Z</time>
      </trkpt>
      <trkpt lat="47.40083" lon="7.21141">
        <ele>583</ele>
        <time>2022-09-13T05:08:16Z</time>
      </trkpt>
      <trkpt lat="47.40007" lon="7.21156">
        <ele>588</ele>
        <time>2022-09-13T05:09:17Z</time>
      </trkpt>
      <trkpt lat="47.39973" lon="7.2117">
        <ele>587</ele>
        <time>2022-09-13T05:09:46Z</time>
      </trkpt>
      <trkpt lat="47.39937" lon="7.21181">
        <ele>591</ele>
        <time>2022-09-13T05:10:15Z</time>
      </trkpt>
      <trkpt lat="47.39923" lon="7.21184">
        <ele>591</ele>
        <time>2022-09-13T05:10:26Z</time>
      </trkpt>
      <trkpt lat="47.3991" lon="7.21182">
        <ele>592</ele>
        <time>2022-09-13T05:10:37Z</time>
      </trkpt>
      <trkpt lat="47.399" lon="7.21178">
        <ele>592</ele>
        <time>2022-09-13T05:10:45Z</time>
      </trkpt>
      <trkpt lat="47.39861" lon="7.21152">
        <ele>594</ele>
        <time>2022-09-13T05:11:19Z</time>
      </trkpt>
      <trkpt lat="47.39852" lon="7.21142">
        <ele>594</ele>
        <time>2022-09-13T05:11:28Z</time>
      </trkpt>
      <trkpt lat="47.39828" lon="7.21107">
        <ele>595</ele>
        <time>2022-09-13T05:11:55Z</time>
      </trkpt>
      <trkpt lat="47.39799" lon="7.2105">
        <ele>602</ele>
        <time>2022-09-13T05:12:34Z</time>
      </trkpt>
      <trkpt lat="47.3977" lon="7.20977">
        <ele>598</ele>
        <time>2022-09-13T05:13:20Z</time>
      </trkpt>
      <trkpt lat="47.39742" lon="7.20923">
        <ele>593</ele>
        <time>2022-09-13T05:13:57Z</time>
      </trkpt>
      <trkpt lat="47.39732" lon="7.20891">
        <ele>595</ele>
        <time>2022-09-13T05:14:16Z</time>
      </trkpt>
      <trkpt lat="47.39731" lon="7.20864">
        <ele>598</ele>
        <time>2022-09-13T05:14:31Z</time>
      </trkpt>
      <trkpt lat="47.39734" lon="7.20849">
        <ele>599</ele>
        <time>2022-09-13T05:14:39Z</time>
      </trkpt>
      <trkpt lat="47.39739" lon="7.20837">
        <ele>600</ele>
        <time>2022-09-13T05:14:47Z</time>
      </trkpt>
      <trkpt lat="47.39747" lon="7.20824">
        <ele>602</ele>
        <time>2022-09-13T05:14:56Z</time>
      </trkpt>
      <trkpt lat="47.39774" lon="7.20804">
        <ele>606</ele>
        <time>2022-09-13T05:15:20Z</time>
      </trkpt>
      <trkpt lat="47.39808" lon="7.20794">
        <ele>608</ele>
        <time>2022-09-13T05:15:48Z</time>
      </trkpt>
      <trkpt lat="47.39803" lon="7.20761">
        <ele>609</ele>
        <time>2022-09-13T05:16:06Z</time>
      </trkpt>
      <trkpt lat="47.39795" lon="7.20725">
        <ele>613</ele>
        <time>2022-09-13T05:16:27Z</time>
      </trkpt>
      <trkpt lat="47.39789" lon="7.20687">
        <ele>618</ele>
        <time>2022-09-13T05:16:48Z</time>
      </trkpt>
      <trkpt lat="47.39787" lon="7.20666">
        <ele>620</ele>
        <time>2022-09-13T05:17:00Z</time>
      </trkpt>
      <trkpt lat="47.39794" lon="7.20614">
        <ele>623</ele>
        <time>2022-09-13T05:17:28Z</time>
      </trkpt>
      <trkpt lat="47.3979" lon="7.2058">
        <ele>626</ele>
        <time>2022-09-13T05:17:47Z</time>
      </trkpt>
      <trkpt lat="47.39786" lon="7.20562">
        <ele>627</ele>
        <time>2022-09-13T05:17:57Z</time>
      </trkpt>
      <trkpt lat="47.39777" lon="7.2054">
        <ele>629</ele>
        <time>2022-09-13T05:18:11Z</time>
      </trkpt>
      <trkpt lat="47.39749" lon="7.20488">
        <ele>636</ele>
        <time>2022-09-13T05:18:47Z</time>
      </trkpt>
      <trkpt lat="47.39735" lon="7.2047">
        <ele>638</ele>
        <time>2022-09-13T05:19:02Z</time>
      </trkpt>
      <trkpt lat="47.39717" lon="7.20457">
        <ele>643</ele>
        <time>2022-09-13T05:19:18Z</time>
      </trkpt>
      <trkpt lat="47.39702" lon="7.2044">
        <ele>646</ele>
        <time>2022-09-13T05:19:33Z</time>
      </trkpt>
      <trkpt lat="47.39697" lon="7.2043">
        <ele>647</ele>
        <time>2022-09-13T05:19:40Z</time>
      </trkpt>
      <trkpt lat="47.39685" lon="7.20397">
        <ele>650</ele>
        <time>2022-09-13T05:20:00Z</time>
      </trkpt>
      <trkpt lat="47.39679" lon="7.20384">
        <ele>651</ele>
        <time>2022-09-13T05:20:09Z</time>
      </trkpt>
      <trkpt lat="47.39672" lon="7.20376">
        <ele>653</ele>
        <time>2022-09-13T05:20:16Z</time>
      </trkpt>
      <trkpt lat="47.39668" lon="7.20375">
        <ele>655</ele>
        <time>2022-09-13T05:20:19Z</time>
      </trkpt>
      <trkpt lat="47.39603" lon="7.20396">
        <ele>668</ele>
        <time>2022-09-13T05:21:13Z</time>
      </trkpt>
      <trkpt lat="47.39547" lon="7.20407">
        <ele>683</ele>
        <time>2022-09-13T05:21:58Z</time>
      </trkpt>
      <trkpt lat="47.3953" lon="7.20407">
        <ele>688</ele>
        <time>2022-09-13T05:22:11Z</time>
      </trkpt>
      <trkpt lat="47.39522" lon="7.20404">
        <ele>691</ele>
        <time>2022-09-13T05:22:18Z</time>
      </trkpt>
      <trkpt lat="47.39512" lon="7.20395">
        <ele>693</ele>
        <time>2022-09-13T05:22:27Z</time>
      </trkpt>
      <trkpt lat="47.39508" lon="7.20386">
        <ele>694</ele>
        <time>2022-09-13T05:22:33Z</time>
      </trkpt>
      <trkpt lat="47.39506" lon="7.20366">
        <ele>694</ele>
        <time>2022-09-13T05:22:44Z</time>
      </trkpt>
      <trkpt lat="47.39498" lon="7.20247">
        <ele>696</ele>
        <time>2022-09-13T05:23:49Z</time>
      </trkpt>
      <trkpt lat="47.39495" lon="7.20225">
        <ele>698</ele>
        <time>2022-09-13T05:24:01Z</time>
      </trkpt>
      <trkpt lat="47.3949" lon="7.20215">
        <ele>701</ele>
        <time>2022-09-13T05:24:08Z</time>
      </trkpt>
      <trkpt lat="47.39494" lon="7.20361">
        <ele>698</ele>
        <time>2022-09-13T05:25:27Z</time>
      </trkpt>
      <trkpt lat="47.39511" lon="7.2046">
        <ele>693</ele>
        <time>2022-09-13T05:26:22Z</time>
      </trkpt>
      <trkpt lat="47.39509" lon="7.20471">
        <ele>693</ele>
        <time>2022-09-13T05:26:29Z</time>
      </trkpt>
      <trkpt lat="47.39504" lon="7.20482">
        <ele>693</ele>
        <time>2022-09-13T05:26:36Z</time>
      </trkpt>
      <trkpt lat="47.39499" lon="7.20486">
        <ele>694</ele>
        <time>2022-09-13T05:26:40Z</time>
      </trkpt>
      <trkpt lat="47.3949" lon="7.20487">
        <ele>693</ele>
        <time>2022-09-13T05:26:48Z</time>
      </trkpt>
      <trkpt lat="47.39476" lon="7.20477">
        <ele>694</ele>
        <time>2022-09-13T05:27:00Z</time>
      </trkpt>
      <trkpt lat="47.39413" lon="7.20407">
        <ele>720</ele>
        <time>2022-09-13T05:28:03Z</time>
      </trkpt>
      <trkpt lat="47.39393" lon="7.2039">
        <ele>730</ele>
        <time>2022-09-13T05:28:22Z</time>
      </trkpt>
      <trkpt lat="47.39383" lon="7.20385">
        <ele>734</ele>
        <time>2022-09-13T05:28:30Z</time>
      </trkpt>
      <trkpt lat="47.39368" lon="7.20384">
        <ele>738</ele>
        <time>2022-09-13T05:28:42Z</time>
      </trkpt>
      <trkpt lat="47.39356" lon="7.20388">
        <ele>740</ele>
        <time>2022-09-13T05:28:52Z</time>
      </trkpt>
      <trkpt lat="47.39326" lon="7.20412">
        <ele>735</ele>
        <time>2022-09-13T05:29:19Z</time>
      </trkpt>
      <trkpt lat="47.39319" lon="7.20414">
        <ele>735</ele>
        <time>2022-09-13T05:29:25Z</time>
      </trkpt>
      <trkpt lat="47.39303" lon="7.20413">
        <ele>737</ele>
        <time>2022-09-13T05:29:38Z</time>
      </trkpt>
      <trkpt lat="47.39275" lon="7.20406">
        <ele>743</ele>
        <time>2022-09-13T05:30:01Z</time>
      </trkpt>
      <trkpt lat="47.39261" lon="7.20406">
        <ele>745</ele>
        <time>2022-09-13T05:30:12Z</time>
      </trkpt>
      <trkpt lat="47.39241" lon="7.20411">
        <ele>743</ele>
        <time>2022-09-13T05:30:28Z</time>
      </trkpt>
      <trkpt lat="47.39226" lon="7.2041">
        <ele>741</ele>
        <time>2022-09-13T05:30:40Z</time>
      </trkpt>
      <trkpt lat="47.39212" lon="7.20392">
        <ele>746</ele>
        <time>2022-09-13T05:30:55Z</time>
      </trkpt>
      <trkpt lat="47.3918" lon="7.20343">
        <ele>755</ele>
        <time>2022-09-13T05:31:32Z</time>
      </trkpt>
      <trkpt lat="47.39164" lon="7.2031">
        <ele>761</ele>
        <time>2022-09-13T05:31:54Z</time>
      </trkpt>
      <trkpt lat="47.39138" lon="7.20266">
        <ele>772</ele>
        <time>2022-09-13T05:32:25Z</time>
      </trkpt>
      <trkpt lat="47.39129" lon="7.2026">
        <ele>774</ele>
        <time>2022-09-13T05:32:33Z</time>
      </trkpt>
      <trkpt lat="47.39119" lon="7.20263">
        <ele>773</ele>
        <time>2022-09-13T05:32:41Z</time>
      </trkpt>
      <trkpt lat="47.39097" lon="7.20283">
        <ele>769</ele>
        <time>2022-09-13T05:33:02Z</time>
      </trkpt>
      <trkpt lat="47.39088" lon="7.20288">
        <ele>767</ele>
        <time>2022-09-13T05:33:10Z</time>
      </trkpt>
      <trkpt lat="47.39082" lon="7.20289">
        <ele>767</ele>
        <time>2022-09-13T05:33:15Z</time>
      </trkpt>
      <trkpt lat="47.3907" lon="7.20288">
        <ele>769</ele>
        <time>2022-09-13T05:33:24Z</time>
      </trkpt>
      <trkpt lat="47.39052" lon="7.20279">
        <ele>773</ele>
        <time>2022-09-13T05:33:40Z</time>
      </trkpt>
      <trkpt lat="47.39011" lon="7.2027">
        <ele>779</ele>
        <time>2022-09-13T05:34:13Z</time>
      </trkpt>
      <trkpt lat="47.3899" lon="7.20274">
        <ele>780</ele>
        <time>2022-09-13T05:34:30Z</time>
      </trkpt>
      <trkpt lat="47.38974" lon="7.20285">
        <ele>779</ele>
        <time>2022-09-13T05:34:44Z</time>
      </trkpt>
      <trkpt lat="47.38961" lon="7.20299">
        <ele>778</ele>
        <time>2022-09-13T05:34:57Z</time>
      </trkpt>
      <trkpt lat="47.38902" lon="7.20372">
        <ele>770</ele>
        <time>2022-09-13T05:35:58Z</time>
      </trkpt>
      <trkpt lat="47.38889" lon="7.2037">
        <ele>767</ele>
        <time>2022-09-13T05:36:09Z</time>
      </trkpt>
      <trkpt lat="47.38884" lon="7.20361">
        <ele>766</ele>
        <time>2022-09-13T05:36:15Z</time>
      </trkpt>
      <trkpt lat="47.38881" lon="7.20338">
        <ele>768</ele>
        <time>2022-09-13T05:36:28Z</time>
      </trkpt>
      <trkpt lat="47.38885" lon="7.20281">
        <ele>775</ele>
        <time>2022-09-13T05:36:59Z</time>
      </trkpt>
      <trkpt lat="47.38886" lon="7.20236">
        <ele>781</ele>
        <time>2022-09-13T05:37:23Z</time>
      </trkpt>
      <trkpt lat="47.38884" lon="7.20202">
        <ele>785</ele>
        <time>2022-09-13T05:37:42Z</time>
      </trkpt>
      <trkpt lat="47.38868" lon="7.20137">
        <ele>789</ele>
        <time>2022-09-13T05:38:19Z</time>
      </trkpt>
      <trkpt lat="47.38863" lon="7.20123">
        <ele>790</ele>
        <time>2022-09-13T05:38:28Z</time>
      </trkpt>
      <trkpt lat="47.38843" lon="7.20097">
        <ele>789</ele>
        <time>2022-09-13T05:38:49Z</time>
      </trkpt>
      <trkpt lat="47.38827" lon="7.20087">
        <ele>790</ele>
        <time>2022-09-13T05:39:03Z</time>
      </trkpt>
      <trkpt lat="47.38802" lon="7.20087">
        <ele>797</ele>
        <time>2022-09-13T05:39:23Z</time>
      </trkpt>
      <trkpt lat="47.38773" lon="7.20099">
        <ele>803</ele>
        <time>2022-09-13T05:39:47Z</time>
      </trkpt>
      <trkpt lat="47.38749" lon="7.20114">
        <ele>805</ele>
        <time>2022-09-13T05:40:08Z</time>
      </trkpt>
      <trkpt lat="47.38681" lon="7.20189">
        <ele>798</ele>
        <time>2022-09-13T05:41:16Z</time>
      </trkpt>
      <trkpt lat="47.38646" lon="7.20214">
        <ele>794</ele>
        <time>2022-09-13T05:41:47Z</time>
      </trkpt>
      <trkpt lat="47.38629" lon="7.20219">
        <ele>793</ele>
        <time>2022-09-13T05:42:01Z</time>
      </trkpt>
      <trkpt lat="47.38584" lon="7.20218">
        <ele>791</ele>
        <time>2022-09-13T05:42:37Z</time>
      </trkpt>
      <trkpt lat="47.38573" lon="7.20221">
        <ele>789</ele>
        <time>2022-09-13T05:42:46Z</time>
      </trkpt>
      <trkpt lat="47.38553" lon="7.20237">
        <ele>786</ele>
        <time>2022-09-13T05:43:04Z</time>
      </trkpt>
      <trkpt lat="47.38543" lon="7.20253">
        <ele>785</ele>
        <time>2022-09-13T05:43:16Z</time>
      </trkpt>
      <trkpt lat="47.38536" lon="7.20274">
        <ele>784</ele>
        <time>2022-09-13T05:43:29Z</time>
      </trkpt>
      <trkpt lat="47.38529" lon="7.20301">
        <ele>785</ele>
        <time>2022-09-13T05:43:44Z</time>
      </trkpt>
      <trkpt lat="47.38507" lon="7.20453">
        <ele>797</ele>
        <time>2022-09-13T05:45:09Z</time>
      </trkpt>
      <trkpt lat="47.3849" lon="7.20547">
        <ele>802</ele>
        <time>2022-09-13T05:46:01Z</time>
      </trkpt>
      <trkpt lat="47.38484" lon="7.20607">
        <ele>804</ele>
        <time>2022-09-13T05:46:34Z</time>
      </trkpt>
      <trkpt lat="47.38474" lon="7.20609">
        <ele>802</ele>
        <time>2022-09-13T05:46:42Z</time>
      </trkpt>
      <trkpt lat="47.38467" lon="7.20627">
        <ele>801</ele>
        <time>2022-09-13T05:46:54Z</time>
      </trkpt>
      <trkpt lat="47.38409" lon="7.20913">
        <ele>820</ele>
        <time>2022-09-13T05:49:35Z</time>
      </trkpt>
      <trkpt lat="47.38403" lon="7.20933">
        <ele>822</ele>
        <time>2022-09-13T05:49:47Z</time>
      </trkpt>
      <trkpt lat="47.38393" lon="7.20952">
        <ele>823</ele>
        <time>2022-09-13T05:50:00Z</time>
      </trkpt>
      <trkpt lat="47.38364" lon="7.20979">
        <ele>825</ele>
        <time>2022-09-13T05:50:28Z</time>
      </trkpt>
      <trkpt lat="47.38329" lon="7.21005">
        <ele>831</ele>
        <time>2022-09-13T05:50:59Z</time>
      </trkpt>
      <trkpt lat="47.38293" lon="7.21037">
        <ele>842</ele>
        <time>2022-09-13T05:51:33Z</time>
      </trkpt>
      <trkpt lat="47.38277" lon="7.21048">
        <ele>846</ele>
        <time>2022-09-13T05:51:47Z</time>
      </trkpt>
      <trkpt lat="47.38267" lon="7.21051">
        <ele>847</ele>
        <time>2022-09-13T05:51:55Z</time>
      </trkpt>
      <trkpt lat="47.38254" lon="7.21047">
        <ele>846</ele>
        <time>2022-09-13T05:52:06Z</time>
      </trkpt>
      <trkpt lat="47.38234" lon="7.21032">
        <ele>840</ele>
        <time>2022-09-13T05:52:24Z</time>
      </trkpt>
      <trkpt lat="47.38211" lon="7.21007">
        <ele>832</ele>
        <time>2022-09-13T05:52:47Z</time>
      </trkpt>
      <trkpt lat="47.38187" lon="7.20985">
        <ele>826</ele>
        <time>2022-09-13T05:53:09Z</time>
      </trkpt>
      <trkpt lat="47.38168" lon="7.20981">
        <ele>827</ele>
        <time>2022-09-13T05:53:25Z</time>
      </trkpt>
      <trkpt lat="47.38154" lon="7.2099">
        <ele>828</ele>
        <time>2022-09-13T05:53:37Z</time>
      </trkpt>
      <trkpt lat="47.38146" lon="7.21">
        <ele>829</ele>
        <time>2022-09-13T05:53:45Z</time>
      </trkpt>
      <trkpt lat="47.38118" lon="7.21043">
        <ele>832</ele>
        <time>2022-09-13T05:54:18Z</time>
      </trkpt>
      <trkpt lat="47.38107" lon="7.21063">
        <ele>833</ele>
        <time>2022-09-13T05:54:32Z</time>
      </trkpt>
      <trkpt lat="47.38098" lon="7.21076">
        <ele>833</ele>
        <time>2022-09-13T05:54:42Z</time>
      </trkpt>
      <trkpt lat="47.38083" lon="7.21091">
        <ele>831</ele>
        <time>2022-09-13T05:54:56Z</time>
      </trkpt>
      <trkpt lat="47.38063" lon="7.21098">
        <ele>831</ele>
        <time>2022-09-13T05:55:13Z</time>
      </trkpt>
      <trkpt lat="47.37998" lon="7.21094">
        <ele>827</ele>
        <time>2022-09-13T05:56:05Z</time>
      </trkpt>
      <trkpt lat="47.37949" lon="7.21098">
        <ele>828</ele>
        <time>2022-09-13T05:56:44Z</time>
      </trkpt>
      <trkpt lat="47.37929" lon="7.21103">
        <ele>828</ele>
        <time>2022-09-13T05:57:00Z</time>
      </trkpt>
      <trkpt lat="47.37878" lon="7.2112">
        <ele>828</ele>
        <time>2022-09-13T05:57:42Z</time>
      </trkpt>
      <trkpt lat="47.37818" lon="7.21154">
        <ele>828</ele>
        <time>2022-09-13T05:58:33Z</time>
      </trkpt>
      <trkpt lat="47.37748" lon="7.212">
        <ele>826</ele>
        <time>2022-09-13T05:59:35Z</time>
      </trkpt>
      <trkpt lat="47.37714" lon="7.21233">
        <ele>824</ele>
        <time>2022-09-13T06:00:07Z</time>
      </trkpt>
      <trkpt lat="47.377" lon="7.21252">
        <ele>823</ele>
        <time>2022-09-13T06:00:23Z</time>
      </trkpt>
      <trkpt lat="47.37693" lon="7.21246">
        <ele>823</ele>
        <time>2022-09-13T06:00:29Z</time>
      </trkpt>
      <trkpt lat="47.37686" lon="7.21247">
        <ele>823</ele>
        <time>2022-09-13T06:00:35Z</time>
      </trkpt>
      <trkpt lat="47.37388" lon="7.21499">
        <ele>844</ele>
        <time>2022-09-13T06:05:10Z</time>
      </trkpt>
      <trkpt lat="47.3734" lon="7.21535">
        <ele>849</ele>
        <time>2022-09-13T06:05:53Z</time>
      </trkpt>
      <trkpt lat="47.3731" lon="7.21552">
        <ele>853</ele>
        <time>2022-09-13T06:06:19Z</time>
      </trkpt>
      <trkpt lat="47.37292" lon="7.21557">
        <ele>855</ele>
        <time>2022-09-13T06:06:33Z</time>
      </trkpt>
      <trkpt lat="47.37239" lon="7.21579">
        <ele>860</ele>
        <time>2022-09-13T06:07:17Z</time>
      </trkpt>
      <trkpt lat="47.37214" lon="7.21592">
        <ele>862</ele>
        <time>2022-09-13T06:07:39Z</time>
      </trkpt>
      <trkpt lat="47.37176" lon="7.21627">
        <ele>862</ele>
        <time>2022-09-13T06:08:14Z</time>
      </trkpt>
      <trkpt lat="47.37134" lon="7.21662">
        <ele>861</ele>
        <time>2022-09-13T06:08:53Z</time>
      </trkpt>
      <trkpt lat="47.37118" lon="7.21679">
        <ele>860</ele>
        <time>2022-09-13T06:09:09Z</time>
      </trkpt>
      <trkpt lat="47.371" lon="7.21692">
        <ele>860</ele>
        <time>2022-09-13T06:09:25Z</time>
      </trkpt>
      <trkpt lat="47.37087" lon="7.21696">
        <ele>861</ele>
        <time>2022-09-13T06:09:35Z</time>
      </trkpt>
      <trkpt lat="47.37051" lon="7.21697">
        <ele>863</ele>
        <time>2022-09-13T06:10:04Z</time>
      </trkpt>
      <trkpt lat="47.37036" lon="7.217">
        <ele>864</ele>
        <time>2022-09-13T06:10:16Z</time>
      </trkpt>
      <trkpt lat="47.36996" lon="7.21719">
        <ele>864</ele>
        <time>2022-09-13T06:10:50Z</time>
      </trkpt>
      <trkpt lat="47.36963" lon="7.21729">
        <ele>861</ele>
        <time>2022-09-13T06:11:17Z</time>
      </trkpt>
      <trkpt lat="47.36935" lon="7.21735">
        <ele>859</ele>
        <time>2022-09-13T06:11:40Z</time>
      </trkpt>
      <trkpt lat="47.36919" lon="7.21732">
        <ele>858</ele>
        <time>2022-09-13T06:11:53Z</time>
      </trkpt>
      <trkpt lat="47.36886" lon="7.21716">
        <ele>856</ele>
        <time>2022-09-13T06:12:20Z</time>
      </trkpt>
      <trkpt lat="47.36855" lon="7.21693">
        <ele>858</ele>
        <time>2022-09-13T06:12:48Z</time>
      </trkpt>
      <trkpt lat="47.36825" lon="7.2166">
        <ele>864</ele>
        <time>2022-09-13T06:13:18Z</time>
      </trkpt>
      <trkpt lat="47.36813" lon="7.21652">
        <ele>863</ele>
        <time>2022-09-13T06:13:29Z</time>
      </trkpt>
      <trkpt lat="47.3676" lon="7.21624">
        <ele>857</ele>
        <time>2022-09-13T06:14:14Z</time>
      </trkpt>
      <trkpt lat="47.36724" lon="7.2159">
        <ele>855</ele>
        <time>2022-09-13T06:14:48Z</time>
      </trkpt>
      <trkpt lat="47.36705" lon="7.21568">
        <ele>853</ele>
        <time>2022-09-13T06:15:07Z</time>
      </trkpt>
      <trkpt lat="47.36677" lon="7.21522">
        <ele>854</ele>
        <time>2022-09-13T06:15:41Z</time>
      </trkpt>
      <trkpt lat="47.36658" lon="7.21476">
        <ele>858</ele>
        <time>2022-09-13T06:16:10Z</time>
      </trkpt>
      <trkpt lat="47.36648" lon="7.21447">
        <ele>861</ele>
        <time>2022-09-13T06:16:28Z</time>
      </trkpt>
      <trkpt lat="47.36627" lon="7.21396">
        <ele>864</ele>
        <time>2022-09-13T06:17:00Z</time>
      </trkpt>
      <trkpt lat="47.36608" lon="7.21365">
        <ele>862</ele>
        <time>2022-09-13T06:17:23Z</time>
      </trkpt>
      <trkpt lat="47.36562" lon="7.21299">
        <ele>858</ele>
        <time>2022-09-13T06:18:14Z</time>
      </trkpt>
      <trkpt lat="47.36544" lon="7.21267">
        <ele>858</ele>
        <time>2022-09-13T06:18:37Z</time>
      </trkpt>
      <trkpt lat="47.36531" lon="7.2124">
        <ele>857</ele>
        <time>2022-09-13T06:18:55Z</time>
      </trkpt>
      <trkpt lat="47.36492" lon="7.21136">
        <ele>857</ele>
        <time>2022-09-13T06:19:59Z</time>
      </trkpt>
      <trkpt lat="47.36457" lon="7.21068">
        <ele>859</ele>
        <time>2022-09-13T06:20:45Z</time>
      </trkpt>
      <trkpt lat="47.36438" lon="7.2104">
        <ele>859</ele>
        <time>2022-09-13T06:21:07Z</time>
      </trkpt>
      <trkpt lat="47.36404" lon="7.20999">
        <ele>857</ele>
        <time>2022-09-13T06:21:42Z</time>
      </trkpt>
      <trkpt lat="47.36341" lon="7.20935">
        <ele>851</ele>
        <time>2022-09-13T06:22:43Z</time>
      </trkpt>
      <trkpt lat="47.36178" lon="7.20798">
        <ele>841</ele>
        <time>2022-09-13T06:25:13Z</time>
      </trkpt>
      <trkpt lat="47.36144" lon="7.20754">
        <ele>838</ele>
        <time>2022-09-13T06:25:50Z</time>
      </trkpt>
      <trkpt lat="47.36093" lon="7.20682">
        <ele>842</ele>
        <time>2022-09-13T06:26:46Z</time>
      </trkpt>
      <trkpt lat="47.36046" lon="7.20626">
        <ele>844</ele>
        <time>2022-09-13T06:27:35Z</time>
      </trkpt>
      <trkpt lat="47.35998" lon="7.20579">
        <ele>846</ele>
        <time>2022-09-13T06:28:21Z</time>
      </trkpt>
      <trkpt lat="47.35938" lon="7.20529">
        <ele>845</ele>
        <time>2022-09-13T06:29:16Z</time>
      </trkpt>
      <trkpt lat="47.35858" lon="7.2047">
        <ele>843</ele>
        <time>2022-09-13T06:30:27Z</time>
      </trkpt>
      <trkpt lat="47.35809" lon="7.2044">
        <ele>841</ele>
        <time>2022-09-13T06:31:10Z</time>
      </trkpt>
      <trkpt lat="47.35751" lon="7.20398">
        <ele>840</ele>
        <time>2022-09-13T06:32:02Z</time>
      </trkpt>
      <trkpt lat="47.35717" lon="7.20368">
        <ele>836</ele>
        <time>2022-09-13T06:32:33Z</time>
      </trkpt>
      <trkpt lat="47.35693" lon="7.20338">
        <ele>835</ele>
        <time>2022-09-13T06:32:58Z</time>
      </trkpt>
      <trkpt lat="47.35669" lon="7.20279">
        <ele>841</ele>
        <time>2022-09-13T06:33:36Z</time>
      </trkpt>
      <trkpt lat="47.35651" lon="7.20248">
        <ele>841</ele>
        <time>2022-09-13T06:33:58Z</time>
      </trkpt>
      <trkpt lat="47.35554" lon="7.20115">
        <ele>837</ele>
        <time>2022-09-13T06:35:44Z</time>
      </trkpt>
      <trkpt lat="47.35533" lon="7.20088">
        <ele>838</ele>
        <time>2022-09-13T06:36:06Z</time>
      </trkpt>
      <trkpt lat="47.35514" lon="7.20066">
        <ele>839</ele>
        <time>2022-09-13T06:36:26Z</time>
      </trkpt>
      <trkpt lat="47.35486" lon="7.20046">
        <ele>839</ele>
        <time>2022-09-13T06:36:51Z</time>
      </trkpt>
      <trkpt lat="47.35471" lon="7.20038">
        <ele>838</ele>
        <time>2022-09-13T06:37:03Z</time>
      </trkpt>
      <trkpt lat="47.35433" lon="7.20027">
        <ele>831</ele>
        <time>2022-09-13T06:37:34Z</time>
      </trkpt>
      <trkpt lat="47.35413" lon="7.20019">
        <ele>829</ele>
        <time>2022-09-13T06:37:51Z</time>
      </trkpt>
      <trkpt lat="47.35356" lon="7.19965">
        <ele>829</ele>
        <time>2022-09-13T06:38:45Z</time>
      </trkpt>
      <trkpt lat="47.3532" lon="7.19928">
        <ele>828</ele>
        <time>2022-09-13T06:39:20Z</time>
      </trkpt>
      <trkpt lat="47.35287" lon="7.19907">
        <ele>822</ele>
        <time>2022-09-13T06:39:49Z</time>
      </trkpt>
      <trkpt lat="47.35246" lon="7.1989">
        <ele>814</ele>
        <time>2022-09-13T06:40:23Z</time>
      </trkpt>
      <trkpt lat="47.352" lon="7.19875">
        <ele>810</ele>
        <time>2022-09-13T06:41:01Z</time>
      </trkpt>
      <trkpt lat="47.35188" lon="7.19865">
        <ele>810</ele>
        <time>2022-09-13T06:41:12Z</time>
      </trkpt>
      <trkpt lat="47.35122" lon="7.19773">
        <ele>809</ele>
        <time>2022-09-13T06:42:25Z</time>
      </trkpt>
      <trkpt lat="47.3508" lon="7.19696">
        <ele>810</ele>
        <time>2022-09-13T06:43:18Z</time>
      </trkpt>
      <trkpt lat="47.35064" lon="7.19672">
        <ele>810</ele>
        <time>2022-09-13T06:43:36Z</time>
      </trkpt>
      <trkpt lat="47.35037" lon="7.19636">
        <ele>809</ele>
        <time>2022-09-13T06:44:06Z</time>
      </trkpt>
      <trkpt lat="47.34992" lon="7.19563">
        <ele>812</ele>
        <time>2022-09-13T06:44:59Z</time>
      </trkpt>
      <trkpt lat="47.34966" lon="7.19534">
        <ele>808</ele>
        <time>2022-09-13T06:45:25Z</time>
      </trkpt>
      <trkpt lat="47.34927" lon="7.19498">
        <ele>806</ele>
        <time>2022-09-13T06:46:02Z</time>
      </trkpt>
      <trkpt lat="47.34901" lon="7.19469">
        <ele>801</ele>
        <time>2022-09-13T06:46:28Z</time>
      </trkpt>
      <trkpt lat="47.34887" lon="7.19451">
        <ele>798</ele>
        <time>2022-09-13T06:46:43Z</time>
      </trkpt>
      <trkpt lat="47.34882" lon="7.19436">
        <ele>797</ele>
        <time>2022-09-13T06:46:52Z</time>
      </trkpt>
      <trkpt lat="47.34886" lon="7.1942">
        <ele>798</ele>
        <time>2022-09-13T06:47:01Z</time>
      </trkpt>
      <trkpt lat="47.34894" lon="7.19415">
        <ele>798</ele>
        <time>2022-09-13T06:47:08Z</time>
      </trkpt>
      <trkpt lat="47.34983" lon="7.19413">
        <ele>797</ele>
        <time>2022-09-13T06:48:20Z</time>
      </trkpt>
      <trkpt lat="47.34994" lon="7.19401">
        <ele>796</ele>
        <time>2022-09-13T06:48:30Z</time>
      </trkpt>
      <trkpt lat="47.34999" lon="7.19384">
        <ele>795</ele>
        <time>2022-09-13T06:48:41Z</time>
      </trkpt>
      <trkpt lat="47.34998" lon="7.19369">
        <ele>795</ele>
        <time>2022-09-13T06:48:49Z</time>
      </trkpt>
      <trkpt lat="47.34994" lon="7.19353">
        <ele>794</ele>
        <time>2022-09-13T06:48:58Z</time>
      </trkpt>
      <trkpt lat="47.34986" lon="7.1934">
        <ele>793</ele>
        <time>2022-09-13T06:49:07Z</time>
      </trkpt>
      <trkpt lat="47.34908" lon="7.19215">
        <ele>793</ele>
        <time>2022-09-13T06:50:40Z</time>
      </trkpt>
      <trkpt lat="47.34821" lon="7.19059">
        <ele>793</ele>
        <time>2022-09-13T06:52:29Z</time>
      </trkpt>
      <trkpt lat="47.3478" lon="7.18964">
        <ele>790</ele>
        <time>2022-09-13T06:53:30Z</time>
      </trkpt>
      <trkpt lat="47.34737" lon="7.18845">
        <ele>790</ele>
        <time>2022-09-13T06:54:44Z</time>
      </trkpt>
      <trkpt lat="47.34715" lon="7.1877">
        <ele>791</ele>
        <time>2022-09-13T06:55:28Z</time>
      </trkpt>
      <trkpt lat="47.34703" lon="7.18724">
        <ele>791</ele>
        <time>2022-09-13T06:55:55Z</time>
      </trkpt>
      <trkpt lat="47.3469" lon="7.1869">
        <ele>788</ele>
        <time>2022-09-13T06:56:16Z</time>
      </trkpt>
      <trkpt lat="47.34673" lon="7.18632">
        <ele>787</ele>
        <time>2022-09-13T06:56:50Z</time>
      </trkpt>
      <trkpt lat="47.34646" lon="7.18513">
        <ele>786</ele>
        <time>2022-09-13T06:57:58Z</time>
      </trkpt>
      <trkpt lat="47.3464" lon="7.18464">
        <ele>782</ele>
        <time>2022-09-13T06:58:25Z</time>
      </trkpt>
      <trkpt lat="47.34633" lon="7.18426">
        <ele>778</ele>
        <time>2022-09-13T06:58:47Z</time>
      </trkpt>
      <trkpt lat="47.34617" lon="7.18383">
        <ele>774</ele>
        <time>2022-09-13T06:59:13Z</time>
      </trkpt>
      <trkpt lat="47.346" lon="7.18347">
        <ele>774</ele>
        <time>2022-09-13T06:59:37Z</time>
      </trkpt>
      <trkpt lat="47.34569" lon="7.18296">
        <ele>772</ele>
        <time>2022-09-13T07:00:14Z</time>
      </trkpt>
      <trkpt lat="47.3448" lon="7.18186">
        <ele>776</ele>
        <time>2022-09-13T07:01:47Z</time>
      </trkpt>
      <trkpt lat="47.34457" lon="7.18149">
        <ele>774</ele>
        <time>2022-09-13T07:02:14Z</time>
      </trkpt>
      <trkpt lat="47.34437" lon="7.18123">
        <ele>774</ele>
        <time>2022-09-13T07:02:36Z</time>
      </trkpt>
      <trkpt lat="47.3442" lon="7.1811">
        <ele>777</ele>
        <time>2022-09-13T07:02:51Z</time>
      </trkpt>
      <trkpt lat="47.34379" lon="7.18067">
        <ele>776</ele>
        <time>2022-09-13T07:03:31Z</time>
      </trkpt>
      <trkpt lat="47.34334" lon="7.18035">
        <ele>777</ele>
        <time>2022-09-13T07:04:11Z</time>
      </trkpt>
      <trkpt lat="47.34284" lon="7.18009">
        <ele>780</ele>
        <time>2022-09-13T07:04:54Z</time>
      </trkpt>
      <trkpt lat="47.34271" lon="7.17999">
        <ele>782</ele>
        <time>2022-09-13T07:05:05Z</time>
      </trkpt>
      <trkpt lat="47.3415" lon="7.17856">
        <ele>791</ele>
        <time>2022-09-13T07:07:10Z</time>
      </trkpt>
      <trkpt lat="47.3409" lon="7.17794">
        <ele>799</ele>
        <time>2022-09-13T07:08:08Z</time>
      </trkpt>
      <trkpt lat="47.34029" lon="7.17761">
        <ele>810</ele>
        <time>2022-09-13T07:09:00Z</time>
      </trkpt>
      <trkpt lat="47.33941" lon="7.17719">
        <ele>822</ele>
        <time>2022-09-13T07:10:14Z</time>
      </trkpt>
      <trkpt lat="47.33902" lon="7.17713">
        <ele>824</ele>
        <time>2022-09-13T07:10:46Z</time>
      </trkpt>
      <trkpt lat="47.33878" lon="7.17707">
        <ele>825</ele>
        <time>2022-09-13T07:11:05Z</time>
      </trkpt>
      <trkpt lat="47.33819" lon="7.1768">
        <ele>829</ele>
        <time>2022-09-13T07:11:55Z</time>
      </trkpt>
      <trkpt lat="47.338" lon="7.1766">
        <ele>831</ele>
        <time>2022-09-13T07:12:13Z</time>
      </trkpt>
      <trkpt lat="47.3377" lon="7.17616">
        <ele>834</ele>
        <time>2022-09-13T07:12:47Z</time>
      </trkpt>
      <trkpt lat="47.33694" lon="7.17492">
        <ele>837</ele>
        <time>2022-09-13T07:14:18Z</time>
      </trkpt>
      <trkpt lat="47.33621" lon="7.17387">
        <ele>850</ele>
        <time>2022-09-13T07:15:40Z</time>
      </trkpt>
      <trkpt lat="47.33578" lon="7.17339">
        <ele>848</ele>
        <time>2022-09-13T07:16:23Z</time>
      </trkpt>
      <trkpt lat="47.33481" lon="7.17237">
        <ele>851</ele>
        <time>2022-09-13T07:17:58Z</time>
      </trkpt>
      <trkpt lat="47.334" lon="7.17166">
        <ele>851</ele>
        <time>2022-09-13T07:19:14Z</time>
      </trkpt>
      <trkpt lat="47.33277" lon="7.17073">
        <ele>842</ele>
        <time>2022-09-13T07:21:04Z</time>
      </trkpt>
      <trkpt lat="47.33211" lon="7.16999">
        <ele>846</ele>
        <time>2022-09-13T07:22:11Z</time>
      </trkpt>
      <trkpt lat="47.33164" lon="7.16957">
        <ele>846</ele>
        <time>2022-09-13T07:22:55Z</time>
      </trkpt>
      <trkpt lat="47.33144" lon="7.16935">
        <ele>846</ele>
        <time>2022-09-13T07:23:15Z</time>
      </trkpt>
      <trkpt lat="47.33125" lon="7.16907">
        <ele>849</ele>
        <time>2022-09-13T07:23:36Z</time>
      </trkpt>
      <trkpt lat="47.33073" lon="7.16818">
        <ele>858</ele>
        <time>2022-09-13T07:24:40Z</time>
      </trkpt>
      <trkpt lat="47.33015" lon="7.16724">
        <ele>856</ele>
        <time>2022-09-13T07:25:49Z</time>
      </trkpt>
      <trkpt lat="47.32759" lon="7.16419">
        <ele>854</ele>
        <time>2022-09-13T07:30:12Z</time>
      </trkpt>
      <trkpt lat="47.32621" lon="7.16299">
        <ele>854</ele>
        <time>2022-09-13T07:32:20Z</time>
      </trkpt>
      <trkpt lat="47.32491" lon="7.16198">
        <ele>855</ele>
        <time>2022-09-13T07:34:18Z</time>
      </trkpt>
      <trkpt lat="47.32315" lon="7.16042">
        <ele>857</ele>
        <time>2022-09-13T07:37:03Z</time>
      </trkpt>
      <trkpt lat="47.32155" lon="7.15863">
        <ele>859</ele>
        <time>2022-09-13T07:39:43Z</time>
      </trkpt>
      <trkpt lat="47.31985" lon="7.15687">
        <ele>862</ele>
        <time>2022-09-13T07:42:30Z</time>
      </trkpt>
      <trkpt lat="47.31945" lon="7.15637">
        <ele>865</ele>
        <time>2022-09-13T07:43:12Z</time>
      </trkpt>
      <trkpt lat="47.31831" lon="7.15474">
        <ele>864</ele>
        <time>2022-09-13T07:45:19Z</time>
      </trkpt>
      <trkpt lat="47.31763" lon="7.15357">
        <ele>863</ele>
        <time>2022-09-13T07:46:42Z</time>
      </trkpt>
      <trkpt lat="47.31744" lon="7.15306">
        <ele>865</ele>
        <time>2022-09-13T07:47:14Z</time>
      </trkpt>
      <trkpt lat="47.31727" lon="7.15247">
        <ele>868</ele>
        <time>2022-09-13T07:47:49Z</time>
      </trkpt>
      <trkpt lat="47.31662" lon="7.15117">
        <ele>868</ele>
        <time>2022-09-13T07:49:16Z</time>
      </trkpt>
      <trkpt lat="47.31647" lon="7.15089">
        <ele>868</ele>
        <time>2022-09-13T07:49:36Z</time>
      </trkpt>
      <trkpt lat="47.31595" lon="7.1498">
        <ele>868</ele>
        <time>2022-09-13T07:50:48Z</time>
      </trkpt>
      <trkpt lat="47.31578" lon="7.14946">
        <ele>870</ele>
        <time>2022-09-13T07:51:11Z</time>
      </trkpt>
      <trkpt lat="47.31546" lon="7.14899">
        <ele>871</ele>
        <time>2022-09-13T07:51:47Z</time>
      </trkpt>
      <trkpt lat="47.31529" lon="7.14881">
        <ele>872</ele>
        <time>2022-09-13T07:52:04Z</time>
      </trkpt>
      <trkpt lat="47.31512" lon="7.14858">
        <ele>873</ele>
        <time>2022-09-13T07:52:22Z</time>
      </trkpt>
      <trkpt lat="47.31486" lon="7.14809">
        <ele>877</ele>
        <time>2022-09-13T07:52:56Z</time>
      </trkpt>
      <trkpt lat="47.31472" lon="7.14788">
        <ele>877</ele>
        <time>2022-09-13T07:53:12Z</time>
      </trkpt>
      <trkpt lat="47.31462" lon="7.14777">
        <ele>877</ele>
        <time>2022-09-13T07:53:22Z</time>
      </trkpt>
      <trkpt lat="47.3142" lon="7.14754">
        <ele>871</ele>
        <time>2022-09-13T07:53:58Z</time>
      </trkpt>
      <trkpt lat="47.31403" lon="7.14735">
        <ele>871</ele>
        <time>2022-09-13T07:54:15Z</time>
      </trkpt>
      <trkpt lat="47.31393" lon="7.14719">
        <ele>872</ele>
        <time>2022-09-13T07:54:27Z</time>
      </trkpt>
      <trkpt lat="47.31384" lon="7.147">
        <ele>873</ele>
        <time>2022-09-13T07:54:40Z</time>
      </trkpt>
      <trkpt lat="47.3135" lon="7.14613">
        <ele>877</ele>
        <time>2022-09-13T07:55:34Z</time>
      </trkpt>
      <trkpt lat="47.3133" lon="7.14572">
        <ele>876</ele>
        <time>2022-09-13T07:56:01Z</time>
      </trkpt>
      <trkpt lat="47.3132" lon="7.14543">
        <ele>877</ele>
        <time>2022-09-13T07:56:19Z</time>
      </trkpt>
      <trkpt lat="47.31305" lon="7.1448">
        <ele>881</ele>
        <time>2022-09-13T07:56:55Z</time>
      </trkpt>
      <trkpt lat="47.31299" lon="7.14461">
        <ele>882</ele>
        <time>2022-09-13T07:57:07Z</time>
      </trkpt>
      <trkpt lat="47.31288" lon="7.14438">
        <ele>883</ele>
        <time>2022-09-13T07:57:22Z</time>
      </trkpt>
      <trkpt lat="47.3126" lon="7.14401">
        <ele>881</ele>
        <time>2022-09-13T07:57:52Z</time>
      </trkpt>
      <trkpt lat="47.3124" lon="7.14377">
        <ele>882</ele>
        <time>2022-09-13T07:58:13Z</time>
      </trkpt>
      <trkpt lat="47.31227" lon="7.14364">
        <ele>883</ele>
        <time>2022-09-13T07:58:25Z</time>
      </trkpt>
      <trkpt lat="47.31219" lon="7.1436">
        <ele>883</ele>
        <time>2022-09-13T07:58:32Z</time>
      </trkpt>
      <trkpt lat="47.31205" lon="7.14343">
        <ele>886</ele>
        <time>2022-09-13T07:58:47Z</time>
      </trkpt>
      <trkpt lat="47.3119" lon="7.14335">
        <ele>886</ele>
        <time>2022-09-13T07:58:59Z</time>
      </trkpt>
      <trkpt lat="47.31177" lon="7.14335">
        <ele>886</ele>
        <time>2022-09-13T07:59:10Z</time>
      </trkpt>
      <trkpt lat="47.31158" lon="7.1434">
        <ele>887</ele>
        <time>2022-09-13T07:59:25Z</time>
      </trkpt>
      <trkpt lat="47.31127" lon="7.14353">
        <ele>891</ele>
        <time>2022-09-13T07:59:51Z</time>
      </trkpt>
      <trkpt lat="47.31103" lon="7.14352">
        <ele>896</ele>
        <time>2022-09-13T08:00:10Z</time>
      </trkpt>
      <trkpt lat="47.3108" lon="7.14346">
        <ele>902</ele>
        <time>2022-09-13T08:00:29Z</time>
      </trkpt>
      <trkpt lat="47.31066" lon="7.1435">
        <ele>904</ele>
        <time>2022-09-13T08:00:40Z</time>
      </trkpt>
      <trkpt lat="47.31059" lon="7.14353">
        <ele>904</ele>
        <time>2022-09-13T08:00:46Z</time>
      </trkpt>
      <trkpt lat="47.31046" lon="7.14365">
        <ele>903</ele>
        <time>2022-09-13T08:00:59Z</time>
      </trkpt>
      <trkpt lat="47.31035" lon="7.1438">
        <ele>900</ele>
        <time>2022-09-13T08:01:11Z</time>
      </trkpt>
      <trkpt lat="47.31015" lon="7.14411">
        <ele>892</ele>
        <time>2022-09-13T08:01:34Z</time>
      </trkpt>
      <trkpt lat="47.31006" lon="7.14422">
        <ele>889</ele>
        <time>2022-09-13T08:01:43Z</time>
      </trkpt>
      <trkpt lat="47.31002" lon="7.14425">
        <ele>889</ele>
        <time>2022-09-13T08:01:47Z</time>
      </trkpt>
      <trkpt lat="47.30993" lon="7.14428">
        <ele>886</ele>
        <time>2022-09-13T08:01:54Z</time>
      </trkpt>
      <trkpt lat="47.30986" lon="7.14429">
        <ele>884</ele>
        <time>2022-09-13T08:02:00Z</time>
      </trkpt>
      <trkpt lat="47.30977" lon="7.14422">
        <ele>884</ele>
        <time>2022-09-13T08:02:08Z</time>
      </trkpt>
      <trkpt lat="47.30962" lon="7.14404">
        <ele>887</ele>
        <time>2022-09-13T08:02:23Z</time>
      </trkpt>
      <trkpt lat="47.30928" lon="7.14352">
        <ele>898</ele>
        <time>2022-09-13T08:03:03Z</time>
      </trkpt>
      <trkpt lat="47.30906" lon="7.14325">
        <ele>898</ele>
        <time>2022-09-13T08:03:26Z</time>
      </trkpt>
      <trkpt lat="47.30888" lon="7.14297">
        <ele>895</ele>
        <time>2022-09-13T08:03:46Z</time>
      </trkpt>
      <trkpt lat="47.30855" lon="7.14237">
        <ele>892</ele>
        <time>2022-09-13T08:04:28Z</time>
      </trkpt>
      <trkpt lat="47.30854" lon="7.14219">
        <ele>893</ele>
        <time>2022-09-13T08:04:38Z</time>
      </trkpt>
      <trkpt lat="47.30858" lon="7.14201">
        <ele>896</ele>
        <time>2022-09-13T08:04:48Z</time>
      </trkpt>
      <trkpt lat="47.30883" lon="7.14162">
        <ele>905</ele>
        <time>2022-09-13T08:05:18Z</time>
      </trkpt>
      <trkpt lat="47.3091" lon="7.14117">
        <ele>907</ele>
        <time>2022-09-13T08:05:50Z</time>
      </trkpt>
      <trkpt lat="47.30946" lon="7.14049">
        <ele>907</ele>
        <time>2022-09-13T08:06:37Z</time>
      </trkpt>
      <trkpt lat="47.3099" lon="7.13979">
        <ele>910</ele>
        <time>2022-09-13T08:07:29Z</time>
      </trkpt>
      <trkpt lat="47.30996" lon="7.13967">
        <ele>910</ele>
        <time>2022-09-13T08:07:37Z</time>
      </trkpt>
      <trkpt lat="47.31002" lon="7.13947">
        <ele>909</ele>
        <time>2022-09-13T08:07:49Z</time>
      </trkpt>
      <trkpt lat="47.31003" lon="7.13933">
        <ele>908</ele>
        <time>2022-09-13T08:07:57Z</time>
      </trkpt>
      <trkpt lat="47.31" lon="7.13857">
        <ele>903</ele>
        <time>2022-09-13T08:08:38Z</time>
      </trkpt>
      <trkpt lat="47.31002" lon="7.13832">
        <ele>903</ele>
        <time>2022-09-13T08:08:52Z</time>
      </trkpt>
      <trkpt lat="47.31027" lon="7.13667">
        <ele>916</ele>
        <time>2022-09-13T08:10:23Z</time>
      </trkpt>
      <trkpt lat="47.31029" lon="7.13634">
        <ele>918</ele>
        <time>2022-09-13T08:10:41Z</time>
      </trkpt>
      <trkpt lat="47.31027" lon="7.13569">
        <ele>920</ele>
        <time>2022-09-13T08:11:17Z</time>
      </trkpt>
      <trkpt lat="47.31013" lon="7.13468">
        <ele>920</ele>
        <time>2022-09-13T08:12:13Z</time>
      </trkpt>
      <trkpt lat="47.30968" lon="7.12964">
        <ele>933</ele>
        <time>2022-09-13T08:16:49Z</time>
      </trkpt>
      <trkpt lat="47.30961" lon="7.12866">
        <ele>935</ele>
        <time>2022-09-13T08:17:42Z</time>
      </trkpt>
      <trkpt lat="47.30946" lon="7.12782">
        <ele>936</ele>
        <time>2022-09-13T08:18:29Z</time>
      </trkpt>
      <trkpt lat="47.30925" lon="7.1269">
        <ele>937</ele>
        <time>2022-09-13T08:19:22Z</time>
      </trkpt>
      <trkpt lat="47.30918" lon="7.12649">
        <ele>937</ele>
        <time>2022-09-13T08:19:45Z</time>
      </trkpt>
      <trkpt lat="47.30912" lon="7.12609">
        <ele>937</ele>
        <time>2022-09-13T08:20:07Z</time>
      </trkpt>
      <trkpt lat="47.30865" lon="7.12298">
        <ele>938</ele>
        <time>2022-09-13T08:23:00Z</time>
      </trkpt>
      <trkpt lat="47.30857" lon="7.12231">
        <ele>937</ele>
        <time>2022-09-13T08:23:37Z</time>
      </trkpt>
      <trkpt lat="47.30852" lon="7.12166">
        <ele>937</ele>
        <time>2022-09-13T08:24:13Z</time>
      </trkpt>
      <trkpt lat="47.3085" lon="7.12125">
        <ele>938</ele>
        <time>2022-09-13T08:24:35Z</time>
      </trkpt>
      <trkpt lat="47.30848" lon="7.12114">
        <ele>938</ele>
        <time>2022-09-13T08:24:41Z</time>
      </trkpt>
      <trkpt lat="47.30828" lon="7.12048">
        <ele>937</ele>
        <time>2022-09-13T08:25:20Z</time>
      </trkpt>
      <trkpt lat="47.30778" lon="7.11939">
        <ele>938</ele>
        <time>2022-09-13T08:26:32Z</time>
      </trkpt>
      <trkpt lat="47.30755" lon="7.11842">
        <ele>943</ele>
        <time>2022-09-13T08:27:28Z</time>
      </trkpt>
      <trkpt lat="47.30746" lon="7.1181">
        <ele>944</ele>
        <time>2022-09-13T08:27:46Z</time>
      </trkpt>
      <trkpt lat="47.30734" lon="7.11772">
        <ele>945</ele>
        <time>2022-09-13T08:28:09Z</time>
      </trkpt>
      <trkpt lat="47.30707" lon="7.11705">
        <ele>947</ele>
        <time>2022-09-13T08:28:51Z</time>
      </trkpt>
      <trkpt lat="47.30678" lon="7.11629">
        <ele>951</ele>
        <time>2022-09-13T08:29:39Z</time>
      </trkpt>
      <trkpt lat="47.30665" lon="7.11587">
        <ele>953</ele>
        <time>2022-09-13T08:30:04Z</time>
      </trkpt>
      <trkpt lat="47.30652" lon="7.11542">
        <ele>954</ele>
        <time>2022-09-13T08:30:30Z</time>
      </trkpt>
      <trkpt lat="47.30636" lon="7.11472">
        <ele>957</ele>
        <time>2022-09-13T08:31:10Z</time>
      </trkpt>
      <trkpt lat="47.30572" lon="7.11316">
        <ele>963</ele>
        <time>2022-09-13T08:32:49Z</time>
      </trkpt>
      <trkpt lat="47.30565" lon="7.11305">
        <ele>963</ele>
        <time>2022-09-13T08:32:58Z</time>
      </trkpt>
      <trkpt lat="47.30545" lon="7.11283">
        <ele>963</ele>
        <time>2022-09-13T08:33:18Z</time>
      </trkpt>
      <trkpt lat="47.30541" lon="7.11266">
        <ele>964</ele>
        <time>2022-09-13T08:33:27Z</time>
      </trkpt>
      <trkpt lat="47.30532" lon="7.11203">
        <ele>969</ele>
        <time>2022-09-13T08:34:02Z</time>
      </trkpt>
      <trkpt lat="47.30527" lon="7.11177">
        <ele>972</ele>
        <time>2022-09-13T08:34:17Z</time>
      </trkpt>
      <trkpt lat="47.30522" lon="7.11166">
        <ele>973</ele>
        <time>2022-09-13T08:34:24Z</time>
      </trkpt>
      <trkpt lat="47.30503" lon="7.11148">
        <ele>979</ele>
        <time>2022-09-13T08:34:42Z</time>
      </trkpt>
      <trkpt lat="47.30488" lon="7.11143">
        <ele>984</ele>
        <time>2022-09-13T08:34:55Z</time>
      </trkpt>
      <trkpt lat="47.30475" lon="7.11145">
        <ele>988</ele>
        <time>2022-09-13T08:35:05Z</time>
      </trkpt>
      <trkpt lat="47.30461" lon="7.11151">
        <ele>991</ele>
        <time>2022-09-13T08:35:17Z</time>
      </trkpt>
      <trkpt lat="47.30411" lon="7.1119">
        <ele>993</ele>
        <time>2022-09-13T08:36:02Z</time>
      </trkpt>
      <trkpt lat="47.30385" lon="7.11215">
        <ele>990</ele>
        <time>2022-09-13T08:36:27Z</time>
      </trkpt>
      <trkpt lat="47.3036" lon="7.11245">
        <ele>987</ele>
        <time>2022-09-13T08:36:53Z</time>
      </trkpt>
      <trkpt lat="47.30343" lon="7.11258">
        <ele>990</ele>
        <time>2022-09-13T08:37:08Z</time>
      </trkpt>
      <trkpt lat="47.30333" lon="7.11261">
        <ele>992</ele>
        <time>2022-09-13T08:37:16Z</time>
      </trkpt>
      <trkpt lat="47.30318" lon="7.11258">
        <ele>993</ele>
        <time>2022-09-13T08:37:28Z</time>
      </trkpt>
      <trkpt lat="47.30302" lon="7.11248">
        <ele>995</ele>
        <time>2022-09-13T08:37:42Z</time>
      </trkpt>
      <trkpt lat="47.30294" lon="7.11237">
        <ele>997</ele>
        <time>2022-09-13T08:37:51Z</time>
      </trkpt>
      <trkpt lat="47.30288" lon="7.11226">
        <ele>998</ele>
        <time>2022-09-13T08:37:59Z</time>
      </trkpt>
      <trkpt lat="47.30281" lon="7.11207">
        <ele>999</ele>
        <time>2022-09-13T08:38:10Z</time>
      </trkpt>
      <trkpt lat="47.30244" lon="7.11061">
        <ele>1006</ele>
        <time>2022-09-13T08:39:35Z</time>
      </trkpt>
      <trkpt lat="47.30234" lon="7.11034">
        <ele>1006</ele>
        <time>2022-09-13T08:39:52Z</time>
      </trkpt>
      <trkpt lat="47.30182" lon="7.10917">
        <ele>1006</ele>
        <time>2022-09-13T08:41:08Z</time>
      </trkpt>
      <trkpt lat="47.30173" lon="7.10892">
        <ele>1006</ele>
        <time>2022-09-13T08:41:23Z</time>
      </trkpt>
      <trkpt lat="47.30149" lon="7.10811">
        <ele>1006</ele>
        <time>2022-09-13T08:42:11Z</time>
      </trkpt>
      <trkpt lat="47.30111" lon="7.10712">
        <ele>1004</ele>
        <time>2022-09-13T08:43:13Z</time>
      </trkpt>
      <trkpt lat="47.30102" lon="7.10684">
        <ele>1004</ele>
        <time>2022-09-13T08:43:30Z</time>
      </trkpt>
      <trkpt lat="47.30089" lon="7.10637">
        <ele>1004</ele>
        <time>2022-09-13T08:43:57Z</time>
      </trkpt>
      <trkpt lat="47.30067" lon="7.10522">
        <ele>1005</ele>
        <time>2022-09-13T08:45:02Z</time>
      </trkpt>
      <trkpt lat="47.30052" lon="7.1032">
        <ele>1004</ele>
        <time>2022-09-13T08:46:52Z</time>
      </trkpt>
      <trkpt lat="47.30049" lon="7.1025">
        <ele>1005</ele>
        <time>2022-09-13T08:47:31Z</time>
      </trkpt>
      <trkpt lat="47.30049" lon="7.10192">
        <ele>1004</ele>
        <time>2022-09-13T08:48:02Z</time>
      </trkpt>
      <trkpt lat="47.30051" lon="7.10127">
        <ele>1003</ele>
        <time>2022-09-13T08:48:37Z</time>
      </trkpt>
      <trkpt lat="47.30056" lon="7.10035">
        <ele>1000</ele>
        <time>2022-09-13T08:49:27Z</time>
      </trkpt>
      <trkpt lat="47.30083" lon="7.09656">
        <ele>985</ele>
        <time>2022-09-13T08:52:54Z</time>
      </trkpt>
      <trkpt lat="47.30082" lon="7.09621">
        <ele>982</ele>
        <time>2022-09-13T08:53:13Z</time>
      </trkpt>
      <trkpt lat="47.3008" lon="7.09589">
        <ele>979</ele>
        <time>2022-09-13T08:53:31Z</time>
      </trkpt>
      <trkpt lat="47.30075" lon="7.09553">
        <ele>978</ele>
        <time>2022-09-13T08:53:51Z</time>
      </trkpt>
      <trkpt lat="47.30069" lon="7.09523">
        <ele>977</ele>
        <time>2022-09-13T08:54:08Z</time>
      </trkpt>
      <trkpt lat="47.30061" lon="7.09497">
        <ele>976</ele>
        <time>2022-09-13T08:54:23Z</time>
      </trkpt>
      <trkpt lat="47.30041" lon="7.09451">
        <ele>976</ele>
        <time>2022-09-13T08:54:53Z</time>
      </trkpt>
      <trkpt lat="47.30029" lon="7.09428">
        <ele>976</ele>
        <time>2022-09-13T08:55:09Z</time>
      </trkpt>
      <trkpt lat="47.29982" lon="7.09356">
        <ele>971</ele>
        <time>2022-09-13T08:56:03Z</time>
      </trkpt>
      <trkpt lat="47.29966" lon="7.09324">
        <ele>970</ele>
        <time>2022-09-13T08:56:25Z</time>
      </trkpt>
      <trkpt lat="47.29951" lon="7.09289">
        <ele>968</ele>
        <time>2022-09-13T08:56:47Z</time>
      </trkpt>
      <trkpt lat="47.29939" lon="7.09253">
        <ele>967</ele>
        <time>2022-09-13T08:57:09Z</time>
      </trkpt>
      <trkpt lat="47.29925" lon="7.09202">
        <ele>968</ele>
        <time>2022-09-13T08:57:39Z</time>
      </trkpt>
      <trkpt lat="47.29849" lon="7.0891">
        <ele>957</ele>
        <time>2022-09-13T09:00:29Z</time>
      </trkpt>
      <trkpt lat="47.29825" lon="7.08828">
        <ele>957</ele>
        <time>2022-09-13T09:01:17Z</time>
      </trkpt>
      <trkpt lat="47.298" lon="7.08751">
        <ele>955</ele>
        <time>2022-09-13T09:02:03Z</time>
      </trkpt>
      <trkpt lat="47.29777" lon="7.0869">
        <ele>952</ele>
        <time>2022-09-13T09:02:41Z</time>
      </trkpt>
      <trkpt lat="47.29643" lon="7.08351">
        <ele>940</ele>
        <time>2022-09-13T09:06:14Z</time>
      </trkpt>
      <trkpt lat="47.2961" lon="7.08253">
        <ele>935</ele>
        <time>2022-09-13T09:07:14Z</time>
      </trkpt>
      <trkpt lat="47.29584" lon="7.08154">
        <ele>934</ele>
        <time>2022-09-13T09:08:11Z</time>
      </trkpt>
      <trkpt lat="47.29389" lon="7.07248">
        <ele>958</ele>
        <time>2022-09-13T09:16:48Z</time>
      </trkpt>
      <trkpt lat="47.29356" lon="7.07119">
        <ele>964</ele>
        <time>2022-09-13T09:18:02Z</time>
      </trkpt>
      <trkpt lat="47.29318" lon="7.07006">
        <ele>967</ele>
        <time>2022-09-13T09:19:11Z</time>
      </trkpt>
      <trkpt lat="47.29292" lon="7.06943">
        <ele>969</ele>
        <time>2022-09-13T09:19:51Z</time>
      </trkpt>
      <trkpt lat="47.29255" lon="7.0686">
        <ele>971</ele>
        <time>2022-09-13T09:20:45Z</time>
      </trkpt>
      <trkpt lat="47.29119" lon="7.06567">
        <ele>982</ele>
        <time>2022-09-13T09:23:58Z</time>
      </trkpt>
      <trkpt lat="47.29083" lon="7.06472">
        <ele>985</ele>
        <time>2022-09-13T09:24:57Z</time>
      </trkpt>
      <trkpt lat="47.29045" lon="7.06349">
        <ele>989</ele>
        <time>2022-09-13T09:26:10Z</time>
      </trkpt>
      <trkpt lat="47.2902" lon="7.06275">
        <ele>992</ele>
        <time>2022-09-13T09:26:55Z</time>
      </trkpt>
      <trkpt lat="47.28998" lon="7.06223">
        <ele>995</ele>
        <time>2022-09-13T09:27:28Z</time>
      </trkpt>
      <trkpt lat="47.28971" lon="7.06169">
        <ele>995</ele>
        <time>2022-09-13T09:28:05Z</time>
      </trkpt>
      <trkpt lat="47.28938" lon="7.06113">
        <ele>995</ele>
        <time>2022-09-13T09:28:45Z</time>
      </trkpt>
      <trkpt lat="47.28915" lon="7.0608">
        <ele>997</ele>
        <time>2022-09-13T09:29:11Z</time>
      </trkpt>
      <trkpt lat="47.28643" lon="7.0572">
        <ele>995</ele>
        <time>2022-09-13T09:34:04Z</time>
      </trkpt>
      <trkpt lat="47.28625" lon="7.05687">
        <ele>992</ele>
        <time>2022-09-13T09:34:27Z</time>
      </trkpt>
      <trkpt lat="47.28617" lon="7.05676">
        <ele>992</ele>
        <time>2022-09-13T09:34:35Z</time>
      </trkpt>
      <trkpt lat="47.28604" lon="7.05666">
        <ele>991</ele>
        <time>2022-09-13T09:34:47Z</time>
      </trkpt>
      <trkpt lat="47.286" lon="7.05666">
        <ele>991</ele>
        <time>2022-09-13T09:34:50Z</time>
      </trkpt>
      <trkpt lat="47.28589" lon="7.05654">
        <ele>991</ele>
        <time>2022-09-13T09:35:01Z</time>
      </trkpt>
      <trkpt lat="47.2847" lon="7.05512">
        <ele>991</ele>
        <time>2022-09-13T09:37:04Z</time>
      </trkpt>
      <trkpt lat="47.28448" lon="7.0548">
        <ele>992</ele>
        <time>2022-09-13T09:37:29Z</time>
      </trkpt>
      <trkpt lat="47.28424" lon="7.05438">
        <ele>994</ele>
        <time>2022-09-13T09:37:58Z</time>
      </trkpt>
      <trkpt lat="47.2839" lon="7.05362">
        <ele>994</ele>
        <time>2022-09-13T09:38:48Z</time>
      </trkpt>
      <trkpt lat="47.2829" lon="7.0519">
        <ele>995</ele>
        <time>2022-09-13T09:40:51Z</time>
      </trkpt>
      <trkpt lat="47.28283" lon="7.0518">
        <ele>995</ele>
        <time>2022-09-13T09:40:59Z</time>
      </trkpt>
      <trkpt lat="47.2827" lon="7.05167">
        <ele>996</ele>
        <time>2022-09-13T09:41:11Z</time>
      </trkpt>
      <trkpt lat="47.28251" lon="7.05155">
        <ele>997</ele>
        <time>2022-09-13T09:41:28Z</time>
      </trkpt>
      <trkpt lat="47.28221" lon="7.05139">
        <ele>996</ele>
        <time>2022-09-13T09:41:53Z</time>
      </trkpt>
      <trkpt lat="47.28209" lon="7.05133">
        <ele>996</ele>
        <time>2022-09-13T09:42:03Z</time>
      </trkpt>
      <trkpt lat="47.28188" lon="7.05122">
        <ele>995</ele>
        <time>2022-09-13T09:42:21Z</time>
      </trkpt>
      <trkpt lat="47.28158" lon="7.051">
        <ele>995</ele>
        <time>2022-09-13T09:42:48Z</time>
      </trkpt>
      <trkpt lat="47.28076" lon="7.04984">
        <ele>997</ele>
        <time>2022-09-13T09:44:19Z</time>
      </trkpt>
      <trkpt lat="47.28015" lon="7.04894">
        <ele>997</ele>
        <time>2022-09-13T09:45:28Z</time>
      </trkpt>
      <trkpt lat="47.28" lon="7.04863">
        <ele>998</ele>
        <time>2022-09-13T09:45:49Z</time>
      </trkpt>
      <trkpt lat="47.27986" lon="7.04831">
        <ele>998</ele>
        <time>2022-09-13T09:46:10Z</time>
      </trkpt>
      <trkpt lat="47.27948" lon="7.04731">
        <ele>1000</ele>
        <time>2022-09-13T09:47:12Z</time>
      </trkpt>
      <trkpt lat="47.27853" lon="7.04499">
        <ele>1000</ele>
        <time>2022-09-13T09:49:39Z</time>
      </trkpt>
      <trkpt lat="47.27774" lon="7.04298">
        <ele>1003</ele>
        <time>2022-09-13T09:51:45Z</time>
      </trkpt>
      <trkpt lat="47.27712" lon="7.0413">
        <ele>1004</ele>
        <time>2022-09-13T09:53:29Z</time>
      </trkpt>
      <trkpt lat="47.27677" lon="7.04048">
        <ele>1002</ele>
        <time>2022-09-13T09:54:22Z</time>
      </trkpt>
      <trkpt lat="47.27656" lon="7.04007">
        <ele>1001</ele>
        <time>2022-09-13T09:54:50Z</time>
      </trkpt>
      <trkpt lat="47.2759" lon="7.03898">
        <ele>997</ele>
        <time>2022-09-13T09:56:09Z</time>
      </trkpt>
      <trkpt lat="47.27456" lon="7.03669">
        <ele>992</ele>
        <time>2022-09-13T09:58:53Z</time>
      </trkpt>
      <trkpt lat="47.27191" lon="7.03228">
        <ele>985</ele>
        <time>2022-09-13T10:04:13Z</time>
      </trkpt>
      <trkpt lat="47.27156" lon="7.0316">
        <ele>982</ele>
        <time>2022-09-13T10:05:00Z</time>
      </trkpt>
      <trkpt lat="47.26975" lon="7.02774">
        <ele>988</ele>
        <time>2022-09-13T10:09:15Z</time>
      </trkpt>
      <trkpt lat="47.26929" lon="7.02662">
        <ele>990</ele>
        <time>2022-09-13T10:10:26Z</time>
      </trkpt>
      <trkpt lat="47.26831" lon="7.02393">
        <ele>991</ele>
        <time>2022-09-13T10:13:12Z</time>
      </trkpt>
      <trkpt lat="47.26789" lon="7.02271">
        <ele>991</ele>
        <time>2022-09-13T10:14:26Z</time>
      </trkpt>
      <trkpt lat="47.2672" lon="7.02049">
        <ele>989</ele>
        <time>2022-09-13T10:16:39Z</time>
      </trkpt>
      <trkpt lat="47.26576" lon="7.01622">
        <ele>980</ele>
        <time>2022-09-13T10:20:58Z</time>
      </trkpt>
      <trkpt lat="47.26563" lon="7.01597">
        <ele>980</ele>
        <time>2022-09-13T10:21:15Z</time>
      </trkpt>
      <trkpt lat="47.2648" lon="7.01487">
        <ele>984</ele>
        <time>2022-09-13T10:22:44Z</time>
      </trkpt>
      <trkpt lat="47.26469" lon="7.01465">
        <ele>983</ele>
        <time>2022-09-13T10:22:59Z</time>
      </trkpt>
      <trkpt lat="47.26455" lon="7.01426">
        <ele>984</ele>
        <time>2022-09-13T10:23:23Z</time>
      </trkpt>
      <trkpt lat="47.26426" lon="7.01372">
        <ele>984</ele>
        <time>2022-09-13T10:24:00Z</time>
      </trkpt>
      <trkpt lat="47.26378" lon="7.013">
        <ele>984</ele>
        <time>2022-09-13T10:24:55Z</time>
      </trkpt>
      <trkpt lat="47.26334" lon="7.01238">
        <ele>984</ele>
        <time>2022-09-13T10:25:44Z</time>
      </trkpt>
      <trkpt lat="47.26305" lon="7.01188">
        <ele>984</ele>
        <time>2022-09-13T10:26:20Z</time>
      </trkpt>
      <trkpt lat="47.26298" lon="7.01167">
        <ele>985</ele>
        <time>2022-09-13T10:26:32Z</time>
      </trkpt>
      <trkpt lat="47.26286" lon="7.01125">
        <ele>986</ele>
        <time>2022-09-13T10:26:57Z</time>
      </trkpt>
      <trkpt lat="47.26272" lon="7.01093">
        <ele>985</ele>
        <time>2022-09-13T10:27:18Z</time>
      </trkpt>
      <trkpt lat="47.26234" lon="7.01024">
        <ele>984</ele>
        <time>2022-09-13T10:28:06Z</time>
      </trkpt>
      <trkpt lat="47.26201" lon="7.00978">
        <ele>985</ele>
        <time>2022-09-13T10:28:43Z</time>
      </trkpt>
      <trkpt lat="47.26187" lon="7.00963">
        <ele>984</ele>
        <time>2022-09-13T10:28:56Z</time>
      </trkpt>
      <trkpt lat="47.26151" lon="7.0091">
        <ele>984</ele>
        <time>2022-09-13T10:29:37Z</time>
      </trkpt>
      <trkpt lat="47.26141" lon="7.00891">
        <ele>984</ele>
        <time>2022-09-13T10:29:50Z</time>
      </trkpt>
      <trkpt lat="47.26128" lon="7.00855">
        <ele>985</ele>
        <time>2022-09-13T10:30:12Z</time>
      </trkpt>
      <trkpt lat="47.26119" lon="7.00822">
        <ele>986</ele>
        <time>2022-09-13T10:30:32Z</time>
      </trkpt>
      <trkpt lat="47.26115" lon="7.00795">
        <ele>987</ele>
        <time>2022-09-13T10:30:47Z</time>
      </trkpt>
      <trkpt lat="47.26111" lon="7.0075">
        <ele>989</ele>
        <time>2022-09-13T10:31:11Z</time>
      </trkpt>
      <trkpt lat="47.26112" lon="7.00703">
        <ele>990</ele>
        <time>2022-09-13T10:31:37Z</time>
      </trkpt>
      <trkpt lat="47.26115" lon="7.00672">
        <ele>992</ele>
        <time>2022-09-13T10:31:54Z</time>
      </trkpt>
      <trkpt lat="47.26114" lon="7.00629">
        <ele>992</ele>
        <time>2022-09-13T10:32:17Z</time>
      </trkpt>
      <trkpt lat="47.2611" lon="7.00593">
        <ele>992</ele>
        <time>2022-09-13T10:32:37Z</time>
      </trkpt>
      <trkpt lat="47.26089" lon="7.00509">
        <ele>990</ele>
        <time>2022-09-13T10:33:26Z</time>
      </trkpt>
      <trkpt lat="47.26072" lon="7.00453">
        <ele>990</ele>
        <time>2022-09-13T10:33:59Z</time>
      </trkpt>
      <trkpt lat="47.26056" lon="7.00413">
        <ele>990</ele>
        <time>2022-09-13T10:34:24Z</time>
      </trkpt>
      <trkpt lat="47.26026" lon="7.00358">
        <ele>990</ele>
        <time>2022-09-13T10:35:03Z</time>
      </trkpt>
      <trkpt lat="47.25969" lon="7.00267">
        <ele>986</ele>
        <time>2022-09-13T10:36:10Z</time>
      </trkpt>
      <trkpt lat="47.25951" lon="7.00233">
        <ele>986</ele>
        <time>2022-09-13T10:36:33Z</time>
      </trkpt>
      <trkpt lat="47.25934" lon="7.0019">
        <ele>985</ele>
        <time>2022-09-13T10:37:00Z</time>
      </trkpt>
      <trkpt lat="47.25896" lon="7.00055">
        <ele>987</ele>
        <time>2022-09-13T10:38:20Z</time>
      </trkpt>
      <trkpt lat="47.25857" lon="6.99937">
        <ele>987</ele>
        <time>2022-09-13T10:39:31Z</time>
      </trkpt>
      <trkpt lat="47.25848" lon="6.99916">
        <ele>987</ele>
        <time>2022-09-13T10:39:45Z</time>
      </trkpt>
      <trkpt lat="47.25842" lon="6.99903">
        <ele>987</ele>
        <time>2022-09-13T10:39:53Z</time>
      </trkpt>
      <trkpt lat="47.25824" lon="6.99881">
        <ele>988</ele>
        <time>2022-09-13T10:40:12Z</time>
      </trkpt>
      <trkpt lat="47.25723" lon="6.998">
        <ele>987</ele>
        <time>2022-09-13T10:41:44Z</time>
      </trkpt>
      <trkpt lat="47.25687" lon="6.99765">
        <ele>987</ele>
        <time>2022-09-13T10:42:19Z</time>
      </trkpt>
      <trkpt lat="47.25677" lon="6.99752">
        <ele>986</ele>
        <time>2022-09-13T10:42:29Z</time>
      </trkpt>
      <trkpt lat="47.25636" lon="6.99677">
        <ele>985</ele>
        <time>2022-09-13T10:43:22Z</time>
      </trkpt>
      <trkpt lat="47.2562" lon="6.99655">
        <ele>985</ele>
        <time>2022-09-13T10:43:39Z</time>
      </trkpt>
      <trkpt lat="47.25621" lon="6.9965">
        <ele>985</ele>
        <time>2022-09-13T10:43:42Z</time>
      </trkpt>
      <trkpt lat="47.2562" lon="6.99645">
        <ele>985</ele>
        <time>2022-09-13T10:43:45Z</time>
      </trkpt>
      <trkpt lat="47.25615" lon="6.99642">
        <ele>985</ele>
        <time>2022-09-13T10:43:49Z</time>
      </trkpt>
      <trkpt lat="47.25605" lon="6.99575">
        <ele>984</ele>
        <time>2022-09-13T10:44:26Z</time>
      </trkpt>
      <trkpt lat="47.25609" lon="6.99569">
        <ele>984</ele>
        <time>2022-09-13T10:44:31Z</time>
      </trkpt>
      <trkpt lat="47.25609" lon="6.99565">
        <ele>984</ele>
        <time>2022-09-13T10:44:33Z</time>
      </trkpt>
      <trkpt lat="47.25606" lon="6.99558">
        <ele>983</ele>
        <time>2022-09-13T10:44:38Z</time>
      </trkpt>
      <trkpt lat="47.25602" lon="6.99556">
        <ele>983</ele>
        <time>2022-09-13T10:44:41Z</time>
      </trkpt>
      <trkpt lat="47.25598" lon="6.99559">
        <ele>983</ele>
        <time>2022-09-13T10:44:45Z</time>
      </trkpt>
      <trkpt lat="47.2558" lon="6.99518">
        <ele>981</ele>
        <time>2022-09-13T10:45:11Z</time>
      </trkpt>
      <trkpt lat="47.2557" lon="6.99485">
        <ele>980</ele>
        <time>2022-09-13T10:45:31Z</time>
      </trkpt>
      <trkpt lat="47.25561" lon="6.9944">
        <ele>979</ele>
        <time>2022-09-13T10:45:56Z</time>
      </trkpt>
      <trkpt lat="47.25547" lon="6.99401">
        <ele>979</ele>
        <time>2022-09-13T10:46:20Z</time>
      </trkpt>
      <trkpt lat="47.25363" lon="6.99002">
        <ele>975</ele>
        <time>2022-09-13T10:50:42Z</time>
      </trkpt>
      <trkpt lat="47.25281" lon="6.9883">
        <ele>973</ele>
        <time>2022-09-13T10:52:37Z</time>
      </trkpt>
      <trkpt lat="47.2526" lon="6.98797">
        <ele>972</ele>
        <time>2022-09-13T10:53:01Z</time>
      </trkpt>
      <trkpt lat="47.25237" lon="6.98766">
        <ele>971</ele>
        <time>2022-09-13T10:53:26Z</time>
      </trkpt>
      <trkpt lat="47.25003" lon="6.9853">
        <ele>966</ele>
        <time>2022-09-13T10:57:13Z</time>
      </trkpt>
      <trkpt lat="47.24951" lon="6.98486">
        <ele>965</ele>
        <time>2022-09-13T10:58:01Z</time>
      </trkpt>
      <trkpt lat="47.2492" lon="6.98466">
        <ele>965</ele>
        <time>2022-09-13T10:58:28Z</time>
      </trkpt>
      <trkpt lat="47.24889" lon="6.98454">
        <ele>965</ele>
        <time>2022-09-13T10:58:54Z</time>
      </trkpt>
      <trkpt lat="47.24855" lon="6.98447">
        <ele>964</ele>
        <time>2022-09-13T10:59:22Z</time>
      </trkpt>
      <trkpt lat="47.24834" lon="6.98445">
        <ele>964</ele>
        <time>2022-09-13T10:59:38Z</time>
      </trkpt>
      <trkpt lat="47.24797" lon="6.98447">
        <ele>963</ele>
        <time>2022-09-13T11:00:08Z</time>
      </trkpt>
      <trkpt lat="47.24499" lon="6.98508">
        <ele>961</ele>
        <time>2022-09-13T11:04:09Z</time>
      </trkpt>
      <trkpt lat="47.2444" lon="6.98514">
        <ele>962</ele>
        <time>2022-09-13T11:04:56Z</time>
      </trkpt>
      <trkpt lat="47.24178" lon="6.98517">
        <ele>964</ele>
        <time>2022-09-13T11:08:26Z</time>
      </trkpt>
      <trkpt lat="47.24111" lon="6.98514">
        <ele>968</ele>
        <time>2022-09-13T11:09:20Z</time>
      </trkpt>
      <trkpt lat="47.23928" lon="6.98488">
        <ele>954</ele>
        <time>2022-09-13T11:11:47Z</time>
      </trkpt>
      <trkpt lat="47.2388" lon="6.98485">
        <ele>955</ele>
        <time>2022-09-13T11:12:25Z</time>
      </trkpt>
      <trkpt lat="47.23834" lon="6.98486">
        <ele>956</ele>
        <time>2022-09-13T11:13:02Z</time>
      </trkpt>
      <trkpt lat="47.23724" lon="6.98498">
        <ele>952</ele>
        <time>2022-09-13T11:14:31Z</time>
      </trkpt>
      <trkpt lat="47.23649" lon="6.985">
        <ele>952</ele>
        <time>2022-09-13T11:15:31Z</time>
      </trkpt>
      <trkpt lat="47.23625" lon="6.98498">
        <ele>952</ele>
        <time>2022-09-13T11:15:50Z</time>
      </trkpt>
      <trkpt lat="47.2361" lon="6.98499">
        <ele>952</ele>
        <time>2022-09-13T11:16:02Z</time>
      </trkpt>
      <trkpt lat="47.23481" lon="6.98537">
        <ele>952</ele>
        <time>2022-09-13T11:17:47Z</time>
      </trkpt>
      <trkpt lat="47.23461" lon="6.98537">
        <ele>952</ele>
        <time>2022-09-13T11:18:03Z</time>
      </trkpt>
      <trkpt lat="47.23436" lon="6.98521">
        <ele>952</ele>
        <time>2022-09-13T11:18:25Z</time>
      </trkpt>
      <trkpt lat="47.23426" lon="6.98511">
        <ele>951</ele>
        <time>2022-09-13T11:18:35Z</time>
      </trkpt>
      <trkpt lat="47.23422" lon="6.98504">
        <ele>951</ele>
        <time>2022-09-13T11:18:40Z</time>
      </trkpt>
      <trkpt lat="47.23416" lon="6.98503">
        <ele>951</ele>
        <time>2022-09-13T11:18:45Z</time>
      </trkpt>
      <trkpt lat="47.23411" lon="6.98508">
        <ele>951</ele>
        <time>2022-09-13T11:18:49Z</time>
      </trkpt>
      <trkpt lat="47.23409" lon="6.98517">
        <ele>952</ele>
        <time>2022-09-13T11:18:55Z</time>
      </trkpt>
      <trkpt lat="47.23394" lon="6.98543">
        <ele>953</ele>
        <time>2022-09-13T11:19:13Z</time>
      </trkpt>
      <trkpt lat="47.23386" lon="6.98552">
        <ele>953</ele>
        <time>2022-09-13T11:19:21Z</time>
      </trkpt>
      <trkpt lat="47.23369" lon="6.9856">
        <ele>954</ele>
        <time>2022-09-13T11:19:35Z</time>
      </trkpt>
      <trkpt lat="47.23359" lon="6.98563">
        <ele>954</ele>
        <time>2022-09-13T11:19:44Z</time>
      </trkpt>
      <trkpt lat="47.23333" lon="6.98562">
        <ele>955</ele>
        <time>2022-09-13T11:20:04Z</time>
      </trkpt>
      <trkpt lat="47.23311" lon="6.98557">
        <ele>955</ele>
        <time>2022-09-13T11:20:22Z</time>
      </trkpt>
      <trkpt lat="47.23276" lon="6.98541">
        <ele>954</ele>
        <time>2022-09-13T11:20:52Z</time>
      </trkpt>
      <trkpt lat="47.23258" lon="6.98529">
        <ele>954</ele>
        <time>2022-09-13T11:21:07Z</time>
      </trkpt>
      <trkpt lat="47.23213" lon="6.98478">
        <ele>953</ele>
        <time>2022-09-13T11:21:53Z</time>
      </trkpt>
      <trkpt lat="47.23176" lon="6.98429">
        <ele>951</ele>
        <time>2022-09-13T11:22:33Z</time>
      </trkpt>
      <trkpt lat="47.22897" lon="6.97994">
        <ele>956</ele>
        <time>2022-09-13T11:27:58Z</time>
      </trkpt>
      <trkpt lat="47.22842" lon="6.97902">
        <ele>955</ele>
        <time>2022-09-13T11:29:05Z</time>
      </trkpt>
      <trkpt lat="47.227" lon="6.97632">
        <ele>960</ele>
        <time>2022-09-13T11:32:10Z</time>
      </trkpt>
      <trkpt lat="47.22611" lon="6.97456">
        <ele>962</ele>
        <time>2022-09-13T11:34:10Z</time>
      </trkpt>
      <trkpt lat="47.22563" lon="6.97344">
        <ele>963</ele>
        <time>2022-09-13T11:35:22Z</time>
      </trkpt>
      <trkpt lat="47.22443" lon="6.97056">
        <ele>966</ele>
        <time>2022-09-13T11:38:25Z</time>
      </trkpt>
      <trkpt lat="47.22429" lon="6.97009">
        <ele>965</ele>
        <time>2022-09-13T11:38:53Z</time>
      </trkpt>
      <trkpt lat="47.22424" lon="6.96978">
        <ele>965</ele>
        <time>2022-09-13T11:39:11Z</time>
      </trkpt>
      <trkpt lat="47.2242" lon="6.96936">
        <ele>966</ele>
        <time>2022-09-13T11:39:34Z</time>
      </trkpt>
      <trkpt lat="47.2242" lon="6.96899">
        <ele>967</ele>
        <time>2022-09-13T11:39:54Z</time>
      </trkpt>
      <trkpt lat="47.2243" lon="6.96828">
        <ele>973</ele>
        <time>2022-09-13T11:40:33Z</time>
      </trkpt>
      <trkpt lat="47.22452" lon="6.96706">
        <ele>975</ele>
        <time>2022-09-13T11:41:42Z</time>
      </trkpt>
      <trkpt lat="47.2246" lon="6.96655">
        <ele>975</ele>
        <time>2022-09-13T11:42:10Z</time>
      </trkpt>
      <trkpt lat="47.22463" lon="6.96618">
        <ele>975</ele>
        <time>2022-09-13T11:42:31Z</time>
      </trkpt>
      <trkpt lat="47.2246" lon="6.96562">
        <ele>974</ele>
        <time>2022-09-13T11:43:01Z</time>
      </trkpt>
      <trkpt lat="47.22457" lon="6.96546">
        <ele>974</ele>
        <time>2022-09-13T11:43:10Z</time>
      </trkpt>
      <trkpt lat="47.22443" lon="6.96495">
        <ele>973</ele>
        <time>2022-09-13T11:43:40Z</time>
      </trkpt>
      <trkpt lat="47.22389" lon="6.96331">
        <ele>971</ele>
        <time>2022-09-13T11:45:19Z</time>
      </trkpt>
      <trkpt lat="47.22382" lon="6.96303">
        <ele>971</ele>
        <time>2022-09-13T11:45:35Z</time>
      </trkpt>
      <trkpt lat="47.2238" lon="6.96282">
        <ele>971</ele>
        <time>2022-09-13T11:45:47Z</time>
      </trkpt>
      <trkpt lat="47.22381" lon="6.96254">
        <ele>970</ele>
        <time>2022-09-13T11:46:02Z</time>
      </trkpt>
      <trkpt lat="47.2244" lon="6.9589">
        <ele>973</ele>
        <time>2022-09-13T11:49:26Z</time>
      </trkpt>
      <trkpt lat="47.22446" lon="6.95864">
        <ele>973</ele>
        <time>2022-09-13T11:49:41Z</time>
      </trkpt>
      <trkpt lat="47.22469" lon="6.95812">
        <ele>974</ele>
        <time>2022-09-13T11:50:14Z</time>
      </trkpt>
      <trkpt lat="47.22473" lon="6.95793">
        <ele>974</ele>
        <time>2022-09-13T11:50:25Z</time>
      </trkpt>
      <trkpt lat="47.22477" lon="6.95784">
        <ele>974</ele>
        <time>2022-09-13T11:50:31Z</time>
      </trkpt>
      <trkpt lat="47.22476" lon="6.95778">
        <ele>974</ele>
        <time>2022-09-13T11:50:34Z</time>
      </trkpt>
      <trkpt lat="47.22473" lon="6.95773">
        <ele>974</ele>
        <time>2022-09-13T11:50:38Z</time>
      </trkpt>
      <trkpt lat="47.22468" lon="6.95771">
        <ele>974</ele>
        <time>2022-09-13T11:50:42Z</time>
      </trkpt>
      <trkpt lat="47.22451" lon="6.95748">
        <ele>973</ele>
        <time>2022-09-13T11:51:01Z</time>
      </trkpt>
      <trkpt lat="47.22435" lon="6.95697">
        <ele>973</ele>
        <time>2022-09-13T11:51:31Z</time>
      </trkpt>
      <trkpt lat="47.22423" lon="6.95663">
        <ele>972</ele>
        <time>2022-09-13T11:51:52Z</time>
      </trkpt>
      <trkpt lat="47.22411" lon="6.95643">
        <ele>972</ele>
        <time>2022-09-13T11:52:07Z</time>
      </trkpt>
      <trkpt lat="47.2239" lon="6.95615">
        <ele>971</ele>
        <time>2022-09-13T11:52:29Z</time>
      </trkpt>
      <trkpt lat="47.22378" lon="6.95603">
        <ele>971</ele>
        <time>2022-09-13T11:52:41Z</time>
      </trkpt>
      <trkpt lat="47.22365" lon="6.95594">
        <ele>970</ele>
        <time>2022-09-13T11:52:52Z</time>
      </trkpt>
      <trkpt lat="47.22327" lon="6.95579">
        <ele>970</ele>
        <time>2022-09-13T11:53:24Z</time>
      </trkpt>
      <trkpt lat="47.22301" lon="6.9557">
        <ele>969</ele>
        <time>2022-09-13T11:53:45Z</time>
      </trkpt>
      <trkpt lat="47.22123" lon="6.95478">
        <ele>971</ele>
        <time>2022-09-13T11:56:16Z</time>
      </trkpt>
      <trkpt lat="47.22018" lon="6.95416">
        <ele>973</ele>
        <time>2022-09-13T11:57:47Z</time>
      </trkpt>
      <trkpt lat="47.21996" lon="6.95397">
        <ele>974</ele>
        <time>2022-09-13T11:58:07Z</time>
      </trkpt>
      <trkpt lat="47.21891" lon="6.95275">
        <ele>977</ele>
        <time>2022-09-13T11:59:54Z</time>
      </trkpt>
      <trkpt lat="47.21832" lon="6.95213">
        <ele>979</ele>
        <time>2022-09-13T12:00:52Z</time>
      </trkpt>
      <trkpt lat="47.21778" lon="6.95151">
        <ele>982</ele>
        <time>2022-09-13T12:01:47Z</time>
      </trkpt>
      <trkpt lat="47.21726" lon="6.95085">
        <ele>983</ele>
        <time>2022-09-13T12:02:42Z</time>
      </trkpt>
      <trkpt lat="47.21621" lon="6.94942">
        <ele>986</ele>
        <time>2022-09-13T12:04:37Z</time>
      </trkpt>
      <trkpt lat="47.21445" lon="6.9473">
        <ele>990</ele>
        <time>2022-09-13T12:07:39Z</time>
      </trkpt>
      <trkpt lat="47.21357" lon="6.94628">
        <ele>989</ele>
        <time>2022-09-13T12:09:09Z</time>
      </trkpt>
      <trkpt lat="47.21262" lon="6.94526">
        <ele>987</ele>
        <time>2022-09-13T12:10:43Z</time>
      </trkpt>
      <trkpt lat="47.21194" lon="6.94457">
        <ele>989</ele>
        <time>2022-09-13T12:11:49Z</time>
      </trkpt>
      <trkpt lat="47.21161" lon="6.94432">
        <ele>989</ele>
        <time>2022-09-13T12:12:18Z</time>
      </trkpt>
      <trkpt lat="47.21004" lon="6.94354">
        <ele>989</ele>
        <time>2022-09-13T12:14:31Z</time>
      </trkpt>
      <trkpt lat="47.20975" lon="6.94351">
        <ele>988</ele>
        <time>2022-09-13T12:14:54Z</time>
      </trkpt>
      <trkpt lat="47.20915" lon="6.94356">
        <ele>985</ele>
        <time>2022-09-13T12:15:43Z</time>
      </trkpt>
      <trkpt lat="47.20884" lon="6.94351">
        <ele>988</ele>
        <time>2022-09-13T12:16:08Z</time>
      </trkpt>
      <trkpt lat="47.20854" lon="6.9434">
        <ele>991</ele>
        <time>2022-09-13T12:16:32Z</time>
      </trkpt>
      <trkpt lat="47.20833" lon="6.94328">
        <ele>993</ele>
        <time>2022-09-13T12:16:50Z</time>
      </trkpt>
      <trkpt lat="47.20812" lon="6.94313">
        <ele>995</ele>
        <time>2022-09-13T12:17:09Z</time>
      </trkpt>
      <trkpt lat="47.20793" lon="6.94295">
        <ele>997</ele>
        <time>2022-09-13T12:17:27Z</time>
      </trkpt>
      <trkpt lat="47.20734" lon="6.94229">
        <ele>1002</ele>
        <time>2022-09-13T12:18:26Z</time>
      </trkpt>
      <trkpt lat="47.20696" lon="6.94196">
        <ele>1004</ele>
        <time>2022-09-13T12:19:02Z</time>
      </trkpt>
      <trkpt lat="47.20615" lon="6.94135">
        <ele>1009</ele>
        <time>2022-09-13T12:20:15Z</time>
      </trkpt>
      <trkpt lat="47.20542" lon="6.9407">
        <ele>1013</ele>
        <time>2022-09-13T12:21:23Z</time>
      </trkpt>
      <trkpt lat="47.20484" lon="6.94004">
        <ele>1018</ele>
        <time>2022-09-13T12:22:22Z</time>
      </trkpt>
      <trkpt lat="47.20445" lon="6.9394">
        <ele>1020</ele>
        <time>2022-09-13T12:23:08Z</time>
      </trkpt>
      <trkpt lat="47.20408" lon="6.93864">
        <ele>1021</ele>
        <time>2022-09-13T12:23:59Z</time>
      </trkpt>
      <trkpt lat="47.20211" lon="6.93408">
        <ele>1040</ele>
        <time>2022-09-13T12:28:53Z</time>
      </trkpt>
      <trkpt lat="47.20138" lon="6.93248">
        <ele>1043</ele>
        <time>2022-09-13T12:30:38Z</time>
      </trkpt>
      <trkpt lat="47.19928" lon="6.92838">
        <ele>1040</ele>
        <time>2022-09-13T12:35:17Z</time>
      </trkpt>
      <trkpt lat="47.19842" lon="6.92678">
        <ele>1038</ele>
        <time>2022-09-13T12:37:08Z</time>
      </trkpt>
      <trkpt lat="47.19805" lon="6.92626">
        <ele>1038</ele>
        <time>2022-09-13T12:37:49Z</time>
      </trkpt>
      <trkpt lat="47.19545" lon="6.92239">
        <ele>1035</ele>
        <time>2022-09-13T12:42:45Z</time>
      </trkpt>
      <trkpt lat="47.1953" lon="6.92222">
        <ele>1035</ele>
        <time>2022-09-13T12:43:01Z</time>
      </trkpt>
      <trkpt lat="47.19473" lon="6.9218">
        <ele>1034</ele>
        <time>2022-09-13T12:43:52Z</time>
      </trkpt>
      <trkpt lat="47.19456" lon="6.92162">
        <ele>1033</ele>
        <time>2022-09-13T12:44:08Z</time>
      </trkpt>
      <trkpt lat="47.19405" lon="6.92106">
        <ele>1032</ele>
        <time>2022-09-13T12:44:59Z</time>
      </trkpt>
      <trkpt lat="47.19374" lon="6.92076">
        <ele>1033</ele>
        <time>2022-09-13T12:45:29Z</time>
      </trkpt>
      <trkpt lat="47.19356" lon="6.92064">
        <ele>1033</ele>
        <time>2022-09-13T12:45:45Z</time>
      </trkpt>
      <trkpt lat="47.19318" lon="6.92054">
        <ele>1033</ele>
        <time>2022-09-13T12:46:16Z</time>
      </trkpt>
      <trkpt lat="47.19284" lon="6.92056">
        <ele>1032</ele>
        <time>2022-09-13T12:46:43Z</time>
      </trkpt>
      <trkpt lat="47.1925" lon="6.92052">
        <ele>1032</ele>
        <time>2022-09-13T12:47:10Z</time>
      </trkpt>
      <trkpt lat="47.1923" lon="6.92043">
        <ele>1031</ele>
        <time>2022-09-13T12:47:27Z</time>
      </trkpt>
      <trkpt lat="47.19217" lon="6.92035">
        <ele>1030</ele>
        <time>2022-09-13T12:47:38Z</time>
      </trkpt>
      <trkpt lat="47.192" lon="6.9202">
        <ele>1030</ele>
        <time>2022-09-13T12:47:54Z</time>
      </trkpt>
      <trkpt lat="47.1918" lon="6.91993">
        <ele>1029</ele>
        <time>2022-09-13T12:48:16Z</time>
      </trkpt>
      <trkpt lat="47.19139" lon="6.91918">
        <ele>1029</ele>
        <time>2022-09-13T12:49:08Z</time>
      </trkpt>
      <trkpt lat="47.19111" lon="6.91875">
        <ele>1026</ele>
        <time>2022-09-13T12:49:41Z</time>
      </trkpt>
      <trkpt lat="47.19101" lon="6.91866">
        <ele>1025</ele>
        <time>2022-09-13T12:49:50Z</time>
      </trkpt>
      <trkpt lat="47.19084" lon="6.91857">
        <ele>1024</ele>
        <time>2022-09-13T12:50:05Z</time>
      </trkpt>
      <trkpt lat="47.18988" lon="6.91843">
        <ele>1025</ele>
        <time>2022-09-13T12:51:22Z</time>
      </trkpt>
      <trkpt lat="47.18944" lon="6.91847">
        <ele>1027</ele>
        <time>2022-09-13T12:51:57Z</time>
      </trkpt>
      <trkpt lat="47.1884" lon="6.91867">
        <ele>1030</ele>
        <time>2022-09-13T12:53:21Z</time>
      </trkpt>
      <trkpt lat="47.18824" lon="6.91868">
        <ele>1031</ele>
        <time>2022-09-13T12:53:34Z</time>
      </trkpt>
      <trkpt lat="47.18811" lon="6.91866">
        <ele>1032</ele>
        <time>2022-09-13T12:53:44Z</time>
      </trkpt>
      <trkpt lat="47.18793" lon="6.91859">
        <ele>1033</ele>
        <time>2022-09-13T12:53:59Z</time>
      </trkpt>
      <trkpt lat="47.1877" lon="6.91842">
        <ele>1033</ele>
        <time>2022-09-13T12:54:20Z</time>
      </trkpt>
      <trkpt lat="47.18748" lon="6.91816">
        <ele>1032</ele>
        <time>2022-09-13T12:54:42Z</time>
      </trkpt>
      <trkpt lat="47.18629" lon="6.91638">
        <ele>1040</ele>
        <time>2022-09-13T12:56:58Z</time>
      </trkpt>
      <trkpt lat="47.18593" lon="6.91569">
        <ele>1045</ele>
        <time>2022-09-13T12:57:46Z</time>
      </trkpt>
      <trkpt lat="47.18525" lon="6.91432">
        <ele>1044</ele>
        <time>2022-09-13T12:59:18Z</time>
      </trkpt>
      <trkpt lat="47.18486" lon="6.91363">
        <ele>1043</ele>
        <time>2022-09-13T13:00:07Z</time>
      </trkpt>
      <trkpt lat="47.1844" lon="6.91296">
        <ele>1042</ele>
        <time>2022-09-13T13:00:59Z</time>
      </trkpt>
      <trkpt lat="47.18422" lon="6.91274">
        <ele>1043</ele>
        <time>2022-09-13T13:01:17Z</time>
      </trkpt>
      <trkpt lat="47.1836" lon="6.91207">
        <ele>1047</ele>
        <time>2022-09-13T13:02:19Z</time>
      </trkpt>
      <trkpt lat="47.18217" lon="6.91062">
        <ele>1047</ele>
        <time>2022-09-13T13:04:38Z</time>
      </trkpt>
      <trkpt lat="47.18159" lon="6.90999">
        <ele>1046</ele>
        <time>2022-09-13T13:05:36Z</time>
      </trkpt>
      <trkpt lat="47.18121" lon="6.90948">
        <ele>1044</ele>
        <time>2022-09-13T13:06:17Z</time>
      </trkpt>
      <trkpt lat="47.18113" lon="6.9094">
        <ele>1044</ele>
        <time>2022-09-13T13:06:25Z</time>
      </trkpt>
      <trkpt lat="47.17952" lon="6.90738">
        <ele>1042</ele>
        <time>2022-09-13T13:09:14Z</time>
      </trkpt>
      <trkpt lat="47.17903" lon="6.9068">
        <ele>1039</ele>
        <time>2022-09-13T13:10:04Z</time>
      </trkpt>
      <trkpt lat="47.1786" lon="6.90635">
        <ele>1037</ele>
        <time>2022-09-13T13:10:47Z</time>
      </trkpt>
      <trkpt lat="47.17778" lon="6.90554">
        <ele>1035</ele>
        <time>2022-09-13T13:12:06Z</time>
      </trkpt>
      <trkpt lat="47.17754" lon="6.90534">
        <ele>1035</ele>
        <time>2022-09-13T13:12:28Z</time>
      </trkpt>
      <trkpt lat="47.17716" lon="6.9051">
        <ele>1036</ele>
        <time>2022-09-13T13:13:01Z</time>
      </trkpt>
      <trkpt lat="47.17644" lon="6.90484">
        <ele>1035</ele>
        <time>2022-09-13T13:14:00Z</time>
      </trkpt>
      <trkpt lat="47.17627" lon="6.90475">
        <ele>1034</ele>
        <time>2022-09-13T13:14:15Z</time>
      </trkpt>
      <trkpt lat="47.17586" lon="6.90445">
        <ele>1033</ele>
        <time>2022-09-13T13:14:51Z</time>
      </trkpt>
      <trkpt lat="47.17422" lon="6.90315">
        <ele>1027</ele>
        <time>2022-09-13T13:17:21Z</time>
      </trkpt>
      <trkpt lat="47.17345" lon="6.90249">
        <ele>1025</ele>
        <time>2022-09-13T13:18:32Z</time>
      </trkpt>
      <trkpt lat="47.17282" lon="6.90187">
        <ele>1023</ele>
        <time>2022-09-13T13:19:33Z</time>
      </trkpt>
      <trkpt lat="47.17238" lon="6.90152">
        <ele>1021</ele>
        <time>2022-09-13T13:20:13Z</time>
      </trkpt>
      <trkpt lat="47.17212" lon="6.90135">
        <ele>1020</ele>
        <time>2022-09-13T13:20:36Z</time>
      </trkpt>
      <trkpt lat="47.17168" lon="6.90113">
        <ele>1016</ele>
        <time>2022-09-13T13:21:13Z</time>
      </trkpt>
      <trkpt lat="47.17115" lon="6.90096">
        <ele>1014</ele>
        <time>2022-09-13T13:21:56Z</time>
      </trkpt>
      <trkpt lat="47.16823" lon="6.90014">
        <ele>1010</ele>
        <time>2022-09-13T13:25:54Z</time>
      </trkpt>
      <trkpt lat="47.16669" lon="6.8998">
        <ele>1015</ele>
        <time>2022-09-13T13:27:59Z</time>
      </trkpt>
      <trkpt lat="47.16363" lon="6.89868">
        <ele>1016</ele>
        <time>2022-09-13T13:32:11Z</time>
      </trkpt>
      <trkpt lat="47.16323" lon="6.89849">
        <ele>1017</ele>
        <time>2022-09-13T13:32:45Z</time>
      </trkpt>
      <trkpt lat="47.16285" lon="6.89825">
        <ele>1018</ele>
        <time>2022-09-13T13:33:18Z</time>
      </trkpt>
      <trkpt lat="47.16234" lon="6.89782">
        <ele>1021</ele>
        <time>2022-09-13T13:34:05Z</time>
      </trkpt>
      <trkpt lat="47.16183" lon="6.8973">
        <ele>1023</ele>
        <time>2022-09-13T13:34:55Z</time>
      </trkpt>
      <trkpt lat="47.16158" lon="6.8969">
        <ele>1021</ele>
        <time>2022-09-13T13:35:24Z</time>
      </trkpt>
      <trkpt lat="47.15991" lon="6.89356">
        <ele>1027</ele>
        <time>2022-09-13T13:39:10Z</time>
      </trkpt>
      <trkpt lat="47.15963" lon="6.89314">
        <ele>1023</ele>
        <time>2022-09-13T13:39:42Z</time>
      </trkpt>
      <trkpt lat="47.15932" lon="6.89283">
        <ele>1019</ele>
        <time>2022-09-13T13:40:12Z</time>
      </trkpt>
      <trkpt lat="47.15911" lon="6.89267">
        <ele>1017</ele>
        <time>2022-09-13T13:40:31Z</time>
      </trkpt>
      <trkpt lat="47.15882" lon="6.89249">
        <ele>1016</ele>
        <time>2022-09-13T13:40:56Z</time>
      </trkpt>
      <trkpt lat="47.1575" lon="6.89183">
        <ele>1011</ele>
        <time>2022-09-13T13:42:48Z</time>
      </trkpt>
      <trkpt lat="47.15717" lon="6.89172">
        <ele>1008</ele>
        <time>2022-09-13T13:43:15Z</time>
      </trkpt>
      <trkpt lat="47.1569" lon="6.89169">
        <ele>1007</ele>
        <time>2022-09-13T13:43:37Z</time>
      </trkpt>
      <trkpt lat="47.15668" lon="6.89169">
        <ele>1007</ele>
        <time>2022-09-13T13:43:54Z</time>
      </trkpt>
      <trkpt lat="47.15639" lon="6.89175">
        <ele>1005</ele>
        <time>2022-09-13T13:44:18Z</time>
      </trkpt>
      <trkpt lat="47.15603" lon="6.89191">
        <ele>1001</ele>
        <time>2022-09-13T13:44:48Z</time>
      </trkpt>
      <trkpt lat="47.15472" lon="6.89291">
        <ele>993</ele>
        <time>2022-09-13T13:46:46Z</time>
      </trkpt>
      <trkpt lat="47.1536" lon="6.89344">
        <ele>991</ele>
        <time>2022-09-13T13:48:20Z</time>
      </trkpt>
      <trkpt lat="47.15296" lon="6.89369">
        <ele>988</ele>
        <time>2022-09-13T13:49:13Z</time>
      </trkpt>
      <trkpt lat="47.15222" lon="6.89387">
        <ele>984</ele>
        <time>2022-09-13T13:50:13Z</time>
      </trkpt>
      <trkpt lat="47.15196" lon="6.89386">
        <ele>983</ele>
        <time>2022-09-13T13:50:34Z</time>
      </trkpt>
      <trkpt lat="47.1519" lon="6.89377">
        <ele>982</ele>
        <time>2022-09-13T13:50:41Z</time>
      </trkpt>
      <trkpt lat="47.15181" lon="6.89375">
        <ele>982</ele>
        <time>2022-09-13T13:50:48Z</time>
      </trkpt>
      <trkpt lat="47.15174" lon="6.89382">
        <ele>982</ele>
        <time>2022-09-13T13:50:55Z</time>
      </trkpt>
      <trkpt lat="47.15171" lon="6.89387">
        <ele>982</ele>
        <time>2022-09-13T13:50:59Z</time>
      </trkpt>
      <trkpt lat="47.15155" lon="6.89392">
        <ele>982</ele>
        <time>2022-09-13T13:51:12Z</time>
      </trkpt>
      <trkpt lat="47.15104" lon="6.89374">
        <ele>983</ele>
        <time>2022-09-13T13:51:54Z</time>
      </trkpt>
      <trkpt lat="47.15084" lon="6.8936">
        <ele>983</ele>
        <time>2022-09-13T13:52:12Z</time>
      </trkpt>
      <trkpt lat="47.14968" lon="6.89257">
        <ele>983</ele>
        <time>2022-09-13T13:54:00Z</time>
      </trkpt>
      <trkpt lat="47.14921" lon="6.89219">
        <ele>983</ele>
        <time>2022-09-13T13:54:43Z</time>
      </trkpt>
      <trkpt lat="47.14903" lon="6.89208">
        <ele>983</ele>
        <time>2022-09-13T13:54:59Z</time>
      </trkpt>
      <trkpt lat="47.14877" lon="6.89198">
        <ele>983</ele>
        <time>2022-09-13T13:55:20Z</time>
      </trkpt>
      <trkpt lat="47.14845" lon="6.89196">
        <ele>982</ele>
        <time>2022-09-13T13:55:46Z</time>
      </trkpt>
      <trkpt lat="47.14721" lon="6.89206">
        <ele>980</ele>
        <time>2022-09-13T13:57:25Z</time>
      </trkpt>
      <trkpt lat="47.14574" lon="6.89185">
        <ele>985</ele>
        <time>2022-09-13T13:59:23Z</time>
      </trkpt>
      <trkpt lat="47.14548" lon="6.89176">
        <ele>987</ele>
        <time>2022-09-13T13:59:45Z</time>
      </trkpt>
      <trkpt lat="47.14528" lon="6.89165">
        <ele>988</ele>
        <time>2022-09-13T14:00:02Z</time>
      </trkpt>
      <trkpt lat="47.14504" lon="6.89143">
        <ele>988</ele>
        <time>2022-09-13T14:00:25Z</time>
      </trkpt>
      <trkpt lat="47.14482" lon="6.89103">
        <ele>988</ele>
        <time>2022-09-13T14:00:53Z</time>
      </trkpt>
      <trkpt lat="47.14456" lon="6.89044">
        <ele>990</ele>
        <time>2022-09-13T14:01:31Z</time>
      </trkpt>
      <trkpt lat="47.14427" lon="6.88971">
        <ele>990</ele>
        <time>2022-09-13T14:02:17Z</time>
      </trkpt>
      <trkpt lat="47.14414" lon="6.88944">
        <ele>988</ele>
        <time>2022-09-13T14:02:35Z</time>
      </trkpt>
      <trkpt lat="47.144" lon="6.88925">
        <ele>987</ele>
        <time>2022-09-13T14:02:50Z</time>
      </trkpt>
      <trkpt lat="47.14388" lon="6.88917">
        <ele>988</ele>
        <time>2022-09-13T14:03:01Z</time>
      </trkpt>
      <trkpt lat="47.14375" lon="6.88913">
        <ele>989</ele>
        <time>2022-09-13T14:03:11Z</time>
      </trkpt>
      <trkpt lat="47.14361" lon="6.88914">
        <ele>990</ele>
        <time>2022-09-13T14:03:23Z</time>
      </trkpt>
      <trkpt lat="47.14346" lon="6.8892">
        <ele>992</ele>
        <time>2022-09-13T14:03:35Z</time>
      </trkpt>
      <trkpt lat="47.14333" lon="6.88932">
        <ele>993</ele>
        <time>2022-09-13T14:03:47Z</time>
      </trkpt>
      <trkpt lat="47.14321" lon="6.8895">
        <ele>993</ele>
        <time>2022-09-13T14:04:01Z</time>
      </trkpt>
      <trkpt lat="47.14314" lon="6.88972">
        <ele>993</ele>
        <time>2022-09-13T14:04:14Z</time>
      </trkpt>
      <trkpt lat="47.14311" lon="6.88999">
        <ele>993</ele>
        <time>2022-09-13T14:04:29Z</time>
      </trkpt>
      <trkpt lat="47.14312" lon="6.89028">
        <ele>994</ele>
        <time>2022-09-13T14:04:45Z</time>
      </trkpt>
      <trkpt lat="47.14338" lon="6.89193">
        <ele>1001</ele>
        <time>2022-09-13T14:06:17Z</time>
      </trkpt>
      <trkpt lat="47.14339" lon="6.89226">
        <ele>1001</ele>
        <time>2022-09-13T14:06:35Z</time>
      </trkpt>
      <trkpt lat="47.14335" lon="6.89247">
        <ele>1002</ele>
        <time>2022-09-13T14:06:47Z</time>
      </trkpt>
      <trkpt lat="47.14326" lon="6.89263">
        <ele>1002</ele>
        <time>2022-09-13T14:06:58Z</time>
      </trkpt>
      <trkpt lat="47.14304" lon="6.89284">
        <ele>1003</ele>
        <time>2022-09-13T14:07:19Z</time>
      </trkpt>
      <trkpt lat="47.14261" lon="6.89321">
        <ele>1003</ele>
        <time>2022-09-13T14:07:59Z</time>
      </trkpt>
      <trkpt lat="47.14246" lon="6.89327">
        <ele>1003</ele>
        <time>2022-09-13T14:08:12Z</time>
      </trkpt>
      <trkpt lat="47.14229" lon="6.89327">
        <ele>1005</ele>
        <time>2022-09-13T14:08:25Z</time>
      </trkpt>
      <trkpt lat="47.14153" lon="6.89301">
        <ele>1008</ele>
        <time>2022-09-13T14:09:28Z</time>
      </trkpt>
      <trkpt lat="47.13931" lon="6.89198">
        <ele>1016</ele>
        <time>2022-09-13T14:12:34Z</time>
      </trkpt>
      <trkpt lat="47.13915" lon="6.89192">
        <ele>1016</ele>
        <time>2022-09-13T14:12:47Z</time>
      </trkpt>
      <trkpt lat="47.13901" lon="6.89191">
        <ele>1016</ele>
        <time>2022-09-13T14:12:59Z</time>
      </trkpt>
      <trkpt lat="47.13888" lon="6.89194">
        <ele>1015</ele>
        <time>2022-09-13T14:13:09Z</time>
      </trkpt>
      <trkpt lat="47.1387" lon="6.89206">
        <ele>1016</ele>
        <time>2022-09-13T14:13:25Z</time>
      </trkpt>
      <trkpt lat="47.13861" lon="6.89216">
        <ele>1016</ele>
        <time>2022-09-13T14:13:34Z</time>
      </trkpt>
      <trkpt lat="47.13847" lon="6.89242">
        <ele>1019</ele>
        <time>2022-09-13T14:13:52Z</time>
      </trkpt>
      <trkpt lat="47.13822" lon="6.8932">
        <ele>1024</ele>
        <time>2022-09-13T14:14:39Z</time>
      </trkpt>
      <trkpt lat="47.13806" lon="6.89353">
        <ele>1025</ele>
        <time>2022-09-13T14:15:01Z</time>
      </trkpt>
      <trkpt lat="47.1378" lon="6.89388">
        <ele>1027</ele>
        <time>2022-09-13T14:15:29Z</time>
      </trkpt>
      <trkpt lat="47.13755" lon="6.89409">
        <ele>1028</ele>
        <time>2022-09-13T14:15:52Z</time>
      </trkpt>
      <trkpt lat="47.13731" lon="6.89424">
        <ele>1028</ele>
        <time>2022-09-13T14:16:13Z</time>
      </trkpt>
      <trkpt lat="47.13701" lon="6.89438">
        <ele>1029</ele>
        <time>2022-09-13T14:16:39Z</time>
      </trkpt>
      <trkpt lat="47.1365" lon="6.89453">
        <ele>1030</ele>
        <time>2022-09-13T14:17:20Z</time>
      </trkpt>
      <trkpt lat="47.13619" lon="6.8946">
        <ele>1032</ele>
        <time>2022-09-13T14:17:45Z</time>
      </trkpt>
      <trkpt lat="47.13572" lon="6.89465">
        <ele>1036</ele>
        <time>2022-09-13T14:18:23Z</time>
      </trkpt>
      <trkpt lat="47.13545" lon="6.89464">
        <ele>1040</ele>
        <time>2022-09-13T14:18:45Z</time>
      </trkpt>
      <trkpt lat="47.13523" lon="6.8946">
        <ele>1042</ele>
        <time>2022-09-13T14:19:02Z</time>
      </trkpt>
      <trkpt lat="47.13497" lon="6.89452">
        <ele>1045</ele>
        <time>2022-09-13T14:19:24Z</time>
      </trkpt>
      <trkpt lat="47.13472" lon="6.89438">
        <ele>1049</ele>
        <time>2022-09-13T14:19:45Z</time>
      </trkpt>
      <trkpt lat="47.13448" lon="6.8942">
        <ele>1053</ele>
        <time>2022-09-13T14:20:07Z</time>
      </trkpt>
      <trkpt lat="47.13425" lon="6.89397">
        <ele>1056</ele>
        <time>2022-09-13T14:20:29Z</time>
      </trkpt>
      <trkpt lat="47.13404" lon="6.89369">
        <ele>1056</ele>
        <time>2022-09-13T14:20:52Z</time>
      </trkpt>
      <trkpt lat="47.13341" lon="6.89274">
        <ele>1058</ele>
        <time>2022-09-13T14:22:04Z</time>
      </trkpt>
      <trkpt lat="47.13277" lon="6.89186">
        <ele>1065</ele>
        <time>2022-09-13T14:23:14Z</time>
      </trkpt>
      <trkpt lat="47.13148" lon="6.89026">
        <ele>1065</ele>
        <time>2022-09-13T14:25:29Z</time>
      </trkpt>
      <trkpt lat="47.13119" lon="6.88994">
        <ele>1064</ele>
        <time>2022-09-13T14:25:58Z</time>
      </trkpt>
      <trkpt lat="47.131" lon="6.8898">
        <ele>1066</ele>
        <time>2022-09-13T14:26:15Z</time>
      </trkpt>
      <trkpt lat="47.13076" lon="6.88968">
        <ele>1067</ele>
        <time>2022-09-13T14:26:36Z</time>
      </trkpt>
      <trkpt lat="47.13061" lon="6.88963">
        <ele>1067</ele>
        <time>2022-09-13T14:26:48Z</time>
      </trkpt>
      <trkpt lat="47.13044" lon="6.88961">
        <ele>1066</ele>
        <time>2022-09-13T14:27:02Z</time>
      </trkpt>
      <trkpt lat="47.13015" lon="6.88963">
        <ele>1065</ele>
        <time>2022-09-13T14:27:25Z</time>
      </trkpt>
      <trkpt lat="47.12984" lon="6.88973">
        <ele>1063</ele>
        <time>2022-09-13T14:27:50Z</time>
      </trkpt>
      <trkpt lat="47.12844" lon="6.89044">
        <ele>1058</ele>
        <time>2022-09-13T14:29:49Z</time>
      </trkpt>
      <trkpt lat="47.12815" lon="6.89056">
        <ele>1058</ele>
        <time>2022-09-13T14:30:13Z</time>
      </trkpt>
      <trkpt lat="47.1279" lon="6.8906">
        <ele>1057</ele>
        <time>2022-09-13T14:30:33Z</time>
      </trkpt>
      <trkpt lat="47.12764" lon="6.89058">
        <ele>1055</ele>
        <time>2022-09-13T14:30:54Z</time>
      </trkpt>
      <trkpt lat="47.12733" lon="6.89048">
        <ele>1054</ele>
        <time>2022-09-13T14:31:19Z</time>
      </trkpt>
      <trkpt lat="47.12708" lon="6.89028">
        <ele>1054</ele>
        <time>2022-09-13T14:31:42Z</time>
      </trkpt>
      <trkpt lat="47.12705" lon="6.8902">
        <ele>1053</ele>
        <time>2022-09-13T14:31:47Z</time>
      </trkpt>
      <trkpt lat="47.127" lon="6.89014">
        <ele>1053</ele>
        <time>2022-09-13T14:31:52Z</time>
      </trkpt>
      <trkpt lat="47.12694" lon="6.89012">
        <ele>1053</ele>
        <time>2022-09-13T14:31:57Z</time>
      </trkpt>
      <trkpt lat="47.12678" lon="6.88986">
        <ele>1053</ele>
        <time>2022-09-13T14:32:16Z</time>
      </trkpt>
      <trkpt lat="47.12625" lon="6.88846">
        <ele>1054</ele>
        <time>2022-09-13T14:33:44Z</time>
      </trkpt>
      <trkpt lat="47.12605" lon="6.88799">
        <ele>1052</ele>
        <time>2022-09-13T14:34:14Z</time>
      </trkpt>
      <trkpt lat="47.12587" lon="6.88766">
        <ele>1051</ele>
        <time>2022-09-13T14:34:37Z</time>
      </trkpt>
      <trkpt lat="47.12567" lon="6.88737">
        <ele>1050</ele>
        <time>2022-09-13T14:34:59Z</time>
      </trkpt>
      <trkpt lat="47.12549" lon="6.88717">
        <ele>1050</ele>
        <time>2022-09-13T14:35:17Z</time>
      </trkpt>
      <trkpt lat="47.12512" lon="6.88689">
        <ele>1049</ele>
        <time>2022-09-13T14:35:51Z</time>
      </trkpt>
      <trkpt lat="47.12498" lon="6.88682">
        <ele>1049</ele>
        <time>2022-09-13T14:36:03Z</time>
      </trkpt>
      <trkpt lat="47.1246" lon="6.88665">
        <ele>1049</ele>
        <time>2022-09-13T14:36:34Z</time>
      </trkpt>
      <trkpt lat="47.12308" lon="6.88614">
        <ele>1047</ele>
        <time>2022-09-13T14:38:39Z</time>
      </trkpt>
      <trkpt lat="47.123" lon="6.8861">
        <ele>1047</ele>
        <time>2022-09-13T14:38:46Z</time>
      </trkpt>
      <trkpt lat="47.12283" lon="6.88595">
        <ele>1047</ele>
        <time>2022-09-13T14:39:02Z</time>
      </trkpt>
      <trkpt lat="47.12275" lon="6.8858">
        <ele>1046</ele>
        <time>2022-09-13T14:39:12Z</time>
      </trkpt>
      <trkpt lat="47.1225" lon="6.88518">
        <ele>1042</ele>
        <time>2022-09-13T14:39:51Z</time>
      </trkpt>
      <trkpt lat="47.12218" lon="6.88475">
        <ele>1041</ele>
        <time>2022-09-13T14:40:26Z</time>
      </trkpt>
      <trkpt lat="47.12126" lon="6.88306">
        <ele>1039</ele>
        <time>2022-09-13T14:42:24Z</time>
      </trkpt>
      <trkpt lat="47.1209" lon="6.88241">
        <ele>1032</ele>
        <time>2022-09-13T14:43:10Z</time>
      </trkpt>
      <trkpt lat="47.12058" lon="6.88189">
        <ele>1028</ele>
        <time>2022-09-13T14:43:48Z</time>
      </trkpt>
      <trkpt lat="47.12013" lon="6.88112">
        <ele>1024</ele>
        <time>2022-09-13T14:44:43Z</time>
      </trkpt>
      <trkpt lat="47.11985" lon="6.88062">
        <ele>1023</ele>
        <time>2022-09-13T14:45:19Z</time>
      </trkpt>
      <trkpt lat="47.11973" lon="6.88035">
        <ele>1023</ele>
        <time>2022-09-13T14:45:36Z</time>
      </trkpt>
      <trkpt lat="47.11948" lon="6.87972">
        <ele>1023</ele>
        <time>2022-09-13T14:46:16Z</time>
      </trkpt>
      <trkpt lat="47.11878" lon="6.87777">
        <ele>1021</ele>
        <time>2022-09-13T14:48:16Z</time>
      </trkpt>
      <trkpt lat="47.11869" lon="6.87737">
        <ele>1021</ele>
        <time>2022-09-13T14:48:39Z</time>
      </trkpt>
      <trkpt lat="47.11853" lon="6.87639">
        <ele>1023</ele>
        <time>2022-09-13T14:49:34Z</time>
      </trkpt>
      <trkpt lat="47.11845" lon="6.87604">
        <ele>1024</ele>
        <time>2022-09-13T14:49:54Z</time>
      </trkpt>
      <trkpt lat="47.1184" lon="6.87591">
        <ele>1024</ele>
        <time>2022-09-13T14:50:02Z</time>
      </trkpt>
      <trkpt lat="47.11818" lon="6.8755">
        <ele>1024</ele>
        <time>2022-09-13T14:50:31Z</time>
      </trkpt>
      <trkpt lat="47.11715" lon="6.87379">
        <ele>1032</ele>
        <time>2022-09-13T14:52:35Z</time>
      </trkpt>
      <trkpt lat="47.11704" lon="6.87353">
        <ele>1034</ele>
        <time>2022-09-13T14:52:52Z</time>
      </trkpt>
      <trkpt lat="47.11697" lon="6.87326">
        <ele>1035</ele>
        <time>2022-09-13T14:53:07Z</time>
      </trkpt>
      <trkpt lat="47.11695" lon="6.87313">
        <ele>1036</ele>
        <time>2022-09-13T14:53:15Z</time>
      </trkpt>
      <trkpt lat="47.11694" lon="6.87282">
        <ele>1037</ele>
        <time>2022-09-13T14:53:32Z</time>
      </trkpt>
      <trkpt lat="47.11704" lon="6.87205">
        <ele>1036</ele>
        <time>2022-09-13T14:54:14Z</time>
      </trkpt>
      <trkpt lat="47.11705" lon="6.87177">
        <ele>1036</ele>
        <time>2022-09-13T14:54:30Z</time>
      </trkpt>
      <trkpt lat="47.11699" lon="6.87054">
        <ele>1043</ele>
        <time>2022-09-13T14:55:37Z</time>
      </trkpt>
      <trkpt lat="47.11702" lon="6.87026">
        <ele>1044</ele>
        <time>2022-09-13T14:55:52Z</time>
      </trkpt>
      <trkpt lat="47.11705" lon="6.8701">
        <ele>1045</ele>
        <time>2022-09-13T14:56:01Z</time>
      </trkpt>
      <trkpt lat="47.11714" lon="6.86984">
        <ele>1048</ele>
        <time>2022-09-13T14:56:17Z</time>
      </trkpt>
      <trkpt lat="47.11726" lon="6.86965">
        <ele>1051</ele>
        <time>2022-09-13T14:56:31Z</time>
      </trkpt>
      <trkpt lat="47.11741" lon="6.86948">
        <ele>1054</ele>
        <time>2022-09-13T14:56:46Z</time>
      </trkpt>
      <trkpt lat="47.1175" lon="6.8694">
        <ele>1056</ele>
        <time>2022-09-13T14:56:55Z</time>
      </trkpt>
      <trkpt lat="47.11766" lon="6.86932">
        <ele>1059</ele>
        <time>2022-09-13T14:57:08Z</time>
      </trkpt>
      <trkpt lat="47.11788" lon="6.86928">
        <ele>1061</ele>
        <time>2022-09-13T14:57:26Z</time>
      </trkpt>
      <trkpt lat="47.11853" lon="6.8693">
        <ele>1064</ele>
        <time>2022-09-13T14:58:18Z</time>
      </trkpt>
      <trkpt lat="47.11865" lon="6.86928">
        <ele>1063</ele>
        <time>2022-09-13T14:58:28Z</time>
      </trkpt>
      <trkpt lat="47.1189" lon="6.86918">
        <ele>1063</ele>
        <time>2022-09-13T14:58:49Z</time>
      </trkpt>
      <trkpt lat="47.11903" lon="6.86909">
        <ele>1064</ele>
        <time>2022-09-13T14:59:00Z</time>
      </trkpt>
      <trkpt lat="47.11922" lon="6.8689">
        <ele>1066</ele>
        <time>2022-09-13T14:59:18Z</time>
      </trkpt>
      <trkpt lat="47.11936" lon="6.86871">
        <ele>1068</ele>
        <time>2022-09-13T14:59:34Z</time>
      </trkpt>
      <trkpt lat="47.11943" lon="6.86856">
        <ele>1069</ele>
        <time>2022-09-13T14:59:44Z</time>
      </trkpt>
      <trkpt lat="47.1195" lon="6.8684">
        <ele>1070</ele>
        <time>2022-09-13T14:59:54Z</time>
      </trkpt>
      <trkpt lat="47.11961" lon="6.86797">
        <ele>1072</ele>
        <time>2022-09-13T15:00:19Z</time>
      </trkpt>
      <trkpt lat="47.11965" lon="6.86744">
        <ele>1076</ele>
        <time>2022-09-13T15:00:48Z</time>
      </trkpt>
      <trkpt lat="47.1196" lon="6.86691">
        <ele>1080</ele>
        <time>2022-09-13T15:01:17Z</time>
      </trkpt>
      <trkpt lat="47.11954" lon="6.86658">
        <ele>1081</ele>
        <time>2022-09-13T15:01:36Z</time>
      </trkpt>
      <trkpt lat="47.11944" lon="6.86619">
        <ele>1081</ele>
        <time>2022-09-13T15:01:59Z</time>
      </trkpt>
      <trkpt lat="47.11868" lon="6.86397">
        <ele>1076</ele>
        <time>2022-09-13T15:04:14Z</time>
      </trkpt>
      <trkpt lat="47.11782" lon="6.86159">
        <ele>1061</ele>
        <time>2022-09-13T15:06:41Z</time>
      </trkpt>
      <trkpt lat="47.11765" lon="6.86096">
        <ele>1056</ele>
        <time>2022-09-13T15:07:18Z</time>
      </trkpt>
      <trkpt lat="47.11755" lon="6.86039">
        <ele>1056</ele>
        <time>2022-09-13T15:07:50Z</time>
      </trkpt>
      <trkpt lat="47.11751" lon="6.85988">
        <ele>1056</ele>
        <time>2022-09-13T15:08:18Z</time>
      </trkpt>
      <trkpt lat="47.1175" lon="6.85869">
        <ele>1050</ele>
        <time>2022-09-13T15:09:23Z</time>
      </trkpt>
      <trkpt lat="47.11743" lon="6.85794">
        <ele>1045</ele>
        <time>2022-09-13T15:10:04Z</time>
      </trkpt>
      <trkpt lat="47.11738" lon="6.85764">
        <ele>1043</ele>
        <time>2022-09-13T15:10:21Z</time>
      </trkpt>
      <trkpt lat="47.11726" lon="6.85708">
        <ele>1041</ele>
        <time>2022-09-13T15:10:53Z</time>
      </trkpt>
      <trkpt lat="47.11639" lon="6.85373">
        <ele>1029</ele>
        <time>2022-09-13T15:14:08Z</time>
      </trkpt>
      <trkpt lat="47.11606" lon="6.85259">
        <ele>1021</ele>
        <time>2022-09-13T15:15:16Z</time>
      </trkpt>
      <trkpt lat="47.1159" lon="6.85211">
        <ele>1017</ele>
        <time>2022-09-13T15:15:45Z</time>
      </trkpt>
      <trkpt lat="47.11565" lon="6.85143">
        <ele>1015</ele>
        <time>2022-09-13T15:16:27Z</time>
      </trkpt>
      <trkpt lat="47.1154" lon="6.85083">
        <ele>1011</ele>
        <time>2022-09-13T15:17:05Z</time>
      </trkpt>
      <trkpt lat="47.11498" lon="6.8499">
        <ele>1000</ele>
        <time>2022-09-13T15:18:06Z</time>
      </trkpt>
      <trkpt lat="47.11426" lon="6.84842">
        <ele>992</ele>
        <time>2022-09-13T15:19:45Z</time>
      </trkpt>
      <trkpt lat="47.11393" lon="6.84775">
        <ele>986</ele>
        <time>2022-09-13T15:20:30Z</time>
      </trkpt>
      <trkpt lat="47.11098" lon="6.84233">
        <ele>986</ele>
        <time>2022-09-13T15:26:48Z</time>
      </trkpt>
      <trkpt lat="47.10753" lon="6.83648">
        <ele>986</ele>
        <time>2022-09-13T15:33:50Z</time>
      </trkpt>
      <trkpt lat="47.10519" lon="6.83248">
        <ele>990</ele>
        <time>2022-09-13T15:38:38Z</time>
      </trkpt>
      <trkpt lat="47.10494" lon="6.83197">
        <ele>989</ele>
        <time>2022-09-13T15:39:12Z</time>
      </trkpt>
      <trkpt lat="47.1047" lon="6.83137">
        <ele>990</ele>
        <time>2022-09-13T15:39:50Z</time>
      </trkpt>
      <trkpt lat="47.10395" lon="6.83202">
        <ele>991</ele>
        <time>2022-09-13T15:40:59Z</time>
      </trkpt>
      <trkpt lat="47.10331" lon="6.83074">
        <ele>992</ele>
        <time>2022-09-13T15:42:26Z</time>
      </trkpt>
      <trkpt lat="47.10317" lon="6.83053">
        <ele>992</ele>
        <time>2022-09-13T15:42:42Z</time>
      </trkpt>
      <trkpt lat="47.10295" lon="6.83019">
        <ele>992</ele>
        <time>2022-09-13T15:43:08Z</time>
      </trkpt>
      <trkpt lat="47.10294" lon="6.83007">
        <ele>992</ele>
        <time>2022-09-13T15:43:14Z</time>
      </trkpt>
      <trkpt lat="47.10286" lon="6.82999">
        <ele>993</ele>
        <time>2022-09-13T15:43:22Z</time>
      </trkpt>
      <trkpt lat="47.10279" lon="6.83001">
        <ele>993</ele>
        <time>2022-09-13T15:43:28Z</time>
      </trkpt>
      <trkpt lat="47.10274" lon="6.8301">
        <ele>993</ele>
        <time>2022-09-13T15:43:34Z</time>
      </trkpt>
      <trkpt lat="47.10273" lon="6.83015">
        <ele>993</ele>
        <time>2022-09-13T15:43:37Z</time>
      </trkpt>
      <trkpt lat="47.10274" lon="6.83023">
        <ele>993</ele>
        <time>2022-09-13T15:43:41Z</time>
      </trkpt>
      <trkpt lat="47.10278" lon="6.83029">
        <ele>992</ele>
        <time>2022-09-13T15:43:46Z</time>
      </trkpt>
      <trkpt lat="47.10277" lon="6.83045">
        <ele>992</ele>
        <time>2022-09-13T15:43:55Z</time>
      </trkpt>
      <trkpt lat="47.10279" lon="6.83067">
        <ele>992</ele>
        <time>2022-09-13T15:44:07Z</time>
      </trkpt>
      <trkpt lat="47.10288" lon="6.83134">
        <ele>994</ele>
        <time>2022-09-13T15:44:44Z</time>
      </trkpt>
      <trkpt lat="47.10291" lon="6.83182">
        <ele>995</ele>
        <time>2022-09-13T15:45:10Z</time>
      </trkpt>
      <trkpt lat="47.10242" lon="6.83175">
        <ele>996</ele>
        <time>2022-09-13T15:45:50Z</time>
      </trkpt>
      <trkpt lat="47.10186" lon="6.83161">
        <ele>998</ele>
        <time>2022-09-13T15:46:35Z</time>
      </trkpt>
      <trkpt lat="47.10177" lon="6.8316">
        <ele>998</ele>
        <time>2022-09-13T15:46:42Z</time>
      </trkpt>
      <trkpt lat="47.10161" lon="6.83162">
        <ele>999</ele>
        <time>2022-09-13T15:46:55Z</time>
      </trkpt>
      <trkpt lat="47.10069" lon="6.83192">
        <ele>1006</ele>
        <time>2022-09-13T15:48:11Z</time>
      </trkpt>
      <trkpt lat="47.10044" lon="6.83199">
        <ele>1008</ele>
        <time>2022-09-13T15:48:31Z</time>
      </trkpt>
      <trkpt lat="47.0999" lon="6.83205">
        <ele>1010</ele>
        <time>2022-09-13T15:49:14Z</time>
      </trkpt>
      <trkpt lat="47.09967" lon="6.83209">
        <ele>1013</ele>
        <time>2022-09-13T15:49:33Z</time>
      </trkpt>
      <trkpt lat="47.09958" lon="6.8321">
        <ele>1015</ele>
        <time>2022-09-13T15:49:40Z</time>
      </trkpt>
      <trkpt lat="47.09955" lon="6.83196">
        <ele>1015</ele>
        <time>2022-09-13T15:49:48Z</time>
      </trkpt>
      <trkpt lat="47.09958" lon="6.83184">
        <ele>1014</ele>
        <time>2022-09-13T15:49:55Z</time>
      </trkpt>
      <trkpt lat="47.09967" lon="6.831">
        <ele>1009</ele>
        <time>2022-09-13T15:50:41Z</time>
      </trkpt>
      <trkpt lat="47.0981" lon="6.82834">
        <ele>1019</ele>
        <time>2022-09-13T15:53:53Z</time>
      </trkpt>
      <trkpt lat="47.09391" lon="6.82133">
        <ele>1008</ele>
        <time>2022-09-13T16:02:22Z</time>
      </trkpt>
      <trkpt lat="47.09395" lon="6.82124">
        <ele>1007</ele>
        <time>2022-09-13T16:02:28Z</time>
      </trkpt>
      <trkpt lat="47.09395" lon="6.82114">
        <ele>1007</ele>
        <time>2022-09-13T16:02:33Z</time>
      </trkpt>
      <trkpt lat="47.09393" lon="6.8211">
        <ele>1007</ele>
        <time>2022-09-13T16:02:36Z</time>
      </trkpt>
      <trkpt lat="47.09388" lon="6.82105">
        <ele>1007</ele>
        <time>2022-09-13T16:02:41Z</time>
      </trkpt>
      <trkpt lat="47.09381" lon="6.82105">
        <ele>1007</ele>
        <time>2022-09-13T16:02:46Z</time>
      </trkpt>
      <trkpt lat="47.09378" lon="6.82107">
        <ele>1007</ele>
        <time>2022-09-13T16:02:49Z</time>
      </trkpt>
      <trkpt lat="47.09207" lon="6.81821">
        <ele>1010</ele>
        <time>2022-09-13T16:06:16Z</time>
      </trkpt>
      <trkpt lat="47.09034" lon="6.81527">
        <ele>1005</ele>
        <time>2022-09-13T16:09:48Z</time>
      </trkpt>
      <trkpt lat="47.08958" lon="6.81405">
        <ele>1005</ele>
        <time>2022-09-13T16:11:18Z</time>
      </trkpt>
      <trkpt lat="47.0887" lon="6.81274">
        <ele>1006</ele>
        <time>2022-09-13T16:12:59Z</time>
      </trkpt>
      <trkpt lat="47.08862" lon="6.81264">
        <ele>1006</ele>
        <time>2022-09-13T16:13:07Z</time>
      </trkpt>
      <trkpt lat="47.08865" lon="6.81253">
        <ele>1006</ele>
        <time>2022-09-13T16:13:14Z</time>
      </trkpt>
      <trkpt lat="47.08864" lon="6.81245">
        <ele>1006</ele>
        <time>2022-09-13T16:13:18Z</time>
      </trkpt>
      <trkpt lat="47.08861" lon="6.81238">
        <ele>1006</ele>
        <time>2022-09-13T16:13:23Z</time>
      </trkpt>
      <trkpt lat="47.08853" lon="6.81233">
        <ele>1006</ele>
        <time>2022-09-13T16:13:29Z</time>
      </trkpt>
      <trkpt lat="47.08845" lon="6.81237">
        <ele>1006</ele>
        <time>2022-09-13T16:13:36Z</time>
      </trkpt>
      <trkpt lat="47.08823" lon="6.81199">
        <ele>1007</ele>
        <time>2022-09-13T16:14:03Z</time>
      </trkpt>
      <trkpt lat="47.08725" lon="6.81069">
        <ele>1008</ele>
        <time>2022-09-13T16:15:49Z</time>
      </trkpt>
      <trkpt lat="47.08687" lon="6.81017">
        <ele>1010</ele>
        <time>2022-09-13T16:16:31Z</time>
      </trkpt>
      <trkpt lat="47.08666" lon="6.80976">
        <ele>1009</ele>
        <time>2022-09-13T16:16:59Z</time>
      </trkpt>
      <trkpt lat="47.08655" lon="6.80947">
        <ele>1009</ele>
        <time>2022-09-13T16:17:17Z</time>
      </trkpt>
      <trkpt lat="47.08643" lon="6.80907">
        <ele>1008</ele>
        <time>2022-09-13T16:17:41Z</time>
      </trkpt>
      <trkpt lat="47.08637" lon="6.80875">
        <ele>1009</ele>
        <time>2022-09-13T16:17:59Z</time>
      </trkpt>
      <trkpt lat="47.0862" lon="6.80729">
        <ele>1013</ele>
        <time>2022-09-13T16:19:19Z</time>
      </trkpt>
      <trkpt lat="47.08613" lon="6.80693">
        <ele>1012</ele>
        <time>2022-09-13T16:19:40Z</time>
      </trkpt>
      <trkpt lat="47.08602" lon="6.80659">
        <ele>1012</ele>
        <time>2022-09-13T16:20:00Z</time>
      </trkpt>
      <trkpt lat="47.0859" lon="6.80633">
        <ele>1012</ele>
        <time>2022-09-13T16:20:18Z</time>
      </trkpt>
      <trkpt lat="47.08483" lon="6.80431">
        <ele>1011</ele>
        <time>2022-09-13T16:22:37Z</time>
      </trkpt>
      <trkpt lat="47.08385" lon="6.80259">
        <ele>1012</ele>
        <time>2022-09-13T16:24:39Z</time>
      </trkpt>
      <trkpt lat="47.08361" lon="6.80209">
        <ele>1011</ele>
        <time>2022-09-13T16:25:13Z</time>
      </trkpt>
      <trkpt lat="47.08366" lon="6.80201">
        <ele>1011</ele>
        <time>2022-09-13T16:25:19Z</time>
      </trkpt>
      <trkpt lat="47.08367" lon="6.80191">
        <ele>1011</ele>
        <time>2022-09-13T16:25:24Z</time>
      </trkpt>
      <trkpt lat="47.08365" lon="6.80186">
        <ele>1011</ele>
        <time>2022-09-13T16:25:27Z</time>
      </trkpt>
      <trkpt lat="47.08363" lon="6.80181">
        <ele>1011</ele>
        <time>2022-09-13T16:25:30Z</time>
      </trkpt>
      <trkpt lat="47.08356" lon="6.80176">
        <ele>1011</ele>
        <time>2022-09-13T16:25:37Z</time>
      </trkpt>
      <trkpt lat="47.08348" lon="6.80178">
        <ele>1011</ele>
        <time>2022-09-13T16:25:43Z</time>
      </trkpt>
      <trkpt lat="47.08302" lon="6.80053">
        <ele>1012</ele>
        <time>2022-09-13T16:27:01Z</time>
      </trkpt>
      <trkpt lat="47.08266" lon="6.79943">
        <ele>1014</ele>
        <time>2022-09-13T16:28:07Z</time>
      </trkpt>
      <trkpt lat="47.08223" lon="6.79828">
        <ele>1015</ele>
        <time>2022-09-13T16:29:19Z</time>
      </trkpt>
      <trkpt lat="47.08205" lon="6.7979">
        <ele>1015</ele>
        <time>2022-09-13T16:29:44Z</time>
      </trkpt>
      <trkpt lat="47.08158" lon="6.79708">
        <ele>1016</ele>
        <time>2022-09-13T16:30:42Z</time>
      </trkpt>
      <trkpt lat="47.08136" lon="6.79655">
        <ele>1014</ele>
        <time>2022-09-13T16:31:16Z</time>
      </trkpt>
      <trkpt lat="47.08126" lon="6.79625">
        <ele>1012</ele>
        <time>2022-09-13T16:31:34Z</time>
      </trkpt>
      <trkpt lat="47.08124" lon="6.79586">
        <ele>1010</ele>
        <time>2022-09-13T16:31:56Z</time>
      </trkpt>
      <trkpt lat="47.08128" lon="6.79578">
        <ele>1009</ele>
        <time>2022-09-13T16:32:01Z</time>
      </trkpt>
      <trkpt lat="47.0813" lon="6.79568">
        <ele>1009</ele>
        <time>2022-09-13T16:32:07Z</time>
      </trkpt>
      <trkpt lat="47.0813" lon="6.79558">
        <ele>1008</ele>
        <time>2022-09-13T16:32:12Z</time>
      </trkpt>
      <trkpt lat="47.08128" lon="6.79548">
        <ele>1008</ele>
        <time>2022-09-13T16:32:18Z</time>
      </trkpt>
      <trkpt lat="47.08125" lon="6.7954">
        <ele>1007</ele>
        <time>2022-09-13T16:32:23Z</time>
      </trkpt>
      <trkpt lat="47.08119" lon="6.79533">
        <ele>1007</ele>
        <time>2022-09-13T16:32:29Z</time>
      </trkpt>
      <trkpt lat="47.08113" lon="6.795">
        <ele>1006</ele>
        <time>2022-09-13T16:32:48Z</time>
      </trkpt>
      <trkpt lat="47.08114" lon="6.79363">
        <ele>1003</ele>
        <time>2022-09-13T16:34:02Z</time>
      </trkpt>
      <trkpt lat="47.08109" lon="6.79293">
        <ele>1005</ele>
        <time>2022-09-13T16:34:41Z</time>
      </trkpt>
      <trkpt lat="47.08101" lon="6.79243">
        <ele>1007</ele>
        <time>2022-09-13T16:35:09Z</time>
      </trkpt>
      <trkpt lat="47.08085" lon="6.79184">
        <ele>1009</ele>
        <time>2022-09-13T16:35:43Z</time>
      </trkpt>
      <trkpt lat="47.08065" lon="6.79132">
        <ele>1011</ele>
        <time>2022-09-13T16:36:16Z</time>
      </trkpt>
      <trkpt lat="47.08045" lon="6.79091">
        <ele>1014</ele>
        <time>2022-09-13T16:36:44Z</time>
      </trkpt>
      <trkpt lat="47.07616" lon="6.78292">
        <ele>1013</ele>
        <time>2022-09-13T16:45:58Z</time>
      </trkpt>
      <trkpt lat="47.07574" lon="6.78221">
        <ele>1014</ele>
        <time>2022-09-13T16:46:50Z</time>
      </trkpt>
      <trkpt lat="47.07449" lon="6.78045">
        <ele>1012</ele>
        <time>2022-09-13T16:49:08Z</time>
      </trkpt>
      <trkpt lat="47.07417" lon="6.77996">
        <ele>1011</ele>
        <time>2022-09-13T16:49:45Z</time>
      </trkpt>
      <trkpt lat="47.07391" lon="6.77949">
        <ele>1009</ele>
        <time>2022-09-13T16:50:18Z</time>
      </trkpt>
      <trkpt lat="47.07371" lon="6.77903">
        <ele>1007</ele>
        <time>2022-09-13T16:50:48Z</time>
      </trkpt>
      <trkpt lat="47.07337" lon="6.7781">
        <ele>1006</ele>
        <time>2022-09-13T16:51:46Z</time>
      </trkpt>
      <trkpt lat="47.07311" lon="6.77727">
        <ele>1006</ele>
        <time>2022-09-13T16:52:35Z</time>
      </trkpt>
      <trkpt lat="47.07274" lon="6.7757">
        <ele>1005</ele>
        <time>2022-09-13T16:54:06Z</time>
      </trkpt>
      <trkpt lat="47.07211" lon="6.77281">
        <ele>993</ele>
        <time>2022-09-13T16:56:51Z</time>
      </trkpt>
      <trkpt lat="47.07195" lon="6.77214">
        <ele>990</ele>
        <time>2022-09-13T16:57:30Z</time>
      </trkpt>
      <trkpt lat="47.07184" lon="6.7718">
        <ele>989</ele>
        <time>2022-09-13T16:57:51Z</time>
      </trkpt>
      <trkpt lat="47.07162" lon="6.77134">
        <ele>989</ele>
        <time>2022-09-13T16:58:21Z</time>
      </trkpt>
      <trkpt lat="47.0714" lon="6.771">
        <ele>987</ele>
        <time>2022-09-13T16:58:47Z</time>
      </trkpt>
      <trkpt lat="47.07122" lon="6.77079">
        <ele>984</ele>
        <time>2022-09-13T16:59:05Z</time>
      </trkpt>
      <trkpt lat="47.07103" lon="6.77062">
        <ele>982</ele>
        <time>2022-09-13T16:59:23Z</time>
      </trkpt>
      <trkpt lat="47.07085" lon="6.77049">
        <ele>979</ele>
        <time>2022-09-13T16:59:39Z</time>
      </trkpt>
      <trkpt lat="47.07067" lon="6.7704">
        <ele>978</ele>
        <time>2022-09-13T16:59:54Z</time>
      </trkpt>
      <trkpt lat="47.06985" lon="6.77008">
        <ele>963</ele>
        <time>2022-09-13T17:01:02Z</time>
      </trkpt>
      <trkpt lat="47.06969" lon="6.76999">
        <ele>961</ele>
        <time>2022-09-13T17:01:16Z</time>
      </trkpt>
      <trkpt lat="47.06942" lon="6.76976">
        <ele>960</ele>
        <time>2022-09-13T17:01:41Z</time>
      </trkpt>
      <trkpt lat="47.06929" lon="6.76961">
        <ele>960</ele>
        <time>2022-09-13T17:01:54Z</time>
      </trkpt>
      <trkpt lat="47.06916" lon="6.76942">
        <ele>959</ele>
        <time>2022-09-13T17:02:09Z</time>
      </trkpt>
      <trkpt lat="47.0682" lon="6.76777">
        <ele>951</ele>
        <time>2022-09-13T17:04:07Z</time>
      </trkpt>
      <trkpt lat="47.06771" lon="6.76702">
        <ele>947</ele>
        <time>2022-09-13T17:05:04Z</time>
      </trkpt>
      <trkpt lat="47.06743" lon="6.76653">
        <ele>943</ele>
        <time>2022-09-13T17:05:39Z</time>
      </trkpt>
      <trkpt lat="47.06722" lon="6.76608">
        <ele>946</ele>
        <time>2022-09-13T17:06:09Z</time>
      </trkpt>
      <trkpt lat="47.06719" lon="6.76604">
        <ele>946</ele>
        <time>2022-09-13T17:06:12Z</time>
      </trkpt>
      <trkpt lat="47.06679" lon="6.76512">
        <ele>945</ele>
        <time>2022-09-13T17:07:11Z</time>
      </trkpt>
      <trkpt lat="47.0665" lon="6.76433">
        <ele>943</ele>
        <time>2022-09-13T17:08:00Z</time>
      </trkpt>
      <trkpt lat="47.06634" lon="6.76394">
        <ele>943</ele>
        <time>2022-09-13T17:08:25Z</time>
      </trkpt>
      <trkpt lat="47.06613" lon="6.76348">
        <ele>944</ele>
        <time>2022-09-13T17:08:55Z</time>
      </trkpt>
      <trkpt lat="47.06596" lon="6.76318">
        <ele>942</ele>
        <time>2022-09-13T17:09:17Z</time>
      </trkpt>
      <trkpt lat="47.0657" lon="6.76278">
        <ele>940</ele>
        <time>2022-09-13T17:09:47Z</time>
      </trkpt>
      <trkpt lat="47.06542" lon="6.76241">
        <ele>938</ele>
        <time>2022-09-13T17:10:17Z</time>
      </trkpt>
      <trkpt lat="47.06444" lon="6.76131">
        <ele>935</ele>
        <time>2022-09-13T17:11:56Z</time>
      </trkpt>
      <trkpt lat="47.06413" lon="6.76094">
        <ele>933</ele>
        <time>2022-09-13T17:12:28Z</time>
      </trkpt>
      <trkpt lat="47.06389" lon="6.76053">
        <ele>934</ele>
        <time>2022-09-13T17:12:57Z</time>
      </trkpt>
      <trkpt lat="47.06376" lon="6.76025">
        <ele>934</ele>
        <time>2022-09-13T17:13:16Z</time>
      </trkpt>
      <trkpt lat="47.06323" lon="6.75882">
        <ele>933</ele>
        <time>2022-09-13T17:14:45Z</time>
      </trkpt>
      <trkpt lat="47.063" lon="6.75828">
        <ele>933</ele>
        <time>2022-09-13T17:15:19Z</time>
      </trkpt>
      <trkpt lat="47.06234" lon="6.75707">
        <ele>931</ele>
        <time>2022-09-13T17:16:44Z</time>
      </trkpt>
      <trkpt lat="47.06191" lon="6.75607">
        <ele>929</ele>
        <time>2022-09-13T17:17:48Z</time>
      </trkpt>
      <trkpt lat="47.06169" lon="6.75559">
        <ele>925</ele>
        <time>2022-09-13T17:18:20Z</time>
      </trkpt>
      <trkpt lat="47.06144" lon="6.75517">
        <ele>926</ele>
        <time>2022-09-13T17:18:50Z</time>
      </trkpt>
      <trkpt lat="47.06086" lon="6.75433">
        <ele>924</ele>
        <time>2022-09-13T17:19:56Z</time>
      </trkpt>
      <trkpt lat="47.06023" lon="6.75303">
        <ele>928</ele>
        <time>2022-09-13T17:21:23Z</time>
      </trkpt>
      <trkpt lat="47.05967" lon="6.75181">
        <ele>929</ele>
        <time>2022-09-13T17:22:43Z</time>
      </trkpt>
      <trkpt lat="47.05963" lon="6.75169">
        <ele>928</ele>
        <time>2022-09-13T17:22:50Z</time>
      </trkpt>
      <trkpt lat="47.05958" lon="6.75163">
        <ele>928</ele>
        <time>2022-09-13T17:22:55Z</time>
      </trkpt>
      <trkpt lat="47.05954" lon="6.75146">
        <ele>929</ele>
        <time>2022-09-13T17:23:05Z</time>
      </trkpt>
      <trkpt lat="47.0594" lon="6.75116">
        <ele>929</ele>
        <time>2022-09-13T17:23:25Z</time>
      </trkpt>
      <trkpt lat="47.05855" lon="6.74982">
        <ele>928</ele>
        <time>2022-09-13T17:25:05Z</time>
      </trkpt>
      <trkpt lat="47.05827" lon="6.74942">
        <ele>926</ele>
        <time>2022-09-13T17:25:36Z</time>
      </trkpt>
      <trkpt lat="47.0581" lon="6.74933">
        <ele>926</ele>
        <time>2022-09-13T17:25:51Z</time>
      </trkpt>
      <trkpt lat="47.05801" lon="6.74923">
        <ele>925</ele>
        <time>2022-09-13T17:26:00Z</time>
      </trkpt>
      <trkpt lat="47.05706" lon="6.74748">
        <ele>923</ele>
        <time>2022-09-13T17:28:02Z</time>
      </trkpt>
      <trkpt lat="47.05659" lon="6.74659">
        <ele>925</ele>
        <time>2022-09-13T17:29:03Z</time>
      </trkpt>
      <trkpt lat="47.05586" lon="6.74433">
        <ele>921</ele>
        <time>2022-09-13T17:31:19Z</time>
      </trkpt>
      <trkpt lat="47.05475" lon="6.74067">
        <ele>920</ele>
        <time>2022-09-13T17:34:58Z</time>
      </trkpt>
      <trkpt lat="47.05458" lon="6.74022">
        <ele>919</ele>
        <time>2022-09-13T17:35:26Z</time>
      </trkpt>
      <trkpt lat="47.05395" lon="6.73824">
        <ele>918</ele>
        <time>2022-09-13T17:37:25Z</time>
      </trkpt>
      <trkpt lat="47.05449" lon="6.7379">
        <ele>922</ele>
        <time>2022-09-13T17:38:12Z</time>
      </trkpt>
      <trkpt lat="47.05434" lon="6.73738">
        <ele>922</ele>
        <time>2022-09-13T17:38:43Z</time>
      </trkpt>
      <trkpt lat="47.05365" lon="6.73529">
        <ele>925</ele>
        <time>2022-09-13T17:40:50Z</time>
      </trkpt>
      <trkpt lat="47.05344" lon="6.73459">
        <ele>929</ele>
        <time>2022-09-13T17:41:32Z</time>
      </trkpt>
      <trkpt lat="47.05341" lon="6.7342">
        <ele>934</ele>
        <time>2022-09-13T17:41:53Z</time>
      </trkpt>
      <trkpt lat="47.05204" lon="6.73097">
        <ele>926</ele>
        <time>2022-09-13T17:45:21Z</time>
      </trkpt>
      <trkpt lat="47.05204" lon="6.73087">
        <ele>927</ele>
        <time>2022-09-13T17:45:26Z</time>
      </trkpt>
      <trkpt lat="47.05204" lon="6.73097">
        <ele>926</ele>
        <time>2022-09-13T17:45:31Z</time>
      </trkpt>
      <trkpt lat="47.05199" lon="6.7309">
        <ele>926</ele>
        <time>2022-09-13T17:45:37Z</time>
      </trkpt>
      <trkpt lat="47.05108" lon="6.72823">
        <ele>927</ele>
        <time>2022-09-13T17:48:20Z</time>
      </trkpt>
      <trkpt lat="47.05083" lon="6.72838">
        <ele>918</ele>
        <time>2022-09-13T17:48:41Z</time>
      </trkpt>
      <trkpt lat="47.04962" lon="6.72457">
        <ele>922</ele>
        <time>2022-09-13T17:52:31Z</time>
      </trkpt>
      <trkpt lat="47.04947" lon="6.72402">
        <ele>920</ele>
        <time>2022-09-13T17:53:03Z</time>
      </trkpt>
      <trkpt lat="47.04943" lon="6.72375">
        <ele>920</ele>
        <time>2022-09-13T17:53:18Z</time>
      </trkpt>
      <trkpt lat="47.04941" lon="6.72348">
        <ele>920</ele>
        <time>2022-09-13T17:53:33Z</time>
      </trkpt>
      <trkpt lat="47.04942" lon="6.7228">
        <ele>923</ele>
        <time>2022-09-13T17:54:10Z</time>
      </trkpt>
      <trkpt lat="47.04946" lon="6.72225">
        <ele>926</ele>
        <time>2022-09-13T17:54:40Z</time>
      </trkpt>
      <trkpt lat="47.04951" lon="6.72198">
        <ele>928</ele>
        <time>2022-09-13T17:54:56Z</time>
      </trkpt>
      <trkpt lat="47.04959" lon="6.72178">
        <ele>931</ele>
        <time>2022-09-13T17:55:08Z</time>
      </trkpt>
      <trkpt lat="47.04981" lon="6.72146">
        <ele>947</ele>
        <time>2022-09-13T17:55:33Z</time>
      </trkpt>
      <trkpt lat="47.05034" lon="6.7208">
        <ele>996</ele>
        <time>2022-09-13T17:56:29Z</time>
      </trkpt>
      <trkpt lat="47.051" lon="6.71995">
        <ele>977</ele>
        <time>2022-09-13T17:57:39Z</time>
      </trkpt>
      <trkpt lat="47.05105" lon="6.71992">
        <ele>973</ele>
        <time>2022-09-13T17:57:43Z</time>
      </trkpt>
      <trkpt lat="47.05112" lon="6.71974">
        <ele>963</ele>
        <time>2022-09-13T17:57:55Z</time>
      </trkpt>
      <trkpt lat="47.05127" lon="6.71922">
        <ele>937</ele>
        <time>2022-09-13T17:58:25Z</time>
      </trkpt>
      <trkpt lat="47.05132" lon="6.71897">
        <ele>927</ele>
        <time>2022-09-13T17:58:40Z</time>
      </trkpt>
      <trkpt lat="47.05132" lon="6.71879">
        <ele>922</ele>
        <time>2022-09-13T17:58:49Z</time>
      </trkpt>
      <trkpt lat="47.05129" lon="6.71863">
        <ele>920</ele>
        <time>2022-09-13T17:58:58Z</time>
      </trkpt>
      <trkpt lat="47.05122" lon="6.7185">
        <ele>922</ele>
        <time>2022-09-13T17:59:08Z</time>
      </trkpt>
      <trkpt lat="47.05106" lon="6.71833">
        <ele>931</ele>
        <time>2022-09-13T17:59:23Z</time>
      </trkpt>
      <trkpt lat="47.05098" lon="6.71818">
        <ele>933</ele>
        <time>2022-09-13T17:59:34Z</time>
      </trkpt>
      <trkpt lat="47.05087" lon="6.71794">
        <ele>935</ele>
        <time>2022-09-13T17:59:50Z</time>
      </trkpt>
      <trkpt lat="47.05081" lon="6.71776">
        <ele>935</ele>
        <time>2022-09-13T18:00:00Z</time>
      </trkpt>
      <trkpt lat="47.05077" lon="6.71753">
        <ele>931</ele>
        <time>2022-09-13T18:00:13Z</time>
      </trkpt>
      <trkpt lat="47.05071" lon="6.71699">
        <ele>923</ele>
        <time>2022-09-13T18:00:43Z</time>
      </trkpt>
      <trkpt lat="47.05057" lon="6.7162">
        <ele>924</ele>
        <time>2022-09-13T18:01:28Z</time>
      </trkpt>
      <trkpt lat="47.05039" lon="6.71553">
        <ele>938</ele>
        <time>2022-09-13T18:02:07Z</time>
      </trkpt>
      <trkpt lat="47.05038" lon="6.71523">
        <ele>937</ele>
        <time>2022-09-13T18:02:23Z</time>
      </trkpt>
      <trkpt lat="47.0504" lon="6.71493">
        <ele>933</ele>
        <time>2022-09-13T18:02:40Z</time>
      </trkpt>
      <trkpt lat="47.05047" lon="6.71451">
        <ele>928</ele>
        <time>2022-09-13T18:03:03Z</time>
      </trkpt>
      <trkpt lat="47.05054" lon="6.71422">
        <ele>924</ele>
        <time>2022-09-13T18:03:20Z</time>
      </trkpt>
      <trkpt lat="47.05087" lon="6.7131">
        <ele>918</ele>
        <time>2022-09-13T18:04:27Z</time>
      </trkpt>
      <trkpt lat="47.05091" lon="6.71302">
        <ele>918</ele>
        <time>2022-09-13T18:04:32Z</time>
      </trkpt>
      <trkpt lat="47.05101" lon="6.71289">
        <ele>917</ele>
        <time>2022-09-13T18:04:43Z</time>
      </trkpt>
      <trkpt lat="47.05113" lon="6.71279">
        <ele>914</ele>
        <time>2022-09-13T18:04:54Z</time>
      </trkpt>
      <trkpt lat="47.05143" lon="6.71268">
        <ele>906</ele>
        <time>2022-09-13T18:05:19Z</time>
      </trkpt>
      <trkpt lat="47.05152" lon="6.7126">
        <ele>905</ele>
        <time>2022-09-13T18:05:27Z</time>
      </trkpt>
      <trkpt lat="47.05167" lon="6.7124">
        <ele>905</ele>
        <time>2022-09-13T18:05:43Z</time>
      </trkpt>
      <trkpt lat="47.05189" lon="6.71204">
        <ele>907</ele>
        <time>2022-09-13T18:06:10Z</time>
      </trkpt>
      <trkpt lat="47.05254" lon="6.71089">
        <ele>896</ele>
        <time>2022-09-13T18:07:31Z</time>
      </trkpt>
      <trkpt lat="47.05271" lon="6.71052">
        <ele>893</ele>
        <time>2022-09-13T18:07:56Z</time>
      </trkpt>
      <trkpt lat="47.05287" lon="6.7102">
        <ele>891</ele>
        <time>2022-09-13T18:08:17Z</time>
      </trkpt>
      <trkpt lat="47.05323" lon="6.70934">
        <ele>887</ele>
        <time>2022-09-13T18:09:12Z</time>
      </trkpt>
      <trkpt lat="47.05382" lon="6.70854">
        <ele>883</ele>
        <time>2022-09-13T18:10:17Z</time>
      </trkpt>
      <trkpt lat="47.05391" lon="6.70843">
        <ele>882</ele>
        <time>2022-09-13T18:10:26Z</time>
      </trkpt>
      <trkpt lat="47.05416" lon="6.70809">
        <ele>884</ele>
        <time>2022-09-13T18:10:53Z</time>
      </trkpt>
      <trkpt lat="47.05461" lon="6.70766">
        <ele>883</ele>
        <time>2022-09-13T18:11:36Z</time>
      </trkpt>
      <trkpt lat="47.05493" lon="6.70743">
        <ele>882</ele>
        <time>2022-09-13T18:12:05Z</time>
      </trkpt>
      <trkpt lat="47.05545" lon="6.70709">
        <ele>884</ele>
        <time>2022-09-13T18:12:50Z</time>
      </trkpt>
      <trkpt lat="47.05583" lon="6.70679">
        <ele>886</ele>
        <time>2022-09-13T18:13:25Z</time>
      </trkpt>
      <trkpt lat="47.05612" lon="6.70646">
        <ele>886</ele>
        <time>2022-09-13T18:13:54Z</time>
      </trkpt>
      <trkpt lat="47.05642" lon="6.706">
        <ele>887</ele>
        <time>2022-09-13T18:14:29Z</time>
      </trkpt>
      <trkpt lat="47.05675" lon="6.70541">
        <ele>885</ele>
        <time>2022-09-13T18:15:11Z</time>
      </trkpt>
      <trkpt lat="47.0568" lon="6.70528">
        <ele>885</ele>
        <time>2022-09-13T18:15:19Z</time>
      </trkpt>
      <trkpt lat="47.0569" lon="6.70491">
        <ele>885</ele>
        <time>2022-09-13T18:15:41Z</time>
      </trkpt>
      <trkpt lat="47.05693" lon="6.70468">
        <ele>883</ele>
        <time>2022-09-13T18:15:53Z</time>
      </trkpt>
      <trkpt lat="47.05695" lon="6.70434">
        <ele>881</ele>
        <time>2022-09-13T18:16:12Z</time>
      </trkpt>
      <trkpt lat="47.05692" lon="6.70396">
        <ele>878</ele>
        <time>2022-09-13T18:16:33Z</time>
      </trkpt>
      <trkpt lat="47.05672" lon="6.70275">
        <ele>865</ele>
        <time>2022-09-13T18:17:41Z</time>
      </trkpt>
      <trkpt lat="47.05668" lon="6.70239">
        <ele>862</ele>
        <time>2022-09-13T18:18:01Z</time>
      </trkpt>
      <trkpt lat="47.05667" lon="6.70207">
        <ele>861</ele>
        <time>2022-09-13T18:18:18Z</time>
      </trkpt>
      <trkpt lat="47.05669" lon="6.70165">
        <ele>859</ele>
        <time>2022-09-13T18:18:41Z</time>
      </trkpt>
      <trkpt lat="47.05682" lon="6.70099">
        <ele>858</ele>
        <time>2022-09-13T18:19:19Z</time>
      </trkpt>
      <trkpt lat="47.05694" lon="6.70069">
        <ele>857</ele>
        <time>2022-09-13T18:19:38Z</time>
      </trkpt>
      <trkpt lat="47.05712" lon="6.70032">
        <ele>857</ele>
        <time>2022-09-13T18:20:02Z</time>
      </trkpt>
      <trkpt lat="47.0576" lon="6.69947">
        <ele>860</ele>
        <time>2022-09-13T18:21:03Z</time>
      </trkpt>
      <trkpt lat="47.05808" lon="6.69869">
        <ele>865</ele>
        <time>2022-09-13T18:22:00Z</time>
      </trkpt>
      <trkpt lat="47.05833" lon="6.69839">
        <ele>861</ele>
        <time>2022-09-13T18:22:26Z</time>
      </trkpt>
      <trkpt lat="47.05871" lon="6.69803">
        <ele>857</ele>
        <time>2022-09-13T18:23:02Z</time>
      </trkpt>
      <trkpt lat="47.05926" lon="6.69757">
        <ele>844</ele>
        <time>2022-09-13T18:23:53Z</time>
      </trkpt>
      <trkpt lat="47.05954" lon="6.69727">
        <ele>843</ele>
        <time>2022-09-13T18:24:20Z</time>
      </trkpt>
      <trkpt lat="47.05962" lon="6.69715">
        <ele>843</ele>
        <time>2022-09-13T18:24:30Z</time>
      </trkpt>
      <trkpt lat="47.05974" lon="6.69693">
        <ele>843</ele>
        <time>2022-09-13T18:24:45Z</time>
      </trkpt>
      <trkpt lat="47.05981" lon="6.69673">
        <ele>844</ele>
        <time>2022-09-13T18:24:57Z</time>
      </trkpt>
      <trkpt lat="47.05987" lon="6.69646">
        <ele>842</ele>
        <time>2022-09-13T18:25:13Z</time>
      </trkpt>
      <trkpt lat="47.05991" lon="6.69612">
        <ele>838</ele>
        <time>2022-09-13T18:25:32Z</time>
      </trkpt>
      <trkpt lat="47.0599" lon="6.69556">
        <ele>837</ele>
        <time>2022-09-13T18:26:02Z</time>
      </trkpt>
      <trkpt lat="47.05982" lon="6.69352">
        <ele>836</ele>
        <time>2022-09-13T18:27:54Z</time>
      </trkpt>
      <trkpt lat="47.05979" lon="6.69306">
        <ele>835</ele>
        <time>2022-09-13T18:28:19Z</time>
      </trkpt>
      <trkpt lat="47.05974" lon="6.69271">
        <ele>834</ele>
        <time>2022-09-13T18:28:38Z</time>
      </trkpt>
      <trkpt lat="47.05887" lon="6.68864">
        <ele>817</ele>
        <time>2022-09-13T18:32:31Z</time>
      </trkpt>
      <trkpt lat="47.0588" lon="6.68841">
        <ele>817</ele>
        <time>2022-09-13T18:32:45Z</time>
      </trkpt>
      <trkpt lat="47.05866" lon="6.68801">
        <ele>816</ele>
        <time>2022-09-13T18:33:09Z</time>
      </trkpt>
      <trkpt lat="47.05823" lon="6.68705">
        <ele>817</ele>
        <time>2022-09-13T18:34:12Z</time>
      </trkpt>
      <trkpt lat="47.05809" lon="6.68667">
        <ele>819</ele>
        <time>2022-09-13T18:34:35Z</time>
      </trkpt>
      <trkpt lat="47.05799" lon="6.68628">
        <ele>818</ele>
        <time>2022-09-13T18:34:58Z</time>
      </trkpt>
      <trkpt lat="47.05785" lon="6.68554">
        <ele>818</ele>
        <time>2022-09-13T18:35:40Z</time>
      </trkpt>
      <trkpt lat="47.05774" lon="6.68488">
        <ele>819</ele>
        <time>2022-09-13T18:36:17Z</time>
      </trkpt>
      <trkpt lat="47.05771" lon="6.68432">
        <ele>818</ele>
        <time>2022-09-13T18:36:48Z</time>
      </trkpt>
      <trkpt lat="47.05773" lon="6.6839">
        <ele>816</ele>
        <time>2022-09-13T18:37:11Z</time>
      </trkpt>
      <trkpt lat="47.05777" lon="6.68371">
        <ele>814</ele>
        <time>2022-09-13T18:37:22Z</time>
      </trkpt>
      <trkpt lat="47.05788" lon="6.68327">
        <ele>811</ele>
        <time>2022-09-13T18:37:47Z</time>
      </trkpt>
      <trkpt lat="47.05826" lon="6.68216">
        <ele>802</ele>
        <time>2022-09-13T18:38:55Z</time>
      </trkpt>
      <trkpt lat="47.05886" lon="6.68058">
        <ele>794</ele>
        <time>2022-09-13T18:40:34Z</time>
      </trkpt>
      <trkpt lat="47.05893" lon="6.68037">
        <ele>794</ele>
        <time>2022-09-13T18:40:46Z</time>
      </trkpt>
      <trkpt lat="47.05906" lon="6.6799">
        <ele>794</ele>
        <time>2022-09-13T18:41:14Z</time>
      </trkpt>
      <trkpt lat="47.05913" lon="6.67953">
        <ele>793</ele>
        <time>2022-09-13T18:41:35Z</time>
      </trkpt>
      <trkpt lat="47.05917" lon="6.67913">
        <ele>793</ele>
        <time>2022-09-13T18:41:57Z</time>
      </trkpt>
      <trkpt lat="47.05916" lon="6.6787">
        <ele>792</ele>
        <time>2022-09-13T18:42:20Z</time>
      </trkpt>
      <trkpt lat="47.05914" lon="6.67844">
        <ele>791</ele>
        <time>2022-09-13T18:42:35Z</time>
      </trkpt>
      <trkpt lat="47.05906" lon="6.67795">
        <ele>791</ele>
        <time>2022-09-13T18:43:02Z</time>
      </trkpt>
      <trkpt lat="47.05891" lon="6.67745">
        <ele>790</ele>
        <time>2022-09-13T18:43:32Z</time>
      </trkpt>
      <trkpt lat="47.05864" lon="6.67688">
        <ele>788</ele>
        <time>2022-09-13T18:44:10Z</time>
      </trkpt>
      <trkpt lat="47.05843" lon="6.67656">
        <ele>786</ele>
        <time>2022-09-13T18:44:34Z</time>
      </trkpt>
      <trkpt lat="47.05817" lon="6.67629">
        <ele>782</ele>
        <time>2022-09-13T18:45:00Z</time>
      </trkpt>
      <trkpt lat="47.05802" lon="6.67616">
        <ele>780</ele>
        <time>2022-09-13T18:45:14Z</time>
      </trkpt>
      <trkpt lat="47.05769" lon="6.67594">
        <ele>778</ele>
        <time>2022-09-13T18:45:43Z</time>
      </trkpt>
      <trkpt lat="47.05598" lon="6.67508">
        <ele>769</ele>
        <time>2022-09-13T18:48:07Z</time>
      </trkpt>
      <trkpt lat="47.05548" lon="6.67476">
        <ele>770</ele>
        <time>2022-09-13T18:48:51Z</time>
      </trkpt>
      <trkpt lat="47.05517" lon="6.67453">
        <ele>769</ele>
        <time>2022-09-13T18:49:19Z</time>
      </trkpt>
      <trkpt lat="47.05465" lon="6.67406">
        <ele>772</ele>
        <time>2022-09-13T18:50:08Z</time>
      </trkpt>
      <trkpt lat="47.05421" lon="6.67354">
        <ele>769</ele>
        <time>2022-09-13T18:50:53Z</time>
      </trkpt>
      <trkpt lat="47.05381" lon="6.67295">
        <ele>771</ele>
        <time>2022-09-13T18:51:38Z</time>
      </trkpt>
      <trkpt lat="47.05301" lon="6.67149">
        <ele>766</ele>
        <time>2022-09-13T18:53:21Z</time>
      </trkpt>
      <trkpt lat="47.05269" lon="6.67082">
        <ele>767</ele>
        <time>2022-09-13T18:54:05Z</time>
      </trkpt>
      <trkpt lat="47.05258" lon="6.67046">
        <ele>765</ele>
        <time>2022-09-13T18:54:27Z</time>
      </trkpt>
      <trkpt lat="47.05253" lon="6.67025">
        <ele>762</ele>
        <time>2022-09-13T18:54:39Z</time>
      </trkpt>
      <trkpt lat="47.05248" lon="6.66993">
        <ele>759</ele>
        <time>2022-09-13T18:54:57Z</time>
      </trkpt>
      <trkpt lat="47.05246" lon="6.66967">
        <ele>758</ele>
        <time>2022-09-13T18:55:11Z</time>
      </trkpt>
      <trkpt lat="47.05246" lon="6.66938">
        <ele>756</ele>
        <time>2022-09-13T18:55:27Z</time>
      </trkpt>
      <trkpt lat="47.05248" lon="6.66916">
        <ele>754</ele>
        <time>2022-09-13T18:55:39Z</time>
      </trkpt>
      <trkpt lat="47.05257" lon="6.66861">
        <ele>752</ele>
        <time>2022-09-13T18:56:10Z</time>
      </trkpt>
      <trkpt lat="47.05277" lon="6.66769">
        <ele>752</ele>
        <time>2022-09-13T18:57:02Z</time>
      </trkpt>
      <trkpt lat="47.053" lon="6.6667">
        <ele>754</ele>
        <time>2022-09-13T18:58:00Z</time>
      </trkpt>
      <trkpt lat="47.05306" lon="6.66665">
        <ele>755</ele>
        <time>2022-09-13T18:58:05Z</time>
      </trkpt>
      <trkpt lat="47.05311" lon="6.66658">
        <ele>755</ele>
        <time>2022-09-13T18:58:11Z</time>
      </trkpt>
      <trkpt lat="47.05313" lon="6.66649">
        <ele>755</ele>
        <time>2022-09-13T18:58:16Z</time>
      </trkpt>
      <trkpt lat="47.05313" lon="6.66638">
        <ele>755</ele>
        <time>2022-09-13T18:58:22Z</time>
      </trkpt>
      <trkpt lat="47.05311" lon="6.66629">
        <ele>755</ele>
        <time>2022-09-13T18:58:27Z</time>
      </trkpt>
      <trkpt lat="47.05306" lon="6.66621">
        <ele>755</ele>
        <time>2022-09-13T18:58:33Z</time>
      </trkpt>
      <trkpt lat="47.053" lon="6.66616">
        <ele>754</ele>
        <time>2022-09-13T18:58:38Z</time>
      </trkpt>
      <trkpt lat="47.05296" lon="6.66607">
        <ele>754</ele>
        <time>2022-09-13T18:58:44Z</time>
      </trkpt>
      <trkpt lat="47.0528" lon="6.6655">
        <ele>755</ele>
        <time>2022-09-13T18:59:18Z</time>
      </trkpt>
      <trkpt lat="47.05246" lon="6.6641">
        <ele>755</ele>
        <time>2022-09-13T19:00:39Z</time>
      </trkpt>
      <trkpt lat="47.05244" lon="6.66388">
        <ele>754</ele>
        <time>2022-09-13T19:00:51Z</time>
      </trkpt>
      <trkpt lat="47.05242" lon="6.66363">
        <ele>754</ele>
        <time>2022-09-13T19:01:05Z</time>
      </trkpt>
      <trkpt lat="47.05243" lon="6.66321">
        <ele>754</ele>
        <time>2022-09-13T19:01:28Z</time>
      </trkpt>
      <trkpt lat="47.05248" lon="6.66285">
        <ele>754</ele>
        <time>2022-09-13T19:01:48Z</time>
      </trkpt>
      <trkpt lat="47.05256" lon="6.66249">
        <ele>755</ele>
        <time>2022-09-13T19:02:08Z</time>
      </trkpt>
      <trkpt lat="47.05261" lon="6.6623">
        <ele>755</ele>
        <time>2022-09-13T19:02:20Z</time>
      </trkpt>
      <trkpt lat="47.05271" lon="6.6621">
        <ele>756</ele>
        <time>2022-09-13T19:02:33Z</time>
      </trkpt>
      <trkpt lat="47.05318" lon="6.66138">
        <ele>759</ele>
        <time>2022-09-13T19:03:27Z</time>
      </trkpt>
      <trkpt lat="47.05406" lon="6.66021">
        <ele>763</ele>
        <time>2022-09-13T19:05:03Z</time>
      </trkpt>
      <trkpt lat="47.05428" lon="6.65984">
        <ele>761</ele>
        <time>2022-09-13T19:05:29Z</time>
      </trkpt>
      <trkpt lat="47.05447" lon="6.65944">
        <ele>761</ele>
        <time>2022-09-13T19:05:56Z</time>
      </trkpt>
      <trkpt lat="47.05455" lon="6.65913">
        <ele>758</ele>
        <time>2022-09-13T19:06:14Z</time>
      </trkpt>
      <trkpt lat="47.05461" lon="6.65884">
        <ele>759</ele>
        <time>2022-09-13T19:06:31Z</time>
      </trkpt>
      <trkpt lat="47.05464" lon="6.65847">
        <ele>759</ele>
        <time>2022-09-13T19:06:51Z</time>
      </trkpt>
      <trkpt lat="47.05463" lon="6.65801">
        <ele>761</ele>
        <time>2022-09-13T19:07:16Z</time>
      </trkpt>
      <trkpt lat="47.05457" lon="6.65762">
        <ele>763</ele>
        <time>2022-09-13T19:07:38Z</time>
      </trkpt>
      <trkpt lat="47.05394" lon="6.65463">
        <ele>763</ele>
        <time>2022-09-13T19:10:29Z</time>
      </trkpt>
      <trkpt lat="47.05375" lon="6.65385">
        <ele>761</ele>
        <time>2022-09-13T19:11:14Z</time>
      </trkpt>
      <trkpt lat="47.05346" lon="6.65306">
        <ele>759</ele>
        <time>2022-09-13T19:12:03Z</time>
      </trkpt>
      <trkpt lat="47.05302" lon="6.65195">
        <ele>762</ele>
        <time>2022-09-13T19:13:13Z</time>
      </trkpt>
      <trkpt lat="47.05079" lon="6.64606">
        <ele>766</ele>
        <time>2022-09-13T19:19:20Z</time>
      </trkpt>
      <trkpt lat="47.05057" lon="6.64552">
        <ele>770</ele>
        <time>2022-09-13T19:19:55Z</time>
      </trkpt>
      <trkpt lat="47.05034" lon="6.64505">
        <ele>771</ele>
        <time>2022-09-13T19:20:26Z</time>
      </trkpt>
      <trkpt lat="47.04995" lon="6.64435">
        <ele>771</ele>
        <time>2022-09-13T19:21:16Z</time>
      </trkpt>
      <trkpt lat="47.04959" lon="6.64364">
        <ele>773</ele>
        <time>2022-09-13T19:22:04Z</time>
      </trkpt>
      <trkpt lat="47.04939" lon="6.64318">
        <ele>772</ele>
        <time>2022-09-13T19:22:34Z</time>
      </trkpt>
      <trkpt lat="47.0489" lon="6.64192">
        <ele>775</ele>
        <time>2022-09-13T19:23:53Z</time>
      </trkpt>
      <trkpt lat="47.0487" lon="6.64149">
        <ele>775</ele>
        <time>2022-09-13T19:24:21Z</time>
      </trkpt>
      <trkpt lat="47.04785" lon="6.64011">
        <ele>768</ele>
        <time>2022-09-13T19:26:03Z</time>
      </trkpt>
      <trkpt lat="47.04773" lon="6.63987">
        <ele>766</ele>
        <time>2022-09-13T19:26:19Z</time>
      </trkpt>
      <trkpt lat="47.04763" lon="6.6396">
        <ele>766</ele>
        <time>2022-09-13T19:26:36Z</time>
      </trkpt>
      <trkpt lat="47.04738" lon="6.63859">
        <ele>767</ele>
        <time>2022-09-13T19:27:34Z</time>
      </trkpt>
      <trkpt lat="47.04664" lon="6.63636">
        <ele>764</ele>
        <time>2022-09-13T19:29:50Z</time>
      </trkpt>
      <trkpt lat="47.0464" lon="6.63575">
        <ele>764</ele>
        <time>2022-09-13T19:30:28Z</time>
      </trkpt>
      <trkpt lat="47.0463" lon="6.63553">
        <ele>764</ele>
        <time>2022-09-13T19:30:42Z</time>
      </trkpt>
      <trkpt lat="47.04588" lon="6.63481">
        <ele>760</ele>
        <time>2022-09-13T19:31:34Z</time>
      </trkpt>
      <trkpt lat="47.04579" lon="6.63458">
        <ele>759</ele>
        <time>2022-09-13T19:31:49Z</time>
      </trkpt>
      <trkpt lat="47.04573" lon="6.6343">
        <ele>759</ele>
        <time>2022-09-13T19:32:05Z</time>
      </trkpt>
      <trkpt lat="47.04571" lon="6.63401">
        <ele>759</ele>
        <time>2022-09-13T19:32:21Z</time>
      </trkpt>
      <trkpt lat="47.04572" lon="6.63371">
        <ele>761</ele>
        <time>2022-09-13T19:32:37Z</time>
      </trkpt>
      <trkpt lat="47.04577" lon="6.6333">
        <ele>763</ele>
        <time>2022-09-13T19:33:00Z</time>
      </trkpt>
      <trkpt lat="47.04603" lon="6.63197">
        <ele>773</ele>
        <time>2022-09-13T19:34:15Z</time>
      </trkpt>
      <trkpt lat="47.04617" lon="6.63099">
        <ele>776</ele>
        <time>2022-09-13T19:35:10Z</time>
      </trkpt>
      <trkpt lat="47.04624" lon="6.63069">
        <ele>776</ele>
        <time>2022-09-13T19:35:27Z</time>
      </trkpt>
      <trkpt lat="47.04634" lon="6.63038">
        <ele>774</ele>
        <time>2022-09-13T19:35:46Z</time>
      </trkpt>
      <trkpt lat="47.04646" lon="6.63011">
        <ele>772</ele>
        <time>2022-09-13T19:36:03Z</time>
      </trkpt>
      <trkpt lat="47.04663" lon="6.62981">
        <ele>770</ele>
        <time>2022-09-13T19:36:25Z</time>
      </trkpt>
      <trkpt lat="47.04741" lon="6.62853">
        <ele>771</ele>
        <time>2022-09-13T19:37:58Z</time>
      </trkpt>
      <trkpt lat="47.04847" lon="6.62666">
        <ele>765</ele>
        <time>2022-09-13T19:40:11Z</time>
      </trkpt>
      <trkpt lat="47.04869" lon="6.62635">
        <ele>764</ele>
        <time>2022-09-13T19:40:35Z</time>
      </trkpt>
      <trkpt lat="47.04876" lon="6.62627">
        <ele>763</ele>
        <time>2022-09-13T19:40:43Z</time>
      </trkpt>
      <trkpt lat="47.04892" lon="6.62615">
        <ele>763</ele>
        <time>2022-09-13T19:40:57Z</time>
      </trkpt>
      <trkpt lat="47.04947" lon="6.62591">
        <ele>761</ele>
        <time>2022-09-13T19:41:43Z</time>
      </trkpt>
      <trkpt lat="47.04969" lon="6.62575">
        <ele>760</ele>
        <time>2022-09-13T19:42:03Z</time>
      </trkpt>
      <trkpt lat="47.04988" lon="6.62553">
        <ele>759</ele>
        <time>2022-09-13T19:42:22Z</time>
      </trkpt>
      <trkpt lat="47.05003" lon="6.62527">
        <ele>757</ele>
        <time>2022-09-13T19:42:41Z</time>
      </trkpt>
      <trkpt lat="47.05015" lon="6.62498">
        <ele>753</ele>
        <time>2022-09-13T19:42:59Z</time>
      </trkpt>
      <trkpt lat="47.05023" lon="6.62465">
        <ele>754</ele>
        <time>2022-09-13T19:43:18Z</time>
      </trkpt>
      <trkpt lat="47.05025" lon="6.62444">
        <ele>754</ele>
        <time>2022-09-13T19:43:30Z</time>
      </trkpt>
      <trkpt lat="47.05026" lon="6.62407">
        <ele>754</ele>
        <time>2022-09-13T19:43:50Z</time>
      </trkpt>
      <trkpt lat="47.05026" lon="6.62366">
        <ele>754</ele>
        <time>2022-09-13T19:44:12Z</time>
      </trkpt>
      <trkpt lat="47.05027" lon="6.62207">
        <ele>759</ele>
        <time>2022-09-13T19:45:39Z</time>
      </trkpt>
      <trkpt lat="47.0503" lon="6.62176">
        <ele>760</ele>
        <time>2022-09-13T19:45:56Z</time>
      </trkpt>
      <trkpt lat="47.05037" lon="6.62144">
        <ele>760</ele>
        <time>2022-09-13T19:46:14Z</time>
      </trkpt>
      <trkpt lat="47.05046" lon="6.62117">
        <ele>760</ele>
        <time>2022-09-13T19:46:31Z</time>
      </trkpt>
      <trkpt lat="47.05062" lon="6.62085">
        <ele>759</ele>
        <time>2022-09-13T19:46:52Z</time>
      </trkpt>
      <trkpt lat="47.05195" lon="6.61888">
        <ele>759</ele>
        <time>2022-09-13T19:49:24Z</time>
      </trkpt>
      <trkpt lat="47.05255" lon="6.61792">
        <ele>757</ele>
        <time>2022-09-13T19:50:35Z</time>
      </trkpt>
      <trkpt lat="47.05275" lon="6.61751">
        <ele>756</ele>
        <time>2022-09-13T19:51:02Z</time>
      </trkpt>
      <trkpt lat="47.0529" lon="6.61715">
        <ele>757</ele>
        <time>2022-09-13T19:51:25Z</time>
      </trkpt>
      <trkpt lat="47.05306" lon="6.61665">
        <ele>758</ele>
        <time>2022-09-13T19:51:56Z</time>
      </trkpt>
      <trkpt lat="47.05315" lon="6.61626">
        <ele>758</ele>
        <time>2022-09-13T19:52:18Z</time>
      </trkpt>
      <trkpt lat="47.05322" lon="6.61567">
        <ele>758</ele>
        <time>2022-09-13T19:52:51Z</time>
      </trkpt>
      <trkpt lat="47.0533" lon="6.6135">
        <ele>760</ele>
        <time>2022-09-13T19:54:49Z</time>
      </trkpt>
      <trkpt lat="47.05333" lon="6.61308">
        <ele>760</ele>
        <time>2022-09-13T19:55:12Z</time>
      </trkpt>
      <trkpt lat="47.05343" lon="6.61261">
        <ele>760</ele>
        <time>2022-09-13T19:55:39Z</time>
      </trkpt>
      <trkpt lat="47.05385" lon="6.61133">
        <ele>760</ele>
        <time>2022-09-13T19:56:57Z</time>
      </trkpt>
      <trkpt lat="47.05412" lon="6.61069">
        <ele>758</ele>
        <time>2022-09-13T19:57:38Z</time>
      </trkpt>
      <trkpt lat="47.0544" lon="6.61011">
        <ele>757</ele>
        <time>2022-09-13T19:58:16Z</time>
      </trkpt>
      <trkpt lat="47.05459" lon="6.6096">
        <ele>756</ele>
        <time>2022-09-13T19:58:48Z</time>
      </trkpt>
      <trkpt lat="47.05462" lon="6.60942">
        <ele>755</ele>
        <time>2022-09-13T19:58:58Z</time>
      </trkpt>
      <trkpt lat="47.05462" lon="6.60925">
        <ele>755</ele>
        <time>2022-09-13T19:59:08Z</time>
      </trkpt>
      <trkpt lat="47.05466" lon="6.60897">
        <ele>755</ele>
        <time>2022-09-13T19:59:23Z</time>
      </trkpt>
      <trkpt lat="47.05469" lon="6.60891">
        <ele>756</ele>
        <time>2022-09-13T19:59:27Z</time>
      </trkpt>
      <trkpt lat="47.05475" lon="6.60891">
        <ele>756</ele>
        <time>2022-09-13T19:59:32Z</time>
      </trkpt>
      <trkpt lat="47.0548" lon="6.60885">
        <ele>756</ele>
        <time>2022-09-13T19:59:37Z</time>
      </trkpt>
      <trkpt lat="47.05482" lon="6.60881">
        <ele>756</ele>
        <time>2022-09-13T19:59:40Z</time>
      </trkpt>
      <trkpt lat="47.05482" lon="6.60872">
        <ele>756</ele>
        <time>2022-09-13T19:59:45Z</time>
      </trkpt>
      <trkpt lat="47.05478" lon="6.60865">
        <ele>756</ele>
        <time>2022-09-13T19:59:50Z</time>
      </trkpt>
      <trkpt lat="47.05508" lon="6.60709">
        <ele>761</ele>
        <time>2022-09-13T20:01:18Z</time>
      </trkpt>
      <trkpt lat="47.05518" lon="6.60678">
        <ele>762</ele>
        <time>2022-09-13T20:01:37Z</time>
      </trkpt>
      <trkpt lat="47.05524" lon="6.6068">
        <ele>762</ele>
        <time>2022-09-13T20:01:42Z</time>
      </trkpt>
      <trkpt lat="47.05527" lon="6.60679">
        <ele>762</ele>
        <time>2022-09-13T20:01:44Z</time>
      </trkpt>
      <trkpt lat="47.0553" lon="6.60671">
        <ele>762</ele>
        <time>2022-09-13T20:01:49Z</time>
      </trkpt>
      <trkpt lat="47.0553" lon="6.60667">
        <ele>762</ele>
        <time>2022-09-13T20:01:51Z</time>
      </trkpt>
      <trkpt lat="47.05527" lon="6.6066">
        <ele>763</ele>
        <time>2022-09-13T20:01:56Z</time>
      </trkpt>
      <trkpt lat="47.05522" lon="6.60658">
        <ele>762</ele>
        <time>2022-09-13T20:02:00Z</time>
      </trkpt>
      <trkpt lat="47.05517" lon="6.60642">
        <ele>763</ele>
        <time>2022-09-13T20:02:10Z</time>
      </trkpt>
      <trkpt lat="47.05502" lon="6.60533">
        <ele>763</ele>
        <time>2022-09-13T20:03:10Z</time>
      </trkpt>
      <trkpt lat="47.05495" lon="6.605">
        <ele>762</ele>
        <time>2022-09-13T20:03:29Z</time>
      </trkpt>
      <trkpt lat="47.05488" lon="6.60486">
        <ele>761</ele>
        <time>2022-09-13T20:03:39Z</time>
      </trkpt>
      <trkpt lat="47.05492" lon="6.60481">
        <ele>761</ele>
        <time>2022-09-13T20:03:43Z</time>
      </trkpt>
      <trkpt lat="47.05493" lon="6.60475">
        <ele>761</ele>
        <time>2022-09-13T20:03:46Z</time>
      </trkpt>
      <trkpt lat="47.05492" lon="6.60469">
        <ele>761</ele>
        <time>2022-09-13T20:03:50Z</time>
      </trkpt>
      <trkpt lat="47.05489" lon="6.60464">
        <ele>760</ele>
        <time>2022-09-13T20:03:53Z</time>
      </trkpt>
      <trkpt lat="47.05484" lon="6.60463">
        <ele>760</ele>
        <time>2022-09-13T20:03:57Z</time>
      </trkpt>
      <trkpt lat="47.05482" lon="6.60442">
        <ele>759</ele>
        <time>2022-09-13T20:04:09Z</time>
      </trkpt>
      <trkpt lat="47.05415" lon="6.60165">
        <ele>755</ele>
        <time>2022-09-13T20:06:49Z</time>
      </trkpt>
      <trkpt lat="47.05422" lon="6.60144">
        <ele>756</ele>
        <time>2022-09-13T20:07:02Z</time>
      </trkpt>
      <trkpt lat="47.05425" lon="6.60139">
        <ele>757</ele>
        <time>2022-09-13T20:07:06Z</time>
      </trkpt>
      <trkpt lat="47.05425" lon="6.60133">
        <ele>757</ele>
        <time>2022-09-13T20:07:09Z</time>
      </trkpt>
      <trkpt lat="47.05424" lon="6.60127">
        <ele>757</ele>
        <time>2022-09-13T20:07:12Z</time>
      </trkpt>
      <trkpt lat="47.05402" lon="6.60101">
        <ele>757</ele>
        <time>2022-09-13T20:07:35Z</time>
      </trkpt>
      <trkpt lat="47.05392" lon="6.60071">
        <ele>757</ele>
        <time>2022-09-13T20:07:53Z</time>
      </trkpt>
      <trkpt lat="47.05389" lon="6.6005">
        <ele>757</ele>
        <time>2022-09-13T20:08:05Z</time>
      </trkpt>
      <trkpt lat="47.05393" lon="6.59904">
        <ele>761</ele>
        <time>2022-09-13T20:09:25Z</time>
      </trkpt>
      <trkpt lat="47.05389" lon="6.59871">
        <ele>763</ele>
        <time>2022-09-13T20:09:43Z</time>
      </trkpt>
      <trkpt lat="47.05373" lon="6.59791">
        <ele>763</ele>
        <time>2022-09-13T20:10:28Z</time>
      </trkpt>
      <trkpt lat="47.05361" lon="6.59711">
        <ele>762</ele>
        <time>2022-09-13T20:11:13Z</time>
      </trkpt>
      <trkpt lat="47.05357" lon="6.59699">
        <ele>762</ele>
        <time>2022-09-13T20:11:20Z</time>
      </trkpt>
      <trkpt lat="47.05347" lon="6.59682">
        <ele>760</ele>
        <time>2022-09-13T20:11:33Z</time>
      </trkpt>
      <trkpt lat="47.05338" lon="6.59674">
        <ele>759</ele>
        <time>2022-09-13T20:11:41Z</time>
      </trkpt>
      <trkpt lat="47.05291" lon="6.59646">
        <ele>758</ele>
        <time>2022-09-13T20:12:22Z</time>
      </trkpt>
      <trkpt lat="47.05264" lon="6.59624">
        <ele>758</ele>
        <time>2022-09-13T20:12:46Z</time>
      </trkpt>
      <trkpt lat="47.05178" lon="6.5954">
        <ele>762</ele>
        <time>2022-09-13T20:14:09Z</time>
      </trkpt>
      <trkpt lat="47.05158" lon="6.59515">
        <ele>764</ele>
        <time>2022-09-13T20:14:30Z</time>
      </trkpt>
      <trkpt lat="47.05088" lon="6.59389">
        <ele>764</ele>
        <time>2022-09-13T20:15:59Z</time>
      </trkpt>
      <trkpt lat="47.05074" lon="6.59368">
        <ele>766</ele>
        <time>2022-09-13T20:16:15Z</time>
      </trkpt>
      <trkpt lat="47.05054" lon="6.59349">
        <ele>766</ele>
        <time>2022-09-13T20:16:34Z</time>
      </trkpt>
      <trkpt lat="47.04936" lon="6.59266">
        <ele>759</ele>
        <time>2022-09-13T20:18:19Z</time>
      </trkpt>
      <trkpt lat="47.04905" lon="6.59254">
        <ele>757</ele>
        <time>2022-09-13T20:18:44Z</time>
      </trkpt>
      <trkpt lat="47.04878" lon="6.59241">
        <ele>756</ele>
        <time>2022-09-13T20:19:07Z</time>
      </trkpt>
      <trkpt lat="47.04856" lon="6.59223">
        <ele>756</ele>
        <time>2022-09-13T20:19:27Z</time>
      </trkpt>
      <trkpt lat="47.04836" lon="6.59197">
        <ele>755</ele>
        <time>2022-09-13T20:19:49Z</time>
      </trkpt>
      <trkpt lat="47.04717" lon="6.58988">
        <ele>759</ele>
        <time>2022-09-13T20:22:17Z</time>
      </trkpt>
      <trkpt lat="47.04695" lon="6.58952">
        <ele>761</ele>
        <time>2022-09-13T20:22:44Z</time>
      </trkpt>
      <trkpt lat="47.04667" lon="6.58909">
        <ele>763</ele>
        <time>2022-09-13T20:23:16Z</time>
      </trkpt>
      <trkpt lat="47.04644" lon="6.58883">
        <ele>765</ele>
        <time>2022-09-13T20:23:39Z</time>
      </trkpt>
      <trkpt lat="47.04543" lon="6.5879">
        <ele>760</ele>
        <time>2022-09-13T20:25:15Z</time>
      </trkpt>
      <trkpt lat="47.0451" lon="6.58755">
        <ele>758</ele>
        <time>2022-09-13T20:25:47Z</time>
      </trkpt>
      <trkpt lat="47.0448" lon="6.58726">
        <ele>757</ele>
        <time>2022-09-13T20:26:16Z</time>
      </trkpt>
      <trkpt lat="47.04425" lon="6.58678">
        <ele>755</ele>
        <time>2022-09-13T20:27:07Z</time>
      </trkpt>
      <trkpt lat="47.04392" lon="6.58653">
        <ele>755</ele>
        <time>2022-09-13T20:27:37Z</time>
      </trkpt>
      <trkpt lat="47.04349" lon="6.58603">
        <ele>757</ele>
        <time>2022-09-13T20:28:21Z</time>
      </trkpt>
      <trkpt lat="47.04313" lon="6.58553">
        <ele>758</ele>
        <time>2022-09-13T20:29:01Z</time>
      </trkpt>
      <trkpt lat="47.04244" lon="6.58452">
        <ele>758</ele>
        <time>2022-09-13T20:30:19Z</time>
      </trkpt>
      <trkpt lat="47.04231" lon="6.5843">
        <ele>759</ele>
        <time>2022-09-13T20:30:35Z</time>
      </trkpt>
      <trkpt lat="47.0421" lon="6.58389">
        <ele>759</ele>
        <time>2022-09-13T20:31:03Z</time>
      </trkpt>
      <trkpt lat="47.04066" lon="6.58047">
        <ele>764</ele>
        <time>2022-09-13T20:34:42Z</time>
      </trkpt>
      <trkpt lat="47.04018" lon="6.57922">
        <ele>767</ele>
        <time>2022-09-13T20:36:00Z</time>
      </trkpt>
      <trkpt lat="47.03924" lon="6.57726">
        <ele>758</ele>
        <time>2022-09-13T20:38:11Z</time>
      </trkpt>
      <trkpt lat="47.03909" lon="6.57683">
        <ele>758</ele>
        <time>2022-09-13T20:38:37Z</time>
      </trkpt>
      <trkpt lat="47.039" lon="6.57665">
        <ele>758</ele>
        <time>2022-09-13T20:38:50Z</time>
      </trkpt>
      <trkpt lat="47.03886" lon="6.57625">
        <ele>759</ele>
        <time>2022-09-13T20:39:14Z</time>
      </trkpt>
      <trkpt lat="47.03873" lon="6.57594">
        <ele>760</ele>
        <time>2022-09-13T20:39:34Z</time>
      </trkpt>
      <trkpt lat="47.03841" lon="6.5755">
        <ele>760</ele>
        <time>2022-09-13T20:40:09Z</time>
      </trkpt>
      <trkpt lat="47.03783" lon="6.57445">
        <ele>766</ele>
        <time>2022-09-13T20:41:23Z</time>
      </trkpt>
      <trkpt lat="47.03736" lon="6.57379">
        <ele>763</ele>
        <time>2022-09-13T20:42:15Z</time>
      </trkpt>
      <trkpt lat="47.03718" lon="6.57351">
        <ele>763</ele>
        <time>2022-09-13T20:42:36Z</time>
      </trkpt>
      <trkpt lat="47.03669" lon="6.57255">
        <ele>760</ele>
        <time>2022-09-13T20:43:41Z</time>
      </trkpt>
      <trkpt lat="47.03658" lon="6.57228">
        <ele>760</ele>
        <time>2022-09-13T20:43:58Z</time>
      </trkpt>
      <trkpt lat="47.03582" lon="6.57022">
        <ele>761</ele>
        <time>2022-09-13T20:46:06Z</time>
      </trkpt>
      <trkpt lat="47.0357" lon="6.56982">
        <ele>765</ele>
        <time>2022-09-13T20:46:30Z</time>
      </trkpt>
      <trkpt lat="47.03533" lon="6.56817">
        <ele>782</ele>
        <time>2022-09-13T20:48:05Z</time>
      </trkpt>
      <trkpt lat="47.03518" lon="6.56739">
        <ele>786</ele>
        <time>2022-09-13T20:48:49Z</time>
      </trkpt>
      <trkpt lat="47.03513" lon="6.56693">
        <ele>781</ele>
        <time>2022-09-13T20:49:15Z</time>
      </trkpt>
      <trkpt lat="47.03515" lon="6.56596">
        <ele>782</ele>
        <time>2022-09-13T20:50:08Z</time>
      </trkpt>
      <trkpt lat="47.0352" lon="6.56493">
        <ele>781</ele>
        <time>2022-09-13T20:51:04Z</time>
      </trkpt>
      <trkpt lat="47.03519" lon="6.564">
        <ele>778</ele>
        <time>2022-09-13T20:51:55Z</time>
      </trkpt>
      <trkpt lat="47.03518" lon="6.56369">
        <ele>779</ele>
        <time>2022-09-13T20:52:12Z</time>
      </trkpt>
      <trkpt lat="47.03509" lon="6.56289">
        <ele>777</ele>
        <time>2022-09-13T20:52:56Z</time>
      </trkpt>
      <trkpt lat="47.03488" lon="6.56167">
        <ele>777</ele>
        <time>2022-09-13T20:54:05Z</time>
      </trkpt>
      <trkpt lat="47.03481" lon="6.56131">
        <ele>779</ele>
        <time>2022-09-13T20:54:25Z</time>
      </trkpt>
      <trkpt lat="47.03472" lon="6.561">
        <ele>779</ele>
        <time>2022-09-13T20:54:43Z</time>
      </trkpt>
      <trkpt lat="47.03459" lon="6.56063">
        <ele>778</ele>
        <time>2022-09-13T20:55:06Z</time>
      </trkpt>
      <trkpt lat="47.03427" lon="6.55987">
        <ele>773</ele>
        <time>2022-09-13T20:55:55Z</time>
      </trkpt>
      <trkpt lat="47.03371" lon="6.55872">
        <ele>770</ele>
        <time>2022-09-13T20:57:12Z</time>
      </trkpt>
      <trkpt lat="47.03277" lon="6.55637">
        <ele>771</ele>
        <time>2022-09-13T20:59:41Z</time>
      </trkpt>
      <trkpt lat="47.03266" lon="6.55609">
        <ele>769</ele>
        <time>2022-09-13T20:59:58Z</time>
      </trkpt>
      <trkpt lat="47.03257" lon="6.55578">
        <ele>768</ele>
        <time>2022-09-13T21:00:17Z</time>
      </trkpt>
      <trkpt lat="47.03252" lon="6.55551">
        <ele>766</ele>
        <time>2022-09-13T21:00:32Z</time>
      </trkpt>
      <trkpt lat="47.03248" lon="6.55509">
        <ele>766</ele>
        <time>2022-09-13T21:00:55Z</time>
      </trkpt>
      <trkpt lat="47.03245" lon="6.55451">
        <ele>766</ele>
        <time>2022-09-13T21:01:27Z</time>
      </trkpt>
      <trkpt lat="47.03246" lon="6.55422">
        <ele>766</ele>
        <time>2022-09-13T21:01:43Z</time>
      </trkpt>
      <trkpt lat="47.0325" lon="6.55392">
        <ele>765</ele>
        <time>2022-09-13T21:01:59Z</time>
      </trkpt>
      <trkpt lat="47.03258" lon="6.55359">
        <ele>767</ele>
        <time>2022-09-13T21:02:18Z</time>
      </trkpt>
      <trkpt lat="47.03276" lon="6.55305">
        <ele>772</ele>
        <time>2022-09-13T21:02:51Z</time>
      </trkpt>
      <trkpt lat="47.03349" lon="6.55129">
        <ele>779</ele>
        <time>2022-09-13T21:04:44Z</time>
      </trkpt>
      <trkpt lat="47.03371" lon="6.55053">
        <ele>779</ele>
        <time>2022-09-13T21:05:29Z</time>
      </trkpt>
      <trkpt lat="47.0338" lon="6.55009">
        <ele>779</ele>
        <time>2022-09-13T21:05:54Z</time>
      </trkpt>
      <trkpt lat="47.03388" lon="6.54944">
        <ele>779</ele>
        <time>2022-09-13T21:06:30Z</time>
      </trkpt>
      <trkpt lat="47.03392" lon="6.549">
        <ele>779</ele>
        <time>2022-09-13T21:06:54Z</time>
      </trkpt>
      <trkpt lat="47.03393" lon="6.54855">
        <ele>780</ele>
        <time>2022-09-13T21:07:19Z</time>
      </trkpt>
      <trkpt lat="47.03391" lon="6.54793">
        <ele>781</ele>
        <time>2022-09-13T21:07:53Z</time>
      </trkpt>
      <trkpt lat="47.03384" lon="6.54726">
        <ele>782</ele>
        <time>2022-09-13T21:08:30Z</time>
      </trkpt>
      <trkpt lat="47.03372" lon="6.54665">
        <ele>780</ele>
        <time>2022-09-13T21:09:04Z</time>
      </trkpt>
      <trkpt lat="47.03362" lon="6.54625">
        <ele>780</ele>
        <time>2022-09-13T21:09:27Z</time>
      </trkpt>
      <trkpt lat="47.0335" lon="6.54584">
        <ele>779</ele>
        <time>2022-09-13T21:09:52Z</time>
      </trkpt>
      <trkpt lat="47.03336" lon="6.54547">
        <ele>777</ele>
        <time>2022-09-13T21:10:15Z</time>
      </trkpt>
      <trkpt lat="47.03295" lon="6.54451">
        <ele>781</ele>
        <time>2022-09-13T21:11:17Z</time>
      </trkpt>
      <trkpt lat="47.03266" lon="6.54398">
        <ele>778</ele>
        <time>2022-09-13T21:11:54Z</time>
      </trkpt>
      <trkpt lat="47.03201" lon="6.54297">
        <ele>778</ele>
        <time>2022-09-13T21:13:10Z</time>
      </trkpt>
      <trkpt lat="47.03172" lon="6.5426">
        <ele>773</ele>
        <time>2022-09-13T21:13:40Z</time>
      </trkpt>
      <trkpt lat="47.03138" lon="6.5422">
        <ele>772</ele>
        <time>2022-09-13T21:14:15Z</time>
      </trkpt>
      <trkpt lat="47.03122" lon="6.54196">
        <ele>771</ele>
        <time>2022-09-13T21:14:34Z</time>
      </trkpt>
      <trkpt lat="47.03099" lon="6.54152">
        <ele>768</ele>
        <time>2022-09-13T21:15:04Z</time>
      </trkpt>
      <trkpt lat="47.03072" lon="6.54087">
        <ele>768</ele>
        <time>2022-09-13T21:15:45Z</time>
      </trkpt>
      <trkpt lat="47.03064" lon="6.54059">
        <ele>770</ele>
        <time>2022-09-13T21:16:02Z</time>
      </trkpt>
      <trkpt lat="47.03059" lon="6.54029">
        <ele>771</ele>
        <time>2022-09-13T21:16:19Z</time>
      </trkpt>
      <trkpt lat="47.03052" lon="6.53932">
        <ele>778</ele>
        <time>2022-09-13T21:17:12Z</time>
      </trkpt>
      <trkpt lat="47.0305" lon="6.53892">
        <ele>777</ele>
        <time>2022-09-13T21:17:34Z</time>
      </trkpt>
      <trkpt lat="47.03054" lon="6.53846">
        <ele>777</ele>
        <time>2022-09-13T21:17:59Z</time>
      </trkpt>
      <trkpt lat="47.0306" lon="6.53814">
        <ele>776</ele>
        <time>2022-09-13T21:18:17Z</time>
      </trkpt>
      <trkpt lat="47.03069" lon="6.53779">
        <ele>774</ele>
        <time>2022-09-13T21:18:38Z</time>
      </trkpt>
      <trkpt lat="47.03081" lon="6.53742">
        <ele>772</ele>
        <time>2022-09-13T21:19:00Z</time>
      </trkpt>
      <trkpt lat="47.03106" lon="6.53676">
        <ele>772</ele>
        <time>2022-09-13T21:19:41Z</time>
      </trkpt>
      <trkpt lat="47.03162" lon="6.53547">
        <ele>773</ele>
        <time>2022-09-13T21:21:05Z</time>
      </trkpt>
      <trkpt lat="47.03169" lon="6.53521">
        <ele>774</ele>
        <time>2022-09-13T21:21:20Z</time>
      </trkpt>
      <trkpt lat="47.03177" lon="6.53479">
        <ele>776</ele>
        <time>2022-09-13T21:21:44Z</time>
      </trkpt>
      <trkpt lat="47.03184" lon="6.5339">
        <ele>779</ele>
        <time>2022-09-13T21:22:33Z</time>
      </trkpt>
      <trkpt lat="47.03181" lon="6.53327">
        <ele>782</ele>
        <time>2022-09-13T21:23:07Z</time>
      </trkpt>
      <trkpt lat="47.03174" lon="6.53296">
        <ele>784</ele>
        <time>2022-09-13T21:23:25Z</time>
      </trkpt>
      <trkpt lat="47.03166" lon="6.53268">
        <ele>784</ele>
        <time>2022-09-13T21:23:42Z</time>
      </trkpt>
      <trkpt lat="47.03127" lon="6.53168">
        <ele>790</ele>
        <time>2022-09-13T21:24:44Z</time>
      </trkpt>
      <trkpt lat="47.03035" lon="6.52978">
        <ele>784</ele>
        <time>2022-09-13T21:26:52Z</time>
      </trkpt>
      <trkpt lat="47.02926" lon="6.52715">
        <ele>776</ele>
        <time>2022-09-13T21:29:40Z</time>
      </trkpt>
      <trkpt lat="47.029" lon="6.52651">
        <ele>779</ele>
        <time>2022-09-13T21:30:20Z</time>
      </trkpt>
      <trkpt lat="47.02891" lon="6.52625">
        <ele>782</ele>
        <time>2022-09-13T21:30:36Z</time>
      </trkpt>
      <trkpt lat="47.02871" lon="6.52532">
        <ele>787</ele>
        <time>2022-09-13T21:31:29Z</time>
      </trkpt>
      <trkpt lat="47.02852" lon="6.52494">
        <ele>781</ele>
        <time>2022-09-13T21:31:55Z</time>
      </trkpt>
      <trkpt lat="47.02848" lon="6.52477">
        <ele>780</ele>
        <time>2022-09-13T21:32:05Z</time>
      </trkpt>
      <trkpt lat="47.02847" lon="6.52449">
        <ele>781</ele>
        <time>2022-09-13T21:32:20Z</time>
      </trkpt>
      <trkpt lat="47.02848" lon="6.52385">
        <ele>787</ele>
        <time>2022-09-13T21:32:55Z</time>
      </trkpt>
      <trkpt lat="47.02836" lon="6.52235">
        <ele>798</ele>
        <time>2022-09-13T21:34:18Z</time>
      </trkpt>
      <trkpt lat="47.02832" lon="6.52206">
        <ele>796</ele>
        <time>2022-09-13T21:34:34Z</time>
      </trkpt>
      <trkpt lat="47.02826" lon="6.52183">
        <ele>796</ele>
        <time>2022-09-13T21:34:47Z</time>
      </trkpt>
      <trkpt lat="47.02806" lon="6.52121">
        <ele>792</ele>
        <time>2022-09-13T21:35:25Z</time>
      </trkpt>
      <trkpt lat="47.02799" lon="6.52093">
        <ele>791</ele>
        <time>2022-09-13T21:35:41Z</time>
      </trkpt>
      <trkpt lat="47.02797" lon="6.52073">
        <ele>789</ele>
        <time>2022-09-13T21:35:52Z</time>
      </trkpt>
      <trkpt lat="47.02798" lon="6.52058">
        <ele>787</ele>
        <time>2022-09-13T21:36:00Z</time>
      </trkpt>
      <trkpt lat="47.02805" lon="6.52028">
        <ele>783</ele>
        <time>2022-09-13T21:36:18Z</time>
      </trkpt>
      <trkpt lat="47.0281" lon="6.52021">
        <ele>781</ele>
        <time>2022-09-13T21:36:23Z</time>
      </trkpt>
      <trkpt lat="47.02817" lon="6.52012">
        <ele>778</ele>
        <time>2022-09-13T21:36:31Z</time>
      </trkpt>
      <trkpt lat="47.02827" lon="6.52008">
        <ele>775</ele>
        <time>2022-09-13T21:36:39Z</time>
      </trkpt>
      <trkpt lat="47.02836" lon="6.52006">
        <ele>773</ele>
        <time>2022-09-13T21:36:46Z</time>
      </trkpt>
      <trkpt lat="47.02902" lon="6.52022">
        <ele>783</ele>
        <time>2022-09-13T21:37:40Z</time>
      </trkpt>
      <trkpt lat="47.0292" lon="6.52025">
        <ele>786</ele>
        <time>2022-09-13T21:37:54Z</time>
      </trkpt>
      <trkpt lat="47.02953" lon="6.5202">
        <ele>786</ele>
        <time>2022-09-13T21:38:21Z</time>
      </trkpt>
      <trkpt lat="47.02968" lon="6.52012">
        <ele>784</ele>
        <time>2022-09-13T21:38:34Z</time>
      </trkpt>
      <trkpt lat="47.02984" lon="6.51996">
        <ele>781</ele>
        <time>2022-09-13T21:38:49Z</time>
      </trkpt>
      <trkpt lat="47.031" lon="6.51838">
        <ele>768</ele>
        <time>2022-09-13T21:40:56Z</time>
      </trkpt>
      <trkpt lat="47.03119" lon="6.51819">
        <ele>768</ele>
        <time>2022-09-13T21:41:14Z</time>
      </trkpt>
      <trkpt lat="47.03136" lon="6.51812">
        <ele>768</ele>
        <time>2022-09-13T21:41:28Z</time>
      </trkpt>
      <trkpt lat="47.03207" lon="6.51805">
        <ele>769</ele>
        <time>2022-09-13T21:42:25Z</time>
      </trkpt>
      <trkpt lat="47.03234" lon="6.51799">
        <ele>768</ele>
        <time>2022-09-13T21:42:47Z</time>
      </trkpt>
      <trkpt lat="47.03273" lon="6.51787">
        <ele>768</ele>
        <time>2022-09-13T21:43:19Z</time>
      </trkpt>
      <trkpt lat="47.03293" lon="6.51772">
        <ele>767</ele>
        <time>2022-09-13T21:43:37Z</time>
      </trkpt>
      <trkpt lat="47.03309" lon="6.51754">
        <ele>765</ele>
        <time>2022-09-13T21:43:53Z</time>
      </trkpt>
      <trkpt lat="47.03331" lon="6.51712">
        <ele>763</ele>
        <time>2022-09-13T21:44:22Z</time>
      </trkpt>
      <trkpt lat="47.03345" lon="6.51691">
        <ele>764</ele>
        <time>2022-09-13T21:44:38Z</time>
      </trkpt>
      <trkpt lat="47.03356" lon="6.51677">
        <ele>764</ele>
        <time>2022-09-13T21:44:50Z</time>
      </trkpt>
      <trkpt lat="47.0339" lon="6.51647">
        <ele>768</ele>
        <time>2022-09-13T21:45:22Z</time>
      </trkpt>
      <trkpt lat="47.03409" lon="6.51622">
        <ele>768</ele>
        <time>2022-09-13T21:45:42Z</time>
      </trkpt>
      <trkpt lat="47.03504" lon="6.51444">
        <ele>771</ele>
        <time>2022-09-13T21:47:45Z</time>
      </trkpt>
      <trkpt lat="47.03523" lon="6.51402">
        <ele>774</ele>
        <time>2022-09-13T21:48:13Z</time>
      </trkpt>
      <trkpt lat="47.03536" lon="6.51364">
        <ele>777</ele>
        <time>2022-09-13T21:48:36Z</time>
      </trkpt>
      <trkpt lat="47.03541" lon="6.51344">
        <ele>777</ele>
        <time>2022-09-13T21:48:48Z</time>
      </trkpt>
      <trkpt lat="47.03545" lon="6.51318">
        <ele>778</ele>
        <time>2022-09-13T21:49:02Z</time>
      </trkpt>
      <trkpt lat="47.03546" lon="6.51291">
        <ele>777</ele>
        <time>2022-09-13T21:49:17Z</time>
      </trkpt>
      <trkpt lat="47.03544" lon="6.51271">
        <ele>777</ele>
        <time>2022-09-13T21:49:28Z</time>
      </trkpt>
      <trkpt lat="47.03536" lon="6.51244">
        <ele>776</ele>
        <time>2022-09-13T21:49:44Z</time>
      </trkpt>
      <trkpt lat="47.03506" lon="6.51177">
        <ele>770</ele>
        <time>2022-09-13T21:50:28Z</time>
      </trkpt>
      <trkpt lat="47.03478" lon="6.51108">
        <ele>769</ele>
        <time>2022-09-13T21:51:12Z</time>
      </trkpt>
      <trkpt lat="47.0347" lon="6.5108">
        <ele>768</ele>
        <time>2022-09-13T21:51:28Z</time>
      </trkpt>
      <trkpt lat="47.03467" lon="6.51056">
        <ele>766</ele>
        <time>2022-09-13T21:51:42Z</time>
      </trkpt>
      <trkpt lat="47.03468" lon="6.51033">
        <ele>765</ele>
        <time>2022-09-13T21:51:54Z</time>
      </trkpt>
      <trkpt lat="47.03481" lon="6.50979">
        <ele>765</ele>
        <time>2022-09-13T21:52:25Z</time>
      </trkpt>
      <trkpt lat="47.03486" lon="6.50943">
        <ele>768</ele>
        <time>2022-09-13T21:52:45Z</time>
      </trkpt>
      <trkpt lat="47.03485" lon="6.50926">
        <ele>769</ele>
        <time>2022-09-13T21:52:55Z</time>
      </trkpt>
      <trkpt lat="47.03476" lon="6.50897">
        <ele>774</ele>
        <time>2022-09-13T21:53:12Z</time>
      </trkpt>
      <trkpt lat="47.03468" lon="6.50881">
        <ele>776</ele>
        <time>2022-09-13T21:53:23Z</time>
      </trkpt>
      <trkpt lat="47.03459" lon="6.50865">
        <ele>779</ele>
        <time>2022-09-13T21:53:34Z</time>
      </trkpt>
      <trkpt lat="47.03447" lon="6.5085">
        <ele>780</ele>
        <time>2022-09-13T21:53:47Z</time>
      </trkpt>
      <trkpt lat="47.03423" lon="6.50827">
        <ele>779</ele>
        <time>2022-09-13T21:54:10Z</time>
      </trkpt>
      <trkpt lat="47.03397" lon="6.50813">
        <ele>779</ele>
        <time>2022-09-13T21:54:32Z</time>
      </trkpt>
      <trkpt lat="47.03358" lon="6.50803">
        <ele>779</ele>
        <time>2022-09-13T21:55:04Z</time>
      </trkpt>
      <trkpt lat="47.03335" lon="6.50802">
        <ele>778</ele>
        <time>2022-09-13T21:55:22Z</time>
      </trkpt>
      <trkpt lat="47.03247" lon="6.50811">
        <ele>772</ele>
        <time>2022-09-13T21:56:33Z</time>
      </trkpt>
      <trkpt lat="47.03224" lon="6.50806">
        <ele>772</ele>
        <time>2022-09-13T21:56:51Z</time>
      </trkpt>
      <trkpt lat="47.03201" lon="6.50793">
        <ele>773</ele>
        <time>2022-09-13T21:57:11Z</time>
      </trkpt>
      <trkpt lat="47.03184" lon="6.50777">
        <ele>774</ele>
        <time>2022-09-13T21:57:27Z</time>
      </trkpt>
      <trkpt lat="47.03161" lon="6.50745">
        <ele>775</ele>
        <time>2022-09-13T21:57:53Z</time>
      </trkpt>
      <trkpt lat="47.03131" lon="6.50694">
        <ele>780</ele>
        <time>2022-09-13T21:58:29Z</time>
      </trkpt>
      <trkpt lat="47.03098" lon="6.50624">
        <ele>776</ele>
        <time>2022-09-13T21:59:16Z</time>
      </trkpt>
      <trkpt lat="47.03084" lon="6.50572">
        <ele>772</ele>
        <time>2022-09-13T21:59:46Z</time>
      </trkpt>
      <trkpt lat="47.03079" lon="6.50531">
        <ele>773</ele>
        <time>2022-09-13T22:00:09Z</time>
      </trkpt>
      <trkpt lat="47.03076" lon="6.50469">
        <ele>772</ele>
        <time>2022-09-13T22:00:43Z</time>
      </trkpt>
      <trkpt lat="47.03071" lon="6.50423">
        <ele>771</ele>
        <time>2022-09-13T22:01:08Z</time>
      </trkpt>
      <trkpt lat="47.03032" lon="6.50267">
        <ele>771</ele>
        <time>2022-09-13T22:02:39Z</time>
      </trkpt>
      <trkpt lat="47.03028" lon="6.50223">
        <ele>771</ele>
        <time>2022-09-13T22:03:03Z</time>
      </trkpt>
      <trkpt lat="47.03023" lon="6.49944">
        <ele>770</ele>
        <time>2022-09-13T22:05:36Z</time>
      </trkpt>
      <trkpt lat="47.03019" lon="6.49897">
        <ele>770</ele>
        <time>2022-09-13T22:06:02Z</time>
      </trkpt>
      <trkpt lat="47.03011" lon="6.49852">
        <ele>771</ele>
        <time>2022-09-13T22:06:27Z</time>
      </trkpt>
      <trkpt lat="47.03003" lon="6.49823">
        <ele>772</ele>
        <time>2022-09-13T22:06:44Z</time>
      </trkpt>
      <trkpt lat="47.0299" lon="6.49797">
        <ele>775</ele>
        <time>2022-09-13T22:07:02Z</time>
      </trkpt>
      <trkpt lat="47.02964" lon="6.49757">
        <ele>777</ele>
        <time>2022-09-13T22:07:32Z</time>
      </trkpt>
      <trkpt lat="47.02945" lon="6.49748">
        <ele>776</ele>
        <time>2022-09-13T22:07:48Z</time>
      </trkpt>
      <trkpt lat="47.02923" lon="6.49745">
        <ele>774</ele>
        <time>2022-09-13T22:08:05Z</time>
      </trkpt>
      <trkpt lat="47.02896" lon="6.4975">
        <ele>774</ele>
        <time>2022-09-13T22:08:27Z</time>
      </trkpt>
      <trkpt lat="47.02864" lon="6.4976">
        <ele>778</ele>
        <time>2022-09-13T22:08:53Z</time>
      </trkpt>
      <trkpt lat="47.02805" lon="6.49774">
        <ele>780</ele>
        <time>2022-09-13T22:09:41Z</time>
      </trkpt>
      <trkpt lat="47.02754" lon="6.49803">
        <ele>772</ele>
        <time>2022-09-13T22:10:25Z</time>
      </trkpt>
      <trkpt lat="47.02732" lon="6.49806">
        <ele>770</ele>
        <time>2022-09-13T22:10:43Z</time>
      </trkpt>
      <trkpt lat="47.02714" lon="6.49801">
        <ele>771</ele>
        <time>2022-09-13T22:10:57Z</time>
      </trkpt>
      <trkpt lat="47.02696" lon="6.49781">
        <ele>772</ele>
        <time>2022-09-13T22:11:16Z</time>
      </trkpt>
      <trkpt lat="47.02684" lon="6.49758">
        <ele>773</ele>
        <time>2022-09-13T22:11:31Z</time>
      </trkpt>
      <trkpt lat="47.02675" lon="6.49732">
        <ele>775</ele>
        <time>2022-09-13T22:11:47Z</time>
      </trkpt>
      <trkpt lat="47.02667" lon="6.49696">
        <ele>777</ele>
        <time>2022-09-13T22:12:08Z</time>
      </trkpt>
      <trkpt lat="47.02661" lon="6.49617">
        <ele>786</ele>
        <time>2022-09-13T22:12:51Z</time>
      </trkpt>
      <trkpt lat="47.02647" lon="6.49496">
        <ele>794</ele>
        <time>2022-09-13T22:13:58Z</time>
      </trkpt>
      <trkpt lat="47.02637" lon="6.49442">
        <ele>798</ele>
        <time>2022-09-13T22:14:29Z</time>
      </trkpt>
      <trkpt lat="47.0263" lon="6.49408">
        <ele>799</ele>
        <time>2022-09-13T22:14:48Z</time>
      </trkpt>
      <trkpt lat="47.0262" lon="6.49376">
        <ele>800</ele>
        <time>2022-09-13T22:15:07Z</time>
      </trkpt>
      <trkpt lat="47.0261" lon="6.49354">
        <ele>798</ele>
        <time>2022-09-13T22:15:22Z</time>
      </trkpt>
      <trkpt lat="47.02602" lon="6.49342">
        <ele>797</ele>
        <time>2022-09-13T22:15:31Z</time>
      </trkpt>
      <trkpt lat="47.02592" lon="6.49333">
        <ele>794</ele>
        <time>2022-09-13T22:15:40Z</time>
      </trkpt>
      <trkpt lat="47.02582" lon="6.49327">
        <ele>793</ele>
        <time>2022-09-13T22:15:49Z</time>
      </trkpt>
      <trkpt lat="47.02568" lon="6.49322">
        <ele>792</ele>
        <time>2022-09-13T22:16:01Z</time>
      </trkpt>
      <trkpt lat="47.02547" lon="6.49321">
        <ele>789</ele>
        <time>2022-09-13T22:16:17Z</time>
      </trkpt>
      <trkpt lat="47.02523" lon="6.49319">
        <ele>785</ele>
        <time>2022-09-13T22:16:37Z</time>
      </trkpt>
      <trkpt lat="47.02477" lon="6.49301">
        <ele>788</ele>
        <time>2022-09-13T22:17:15Z</time>
      </trkpt>
      <trkpt lat="47.02443" lon="6.493">
        <ele>787</ele>
        <time>2022-09-13T22:17:42Z</time>
      </trkpt>
      <trkpt lat="47.02415" lon="6.49304">
        <ele>785</ele>
        <time>2022-09-13T22:18:05Z</time>
      </trkpt>
      <trkpt lat="47.02279" lon="6.4935">
        <ele>786</ele>
        <time>2022-09-13T22:19:56Z</time>
      </trkpt>
      <trkpt lat="47.02234" lon="6.49381">
        <ele>787</ele>
        <time>2022-09-13T22:20:36Z</time>
      </trkpt>
      <trkpt lat="47.02174" lon="6.49456">
        <ele>783</ele>
        <time>2022-09-13T22:21:39Z</time>
      </trkpt>
      <trkpt lat="47.02137" lon="6.49488">
        <ele>782</ele>
        <time>2022-09-13T22:22:14Z</time>
      </trkpt>
      <trkpt lat="47.02121" lon="6.49489">
        <ele>784</ele>
        <time>2022-09-13T22:22:26Z</time>
      </trkpt>
      <trkpt lat="47.02083" lon="6.49501">
        <ele>784</ele>
        <time>2022-09-13T22:22:58Z</time>
      </trkpt>
      <trkpt lat="47.02047" lon="6.49507">
        <ele>792</ele>
        <time>2022-09-13T22:23:27Z</time>
      </trkpt>
      <trkpt lat="47.01985" lon="6.49538">
        <ele>796</ele>
        <time>2022-09-13T22:24:19Z</time>
      </trkpt>
      <trkpt lat="47.01948" lon="6.4955">
        <ele>794</ele>
        <time>2022-09-13T22:24:49Z</time>
      </trkpt>
      <trkpt lat="47.01922" lon="6.49546">
        <ele>796</ele>
        <time>2022-09-13T22:25:10Z</time>
      </trkpt>
      <trkpt lat="47.01885" lon="6.49531">
        <ele>798</ele>
        <time>2022-09-13T22:25:41Z</time>
      </trkpt>
      <trkpt lat="47.01851" lon="6.49513">
        <ele>795</ele>
        <time>2022-09-13T22:26:10Z</time>
      </trkpt>
      <trkpt lat="47.01834" lon="6.49502">
        <ele>791</ele>
        <time>2022-09-13T22:26:25Z</time>
      </trkpt>
      <trkpt lat="47.01808" lon="6.49479">
        <ele>796</ele>
        <time>2022-09-13T22:26:49Z</time>
      </trkpt>
      <trkpt lat="47.01765" lon="6.49433">
        <ele>793</ele>
        <time>2022-09-13T22:27:32Z</time>
      </trkpt>
      <trkpt lat="47.01747" lon="6.49411">
        <ele>790</ele>
        <time>2022-09-13T22:27:51Z</time>
      </trkpt>
      <trkpt lat="47.01709" lon="6.49356">
        <ele>794</ele>
        <time>2022-09-13T22:28:33Z</time>
      </trkpt>
      <trkpt lat="47.0164" lon="6.49226">
        <ele>797</ele>
        <time>2022-09-13T22:30:03Z</time>
      </trkpt>
      <trkpt lat="47.01624" lon="6.49203">
        <ele>799</ele>
        <time>2022-09-13T22:30:21Z</time>
      </trkpt>
      <trkpt lat="47.01606" lon="6.49184">
        <ele>797</ele>
        <time>2022-09-13T22:30:39Z</time>
      </trkpt>
      <trkpt lat="47.01586" lon="6.49168">
        <ele>792</ele>
        <time>2022-09-13T22:30:57Z</time>
      </trkpt>
      <trkpt lat="47.01562" lon="6.49154">
        <ele>792</ele>
        <time>2022-09-13T22:31:18Z</time>
      </trkpt>
      <trkpt lat="47.01544" lon="6.49146">
        <ele>791</ele>
        <time>2022-09-13T22:31:33Z</time>
      </trkpt>
      <trkpt lat="47.01529" lon="6.49142">
        <ele>790</ele>
        <time>2022-09-13T22:31:45Z</time>
      </trkpt>
      <trkpt lat="47.01499" lon="6.49142">
        <ele>786</ele>
        <time>2022-09-13T22:32:09Z</time>
      </trkpt>
      <trkpt lat="47.01485" lon="6.49138">
        <ele>788</ele>
        <time>2022-09-13T22:32:21Z</time>
      </trkpt>
      <trkpt lat="47.01473" lon="6.4913">
        <ele>791</ele>
        <time>2022-09-13T22:32:31Z</time>
      </trkpt>
      <trkpt lat="47.01465" lon="6.4912">
        <ele>792</ele>
        <time>2022-09-13T22:32:39Z</time>
      </trkpt>
      <trkpt lat="47.01457" lon="6.49107">
        <ele>794</ele>
        <time>2022-09-13T22:32:49Z</time>
      </trkpt>
      <trkpt lat="47.01452" lon="6.49088">
        <ele>794</ele>
        <time>2022-09-13T22:33:00Z</time>
      </trkpt>
      <trkpt lat="47.01449" lon="6.49069">
        <ele>794</ele>
        <time>2022-09-13T22:33:11Z</time>
      </trkpt>
      <trkpt lat="47.0145" lon="6.49046">
        <ele>794</ele>
        <time>2022-09-13T22:33:23Z</time>
      </trkpt>
      <trkpt lat="47.01453" lon="6.49026">
        <ele>794</ele>
        <time>2022-09-13T22:33:35Z</time>
      </trkpt>
      <trkpt lat="47.01459" lon="6.49007">
        <ele>793</ele>
        <time>2022-09-13T22:33:46Z</time>
      </trkpt>
      <trkpt lat="47.01466" lon="6.48991">
        <ele>792</ele>
        <time>2022-09-13T22:33:56Z</time>
      </trkpt>
      <trkpt lat="47.0148" lon="6.48971">
        <ele>789</ele>
        <time>2022-09-13T22:34:12Z</time>
      </trkpt>
      <trkpt lat="47.01528" lon="6.48921">
        <ele>789</ele>
        <time>2022-09-13T22:34:59Z</time>
      </trkpt>
      <trkpt lat="47.01547" lon="6.48898">
        <ele>793</ele>
        <time>2022-09-13T22:35:19Z</time>
      </trkpt>
      <trkpt lat="47.01558" lon="6.48881">
        <ele>793</ele>
        <time>2022-09-13T22:35:32Z</time>
      </trkpt>
      <trkpt lat="47.016" lon="6.48794">
        <ele>794</ele>
        <time>2022-09-13T22:36:30Z</time>
      </trkpt>
      <trkpt lat="47.01643" lon="6.48724">
        <ele>798</ele>
        <time>2022-09-13T22:37:21Z</time>
      </trkpt>
      <trkpt lat="47.0165" lon="6.48703">
        <ele>797</ele>
        <time>2022-09-13T22:37:34Z</time>
      </trkpt>
      <trkpt lat="47.01662" lon="6.48654">
        <ele>794</ele>
        <time>2022-09-13T22:38:02Z</time>
      </trkpt>
      <trkpt lat="47.01664" lon="6.48632">
        <ele>796</ele>
        <time>2022-09-13T22:38:15Z</time>
      </trkpt>
      <trkpt lat="47.0166" lon="6.48583">
        <ele>801</ele>
        <time>2022-09-13T22:38:42Z</time>
      </trkpt>
      <trkpt lat="47.01655" lon="6.48547">
        <ele>801</ele>
        <time>2022-09-13T22:39:02Z</time>
      </trkpt>
      <trkpt lat="47.01648" lon="6.48514">
        <ele>800</ele>
        <time>2022-09-13T22:39:20Z</time>
      </trkpt>
      <trkpt lat="47.01617" lon="6.48418">
        <ele>794</ele>
        <time>2022-09-13T22:40:18Z</time>
      </trkpt>
      <trkpt lat="47.01593" lon="6.48326">
        <ele>787</ele>
        <time>2022-09-13T22:41:12Z</time>
      </trkpt>
      <trkpt lat="47.01574" lon="6.48273">
        <ele>785</ele>
        <time>2022-09-13T22:41:45Z</time>
      </trkpt>
      <trkpt lat="47.01555" lon="6.48228">
        <ele>786</ele>
        <time>2022-09-13T22:42:14Z</time>
      </trkpt>
      <trkpt lat="47.01545" lon="6.48214">
        <ele>787</ele>
        <time>2022-09-13T22:42:25Z</time>
      </trkpt>
      <trkpt lat="47.01532" lon="6.48199">
        <ele>787</ele>
        <time>2022-09-13T22:42:38Z</time>
      </trkpt>
      <trkpt lat="47.0152" lon="6.48189">
        <ele>786</ele>
        <time>2022-09-13T22:42:49Z</time>
      </trkpt>
      <trkpt lat="47.01507" lon="6.48182">
        <ele>784</ele>
        <time>2022-09-13T22:43:00Z</time>
      </trkpt>
      <trkpt lat="47.01491" lon="6.48178">
        <ele>783</ele>
        <time>2022-09-13T22:43:13Z</time>
      </trkpt>
      <trkpt lat="47.01473" lon="6.48179">
        <ele>783</ele>
        <time>2022-09-13T22:43:28Z</time>
      </trkpt>
      <trkpt lat="47.01454" lon="6.48184">
        <ele>783</ele>
        <time>2022-09-13T22:43:43Z</time>
      </trkpt>
      <trkpt lat="47.01436" lon="6.48195">
        <ele>782</ele>
        <time>2022-09-13T22:43:59Z</time>
      </trkpt>
      <trkpt lat="47.01419" lon="6.48211">
        <ele>779</ele>
        <time>2022-09-13T22:44:15Z</time>
      </trkpt>
      <trkpt lat="47.01404" lon="6.4823">
        <ele>779</ele>
        <time>2022-09-13T22:44:31Z</time>
      </trkpt>
      <trkpt lat="47.01392" lon="6.48256">
        <ele>778</ele>
        <time>2022-09-13T22:44:48Z</time>
      </trkpt>
      <trkpt lat="47.01383" lon="6.48285">
        <ele>781</ele>
        <time>2022-09-13T22:45:05Z</time>
      </trkpt>
      <trkpt lat="47.01377" lon="6.48314">
        <ele>784</ele>
        <time>2022-09-13T22:45:22Z</time>
      </trkpt>
      <trkpt lat="47.01369" lon="6.48386">
        <ele>791</ele>
        <time>2022-09-13T22:46:02Z</time>
      </trkpt>
      <trkpt lat="47.01364" lon="6.4848">
        <ele>795</ele>
        <time>2022-09-13T22:46:53Z</time>
      </trkpt>
      <trkpt lat="47.01356" lon="6.48516">
        <ele>796</ele>
        <time>2022-09-13T22:47:14Z</time>
      </trkpt>
      <trkpt lat="47.01346" lon="6.48546">
        <ele>796</ele>
        <time>2022-09-13T22:47:32Z</time>
      </trkpt>
      <trkpt lat="47.01321" lon="6.48594">
        <ele>795</ele>
        <time>2022-09-13T22:48:05Z</time>
      </trkpt>
      <trkpt lat="47.01303" lon="6.48619">
        <ele>797</ele>
        <time>2022-09-13T22:48:25Z</time>
      </trkpt>
      <trkpt lat="47.01291" lon="6.48631">
        <ele>797</ele>
        <time>2022-09-13T22:48:37Z</time>
      </trkpt>
      <trkpt lat="47.01278" lon="6.48642">
        <ele>796</ele>
        <time>2022-09-13T22:48:49Z</time>
      </trkpt>
      <trkpt lat="47.01266" lon="6.48648">
        <ele>795</ele>
        <time>2022-09-13T22:48:59Z</time>
      </trkpt>
      <trkpt lat="47.01252" lon="6.48651">
        <ele>793</ele>
        <time>2022-09-13T22:49:10Z</time>
      </trkpt>
      <trkpt lat="47.01232" lon="6.4865">
        <ele>794</ele>
        <time>2022-09-13T22:49:26Z</time>
      </trkpt>
      <trkpt lat="47.01217" lon="6.48641">
        <ele>794</ele>
        <time>2022-09-13T22:49:39Z</time>
      </trkpt>
      <trkpt lat="47.01203" lon="6.48626">
        <ele>793</ele>
        <time>2022-09-13T22:49:53Z</time>
      </trkpt>
      <trkpt lat="47.01193" lon="6.48611">
        <ele>792</ele>
        <time>2022-09-13T22:50:04Z</time>
      </trkpt>
      <trkpt lat="47.01184" lon="6.4859">
        <ele>788</ele>
        <time>2022-09-13T22:50:18Z</time>
      </trkpt>
      <trkpt lat="47.01179" lon="6.48572">
        <ele>787</ele>
        <time>2022-09-13T22:50:29Z</time>
      </trkpt>
      <trkpt lat="47.01166" lon="6.48475">
        <ele>781</ele>
        <time>2022-09-13T22:51:22Z</time>
      </trkpt>
      <trkpt lat="47.01161" lon="6.48445">
        <ele>781</ele>
        <time>2022-09-13T22:51:39Z</time>
      </trkpt>
      <trkpt lat="47.01136" lon="6.48346">
        <ele>784</ele>
        <time>2022-09-13T22:52:37Z</time>
      </trkpt>
      <trkpt lat="47.01126" lon="6.48316">
        <ele>784</ele>
        <time>2022-09-13T22:52:55Z</time>
      </trkpt>
      <trkpt lat="47.01119" lon="6.48303">
        <ele>784</ele>
        <time>2022-09-13T22:53:04Z</time>
      </trkpt>
      <trkpt lat="47.0111" lon="6.4829">
        <ele>784</ele>
        <time>2022-09-13T22:53:14Z</time>
      </trkpt>
      <trkpt lat="47.01096" lon="6.48278">
        <ele>782</ele>
        <time>2022-09-13T22:53:27Z</time>
      </trkpt>
      <trkpt lat="47.01041" lon="6.48246">
        <ele>779</ele>
        <time>2022-09-13T22:54:15Z</time>
      </trkpt>
      <trkpt lat="47.0102" lon="6.48229">
        <ele>780</ele>
        <time>2022-09-13T22:54:34Z</time>
      </trkpt>
      <trkpt lat="47.01007" lon="6.48217">
        <ele>780</ele>
        <time>2022-09-13T22:54:46Z</time>
      </trkpt>
      <trkpt lat="47.00969" lon="6.48173">
        <ele>778</ele>
        <time>2022-09-13T22:55:25Z</time>
      </trkpt>
      <trkpt lat="47.00909" lon="6.48095">
        <ele>778</ele>
        <time>2022-09-13T22:56:29Z</time>
      </trkpt>
      <trkpt lat="47.00886" lon="6.48069">
        <ele>780</ele>
        <time>2022-09-13T22:56:52Z</time>
      </trkpt>
      <trkpt lat="47.00872" lon="6.48059">
        <ele>781</ele>
        <time>2022-09-13T22:57:05Z</time>
      </trkpt>
      <trkpt lat="47.0083" lon="6.48039">
        <ele>780</ele>
        <time>2022-09-13T22:57:40Z</time>
      </trkpt>
      <trkpt lat="47.00805" lon="6.48023">
        <ele>780</ele>
        <time>2022-09-13T22:58:02Z</time>
      </trkpt>
      <trkpt lat="47.00781" lon="6.47995">
        <ele>779</ele>
        <time>2022-09-13T22:58:27Z</time>
      </trkpt>
      <trkpt lat="47.00741" lon="6.47939">
        <ele>786</ele>
        <time>2022-09-13T22:59:11Z</time>
      </trkpt>
      <trkpt lat="47.00725" lon="6.47921">
        <ele>787</ele>
        <time>2022-09-13T22:59:27Z</time>
      </trkpt>
      <trkpt lat="47.00704" lon="6.47903">
        <ele>787</ele>
        <time>2022-09-13T22:59:47Z</time>
      </trkpt>
      <trkpt lat="47.00663" lon="6.47879">
        <ele>786</ele>
        <time>2022-09-13T23:00:22Z</time>
      </trkpt>
      <trkpt lat="47.00643" lon="6.47873">
        <ele>786</ele>
        <time>2022-09-13T23:00:38Z</time>
      </trkpt>
      <trkpt lat="47.0062" lon="6.47871">
        <ele>785</ele>
        <time>2022-09-13T23:00:57Z</time>
      </trkpt>
      <trkpt lat="47.00574" lon="6.47874">
        <ele>782</ele>
        <time>2022-09-13T23:01:34Z</time>
      </trkpt>
      <trkpt lat="47.00517" lon="6.47871">
        <ele>781</ele>
        <time>2022-09-13T23:02:19Z</time>
      </trkpt>
      <trkpt lat="47.00457" lon="6.47859">
        <ele>783</ele>
        <time>2022-09-13T23:03:08Z</time>
      </trkpt>
      <trkpt lat="47.00408" lon="6.47853">
        <ele>783</ele>
        <time>2022-09-13T23:03:47Z</time>
      </trkpt>
      <trkpt lat="47.00314" lon="6.47859">
        <ele>781</ele>
        <time>2022-09-13T23:05:02Z</time>
      </trkpt>
      <trkpt lat="47.00298" lon="6.47855">
        <ele>781</ele>
        <time>2022-09-13T23:05:15Z</time>
      </trkpt>
      <trkpt lat="47.00259" lon="6.47836">
        <ele>781</ele>
        <time>2022-09-13T23:05:48Z</time>
      </trkpt>
      <trkpt lat="47.00231" lon="6.47807">
        <ele>781</ele>
        <time>2022-09-13T23:06:16Z</time>
      </trkpt>
      <trkpt lat="47.00156" lon="6.47684">
        <ele>779</ele>
        <time>2022-09-13T23:07:46Z</time>
      </trkpt>
      <trkpt lat="47.00095" lon="6.47582">
        <ele>779</ele>
        <time>2022-09-13T23:09:00Z</time>
      </trkpt>
      <trkpt lat="47.00049" lon="6.47503">
        <ele>777</ele>
        <time>2022-09-13T23:09:57Z</time>
      </trkpt>
      <trkpt lat="47.0001" lon="6.47449">
        <ele>776</ele>
        <time>2022-09-13T23:10:40Z</time>
      </trkpt>
      <trkpt lat="46.99973" lon="6.47407">
        <ele>777</ele>
        <time>2022-09-13T23:11:17Z</time>
      </trkpt>
      <trkpt lat="46.99895" lon="6.47332">
        <ele>777</ele>
        <time>2022-09-13T23:12:32Z</time>
      </trkpt>
      <trkpt lat="46.99758" lon="6.47209">
        <ele>782</ele>
        <time>2022-09-13T23:14:40Z</time>
      </trkpt>
      <trkpt lat="46.99721" lon="6.47178">
        <ele>783</ele>
        <time>2022-09-13T23:15:15Z</time>
      </trkpt>
      <trkpt lat="46.99691" lon="6.47159">
        <ele>783</ele>
        <time>2022-09-13T23:15:41Z</time>
      </trkpt>
      <trkpt lat="46.99567" lon="6.47107">
        <ele>781</ele>
        <time>2022-09-13T23:17:24Z</time>
      </trkpt>
      <trkpt lat="46.99542" lon="6.47088">
        <ele>780</ele>
        <time>2022-09-13T23:17:46Z</time>
      </trkpt>
      <trkpt lat="46.99514" lon="6.47062">
        <ele>779</ele>
        <time>2022-09-13T23:18:13Z</time>
      </trkpt>
      <trkpt lat="46.99485" lon="6.47031">
        <ele>778</ele>
        <time>2022-09-13T23:18:42Z</time>
      </trkpt>
      <trkpt lat="46.99447" lon="6.46975">
        <ele>779</ele>
        <time>2022-09-13T23:19:25Z</time>
      </trkpt>
      <trkpt lat="46.99385" lon="6.46875">
        <ele>780</ele>
        <time>2022-09-13T23:20:39Z</time>
      </trkpt>
      <trkpt lat="46.99368" lon="6.46843">
        <ele>781</ele>
        <time>2022-09-13T23:21:01Z</time>
      </trkpt>
      <trkpt lat="46.99354" lon="6.46805">
        <ele>783</ele>
        <time>2022-09-13T23:21:24Z</time>
      </trkpt>
      <trkpt lat="46.99335" lon="6.46746">
        <ele>783</ele>
        <time>2022-09-13T23:22:00Z</time>
      </trkpt>
      <trkpt lat="46.99295" lon="6.46579">
        <ele>786</ele>
        <time>2022-09-13T23:23:37Z</time>
      </trkpt>
      <trkpt lat="46.99254" lon="6.46348">
        <ele>785</ele>
        <time>2022-09-13T23:25:47Z</time>
      </trkpt>
      <trkpt lat="46.99232" lon="6.46268">
        <ele>784</ele>
        <time>2022-09-13T23:26:34Z</time>
      </trkpt>
      <trkpt lat="46.99226" lon="6.46225">
        <ele>784</ele>
        <time>2022-09-13T23:26:58Z</time>
      </trkpt>
      <trkpt lat="46.99213" lon="6.46076">
        <ele>787</ele>
        <time>2022-09-13T23:28:20Z</time>
      </trkpt>
      <trkpt lat="46.99209" lon="6.46059">
        <ele>787</ele>
        <time>2022-09-13T23:28:30Z</time>
      </trkpt>
      <trkpt lat="46.99202" lon="6.4603">
        <ele>787</ele>
        <time>2022-09-13T23:28:47Z</time>
      </trkpt>
      <trkpt lat="46.99191" lon="6.45994">
        <ele>785</ele>
        <time>2022-09-13T23:29:08Z</time>
      </trkpt>
      <trkpt lat="46.99176" lon="6.4596">
        <ele>783</ele>
        <time>2022-09-13T23:29:30Z</time>
      </trkpt>
      <trkpt lat="46.99156" lon="6.45925">
        <ele>783</ele>
        <time>2022-09-13T23:29:55Z</time>
      </trkpt>
      <trkpt lat="46.9905" lon="6.4579">
        <ele>785</ele>
        <time>2022-09-13T23:31:48Z</time>
      </trkpt>
      <trkpt lat="46.99021" lon="6.45761">
        <ele>784</ele>
        <time>2022-09-13T23:32:16Z</time>
      </trkpt>
      <trkpt lat="46.98998" lon="6.45743">
        <ele>783</ele>
        <time>2022-09-13T23:32:37Z</time>
      </trkpt>
      <trkpt lat="46.98955" lon="6.45722">
        <ele>781</ele>
        <time>2022-09-13T23:33:13Z</time>
      </trkpt>
      <trkpt lat="46.98939" lon="6.45708">
        <ele>780</ele>
        <time>2022-09-13T23:33:28Z</time>
      </trkpt>
      <trkpt lat="46.98925" lon="6.45693">
        <ele>779</ele>
        <time>2022-09-13T23:33:42Z</time>
      </trkpt>
      <trkpt lat="46.98853" lon="6.45598">
        <ele>780</ele>
        <time>2022-09-13T23:34:59Z</time>
      </trkpt>
      <trkpt lat="46.98823" lon="6.45562">
        <ele>781</ele>
        <time>2022-09-13T23:35:31Z</time>
      </trkpt>
      <trkpt lat="46.98794" lon="6.45539">
        <ele>782</ele>
        <time>2022-09-13T23:35:57Z</time>
      </trkpt>
      <trkpt lat="46.98759" lon="6.45516">
        <ele>782</ele>
        <time>2022-09-13T23:36:28Z</time>
      </trkpt>
      <trkpt lat="46.98704" lon="6.45486">
        <ele>783</ele>
        <time>2022-09-13T23:37:15Z</time>
      </trkpt>
      <trkpt lat="46.98668" lon="6.4547">
        <ele>783</ele>
        <time>2022-09-13T23:37:45Z</time>
      </trkpt>
      <trkpt lat="46.98587" lon="6.45439">
        <ele>784</ele>
        <time>2022-09-13T23:38:52Z</time>
      </trkpt>
      <trkpt lat="46.98486" lon="6.45384">
        <ele>782</ele>
        <time>2022-09-13T23:40:18Z</time>
      </trkpt>
      <trkpt lat="46.9846" lon="6.45367">
        <ele>782</ele>
        <time>2022-09-13T23:40:41Z</time>
      </trkpt>
      <trkpt lat="46.98425" lon="6.45334">
        <ele>782</ele>
        <time>2022-09-13T23:41:14Z</time>
      </trkpt>
      <trkpt lat="46.98348" lon="6.45249">
        <ele>786</ele>
        <time>2022-09-13T23:42:31Z</time>
      </trkpt>
      <trkpt lat="46.98328" lon="6.45222">
        <ele>786</ele>
        <time>2022-09-13T23:42:53Z</time>
      </trkpt>
      <trkpt lat="46.98253" lon="6.45091">
        <ele>785</ele>
        <time>2022-09-13T23:44:27Z</time>
      </trkpt>
      <trkpt lat="46.98237" lon="6.45047">
        <ele>787</ele>
        <time>2022-09-13T23:44:54Z</time>
      </trkpt>
      <trkpt lat="46.98217" lon="6.44985">
        <ele>788</ele>
        <time>2022-09-13T23:45:31Z</time>
      </trkpt>
      <trkpt lat="46.98203" lon="6.4491">
        <ele>789</ele>
        <time>2022-09-13T23:46:14Z</time>
      </trkpt>
      <trkpt lat="46.98185" lon="6.44767">
        <ele>793</ele>
        <time>2022-09-13T23:47:33Z</time>
      </trkpt>
      <trkpt lat="46.9815" lon="6.44583">
        <ele>791</ele>
        <time>2022-09-13T23:49:17Z</time>
      </trkpt>
      <trkpt lat="46.981" lon="6.44434">
        <ele>786</ele>
        <time>2022-09-13T23:50:48Z</time>
      </trkpt>
      <trkpt lat="46.98084" lon="6.44395">
        <ele>785</ele>
        <time>2022-09-13T23:51:13Z</time>
      </trkpt>
      <trkpt lat="46.98068" lon="6.44363">
        <ele>786</ele>
        <time>2022-09-13T23:51:35Z</time>
      </trkpt>
      <trkpt lat="46.98047" lon="6.44332">
        <ele>786</ele>
        <time>2022-09-13T23:51:59Z</time>
      </trkpt>
      <trkpt lat="46.98008" lon="6.4428">
        <ele>783</ele>
        <time>2022-09-13T23:52:41Z</time>
      </trkpt>
      <trkpt lat="46.9797" lon="6.44243">
        <ele>781</ele>
        <time>2022-09-13T23:53:17Z</time>
      </trkpt>
      <trkpt lat="46.97898" lon="6.4416">
        <ele>781</ele>
        <time>2022-09-13T23:54:31Z</time>
      </trkpt>
      <trkpt lat="46.97693" lon="6.43878">
        <ele>786</ele>
        <time>2022-09-13T23:58:16Z</time>
      </trkpt>
      <trkpt lat="46.97593" lon="6.43776">
        <ele>786</ele>
        <time>2022-09-13T23:59:53Z</time>
      </trkpt>
      <trkpt lat="46.97219" lon="6.43319">
        <ele>787</ele>
        <time>2022-09-14T00:06:23Z</time>
      </trkpt>
      <trkpt lat="46.96828" lon="6.42744">
        <ele>789</ele>
        <time>2022-09-14T00:13:47Z</time>
      </trkpt>
      <trkpt lat="46.96782" lon="6.4265">
        <ele>792</ele>
        <time>2022-09-14T00:14:50Z</time>
      </trkpt>
      <trkpt lat="46.96753" lon="6.42601">
        <ele>792</ele>
        <time>2022-09-14T00:15:25Z</time>
      </trkpt>
      <trkpt lat="46.96578" lon="6.42338">
        <ele>792</ele>
        <time>2022-09-14T00:18:46Z</time>
      </trkpt>
      <trkpt lat="46.96544" lon="6.42282">
        <ele>792</ele>
        <time>2022-09-14T00:19:27Z</time>
      </trkpt>
      <trkpt lat="46.96531" lon="6.42251">
        <ele>792</ele>
        <time>2022-09-14T00:19:47Z</time>
      </trkpt>
      <trkpt lat="46.96523" lon="6.42213">
        <ele>793</ele>
        <time>2022-09-14T00:20:09Z</time>
      </trkpt>
      <trkpt lat="46.96522" lon="6.42175">
        <ele>794</ele>
        <time>2022-09-14T00:20:29Z</time>
      </trkpt>
      <trkpt lat="46.96526" lon="6.4214">
        <ele>795</ele>
        <time>2022-09-14T00:20:49Z</time>
      </trkpt>
      <trkpt lat="46.96538" lon="6.42087">
        <ele>796</ele>
        <time>2022-09-14T00:21:19Z</time>
      </trkpt>
      <trkpt lat="46.96546" lon="6.42029">
        <ele>797</ele>
        <time>2022-09-14T00:21:52Z</time>
      </trkpt>
      <trkpt lat="46.96549" lon="6.41987">
        <ele>798</ele>
        <time>2022-09-14T00:22:15Z</time>
      </trkpt>
      <trkpt lat="46.96548" lon="6.41951">
        <ele>797</ele>
        <time>2022-09-14T00:22:34Z</time>
      </trkpt>
      <trkpt lat="46.9654" lon="6.41874">
        <ele>796</ele>
        <time>2022-09-14T00:23:17Z</time>
      </trkpt>
      <trkpt lat="46.96531" lon="6.41823">
        <ele>796</ele>
        <time>2022-09-14T00:23:46Z</time>
      </trkpt>
      <trkpt lat="46.96511" lon="6.41742">
        <ele>796</ele>
        <time>2022-09-14T00:24:33Z</time>
      </trkpt>
      <trkpt lat="46.96489" lon="6.41636">
        <ele>798</ele>
        <time>2022-09-14T00:25:33Z</time>
      </trkpt>
      <trkpt lat="46.96478" lon="6.41596">
        <ele>799</ele>
        <time>2022-09-14T00:25:57Z</time>
      </trkpt>
      <trkpt lat="46.96468" lon="6.41574">
        <ele>799</ele>
        <time>2022-09-14T00:26:11Z</time>
      </trkpt>
      <trkpt lat="46.96438" lon="6.41515">
        <ele>799</ele>
        <time>2022-09-14T00:26:52Z</time>
      </trkpt>
      <trkpt lat="46.964" lon="6.41452">
        <ele>799</ele>
        <time>2022-09-14T00:27:38Z</time>
      </trkpt>
      <trkpt lat="46.96337" lon="6.41336">
        <ele>799</ele>
        <time>2022-09-14T00:28:59Z</time>
      </trkpt>
      <trkpt lat="46.96283" lon="6.41256">
        <ele>801</ele>
        <time>2022-09-14T00:30:00Z</time>
      </trkpt>
      <trkpt lat="46.96226" lon="6.4118">
        <ele>801</ele>
        <time>2022-09-14T00:31:02Z</time>
      </trkpt>
      <trkpt lat="46.96158" lon="6.41103">
        <ele>800</ele>
        <time>2022-09-14T00:32:11Z</time>
      </trkpt>
      <trkpt lat="46.96118" lon="6.41046">
        <ele>800</ele>
        <time>2022-09-14T00:32:55Z</time>
      </trkpt>
      <trkpt lat="46.96044" lon="6.40929">
        <ele>799</ele>
        <time>2022-09-14T00:34:22Z</time>
      </trkpt>
      <trkpt lat="46.96002" lon="6.40882">
        <ele>798</ele>
        <time>2022-09-14T00:35:05Z</time>
      </trkpt>
      <trkpt lat="46.95932" lon="6.40816">
        <ele>799</ele>
        <time>2022-09-14T00:36:11Z</time>
      </trkpt>
      <trkpt lat="46.95908" lon="6.4079">
        <ele>799</ele>
        <time>2022-09-14T00:36:35Z</time>
      </trkpt>
      <trkpt lat="46.95884" lon="6.40756">
        <ele>800</ele>
        <time>2022-09-14T00:37:02Z</time>
      </trkpt>
      <trkpt lat="46.95783" lon="6.4059">
        <ele>799</ele>
        <time>2022-09-14T00:39:03Z</time>
      </trkpt>
      <trkpt lat="46.95651" lon="6.40381">
        <ele>802</ele>
        <time>2022-09-14T00:41:39Z</time>
      </trkpt>
      <trkpt lat="46.95608" lon="6.40323">
        <ele>802</ele>
        <time>2022-09-14T00:42:26Z</time>
      </trkpt>
      <trkpt lat="46.9557" lon="6.40276">
        <ele>800</ele>
        <time>2022-09-14T00:43:06Z</time>
      </trkpt>
      <trkpt lat="46.95542" lon="6.40236">
        <ele>799</ele>
        <time>2022-09-14T00:43:37Z</time>
      </trkpt>
      <trkpt lat="46.95421" lon="6.40004">
        <ele>796</ele>
        <time>2022-09-14T00:46:17Z</time>
      </trkpt>
      <trkpt lat="46.95389" lon="6.39932">
        <ele>797</ele>
        <time>2022-09-14T00:47:04Z</time>
      </trkpt>
      <trkpt lat="46.95315" lon="6.39745">
        <ele>796</ele>
        <time>2022-09-14T00:49:02Z</time>
      </trkpt>
      <trkpt lat="46.95299" lon="6.39699">
        <ele>797</ele>
        <time>2022-09-14T00:49:30Z</time>
      </trkpt>
      <trkpt lat="46.95235" lon="6.39471">
        <ele>796</ele>
        <time>2022-09-14T00:51:45Z</time>
      </trkpt>
      <trkpt lat="46.95215" lon="6.39407">
        <ele>795</ele>
        <time>2022-09-14T00:52:23Z</time>
      </trkpt>
      <trkpt lat="46.9518" lon="6.39309">
        <ele>795</ele>
        <time>2022-09-14T00:53:24Z</time>
      </trkpt>
      <trkpt lat="46.95139" lon="6.392">
        <ele>796</ele>
        <time>2022-09-14T00:54:32Z</time>
      </trkpt>
      <trkpt lat="46.95105" lon="6.39128">
        <ele>795</ele>
        <time>2022-09-14T00:55:19Z</time>
      </trkpt>
      <trkpt lat="46.95063" lon="6.39056">
        <ele>795</ele>
        <time>2022-09-14T00:56:11Z</time>
      </trkpt>
      <trkpt lat="46.94996" lon="6.38956">
        <ele>793</ele>
        <time>2022-09-14T00:57:28Z</time>
      </trkpt>
      <trkpt lat="46.94976" lon="6.38913">
        <ele>794</ele>
        <time>2022-09-14T00:57:56Z</time>
      </trkpt>
      <trkpt lat="46.94925" lon="6.38773">
        <ele>794</ele>
        <time>2022-09-14T00:59:23Z</time>
      </trkpt>
      <trkpt lat="46.94895" lon="6.38717">
        <ele>793</ele>
        <time>2022-09-14T01:00:02Z</time>
      </trkpt>
      <trkpt lat="46.94797" lon="6.38557">
        <ele>793</ele>
        <time>2022-09-14T01:01:59Z</time>
      </trkpt>
      <trkpt lat="46.94792" lon="6.38543">
        <ele>794</ele>
        <time>2022-09-14T01:02:08Z</time>
      </trkpt>
      <trkpt lat="46.94767" lon="6.385">
        <ele>795</ele>
        <time>2022-09-14T01:02:39Z</time>
      </trkpt>
      <trkpt lat="46.94748" lon="6.38473">
        <ele>796</ele>
        <time>2022-09-14T01:03:00Z</time>
      </trkpt>
      <trkpt lat="46.94729" lon="6.3845">
        <ele>797</ele>
        <time>2022-09-14T01:03:20Z</time>
      </trkpt>
      <trkpt lat="46.94716" lon="6.38442">
        <ele>797</ele>
        <time>2022-09-14T01:03:31Z</time>
      </trkpt>
      <trkpt lat="46.94704" lon="6.38439">
        <ele>796</ele>
        <time>2022-09-14T01:03:41Z</time>
      </trkpt>
      <trkpt lat="46.94678" lon="6.38442">
        <ele>794</ele>
        <time>2022-09-14T01:04:02Z</time>
      </trkpt>
      <trkpt lat="46.94586" lon="6.38453">
        <ele>792</ele>
        <time>2022-09-14T01:05:16Z</time>
      </trkpt>
      <trkpt lat="46.94571" lon="6.38452">
        <ele>793</ele>
        <time>2022-09-14T01:05:28Z</time>
      </trkpt>
      <trkpt lat="46.94557" lon="6.38447">
        <ele>794</ele>
        <time>2022-09-14T01:05:39Z</time>
      </trkpt>
      <trkpt lat="46.94542" lon="6.38436">
        <ele>794</ele>
        <time>2022-09-14T01:05:53Z</time>
      </trkpt>
      <trkpt lat="46.94511" lon="6.38397">
        <ele>795</ele>
        <time>2022-09-14T01:06:25Z</time>
      </trkpt>
      <trkpt lat="46.94481" lon="6.3835">
        <ele>796</ele>
        <time>2022-09-14T01:07:01Z</time>
      </trkpt>
      <trkpt lat="46.94468" lon="6.38322">
        <ele>796</ele>
        <time>2022-09-14T01:07:19Z</time>
      </trkpt>
      <trkpt lat="46.94421" lon="6.3821">
        <ele>797</ele>
        <time>2022-09-14T01:08:31Z</time>
      </trkpt>
      <trkpt lat="46.94374" lon="6.38132">
        <ele>795</ele>
        <time>2022-09-14T01:09:28Z</time>
      </trkpt>
      <trkpt lat="46.94344" lon="6.38103">
        <ele>795</ele>
        <time>2022-09-14T01:09:57Z</time>
      </trkpt>
      <trkpt lat="46.94206" lon="6.37952">
        <ele>796</ele>
        <time>2022-09-14T01:12:14Z</time>
      </trkpt>
      <trkpt lat="46.94171" lon="6.37903">
        <ele>797</ele>
        <time>2022-09-14T01:12:53Z</time>
      </trkpt>
      <trkpt lat="46.94142" lon="6.37861">
        <ele>797</ele>
        <time>2022-09-14T01:13:26Z</time>
      </trkpt>
      <trkpt lat="46.94029" lon="6.37667">
        <ele>804</ele>
        <time>2022-09-14T01:15:45Z</time>
      </trkpt>
      <trkpt lat="46.93947" lon="6.37533">
        <ele>804</ele>
        <time>2022-09-14T01:17:24Z</time>
      </trkpt>
      <trkpt lat="46.93921" lon="6.37493">
        <ele>803</ele>
        <time>2022-09-14T01:17:54Z</time>
      </trkpt>
      <trkpt lat="46.939" lon="6.37467">
        <ele>804</ele>
        <time>2022-09-14T01:18:16Z</time>
      </trkpt>
      <trkpt lat="46.93872" lon="6.37442">
        <ele>806</ele>
        <time>2022-09-14T01:18:42Z</time>
      </trkpt>
      <trkpt lat="46.93809" lon="6.37395">
        <ele>810</ele>
        <time>2022-09-14T01:19:39Z</time>
      </trkpt>
      <trkpt lat="46.93783" lon="6.37364">
        <ele>812</ele>
        <time>2022-09-14T01:20:06Z</time>
      </trkpt>
      <trkpt lat="46.93766" lon="6.37334">
        <ele>812</ele>
        <time>2022-09-14T01:20:27Z</time>
      </trkpt>
      <trkpt lat="46.93745" lon="6.37288">
        <ele>812</ele>
        <time>2022-09-14T01:20:57Z</time>
      </trkpt>
      <trkpt lat="46.93716" lon="6.37218">
        <ele>813</ele>
        <time>2022-09-14T01:21:42Z</time>
      </trkpt>
      <trkpt lat="46.93678" lon="6.37103">
        <ele>819</ele>
        <time>2022-09-14T01:22:52Z</time>
      </trkpt>
      <trkpt lat="46.93653" lon="6.37045">
        <ele>823</ele>
        <time>2022-09-14T01:23:29Z</time>
      </trkpt>
      <trkpt lat="46.93646" lon="6.37024">
        <ele>823</ele>
        <time>2022-09-14T01:23:42Z</time>
      </trkpt>
      <trkpt lat="46.93621" lon="6.36907">
        <ele>823</ele>
        <time>2022-09-14T01:24:49Z</time>
      </trkpt>
      <trkpt lat="46.93609" lon="6.3687">
        <ele>822</ele>
        <time>2022-09-14T01:25:11Z</time>
      </trkpt>
      <trkpt lat="46.93599" lon="6.36851">
        <ele>821</ele>
        <time>2022-09-14T01:25:25Z</time>
      </trkpt>
      <trkpt lat="46.93587" lon="6.36833">
        <ele>821</ele>
        <time>2022-09-14T01:25:38Z</time>
      </trkpt>
      <trkpt lat="46.93571" lon="6.36815">
        <ele>820</ele>
        <time>2022-09-14T01:25:54Z</time>
      </trkpt>
      <trkpt lat="46.93548" lon="6.36798">
        <ele>820</ele>
        <time>2022-09-14T01:26:15Z</time>
      </trkpt>
      <trkpt lat="46.9348" lon="6.36768">
        <ele>821</ele>
        <time>2022-09-14T01:27:12Z</time>
      </trkpt>
      <trkpt lat="46.93379" lon="6.36733">
        <ele>821</ele>
        <time>2022-09-14T01:28:35Z</time>
      </trkpt>
      <trkpt lat="46.93307" lon="6.367">
        <ele>822</ele>
        <time>2022-09-14T01:29:35Z</time>
      </trkpt>
      <trkpt lat="46.93239" lon="6.36664">
        <ele>826</ele>
        <time>2022-09-14T01:30:33Z</time>
      </trkpt>
      <trkpt lat="46.93216" lon="6.36645">
        <ele>829</ele>
        <time>2022-09-14T01:30:55Z</time>
      </trkpt>
      <trkpt lat="46.93232" lon="6.36594">
        <ele>820</ele>
        <time>2022-09-14T01:31:25Z</time>
      </trkpt>
      <trkpt lat="46.93233" lon="6.36576">
        <ele>818</ele>
        <time>2022-09-14T01:31:35Z</time>
      </trkpt>
      <trkpt lat="46.9319" lon="6.3645">
        <ele>814</ele>
        <time>2022-09-14T01:32:52Z</time>
      </trkpt>
      <trkpt lat="46.93178" lon="6.36404">
        <ele>811</ele>
        <time>2022-09-14T01:33:19Z</time>
      </trkpt>
      <trkpt lat="46.93168" lon="6.36359">
        <ele>811</ele>
        <time>2022-09-14T01:33:45Z</time>
      </trkpt>
      <trkpt lat="46.9316" lon="6.36305">
        <ele>811</ele>
        <time>2022-09-14T01:34:15Z</time>
      </trkpt>
      <trkpt lat="46.93135" lon="6.36129">
        <ele>810</ele>
        <time>2022-09-14T01:35:53Z</time>
      </trkpt>
      <trkpt lat="46.93128" lon="6.36089">
        <ele>810</ele>
        <time>2022-09-14T01:36:16Z</time>
      </trkpt>
      <trkpt lat="46.93107" lon="6.35988">
        <ele>809</ele>
        <time>2022-09-14T01:37:14Z</time>
      </trkpt>
      <trkpt lat="46.9308" lon="6.35904">
        <ele>809</ele>
        <time>2022-09-14T01:38:04Z</time>
      </trkpt>
      <trkpt lat="46.93057" lon="6.35844">
        <ele>809</ele>
        <time>2022-09-14T01:38:42Z</time>
      </trkpt>
      <trkpt lat="46.93002" lon="6.35719">
        <ele>810</ele>
        <time>2022-09-14T01:40:03Z</time>
      </trkpt>
      <trkpt lat="46.9298" lon="6.35678">
        <ele>811</ele>
        <time>2022-09-14T01:40:32Z</time>
      </trkpt>
      <trkpt lat="46.92943" lon="6.35579">
        <ele>814</ele>
        <time>2022-09-14T01:41:34Z</time>
      </trkpt>
      <trkpt lat="46.9293" lon="6.3554">
        <ele>814</ele>
        <time>2022-09-14T01:41:57Z</time>
      </trkpt>
      <trkpt lat="46.92927" lon="6.35518">
        <ele>813</ele>
        <time>2022-09-14T01:42:10Z</time>
      </trkpt>
      <trkpt lat="46.92926" lon="6.35497">
        <ele>813</ele>
        <time>2022-09-14T01:42:21Z</time>
      </trkpt>
      <trkpt lat="46.92941" lon="6.3538">
        <ele>812</ele>
        <time>2022-09-14T01:43:26Z</time>
      </trkpt>
      <trkpt lat="46.92941" lon="6.35359">
        <ele>812</ele>
        <time>2022-09-14T01:43:38Z</time>
      </trkpt>
      <trkpt lat="46.92937" lon="6.35329">
        <ele>812</ele>
        <time>2022-09-14T01:43:54Z</time>
      </trkpt>
      <trkpt lat="46.92927" lon="6.35281">
        <ele>811</ele>
        <time>2022-09-14T01:44:22Z</time>
      </trkpt>
      <trkpt lat="46.9291" lon="6.35226">
        <ele>810</ele>
        <time>2022-09-14T01:44:55Z</time>
      </trkpt>
      <trkpt lat="46.92903" lon="6.35212">
        <ele>809</ele>
        <time>2022-09-14T01:45:04Z</time>
      </trkpt>
      <trkpt lat="46.92886" lon="6.35186">
        <ele>809</ele>
        <time>2022-09-14T01:45:24Z</time>
      </trkpt>
      <trkpt lat="46.92873" lon="6.35173">
        <ele>809</ele>
        <time>2022-09-14T01:45:37Z</time>
      </trkpt>
      <trkpt lat="46.92824" lon="6.35147">
        <ele>808</ele>
        <time>2022-09-14T01:46:18Z</time>
      </trkpt>
      <trkpt lat="46.92803" lon="6.35128">
        <ele>809</ele>
        <time>2022-09-14T01:46:38Z</time>
      </trkpt>
      <trkpt lat="46.92797" lon="6.35121">
        <ele>809</ele>
        <time>2022-09-14T01:46:44Z</time>
      </trkpt>
      <trkpt lat="46.92792" lon="6.35108">
        <ele>809</ele>
        <time>2022-09-14T01:46:52Z</time>
      </trkpt>
      <trkpt lat="46.92782" lon="6.35035">
        <ele>809</ele>
        <time>2022-09-14T01:47:33Z</time>
      </trkpt>
      <trkpt lat="46.92769" lon="6.3483">
        <ele>809</ele>
        <time>2022-09-14T01:49:26Z</time>
      </trkpt>
      <trkpt lat="46.92765" lon="6.34777">
        <ele>808</ele>
        <time>2022-09-14T01:49:55Z</time>
      </trkpt>
      <trkpt lat="46.92763" lon="6.34764">
        <ele>808</ele>
        <time>2022-09-14T01:50:02Z</time>
      </trkpt>
      <trkpt lat="46.92744" lon="6.34703">
        <ele>809</ele>
        <time>2022-09-14T01:50:39Z</time>
      </trkpt>
      <trkpt lat="46.92739" lon="6.3463">
        <ele>810</ele>
        <time>2022-09-14T01:51:19Z</time>
      </trkpt>
      <trkpt lat="46.92736" lon="6.34612">
        <ele>810</ele>
        <time>2022-09-14T01:51:29Z</time>
      </trkpt>
      <trkpt lat="46.92724" lon="6.34581">
        <ele>810</ele>
        <time>2022-09-14T01:51:49Z</time>
      </trkpt>
      <trkpt lat="46.92718" lon="6.34568">
        <ele>810</ele>
        <time>2022-09-14T01:51:57Z</time>
      </trkpt>
      <trkpt lat="46.92703" lon="6.34545">
        <ele>810</ele>
        <time>2022-09-14T01:52:14Z</time>
      </trkpt>
      <trkpt lat="46.92689" lon="6.34528">
        <ele>811</ele>
        <time>2022-09-14T01:52:29Z</time>
      </trkpt>
      <trkpt lat="46.92606" lon="6.34472">
        <ele>812</ele>
        <time>2022-09-14T01:53:42Z</time>
      </trkpt>
      <trkpt lat="46.92595" lon="6.34462">
        <ele>812</ele>
        <time>2022-09-14T01:53:53Z</time>
      </trkpt>
      <trkpt lat="46.92584" lon="6.34445">
        <ele>812</ele>
        <time>2022-09-14T01:54:05Z</time>
      </trkpt>
      <trkpt lat="46.92575" lon="6.34424">
        <ele>812</ele>
        <time>2022-09-14T01:54:19Z</time>
      </trkpt>
      <trkpt lat="46.92576" lon="6.34383">
        <ele>812</ele>
        <time>2022-09-14T01:54:41Z</time>
      </trkpt>
      <trkpt lat="46.92582" lon="6.34372">
        <ele>813</ele>
        <time>2022-09-14T01:54:49Z</time>
      </trkpt>
      <trkpt lat="46.92583" lon="6.34365">
        <ele>813</ele>
        <time>2022-09-14T01:54:53Z</time>
      </trkpt>
      <trkpt lat="46.92581" lon="6.34351">
        <ele>813</ele>
        <time>2022-09-14T01:55:01Z</time>
      </trkpt>
      <trkpt lat="46.92579" lon="6.34346">
        <ele>813</ele>
        <time>2022-09-14T01:55:04Z</time>
      </trkpt>
      <trkpt lat="46.92576" lon="6.34323">
        <ele>813</ele>
        <time>2022-09-14T01:55:17Z</time>
      </trkpt>
      <trkpt lat="46.92577" lon="6.34291">
        <ele>813</ele>
        <time>2022-09-14T01:55:34Z</time>
      </trkpt>
      <trkpt lat="46.92592" lon="6.34228">
        <ele>812</ele>
        <time>2022-09-14T01:56:11Z</time>
      </trkpt>
      <trkpt lat="46.92598" lon="6.34193">
        <ele>811</ele>
        <time>2022-09-14T01:56:31Z</time>
      </trkpt>
      <trkpt lat="46.926" lon="6.34178">
        <ele>811</ele>
        <time>2022-09-14T01:56:39Z</time>
      </trkpt>
      <trkpt lat="46.92599" lon="6.34145">
        <ele>811</ele>
        <time>2022-09-14T01:56:57Z</time>
      </trkpt>
      <trkpt lat="46.92611" lon="6.34147">
        <ele>810</ele>
        <time>2022-09-14T01:57:07Z</time>
      </trkpt>
      <trkpt lat="46.92621" lon="6.34156">
        <ele>810</ele>
        <time>2022-09-14T01:57:16Z</time>
      </trkpt>
      <trkpt lat="46.92631" lon="6.34176">
        <ele>810</ele>
        <time>2022-09-14T01:57:30Z</time>
      </trkpt>
      <trkpt lat="46.92621" lon="6.34156">
        <ele>810</ele>
        <time>2022-09-14T01:57:43Z</time>
      </trkpt>
      <trkpt lat="46.92611" lon="6.34147">
        <ele>810</ele>
        <time>2022-09-14T01:57:53Z</time>
      </trkpt>
      <trkpt lat="46.92599" lon="6.34145">
        <ele>811</ele>
        <time>2022-09-14T01:58:02Z</time>
      </trkpt>
      <trkpt lat="46.92593" lon="6.34112">
        <ele>811</ele>
        <time>2022-09-14T01:58:21Z</time>
      </trkpt>
      <trkpt lat="46.92579" lon="6.34075">
        <ele>811</ele>
        <time>2022-09-14T01:58:44Z</time>
      </trkpt>
      <trkpt lat="46.92522" lon="6.33963">
        <ele>810</ele>
        <time>2022-09-14T02:00:00Z</time>
      </trkpt>
      <trkpt lat="46.92483" lon="6.33871">
        <ele>810</ele>
        <time>2022-09-14T02:01:00Z</time>
      </trkpt>
      <trkpt lat="46.9247" lon="6.33848">
        <ele>810</ele>
        <time>2022-09-14T02:01:16Z</time>
      </trkpt>
      <trkpt lat="46.92466" lon="6.33837">
        <ele>811</ele>
        <time>2022-09-14T02:01:23Z</time>
      </trkpt>
      <trkpt lat="46.92466" lon="6.33826">
        <ele>811</ele>
        <time>2022-09-14T02:01:29Z</time>
      </trkpt>
      <trkpt lat="46.92469" lon="6.33809">
        <ele>810</ele>
        <time>2022-09-14T02:01:38Z</time>
      </trkpt>
      <trkpt lat="46.92481" lon="6.33797">
        <ele>810</ele>
        <time>2022-09-14T02:01:50Z</time>
      </trkpt>
      <trkpt lat="46.92491" lon="6.33779">
        <ele>810</ele>
        <time>2022-09-14T02:02:03Z</time>
      </trkpt>
      <trkpt lat="46.92496" lon="6.33756">
        <ele>810</ele>
        <time>2022-09-14T02:02:16Z</time>
      </trkpt>
      <trkpt lat="46.92495" lon="6.33737">
        <ele>810</ele>
        <time>2022-09-14T02:02:26Z</time>
      </trkpt>
      <trkpt lat="46.92493" lon="6.33726">
        <ele>810</ele>
        <time>2022-09-14T02:02:33Z</time>
      </trkpt>
      <trkpt lat="46.92486" lon="6.33707">
        <ele>810</ele>
        <time>2022-09-14T02:02:44Z</time>
      </trkpt>
      <trkpt lat="46.92474" lon="6.33693">
        <ele>810</ele>
        <time>2022-09-14T02:02:57Z</time>
      </trkpt>
      <trkpt lat="46.92459" lon="6.33685">
        <ele>810</ele>
        <time>2022-09-14T02:03:09Z</time>
      </trkpt>
      <trkpt lat="46.92442" lon="6.33657">
        <ele>810</ele>
        <time>2022-09-14T02:03:30Z</time>
      </trkpt>
      <trkpt lat="46.92436" lon="6.33643">
        <ele>810</ele>
        <time>2022-09-14T02:03:39Z</time>
      </trkpt>
      <trkpt lat="46.92405" lon="6.33602">
        <ele>811</ele>
        <time>2022-09-14T02:04:12Z</time>
      </trkpt>
      <trkpt lat="46.9239" lon="6.33579">
        <ele>811</ele>
        <time>2022-09-14T02:04:30Z</time>
      </trkpt>
      <trkpt lat="46.92353" lon="6.33494">
        <ele>811</ele>
        <time>2022-09-14T02:05:25Z</time>
      </trkpt>
      <trkpt lat="46.91572" lon="6.31671">
        <ele>810</ele>
        <time>2022-09-14T02:25:02Z</time>
      </trkpt>
      <trkpt lat="46.91523" lon="6.31557">
        <ele>811</ele>
        <time>2022-09-14T02:26:15Z</time>
      </trkpt>
      <trkpt lat="46.91507" lon="6.31511">
        <ele>810</ele>
        <time>2022-09-14T02:26:44Z</time>
      </trkpt>
      <trkpt lat="46.91505" lon="6.31494">
        <ele>810</ele>
        <time>2022-09-14T02:26:53Z</time>
      </trkpt>
      <trkpt lat="46.91497" lon="6.3147">
        <ele>810</ele>
        <time>2022-09-14T02:27:08Z</time>
      </trkpt>
      <trkpt lat="46.91499" lon="6.31446">
        <ele>810</ele>
        <time>2022-09-14T02:27:21Z</time>
      </trkpt>
      <trkpt lat="46.91506" lon="6.31418">
        <ele>810</ele>
        <time>2022-09-14T02:27:37Z</time>
      </trkpt>
      <trkpt lat="46.91515" lon="6.31394">
        <ele>810</ele>
        <time>2022-09-14T02:27:52Z</time>
      </trkpt>
      <trkpt lat="46.91585" lon="6.31133">
        <ele>814</ele>
        <time>2022-09-14T02:30:26Z</time>
      </trkpt>
      <trkpt lat="46.91595" lon="6.31093">
        <ele>812</ele>
        <time>2022-09-14T02:30:49Z</time>
      </trkpt>
      <trkpt lat="46.91603" lon="6.3105">
        <ele>811</ele>
        <time>2022-09-14T02:31:13Z</time>
      </trkpt>
      <trkpt lat="46.91618" lon="6.30949">
        <ele>810</ele>
        <time>2022-09-14T02:32:10Z</time>
      </trkpt>
      <trkpt lat="46.91651" lon="6.30758">
        <ele>809</ele>
        <time>2022-09-14T02:33:57Z</time>
      </trkpt>
      <trkpt lat="46.91657" lon="6.30728">
        <ele>808</ele>
        <time>2022-09-14T02:34:15Z</time>
      </trkpt>
      <trkpt lat="46.91661" lon="6.30708">
        <ele>808</ele>
        <time>2022-09-14T02:34:26Z</time>
      </trkpt>
      <trkpt lat="46.91675" lon="6.30632">
        <ele>807</ele>
        <time>2022-09-14T02:35:09Z</time>
      </trkpt>
      <trkpt lat="46.91687" lon="6.30571">
        <ele>807</ele>
        <time>2022-09-14T02:35:44Z</time>
      </trkpt>
      <trkpt lat="46.9171" lon="6.30476">
        <ele>806</ele>
        <time>2022-09-14T02:36:39Z</time>
      </trkpt>
      <trkpt lat="46.91718" lon="6.30436">
        <ele>806</ele>
        <time>2022-09-14T02:37:02Z</time>
      </trkpt>
      <trkpt lat="46.91755" lon="6.30328">
        <ele>807</ele>
        <time>2022-09-14T02:38:08Z</time>
      </trkpt>
      <trkpt lat="46.91763" lon="6.30297">
        <ele>808</ele>
        <time>2022-09-14T02:38:26Z</time>
      </trkpt>
      <trkpt lat="46.9188" lon="6.29979">
        <ele>813</ele>
        <time>2022-09-14T02:41:43Z</time>
      </trkpt>
      <trkpt lat="46.91896" lon="6.29924">
        <ele>812</ele>
        <time>2022-09-14T02:42:16Z</time>
      </trkpt>
      <trkpt lat="46.91907" lon="6.29871">
        <ele>812</ele>
        <time>2022-09-14T02:42:46Z</time>
      </trkpt>
      <trkpt lat="46.9191" lon="6.29841">
        <ele>813</ele>
        <time>2022-09-14T02:43:03Z</time>
      </trkpt>
      <trkpt lat="46.91913" lon="6.29784">
        <ele>815</ele>
        <time>2022-09-14T02:43:34Z</time>
      </trkpt>
      <trkpt lat="46.91909" lon="6.29729">
        <ele>816</ele>
        <time>2022-09-14T02:44:04Z</time>
      </trkpt>
      <trkpt lat="46.91903" lon="6.29692">
        <ele>815</ele>
        <time>2022-09-14T02:44:25Z</time>
      </trkpt>
      <trkpt lat="46.91893" lon="6.2965">
        <ele>815</ele>
        <time>2022-09-14T02:44:50Z</time>
      </trkpt>
      <trkpt lat="46.91857" lon="6.29526">
        <ele>819</ele>
        <time>2022-09-14T02:46:03Z</time>
      </trkpt>
      <trkpt lat="46.91744" lon="6.29126">
        <ele>828</ele>
        <time>2022-09-14T02:50:00Z</time>
      </trkpt>
      <trkpt lat="46.91639" lon="6.28742">
        <ele>828</ele>
        <time>2022-09-14T02:53:46Z</time>
      </trkpt>
      <trkpt lat="46.91622" lon="6.28683">
        <ele>829</ele>
        <time>2022-09-14T02:54:21Z</time>
      </trkpt>
      <trkpt lat="46.9161" lon="6.28653">
        <ele>829</ele>
        <time>2022-09-14T02:54:40Z</time>
      </trkpt>
      <trkpt lat="46.91589" lon="6.28608">
        <ele>827</ele>
        <time>2022-09-14T02:55:10Z</time>
      </trkpt>
      <trkpt lat="46.9157" lon="6.28575">
        <ele>826</ele>
        <time>2022-09-14T02:55:34Z</time>
      </trkpt>
      <trkpt lat="46.91546" lon="6.28541">
        <ele>826</ele>
        <time>2022-09-14T02:56:00Z</time>
      </trkpt>
      <trkpt lat="46.91501" lon="6.2849">
        <ele>826</ele>
        <time>2022-09-14T02:56:46Z</time>
      </trkpt>
      <trkpt lat="46.91368" lon="6.28364">
        <ele>832</ele>
        <time>2022-09-14T02:58:53Z</time>
      </trkpt>
      <trkpt lat="46.91335" lon="6.28322">
        <ele>833</ele>
        <time>2022-09-14T02:59:28Z</time>
      </trkpt>
      <trkpt lat="46.91314" lon="6.28287">
        <ele>834</ele>
        <time>2022-09-14T02:59:53Z</time>
      </trkpt>
      <trkpt lat="46.91278" lon="6.28209">
        <ele>835</ele>
        <time>2022-09-14T03:00:45Z</time>
      </trkpt>
      <trkpt lat="46.91249" lon="6.28128">
        <ele>832</ele>
        <time>2022-09-14T03:01:35Z</time>
      </trkpt>
      <trkpt lat="46.91096" lon="6.27506">
        <ele>830</ele>
        <time>2022-09-14T03:07:36Z</time>
      </trkpt>
      <trkpt lat="46.91035" lon="6.2728">
        <ele>827</ele>
        <time>2022-09-14T03:09:49Z</time>
      </trkpt>
      <trkpt lat="46.90987" lon="6.27089">
        <ele>829</ele>
        <time>2022-09-14T03:11:41Z</time>
      </trkpt>
      <trkpt lat="46.90951" lon="6.26936">
        <ele>830</ele>
        <time>2022-09-14T03:13:09Z</time>
      </trkpt>
      <trkpt lat="46.90943" lon="6.26875">
        <ele>831</ele>
        <time>2022-09-14T03:13:43Z</time>
      </trkpt>
      <trkpt lat="46.90949" lon="6.2682">
        <ele>833</ele>
        <time>2022-09-14T03:14:14Z</time>
      </trkpt>
      <trkpt lat="46.90956" lon="6.26787">
        <ele>835</ele>
        <time>2022-09-14T03:14:33Z</time>
      </trkpt>
      <trkpt lat="46.90968" lon="6.26778">
        <ele>836</ele>
        <time>2022-09-14T03:14:43Z</time>
      </trkpt>
      <trkpt lat="46.90973" lon="6.26769">
        <ele>837</ele>
        <time>2022-09-14T03:14:50Z</time>
      </trkpt>
      <trkpt lat="46.90977" lon="6.26753">
        <ele>838</ele>
        <time>2022-09-14T03:14:59Z</time>
      </trkpt>
      <trkpt lat="46.90976" lon="6.26742">
        <ele>838</ele>
        <time>2022-09-14T03:15:05Z</time>
      </trkpt>
      <trkpt lat="46.90971" lon="6.26727">
        <ele>838</ele>
        <time>2022-09-14T03:15:14Z</time>
      </trkpt>
      <trkpt lat="46.90964" lon="6.26717">
        <ele>838</ele>
        <time>2022-09-14T03:15:22Z</time>
      </trkpt>
      <trkpt lat="46.90951" lon="6.26713">
        <ele>837</ele>
        <time>2022-09-14T03:15:33Z</time>
      </trkpt>
      <trkpt lat="46.90945" lon="6.26714">
        <ele>837</ele>
        <time>2022-09-14T03:15:37Z</time>
      </trkpt>
      <trkpt lat="46.90937" lon="6.26719">
        <ele>836</ele>
        <time>2022-09-14T03:15:44Z</time>
      </trkpt>
      <trkpt lat="46.90906" lon="6.26705">
        <ele>834</ele>
        <time>2022-09-14T03:16:10Z</time>
      </trkpt>
      <trkpt lat="46.90889" lon="6.26672">
        <ele>834</ele>
        <time>2022-09-14T03:16:33Z</time>
      </trkpt>
      <trkpt lat="46.90877" lon="6.26636">
        <ele>834</ele>
        <time>2022-09-14T03:16:55Z</time>
      </trkpt>
      <trkpt lat="46.90863" lon="6.26571">
        <ele>834</ele>
        <time>2022-09-14T03:17:32Z</time>
      </trkpt>
      <trkpt lat="46.90829" lon="6.26481">
        <ele>834</ele>
        <time>2022-09-14T03:18:28Z</time>
      </trkpt>
      <trkpt lat="46.90785" lon="6.26385">
        <ele>831</ele>
        <time>2022-09-14T03:19:32Z</time>
      </trkpt>
      <trkpt lat="46.90693" lon="6.26178">
        <ele>826</ele>
        <time>2022-09-14T03:21:47Z</time>
      </trkpt>
      <trkpt lat="46.90637" lon="6.26058">
        <ele>825</ele>
        <time>2022-09-14T03:23:06Z</time>
      </trkpt>
      <trkpt lat="46.90243" lon="6.25208">
        <ele>816</ele>
        <time>2022-09-14T03:32:28Z</time>
      </trkpt>
      <trkpt lat="46.90082" lon="6.24857">
        <ele>821</ele>
        <time>2022-09-14T03:36:19Z</time>
      </trkpt>
      <trkpt lat="46.90016" lon="6.24706">
        <ele>823</ele>
        <time>2022-09-14T03:37:58Z</time>
      </trkpt>
      <trkpt lat="46.89976" lon="6.24604">
        <ele>821</ele>
        <time>2022-09-14T03:39:02Z</time>
      </trkpt>
      <trkpt lat="46.89698" lon="6.2388">
        <ele>826</ele>
        <time>2022-09-14T03:46:36Z</time>
      </trkpt>
      <trkpt lat="46.89626" lon="6.23695">
        <ele>829</ele>
        <time>2022-09-14T03:48:33Z</time>
      </trkpt>
      <trkpt lat="46.89586" lon="6.23578">
        <ele>828</ele>
        <time>2022-09-14T03:49:44Z</time>
      </trkpt>
      <trkpt lat="46.89529" lon="6.23431">
        <ele>831</ele>
        <time>2022-09-14T03:51:17Z</time>
      </trkpt>
      <trkpt lat="46.89494" lon="6.23351">
        <ele>831</ele>
        <time>2022-09-14T03:52:09Z</time>
      </trkpt>
      <trkpt lat="46.89434" lon="6.23195">
        <ele>833</ele>
        <time>2022-09-14T03:53:47Z</time>
      </trkpt>
      <trkpt lat="46.89432" lon="6.23185">
        <ele>834</ele>
        <time>2022-09-14T03:53:52Z</time>
      </trkpt>
      <trkpt lat="46.89212" lon="6.226">
        <ele>822</ele>
        <time>2022-09-14T03:59:58Z</time>
      </trkpt>
      <trkpt lat="46.89208" lon="6.22593">
        <ele>822</ele>
        <time>2022-09-14T04:00:03Z</time>
      </trkpt>
      <trkpt lat="46.89055" lon="6.22188">
        <ele>814</ele>
        <time>2022-09-14T04:04:16Z</time>
      </trkpt>
      <trkpt lat="46.89055" lon="6.22184">
        <ele>814</ele>
        <time>2022-09-14T04:04:18Z</time>
      </trkpt>
      <trkpt lat="46.89014" lon="6.22059">
        <ele>815</ele>
        <time>2022-09-14T04:05:34Z</time>
      </trkpt>
      <trkpt lat="46.88992" lon="6.22002">
        <ele>816</ele>
        <time>2022-09-14T04:06:10Z</time>
      </trkpt>
      <trkpt lat="46.88965" lon="6.2193">
        <ele>816</ele>
        <time>2022-09-14T04:06:55Z</time>
      </trkpt>
      <trkpt lat="46.88908" lon="6.2179">
        <ele>820</ele>
        <time>2022-09-14T04:08:24Z</time>
      </trkpt>
      <trkpt lat="46.88905" lon="6.21787">
        <ele>820</ele>
        <time>2022-09-14T04:08:27Z</time>
      </trkpt>
      <trkpt lat="46.88712" lon="6.2127">
        <ele>832</ele>
        <time>2022-09-14T04:13:49Z</time>
      </trkpt>
      <trkpt lat="46.88506" lon="6.20713">
        <ele>835</ele>
        <time>2022-09-14T04:19:36Z</time>
      </trkpt>
      <trkpt lat="46.88429" lon="6.20489">
        <ele>827</ele>
        <time>2022-09-14T04:21:53Z</time>
      </trkpt>
      <trkpt lat="46.88409" lon="6.20435">
        <ele>826</ele>
        <time>2022-09-14T04:22:27Z</time>
      </trkpt>
      <trkpt lat="46.88386" lon="6.20387">
        <ele>826</ele>
        <time>2022-09-14T04:22:59Z</time>
      </trkpt>
      <trkpt lat="46.8834" lon="6.20311">
        <ele>829</ele>
        <time>2022-09-14T04:23:54Z</time>
      </trkpt>
      <trkpt lat="46.87871" lon="6.19609">
        <ele>836</ele>
        <time>2022-09-14T04:32:51Z</time>
      </trkpt>
      <trkpt lat="46.87417" lon="6.18945">
        <ele>846</ele>
        <time>2022-09-14T04:41:25Z</time>
      </trkpt>
      <trkpt lat="46.87263" lon="6.18729">
        <ele>843</ele>
        <time>2022-09-14T04:44:16Z</time>
      </trkpt>
      <trkpt lat="46.87254" lon="6.18707">
        <ele>843</ele>
        <time>2022-09-14T04:44:30Z</time>
      </trkpt>
      <trkpt lat="46.87249" lon="6.18686">
        <ele>842</ele>
        <time>2022-09-14T04:44:42Z</time>
      </trkpt>
      <trkpt lat="46.87242" lon="6.18641">
        <ele>841</ele>
        <time>2022-09-14T04:45:08Z</time>
      </trkpt>
      <trkpt lat="46.87238" lon="6.18622">
        <ele>840</ele>
        <time>2022-09-14T04:45:19Z</time>
      </trkpt>
      <trkpt lat="46.87224" lon="6.18581">
        <ele>839</ele>
        <time>2022-09-14T04:45:44Z</time>
      </trkpt>
      <trkpt lat="46.87214" lon="6.18533">
        <ele>838</ele>
        <time>2022-09-14T04:46:11Z</time>
      </trkpt>
      <trkpt lat="46.87203" lon="6.18486">
        <ele>838</ele>
        <time>2022-09-14T04:46:38Z</time>
      </trkpt>
      <trkpt lat="46.87186" lon="6.18425">
        <ele>838</ele>
        <time>2022-09-14T04:47:14Z</time>
      </trkpt>
      <trkpt lat="46.87174" lon="6.18393">
        <ele>839</ele>
        <time>2022-09-14T04:47:34Z</time>
      </trkpt>
      <trkpt lat="46.87152" lon="6.18349">
        <ele>840</ele>
        <time>2022-09-14T04:48:04Z</time>
      </trkpt>
      <trkpt lat="46.87115" lon="6.18292">
        <ele>841</ele>
        <time>2022-09-14T04:48:47Z</time>
      </trkpt>
      <trkpt lat="46.87073" lon="6.1822">
        <ele>841</ele>
        <time>2022-09-14T04:49:39Z</time>
      </trkpt>
      <trkpt lat="46.87032" lon="6.18157">
        <ele>840</ele>
        <time>2022-09-14T04:50:27Z</time>
      </trkpt>
      <trkpt lat="46.8682" lon="6.17855">
        <ele>843</ele>
        <time>2022-09-14T04:54:24Z</time>
      </trkpt>
      <trkpt lat="46.86632" lon="6.17589">
        <ele>839</ele>
        <time>2022-09-14T04:57:53Z</time>
      </trkpt>
      <trkpt lat="46.86148" lon="6.16895">
        <ele>854</ele>
        <time>2022-09-14T05:06:56Z</time>
      </trkpt>
      <trkpt lat="46.86133" lon="6.16866">
        <ele>855</ele>
        <time>2022-09-14T05:07:16Z</time>
      </trkpt>
      <trkpt lat="46.86122" lon="6.1684">
        <ele>855</ele>
        <time>2022-09-14T05:07:32Z</time>
      </trkpt>
      <trkpt lat="46.8611" lon="6.16803">
        <ele>855</ele>
        <time>2022-09-14T05:07:55Z</time>
      </trkpt>
      <trkpt lat="46.8609" lon="6.16728">
        <ele>856</ele>
        <time>2022-09-14T05:08:39Z</time>
      </trkpt>
      <trkpt lat="46.86073" lon="6.16681">
        <ele>856</ele>
        <time>2022-09-14T05:09:08Z</time>
      </trkpt>
      <trkpt lat="46.86054" lon="6.16644">
        <ele>856</ele>
        <time>2022-09-14T05:09:33Z</time>
      </trkpt>
      <trkpt lat="46.86036" lon="6.16617">
        <ele>855</ele>
        <time>2022-09-14T05:09:54Z</time>
      </trkpt>
      <trkpt lat="46.86008" lon="6.16586">
        <ele>856</ele>
        <time>2022-09-14T05:10:22Z</time>
      </trkpt>
      <trkpt lat="46.85981" lon="6.16563">
        <ele>855</ele>
        <time>2022-09-14T05:10:47Z</time>
      </trkpt>
      <trkpt lat="46.85971" lon="6.16556">
        <ele>855</ele>
        <time>2022-09-14T05:10:56Z</time>
      </trkpt>
      <trkpt lat="46.85923" lon="6.16522">
        <ele>853</ele>
        <time>2022-09-14T05:11:39Z</time>
      </trkpt>
      <trkpt lat="46.85915" lon="6.16516">
        <ele>853</ele>
        <time>2022-09-14T05:11:46Z</time>
      </trkpt>
      <trkpt lat="46.85881" lon="6.16489">
        <ele>854</ele>
        <time>2022-09-14T05:12:17Z</time>
      </trkpt>
      <trkpt lat="46.85754" lon="6.16356">
        <ele>855</ele>
        <time>2022-09-14T05:14:22Z</time>
      </trkpt>
      <trkpt lat="46.85729" lon="6.16321">
        <ele>855</ele>
        <time>2022-09-14T05:14:50Z</time>
      </trkpt>
      <trkpt lat="46.85695" lon="6.16263">
        <ele>854</ele>
        <time>2022-09-14T05:15:31Z</time>
      </trkpt>
      <trkpt lat="46.85641" lon="6.16104">
        <ele>856</ele>
        <time>2022-09-14T05:17:09Z</time>
      </trkpt>
      <trkpt lat="46.85598" lon="6.15956">
        <ele>858</ele>
        <time>2022-09-14T05:18:37Z</time>
      </trkpt>
      <trkpt lat="46.85586" lon="6.1592">
        <ele>859</ele>
        <time>2022-09-14T05:18:59Z</time>
      </trkpt>
      <trkpt lat="46.85571" lon="6.15883">
        <ele>859</ele>
        <time>2022-09-14T05:19:22Z</time>
      </trkpt>
      <trkpt lat="46.85558" lon="6.15859">
        <ele>858</ele>
        <time>2022-09-14T05:19:39Z</time>
      </trkpt>
      <trkpt lat="46.85521" lon="6.15811">
        <ele>857</ele>
        <time>2022-09-14T05:20:19Z</time>
      </trkpt>
      <trkpt lat="46.85509" lon="6.15792">
        <ele>857</ele>
        <time>2022-09-14T05:20:33Z</time>
      </trkpt>
      <trkpt lat="46.85476" lon="6.15714">
        <ele>857</ele>
        <time>2022-09-14T05:21:23Z</time>
      </trkpt>
      <trkpt lat="46.85313" lon="6.15374">
        <ele>858</ele>
        <time>2022-09-14T05:25:10Z</time>
      </trkpt>
      <trkpt lat="46.85269" lon="6.15267">
        <ele>857</ele>
        <time>2022-09-14T05:26:19Z</time>
      </trkpt>
      <trkpt lat="46.85235" lon="6.15195">
        <ele>857</ele>
        <time>2022-09-14T05:27:07Z</time>
      </trkpt>
      <trkpt lat="46.85163" lon="6.15067">
        <ele>857</ele>
        <time>2022-09-14T05:28:37Z</time>
      </trkpt>
      <trkpt lat="46.85087" lon="6.14943">
        <ele>858</ele>
        <time>2022-09-14T05:30:09Z</time>
      </trkpt>
      <trkpt lat="46.84992" lon="6.14796">
        <ele>856</ele>
        <time>2022-09-14T05:31:59Z</time>
      </trkpt>
      <trkpt lat="46.84449" lon="6.13887">
        <ele>863</ele>
        <time>2022-09-14T05:43:00Z</time>
      </trkpt>
      <trkpt lat="46.84392" lon="6.13789">
        <ele>864</ele>
        <time>2022-09-14T05:44:11Z</time>
      </trkpt>
      <trkpt lat="46.84367" lon="6.13737">
        <ele>864</ele>
        <time>2022-09-14T05:44:45Z</time>
      </trkpt>
      <trkpt lat="46.84345" lon="6.13687">
        <ele>863</ele>
        <time>2022-09-14T05:45:18Z</time>
      </trkpt>
      <trkpt lat="46.8431" lon="6.13596">
        <ele>860</ele>
        <time>2022-09-14T05:46:15Z</time>
      </trkpt>
      <trkpt lat="46.83702" lon="6.11628">
        <ele>862</ele>
        <time>2022-09-14T06:05:58Z</time>
      </trkpt>
      <trkpt lat="46.83619" lon="6.11348">
        <ele>864</ele>
        <time>2022-09-14T06:08:45Z</time>
      </trkpt>
      <trkpt lat="46.83358" lon="6.10401">
        <ele>862</ele>
        <time>2022-09-14T06:18:04Z</time>
      </trkpt>
      <trkpt lat="46.83251" lon="6.101">
        <ele>862</ele>
        <time>2022-09-14T06:21:10Z</time>
      </trkpt>
      <trkpt lat="46.83227" lon="6.10024">
        <ele>866</ele>
        <time>2022-09-14T06:21:56Z</time>
      </trkpt>
      <trkpt lat="46.83219" lon="6.09988">
        <ele>868</ele>
        <time>2022-09-14T06:22:17Z</time>
      </trkpt>
      <trkpt lat="46.83191" lon="6.09824">
        <ele>882</ele>
        <time>2022-09-14T06:23:49Z</time>
      </trkpt>
      <trkpt lat="46.83182" lon="6.09778">
        <ele>882</ele>
        <time>2022-09-14T06:24:15Z</time>
      </trkpt>
      <trkpt lat="46.83172" lon="6.0974">
        <ele>881</ele>
        <time>2022-09-14T06:24:38Z</time>
      </trkpt>
      <trkpt lat="46.83141" lon="6.09656">
        <ele>874</ele>
        <time>2022-09-14T06:25:30Z</time>
      </trkpt>
      <trkpt lat="46.83121" lon="6.09615">
        <ele>869</ele>
        <time>2022-09-14T06:25:58Z</time>
      </trkpt>
      <trkpt lat="46.83102" lon="6.09582">
        <ele>864</ele>
        <time>2022-09-14T06:26:21Z</time>
      </trkpt>
      <trkpt lat="46.83075" lon="6.0954">
        <ele>861</ele>
        <time>2022-09-14T06:26:53Z</time>
      </trkpt>
      <trkpt lat="46.82495" lon="6.0881">
        <ele>846</ele>
        <time>2022-09-14T06:37:06Z</time>
      </trkpt>
      <trkpt lat="46.8242" lon="6.087">
        <ele>844</ele>
        <time>2022-09-14T06:38:31Z</time>
      </trkpt>
      <trkpt lat="46.824" lon="6.08649">
        <ele>844</ele>
        <time>2022-09-14T06:39:03Z</time>
      </trkpt>
      <trkpt lat="46.8223" lon="6.079">
        <ele>834</ele>
        <time>2022-09-14T06:46:15Z</time>
      </trkpt>
      <trkpt lat="46.82055" lon="6.07164">
        <ele>836</ele>
        <time>2022-09-14T06:53:22Z</time>
      </trkpt>
      <trkpt lat="46.81835" lon="6.06215">
        <ele>836</ele>
        <time>2022-09-14T07:02:31Z</time>
      </trkpt>
      <trkpt lat="46.81812" lon="6.06114">
        <ele>839</ele>
        <time>2022-09-14T07:03:29Z</time>
      </trkpt>
      <trkpt lat="46.81721" lon="6.05726">
        <ele>842</ele>
        <time>2022-09-14T07:07:14Z</time>
      </trkpt>
      <trkpt lat="46.81422" lon="6.04492">
        <ele>836</ele>
        <time>2022-09-14T07:19:12Z</time>
      </trkpt>
      <trkpt lat="46.81396" lon="6.04391">
        <ele>837</ele>
        <time>2022-09-14T07:20:11Z</time>
      </trkpt>
      <trkpt lat="46.81278" lon="6.03976">
        <ele>832</ele>
        <time>2022-09-14T07:24:17Z</time>
      </trkpt>
      <trkpt lat="46.81257" lon="6.03813">
        <ele>827</ele>
        <time>2022-09-14T07:25:48Z</time>
      </trkpt>
      <trkpt lat="46.81234" lon="6.0367">
        <ele>826</ele>
        <time>2022-09-14T07:27:08Z</time>
      </trkpt>
      <trkpt lat="46.81133" lon="6.03387">
        <ele>821</ele>
        <time>2022-09-14T07:30:03Z</time>
      </trkpt>
      <trkpt lat="46.81062" lon="6.03177">
        <ele>821</ele>
        <time>2022-09-14T07:32:12Z</time>
      </trkpt>
      <trkpt lat="46.81027" lon="6.03088">
        <ele>818</ele>
        <time>2022-09-14T07:33:08Z</time>
      </trkpt>
      <trkpt lat="46.80992" lon="6.03025">
        <ele>819</ele>
        <time>2022-09-14T07:33:52Z</time>
      </trkpt>
      <trkpt lat="46.80238" lon="6.0197">
        <ele>820</ele>
        <time>2022-09-14T07:47:48Z</time>
      </trkpt>
      <trkpt lat="46.80197" lon="6.01907">
        <ele>821</ele>
        <time>2022-09-14T07:48:36Z</time>
      </trkpt>
      <trkpt lat="46.80099" lon="6.01742">
        <ele>825</ele>
        <time>2022-09-14T07:50:36Z</time>
      </trkpt>
      <trkpt lat="46.7989" lon="6.01376">
        <ele>812</ele>
        <time>2022-09-14T07:54:57Z</time>
      </trkpt>
      <trkpt lat="46.79811" lon="6.01234">
        <ele>809</ele>
        <time>2022-09-14T07:56:37Z</time>
      </trkpt>
      <trkpt lat="46.7979" lon="6.01202">
        <ele>810</ele>
        <time>2022-09-14T07:57:01Z</time>
      </trkpt>
      <trkpt lat="46.79765" lon="6.01172">
        <ele>812</ele>
        <time>2022-09-14T07:57:27Z</time>
      </trkpt>
      <trkpt lat="46.79685" lon="6.01096">
        <ele>816</ele>
        <time>2022-09-14T07:58:44Z</time>
      </trkpt>
      <trkpt lat="46.79599" lon="6.01011">
        <ele>819</ele>
        <time>2022-09-14T08:00:07Z</time>
      </trkpt>
      <trkpt lat="46.79439" lon="6.00763">
        <ele>814</ele>
        <time>2022-09-14T08:03:14Z</time>
      </trkpt>
      <trkpt lat="46.79417" lon="6.00739">
        <ele>815</ele>
        <time>2022-09-14T08:03:36Z</time>
      </trkpt>
      <trkpt lat="46.79415" lon="6.0073">
        <ele>816</ele>
        <time>2022-09-14T08:03:41Z</time>
      </trkpt>
      <trkpt lat="46.79397" lon="6.00701">
        <ele>818</ele>
        <time>2022-09-14T08:04:02Z</time>
      </trkpt>
      <trkpt lat="46.79284" lon="6.00532">
        <ele>816</ele>
        <time>2022-09-14T08:06:12Z</time>
      </trkpt>
      <trkpt lat="46.79214" lon="6.00446">
        <ele>812</ele>
        <time>2022-09-14T08:07:25Z</time>
      </trkpt>
      <trkpt lat="46.79183" lon="6.00403">
        <ele>811</ele>
        <time>2022-09-14T08:07:59Z</time>
      </trkpt>
      <trkpt lat="46.78586" lon="5.99514">
        <ele>809</ele>
        <time>2022-09-14T08:19:22Z</time>
      </trkpt>
      <trkpt lat="46.78459" lon="5.99368">
        <ele>802</ele>
        <time>2022-09-14T08:21:31Z</time>
      </trkpt>
      <trkpt lat="46.78296" lon="5.9917">
        <ele>802</ele>
        <time>2022-09-14T08:24:21Z</time>
      </trkpt>
      <trkpt lat="46.78258" lon="5.99127">
        <ele>805</ele>
        <time>2022-09-14T08:25:00Z</time>
      </trkpt>
      <trkpt lat="46.78239" lon="5.99102">
        <ele>806</ele>
        <time>2022-09-14T08:25:20Z</time>
      </trkpt>
      <trkpt lat="46.782" lon="5.99024">
        <ele>807</ele>
        <time>2022-09-14T08:26:13Z</time>
      </trkpt>
      <trkpt lat="46.78185" lon="5.99">
        <ele>807</ele>
        <time>2022-09-14T08:26:31Z</time>
      </trkpt>
      <trkpt lat="46.78087" lon="5.98873">
        <ele>803</ele>
        <time>2022-09-14T08:28:16Z</time>
      </trkpt>
      <trkpt lat="46.7806" lon="5.98832">
        <ele>803</ele>
        <time>2022-09-14T08:28:47Z</time>
      </trkpt>
      <trkpt lat="46.78039" lon="5.98799">
        <ele>803</ele>
        <time>2022-09-14T08:29:12Z</time>
      </trkpt>
      <trkpt lat="46.78021" lon="5.98754">
        <ele>802</ele>
        <time>2022-09-14T08:29:40Z</time>
      </trkpt>
      <trkpt lat="46.77984" lon="5.98638">
        <ele>802</ele>
        <time>2022-09-14T08:30:50Z</time>
      </trkpt>
      <trkpt lat="46.77968" lon="5.98598">
        <ele>802</ele>
        <time>2022-09-14T08:31:16Z</time>
      </trkpt>
      <trkpt lat="46.77953" lon="5.98564">
        <ele>803</ele>
        <time>2022-09-14T08:31:38Z</time>
      </trkpt>
      <trkpt lat="46.77905" lon="5.98485">
        <ele>810</ele>
        <time>2022-09-14T08:32:36Z</time>
      </trkpt>
      <trkpt lat="46.77835" lon="5.9838">
        <ele>811</ele>
        <time>2022-09-14T08:33:56Z</time>
      </trkpt>
      <trkpt lat="46.77787" lon="5.98294">
        <ele>812</ele>
        <time>2022-09-14T08:34:57Z</time>
      </trkpt>
      <trkpt lat="46.77775" lon="5.98277">
        <ele>812</ele>
        <time>2022-09-14T08:35:10Z</time>
      </trkpt>
      <trkpt lat="46.77766" lon="5.98268">
        <ele>812</ele>
        <time>2022-09-14T08:35:19Z</time>
      </trkpt>
      <trkpt lat="46.77749" lon="5.98259">
        <ele>812</ele>
        <time>2022-09-14T08:35:34Z</time>
      </trkpt>
      <trkpt lat="46.77748" lon="5.9824">
        <ele>812</ele>
        <time>2022-09-14T08:35:44Z</time>
      </trkpt>
      <trkpt lat="46.77745" lon="5.98227">
        <ele>811</ele>
        <time>2022-09-14T08:35:52Z</time>
      </trkpt>
      <trkpt lat="46.7774" lon="5.98211">
        <ele>810</ele>
        <time>2022-09-14T08:36:01Z</time>
      </trkpt>
      <trkpt lat="46.77655" lon="5.98059">
        <ele>806</ele>
        <time>2022-09-14T08:37:49Z</time>
      </trkpt>
      <trkpt lat="46.77626" lon="5.98011">
        <ele>808</ele>
        <time>2022-09-14T08:38:24Z</time>
      </trkpt>
      <trkpt lat="46.77568" lon="5.97904">
        <ele>807</ele>
        <time>2022-09-14T08:39:39Z</time>
      </trkpt>
      <trkpt lat="46.77534" lon="5.97854">
        <ele>807</ele>
        <time>2022-09-14T08:40:17Z</time>
      </trkpt>
      <trkpt lat="46.77503" lon="5.97818">
        <ele>805</ele>
        <time>2022-09-14T08:40:49Z</time>
      </trkpt>
      <trkpt lat="46.77441" lon="5.97769">
        <ele>810</ele>
        <time>2022-09-14T08:41:46Z</time>
      </trkpt>
      <trkpt lat="46.77413" lon="5.9774">
        <ele>811</ele>
        <time>2022-09-14T08:42:13Z</time>
      </trkpt>
      <trkpt lat="46.77389" lon="5.97693">
        <ele>812</ele>
        <time>2022-09-14T08:42:45Z</time>
      </trkpt>
      <trkpt lat="46.77367" lon="5.97644">
        <ele>811</ele>
        <time>2022-09-14T08:43:17Z</time>
      </trkpt>
      <trkpt lat="46.77359" lon="5.976">
        <ele>808</ele>
        <time>2022-09-14T08:43:42Z</time>
      </trkpt>
      <trkpt lat="46.77357" lon="5.97569">
        <ele>806</ele>
        <time>2022-09-14T08:43:59Z</time>
      </trkpt>
      <trkpt lat="46.7736" lon="5.97543">
        <ele>805</ele>
        <time>2022-09-14T08:44:14Z</time>
      </trkpt>
      <trkpt lat="46.7738" lon="5.97446">
        <ele>805</ele>
        <time>2022-09-14T08:45:09Z</time>
      </trkpt>
      <trkpt lat="46.77387" lon="5.97385">
        <ele>802</ele>
        <time>2022-09-14T08:45:43Z</time>
      </trkpt>
      <trkpt lat="46.77386" lon="5.97343">
        <ele>796</ele>
        <time>2022-09-14T08:46:06Z</time>
      </trkpt>
      <trkpt lat="46.77381" lon="5.97316">
        <ele>792</ele>
        <time>2022-09-14T08:46:22Z</time>
      </trkpt>
      <trkpt lat="46.77343" lon="5.97188">
        <ele>784</ele>
        <time>2022-09-14T08:47:38Z</time>
      </trkpt>
      <trkpt lat="46.77316" lon="5.97084">
        <ele>780</ele>
        <time>2022-09-14T08:48:39Z</time>
      </trkpt>
      <trkpt lat="46.7731" lon="5.97046">
        <ele>779</ele>
        <time>2022-09-14T08:49:01Z</time>
      </trkpt>
      <trkpt lat="46.77275" lon="5.96696">
        <ele>774</ele>
        <time>2022-09-14T08:52:14Z</time>
      </trkpt>
      <trkpt lat="46.77266" lon="5.96646">
        <ele>775</ele>
        <time>2022-09-14T08:52:43Z</time>
      </trkpt>
      <trkpt lat="46.77256" lon="5.96618">
        <ele>775</ele>
        <time>2022-09-14T08:53:00Z</time>
      </trkpt>
      <trkpt lat="46.77244" lon="5.96592">
        <ele>774</ele>
        <time>2022-09-14T08:53:17Z</time>
      </trkpt>
      <trkpt lat="46.77215" lon="5.96554">
        <ele>775</ele>
        <time>2022-09-14T08:53:49Z</time>
      </trkpt>
      <trkpt lat="46.77174" lon="5.96507">
        <ele>777</ele>
        <time>2022-09-14T08:54:30Z</time>
      </trkpt>
      <trkpt lat="46.77148" lon="5.96483">
        <ele>777</ele>
        <time>2022-09-14T08:54:55Z</time>
      </trkpt>
      <trkpt lat="46.77074" lon="5.96421">
        <ele>776</ele>
        <time>2022-09-14T08:56:03Z</time>
      </trkpt>
      <trkpt lat="46.76871" lon="5.96284">
        <ele>767</ele>
        <time>2022-09-14T08:59:02Z</time>
      </trkpt>
      <trkpt lat="46.76847" lon="5.96265">
        <ele>764</ele>
        <time>2022-09-14T08:59:24Z</time>
      </trkpt>
      <trkpt lat="46.76818" lon="5.96236">
        <ele>764</ele>
        <time>2022-09-14T08:59:52Z</time>
      </trkpt>
      <trkpt lat="46.76803" lon="5.96214">
        <ele>765</ele>
        <time>2022-09-14T09:00:09Z</time>
      </trkpt>
      <trkpt lat="46.76789" lon="5.96189">
        <ele>766</ele>
        <time>2022-09-14T09:00:27Z</time>
      </trkpt>
      <trkpt lat="46.76771" lon="5.96148">
        <ele>769</ele>
        <time>2022-09-14T09:00:54Z</time>
      </trkpt>
      <trkpt lat="46.76751" lon="5.96109">
        <ele>771</ele>
        <time>2022-09-14T09:01:20Z</time>
      </trkpt>
      <trkpt lat="46.7662" lon="5.95698">
        <ele>757</ele>
        <time>2022-09-14T09:05:29Z</time>
      </trkpt>
      <trkpt lat="46.76611" lon="5.95665">
        <ele>755</ele>
        <time>2022-09-14T09:05:49Z</time>
      </trkpt>
      <trkpt lat="46.76607" lon="5.95638">
        <ele>754</ele>
        <time>2022-09-14T09:06:04Z</time>
      </trkpt>
      <trkpt lat="46.76606" lon="5.95618">
        <ele>753</ele>
        <time>2022-09-14T09:06:15Z</time>
      </trkpt>
      <trkpt lat="46.76603" lon="5.95617">
        <ele>752</ele>
        <time>2022-09-14T09:06:17Z</time>
      </trkpt>
      <trkpt lat="46.76582" lon="5.95585">
        <ele>749</ele>
        <time>2022-09-14T09:06:41Z</time>
      </trkpt>
      <trkpt lat="46.76567" lon="5.95555">
        <ele>747</ele>
        <time>2022-09-14T09:07:02Z</time>
      </trkpt>
      <trkpt lat="46.76367" lon="5.95448">
        <ele>731</ele>
        <time>2022-09-14T09:09:52Z</time>
      </trkpt>
      <trkpt lat="46.76304" lon="5.95411">
        <ele>724</ele>
        <time>2022-09-14T09:10:47Z</time>
      </trkpt>
      <trkpt lat="46.762" lon="5.95378">
        <ele>712</ele>
        <time>2022-09-14T09:12:12Z</time>
      </trkpt>
      <trkpt lat="46.76098" lon="5.9534">
        <ele>697</ele>
        <time>2022-09-14T09:13:36Z</time>
      </trkpt>
      <trkpt lat="46.76037" lon="5.95325">
        <ele>691</ele>
        <time>2022-09-14T09:14:26Z</time>
      </trkpt>
      <trkpt lat="46.75982" lon="5.95323">
        <ele>686</ele>
        <time>2022-09-14T09:15:10Z</time>
      </trkpt>
      <trkpt lat="46.75967" lon="5.95314">
        <ele>684</ele>
        <time>2022-09-14T09:15:23Z</time>
      </trkpt>
      <trkpt lat="46.75971" lon="5.95296">
        <ele>682</ele>
        <time>2022-09-14T09:15:33Z</time>
      </trkpt>
      <trkpt lat="46.76055" lon="5.95097">
        <ele>667</ele>
        <time>2022-09-14T09:17:41Z</time>
      </trkpt>
      <trkpt lat="46.76186" lon="5.94893">
        <ele>639</ele>
        <time>2022-09-14T09:20:15Z</time>
      </trkpt>
      <trkpt lat="46.76191" lon="5.9488">
        <ele>636</ele>
        <time>2022-09-14T09:20:23Z</time>
      </trkpt>
      <trkpt lat="46.76193" lon="5.94866">
        <ele>633</ele>
        <time>2022-09-14T09:20:31Z</time>
      </trkpt>
      <trkpt lat="46.76189" lon="5.94842">
        <ele>628</ele>
        <time>2022-09-14T09:20:44Z</time>
      </trkpt>
      <trkpt lat="46.76025" lon="5.94405">
        <ele>620</ele>
        <time>2022-09-14T09:25:18Z</time>
      </trkpt>
      <trkpt lat="46.76016" lon="5.94373">
        <ele>620</ele>
        <time>2022-09-14T09:25:37Z</time>
      </trkpt>
      <trkpt lat="46.76007" lon="5.94351">
        <ele>620</ele>
        <time>2022-09-14T09:25:51Z</time>
      </trkpt>
      <trkpt lat="46.76" lon="5.9434">
        <ele>620</ele>
        <time>2022-09-14T09:25:59Z</time>
      </trkpt>
      <trkpt lat="46.75975" lon="5.94274">
        <ele>619</ele>
        <time>2022-09-14T09:26:40Z</time>
      </trkpt>
      <trkpt lat="46.75923" lon="5.9413">
        <ele>618</ele>
        <time>2022-09-14T09:28:10Z</time>
      </trkpt>
      <trkpt lat="46.7589" lon="5.94043">
        <ele>616</ele>
        <time>2022-09-14T09:29:04Z</time>
      </trkpt>
      <trkpt lat="46.75882" lon="5.94026">
        <ele>615</ele>
        <time>2022-09-14T09:29:15Z</time>
      </trkpt>
      <trkpt lat="46.75879" lon="5.94024">
        <ele>614</ele>
        <time>2022-09-14T09:29:18Z</time>
      </trkpt>
      <trkpt lat="46.75877" lon="5.9403">
        <ele>614</ele>
        <time>2022-09-14T09:29:22Z</time>
      </trkpt>
      <trkpt lat="46.7587" lon="5.94038">
        <ele>614</ele>
        <time>2022-09-14T09:29:29Z</time>
      </trkpt>
      <trkpt lat="46.75853" lon="5.94041">
        <ele>612</ele>
        <time>2022-09-14T09:29:43Z</time>
      </trkpt>
      <trkpt lat="46.75812" lon="5.93775">
        <ele>608</ele>
        <time>2022-09-14T09:32:12Z</time>
      </trkpt>
      <trkpt lat="46.75805" lon="5.93748">
        <ele>608</ele>
        <time>2022-09-14T09:32:28Z</time>
      </trkpt>
      <trkpt lat="46.75792" lon="5.93718">
        <ele>607</ele>
        <time>2022-09-14T09:32:47Z</time>
      </trkpt>
      <trkpt lat="46.75778" lon="5.93699">
        <ele>606</ele>
        <time>2022-09-14T09:33:03Z</time>
      </trkpt>
      <trkpt lat="46.7574" lon="5.93659">
        <ele>604</ele>
        <time>2022-09-14T09:33:40Z</time>
      </trkpt>
      <trkpt lat="46.75726" lon="5.93637">
        <ele>602</ele>
        <time>2022-09-14T09:33:57Z</time>
      </trkpt>
      <trkpt lat="46.75715" lon="5.93603">
        <ele>601</ele>
        <time>2022-09-14T09:34:17Z</time>
      </trkpt>
      <trkpt lat="46.75705" lon="5.93552">
        <ele>601</ele>
        <time>2022-09-14T09:34:46Z</time>
      </trkpt>
      <trkpt lat="46.75696" lon="5.93518">
        <ele>600</ele>
        <time>2022-09-14T09:35:06Z</time>
      </trkpt>
      <trkpt lat="46.75683" lon="5.93485">
        <ele>600</ele>
        <time>2022-09-14T09:35:27Z</time>
      </trkpt>
      <trkpt lat="46.75677" lon="5.93474">
        <ele>600</ele>
        <time>2022-09-14T09:35:35Z</time>
      </trkpt>
      <trkpt lat="46.75662" lon="5.93455">
        <ele>600</ele>
        <time>2022-09-14T09:35:51Z</time>
      </trkpt>
      <trkpt lat="46.75642" lon="5.93439">
        <ele>598</ele>
        <time>2022-09-14T09:36:09Z</time>
      </trkpt>
      <trkpt lat="46.75559" lon="5.93391">
        <ele>592</ele>
        <time>2022-09-14T09:37:21Z</time>
      </trkpt>
      <trkpt lat="46.75516" lon="5.93363">
        <ele>591</ele>
        <time>2022-09-14T09:37:58Z</time>
      </trkpt>
      <trkpt lat="46.75499" lon="5.93354">
        <ele>591</ele>
        <time>2022-09-14T09:38:13Z</time>
      </trkpt>
      <trkpt lat="46.75478" lon="5.93351">
        <ele>589</ele>
        <time>2022-09-14T09:38:30Z</time>
      </trkpt>
      <trkpt lat="46.75432" lon="5.93352">
        <ele>584</ele>
        <time>2022-09-14T09:39:07Z</time>
      </trkpt>
      <trkpt lat="46.7539" lon="5.93345">
        <ele>584</ele>
        <time>2022-09-14T09:39:40Z</time>
      </trkpt>
      <trkpt lat="46.75374" lon="5.93347">
        <ele>584</ele>
        <time>2022-09-14T09:39:53Z</time>
      </trkpt>
      <trkpt lat="46.7532" lon="5.93361">
        <ele>580</ele>
        <time>2022-09-14T09:40:37Z</time>
      </trkpt>
      <trkpt lat="46.75298" lon="5.93357">
        <ele>578</ele>
        <time>2022-09-14T09:40:55Z</time>
      </trkpt>
      <trkpt lat="46.75288" lon="5.93352">
        <ele>578</ele>
        <time>2022-09-14T09:41:03Z</time>
      </trkpt>
      <trkpt lat="46.75277" lon="5.93342">
        <ele>578</ele>
        <time>2022-09-14T09:41:14Z</time>
      </trkpt>
      <trkpt lat="46.75265" lon="5.93326">
        <ele>578</ele>
        <time>2022-09-14T09:41:27Z</time>
      </trkpt>
      <trkpt lat="46.75256" lon="5.93311">
        <ele>578</ele>
        <time>2022-09-14T09:41:38Z</time>
      </trkpt>
      <trkpt lat="46.75236" lon="5.93252">
        <ele>577</ele>
        <time>2022-09-14T09:42:14Z</time>
      </trkpt>
      <trkpt lat="46.75218" lon="5.93184">
        <ele>575</ele>
        <time>2022-09-14T09:42:54Z</time>
      </trkpt>
      <trkpt lat="46.752" lon="5.93136">
        <ele>575</ele>
        <time>2022-09-14T09:43:24Z</time>
      </trkpt>
      <trkpt lat="46.7519" lon="5.93116">
        <ele>575</ele>
        <time>2022-09-14T09:43:37Z</time>
      </trkpt>
      <trkpt lat="46.75153" lon="5.93062">
        <ele>574</ele>
        <time>2022-09-14T09:44:19Z</time>
      </trkpt>
      <trkpt lat="46.75119" lon="5.93004">
        <ele>572</ele>
        <time>2022-09-14T09:45:01Z</time>
      </trkpt>
      <trkpt lat="46.75113" lon="5.93011">
        <ele>571</ele>
        <time>2022-09-14T09:45:07Z</time>
      </trkpt>
      <trkpt lat="46.7512" lon="5.93022">
        <ele>571</ele>
        <time>2022-09-14T09:45:16Z</time>
      </trkpt>
      <trkpt lat="46.75175" lon="5.93107">
        <ele>574</ele>
        <time>2022-09-14T09:46:20Z</time>
      </trkpt>
      <trkpt lat="46.75199" lon="5.93154">
        <ele>574</ele>
        <time>2022-09-14T09:46:52Z</time>
      </trkpt>
      <trkpt lat="46.75205" lon="5.93148">
        <ele>575</ele>
        <time>2022-09-14T09:46:58Z</time>
      </trkpt>
      <trkpt lat="46.7519" lon="5.93116">
        <ele>575</ele>
        <time>2022-09-14T09:47:19Z</time>
      </trkpt>
      <trkpt lat="46.75153" lon="5.93062">
        <ele>574</ele>
        <time>2022-09-14T09:48:01Z</time>
      </trkpt>
      <trkpt lat="46.75119" lon="5.93004">
        <ele>572</ele>
        <time>2022-09-14T09:48:43Z</time>
      </trkpt>
      <trkpt lat="46.75075" lon="5.92928">
        <ele>568</ele>
        <time>2022-09-14T09:49:37Z</time>
      </trkpt>
      <trkpt lat="46.7506" lon="5.92905">
        <ele>568</ele>
        <time>2022-09-14T09:49:55Z</time>
      </trkpt>
      <trkpt lat="46.75016" lon="5.92826">
        <ele>565</ele>
        <time>2022-09-14T09:50:51Z</time>
      </trkpt>
      <trkpt lat="46.74726" lon="5.9226">
        <ele>546</ele>
        <time>2022-09-14T09:57:18Z</time>
      </trkpt>
      <trkpt lat="46.74718" lon="5.92233">
        <ele>545</ele>
        <time>2022-09-14T09:57:34Z</time>
      </trkpt>
      <trkpt lat="46.74716" lon="5.92212">
        <ele>544</ele>
        <time>2022-09-14T09:57:46Z</time>
      </trkpt>
      <trkpt lat="46.74717" lon="5.92201">
        <ele>544</ele>
        <time>2022-09-14T09:57:52Z</time>
      </trkpt>
      <trkpt lat="46.74724" lon="5.92184">
        <ele>544</ele>
        <time>2022-09-14T09:58:03Z</time>
      </trkpt>
      <trkpt lat="46.74732" lon="5.92172">
        <ele>543</ele>
        <time>2022-09-14T09:58:12Z</time>
      </trkpt>
      <trkpt lat="46.74752" lon="5.92158">
        <ele>543</ele>
        <time>2022-09-14T09:58:30Z</time>
      </trkpt>
      <trkpt lat="46.7476" lon="5.92144">
        <ele>543</ele>
        <time>2022-09-14T09:58:40Z</time>
      </trkpt>
      <trkpt lat="46.74762" lon="5.92136">
        <ele>543</ele>
        <time>2022-09-14T09:58:45Z</time>
      </trkpt>
      <trkpt lat="46.74786" lon="5.91948">
        <ele>542</ele>
        <time>2022-09-14T10:00:30Z</time>
      </trkpt>
      <trkpt lat="46.74813" lon="5.91705">
        <ele>542</ele>
        <time>2022-09-14T10:02:45Z</time>
      </trkpt>
      <trkpt lat="46.74814" lon="5.91676">
        <ele>542</ele>
        <time>2022-09-14T10:03:01Z</time>
      </trkpt>
      <trkpt lat="46.74811" lon="5.91653">
        <ele>542</ele>
        <time>2022-09-14T10:03:13Z</time>
      </trkpt>
      <trkpt lat="46.74792" lon="5.91574">
        <ele>540</ele>
        <time>2022-09-14T10:03:59Z</time>
      </trkpt>
      <trkpt lat="46.74788" lon="5.91547">
        <ele>540</ele>
        <time>2022-09-14T10:04:15Z</time>
      </trkpt>
      <trkpt lat="46.74788" lon="5.91493">
        <ele>539</ele>
        <time>2022-09-14T10:04:44Z</time>
      </trkpt>
      <trkpt lat="46.74787" lon="5.91475">
        <ele>539</ele>
        <time>2022-09-14T10:04:54Z</time>
      </trkpt>
      <trkpt lat="46.74782" lon="5.91458">
        <ele>539</ele>
        <time>2022-09-14T10:05:04Z</time>
      </trkpt>
      <trkpt lat="46.74798" lon="5.91435">
        <ele>539</ele>
        <time>2022-09-14T10:05:22Z</time>
      </trkpt>
      <trkpt lat="46.74824" lon="5.91407">
        <ele>540</ele>
        <time>2022-09-14T10:05:48Z</time>
      </trkpt>
      <trkpt lat="46.74835" lon="5.91388">
        <ele>540</ele>
        <time>2022-09-14T10:06:02Z</time>
      </trkpt>
      <trkpt lat="46.74968" lon="5.91065">
        <ele>540</ele>
        <time>2022-09-14T10:09:28Z</time>
      </trkpt>
      <trkpt lat="46.74989" lon="5.91017">
        <ele>540</ele>
        <time>2022-09-14T10:10:00Z</time>
      </trkpt>
      <trkpt lat="46.75006" lon="5.90997">
        <ele>540</ele>
        <time>2022-09-14T10:10:17Z</time>
      </trkpt>
      <trkpt lat="46.75009" lon="5.90996">
        <ele>540</ele>
        <time>2022-09-14T10:10:20Z</time>
      </trkpt>
      <trkpt lat="46.75014" lon="5.90989">
        <ele>540</ele>
        <time>2022-09-14T10:10:25Z</time>
      </trkpt>
      <trkpt lat="46.75015" lon="5.9098">
        <ele>540</ele>
        <time>2022-09-14T10:10:30Z</time>
      </trkpt>
      <trkpt lat="46.75011" lon="5.90971">
        <ele>540</ele>
        <time>2022-09-14T10:10:36Z</time>
      </trkpt>
      <trkpt lat="46.75006" lon="5.90939">
        <ele>541</ele>
        <time>2022-09-14T10:10:54Z</time>
      </trkpt>
      <trkpt lat="46.75012" lon="5.90895">
        <ele>541</ele>
        <time>2022-09-14T10:11:19Z</time>
      </trkpt>
      <trkpt lat="46.75023" lon="5.90854">
        <ele>540</ele>
        <time>2022-09-14T10:11:43Z</time>
      </trkpt>
      <trkpt lat="46.75051" lon="5.90792">
        <ele>540</ele>
        <time>2022-09-14T10:12:24Z</time>
      </trkpt>
      <trkpt lat="46.75066" lon="5.90771">
        <ele>540</ele>
        <time>2022-09-14T10:12:40Z</time>
      </trkpt>
      <trkpt lat="46.75105" lon="5.9073">
        <ele>542</ele>
        <time>2022-09-14T10:13:19Z</time>
      </trkpt>
      <trkpt lat="46.75117" lon="5.90713">
        <ele>542</ele>
        <time>2022-09-14T10:13:32Z</time>
      </trkpt>
      <trkpt lat="46.7512" lon="5.90705">
        <ele>542</ele>
        <time>2022-09-14T10:13:37Z</time>
      </trkpt>
      <trkpt lat="46.75121" lon="5.90693">
        <ele>542</ele>
        <time>2022-09-14T10:13:44Z</time>
      </trkpt>
      <trkpt lat="46.7531" lon="5.9067">
        <ele>544</ele>
        <time>2022-09-14T10:16:16Z</time>
      </trkpt>
      <trkpt lat="46.75438" lon="5.90657">
        <ele>542</ele>
        <time>2022-09-14T10:17:58Z</time>
      </trkpt>
      <trkpt lat="46.75745" lon="5.90619">
        <ele>543</ele>
        <time>2022-09-14T10:22:05Z</time>
      </trkpt>
      <trkpt lat="46.75894" lon="5.90603">
        <ele>544</ele>
        <time>2022-09-14T10:24:05Z</time>
      </trkpt>
      <trkpt lat="46.75909" lon="5.90606">
        <ele>544</ele>
        <time>2022-09-14T10:24:17Z</time>
      </trkpt>
      <trkpt lat="46.75924" lon="5.90614">
        <ele>544</ele>
        <time>2022-09-14T10:24:30Z</time>
      </trkpt>
      <trkpt lat="46.75932" lon="5.90625">
        <ele>545</ele>
        <time>2022-09-14T10:24:38Z</time>
      </trkpt>
      <trkpt lat="46.7594" lon="5.90627">
        <ele>545</ele>
        <time>2022-09-14T10:24:45Z</time>
      </trkpt>
      <trkpt lat="46.75947" lon="5.90627">
        <ele>545</ele>
        <time>2022-09-14T10:24:50Z</time>
      </trkpt>
      <trkpt lat="46.75954" lon="5.90622">
        <ele>545</ele>
        <time>2022-09-14T10:24:57Z</time>
      </trkpt>
      <trkpt lat="46.75958" lon="5.90616">
        <ele>545</ele>
        <time>2022-09-14T10:25:01Z</time>
      </trkpt>
      <trkpt lat="46.75962" lon="5.90607">
        <ele>545</ele>
        <time>2022-09-14T10:25:07Z</time>
      </trkpt>
      <trkpt lat="46.75963" lon="5.90599">
        <ele>545</ele>
        <time>2022-09-14T10:25:12Z</time>
      </trkpt>
      <trkpt lat="46.75962" lon="5.90586">
        <ele>544</ele>
        <time>2022-09-14T10:25:19Z</time>
      </trkpt>
      <trkpt lat="46.75956" lon="5.90573">
        <ele>544</ele>
        <time>2022-09-14T10:25:27Z</time>
      </trkpt>
      <trkpt lat="46.7595" lon="5.90567">
        <ele>544</ele>
        <time>2022-09-14T10:25:33Z</time>
      </trkpt>
      <trkpt lat="46.75938" lon="5.90544">
        <ele>544</ele>
        <time>2022-09-14T10:25:49Z</time>
      </trkpt>
      <trkpt lat="46.75934" lon="5.90531">
        <ele>544</ele>
        <time>2022-09-14T10:25:57Z</time>
      </trkpt>
      <trkpt lat="46.75902" lon="5.9026">
        <ele>539</ele>
        <time>2022-09-14T10:28:28Z</time>
      </trkpt>
      <trkpt lat="46.7588" lon="5.90102">
        <ele>537</ele>
        <time>2022-09-14T10:29:56Z</time>
      </trkpt>
      <trkpt lat="46.7587" lon="5.89996">
        <ele>537</ele>
        <time>2022-09-14T10:30:55Z</time>
      </trkpt>
      <trkpt lat="46.75837" lon="5.89762">
        <ele>536</ele>
        <time>2022-09-14T10:33:06Z</time>
      </trkpt>
      <trkpt lat="46.75826" lon="5.89702">
        <ele>536</ele>
        <time>2022-09-14T10:33:40Z</time>
      </trkpt>
      <trkpt lat="46.75723" lon="5.88946">
        <ele>534</ele>
        <time>2022-09-14T10:40:43Z</time>
      </trkpt>
      <trkpt lat="46.75713" lon="5.88887">
        <ele>534</ele>
        <time>2022-09-14T10:41:16Z</time>
      </trkpt>
      <trkpt lat="46.75699" lon="5.88828">
        <ele>535</ele>
        <time>2022-09-14T10:41:50Z</time>
      </trkpt>
      <trkpt lat="46.75646" lon="5.88649">
        <ele>535</ele>
        <time>2022-09-14T10:43:37Z</time>
      </trkpt>
      <trkpt lat="46.75644" lon="5.88629">
        <ele>535</ele>
        <time>2022-09-14T10:43:48Z</time>
      </trkpt>
      <trkpt lat="46.75645" lon="5.88614">
        <ele>535</ele>
        <time>2022-09-14T10:43:57Z</time>
      </trkpt>
      <trkpt lat="46.75649" lon="5.88606">
        <ele>535</ele>
        <time>2022-09-14T10:44:02Z</time>
      </trkpt>
      <trkpt lat="46.75649" lon="5.88593">
        <ele>535</ele>
        <time>2022-09-14T10:44:09Z</time>
      </trkpt>
      <trkpt lat="46.75646" lon="5.88584">
        <ele>535</ele>
        <time>2022-09-14T10:44:15Z</time>
      </trkpt>
      <trkpt lat="46.75639" lon="5.88575">
        <ele>536</ele>
        <time>2022-09-14T10:44:22Z</time>
      </trkpt>
      <trkpt lat="46.75623" lon="5.88532">
        <ele>537</ele>
        <time>2022-09-14T10:44:49Z</time>
      </trkpt>
      <trkpt lat="46.75614" lon="5.88477">
        <ele>537</ele>
        <time>2022-09-14T10:45:20Z</time>
      </trkpt>
      <trkpt lat="46.7561" lon="5.88411">
        <ele>537</ele>
        <time>2022-09-14T10:45:56Z</time>
      </trkpt>
      <trkpt lat="46.75615" lon="5.88149">
        <ele>538</ele>
        <time>2022-09-14T10:48:20Z</time>
      </trkpt>
      <trkpt lat="46.75586" lon="5.86925">
        <ele>530</ele>
        <time>2022-09-14T10:59:32Z</time>
      </trkpt>
      <trkpt lat="46.75585" lon="5.86893">
        <ele>531</ele>
        <time>2022-09-14T10:59:50Z</time>
      </trkpt>
      <trkpt lat="46.75582" lon="5.86714">
        <ele>542</ele>
        <time>2022-09-14T11:01:28Z</time>
      </trkpt>
      <trkpt lat="46.75595" lon="5.86191">
        <ele>561</ele>
        <time>2022-09-14T11:06:15Z</time>
      </trkpt>
      <trkpt lat="46.75598" lon="5.86121">
        <ele>558</ele>
        <time>2022-09-14T11:06:53Z</time>
      </trkpt>
      <trkpt lat="46.75604" lon="5.8608">
        <ele>557</ele>
        <time>2022-09-14T11:07:16Z</time>
      </trkpt>
      <trkpt lat="46.7561" lon="5.86058">
        <ele>557</ele>
        <time>2022-09-14T11:07:29Z</time>
      </trkpt>
      <trkpt lat="46.75648" lon="5.85929">
        <ele>559</ele>
        <time>2022-09-14T11:08:46Z</time>
      </trkpt>
      <trkpt lat="46.75665" lon="5.85863">
        <ele>558</ele>
        <time>2022-09-14T11:09:25Z</time>
      </trkpt>
      <trkpt lat="46.75668" lon="5.85843">
        <ele>557</ele>
        <time>2022-09-14T11:09:36Z</time>
      </trkpt>
      <trkpt lat="46.75672" lon="5.85789">
        <ele>554</ele>
        <time>2022-09-14T11:10:06Z</time>
      </trkpt>
      <trkpt lat="46.7567" lon="5.85543">
        <ele>549</ele>
        <time>2022-09-14T11:12:21Z</time>
      </trkpt>
      <trkpt lat="46.75667" lon="5.85495">
        <ele>548</ele>
        <time>2022-09-14T11:12:48Z</time>
      </trkpt>
      <trkpt lat="46.75662" lon="5.85464">
        <ele>549</ele>
        <time>2022-09-14T11:13:05Z</time>
      </trkpt>
      <trkpt lat="46.75651" lon="5.85427">
        <ele>550</ele>
        <time>2022-09-14T11:13:27Z</time>
      </trkpt>
      <trkpt lat="46.75547" lon="5.85151">
        <ele>555</ele>
        <time>2022-09-14T11:16:20Z</time>
      </trkpt>
      <trkpt lat="46.75534" lon="5.85118">
        <ele>556</ele>
        <time>2022-09-14T11:16:41Z</time>
      </trkpt>
      <trkpt lat="46.75521" lon="5.8509">
        <ele>556</ele>
        <time>2022-09-14T11:16:59Z</time>
      </trkpt>
      <trkpt lat="46.75505" lon="5.85062">
        <ele>557</ele>
        <time>2022-09-14T11:17:19Z</time>
      </trkpt>
      <trkpt lat="46.75488" lon="5.85039">
        <ele>559</ele>
        <time>2022-09-14T11:17:38Z</time>
      </trkpt>
      <trkpt lat="46.75471" lon="5.8502">
        <ele>560</ele>
        <time>2022-09-14T11:17:55Z</time>
      </trkpt>
      <trkpt lat="46.75445" lon="5.84999">
        <ele>558</ele>
        <time>2022-09-14T11:18:19Z</time>
      </trkpt>
      <trkpt lat="46.7538" lon="5.84951">
        <ele>557</ele>
        <time>2022-09-14T11:19:17Z</time>
      </trkpt>
      <trkpt lat="46.75366" lon="5.84938">
        <ele>556</ele>
        <time>2022-09-14T11:19:30Z</time>
      </trkpt>
      <trkpt lat="46.7534" lon="5.84903">
        <ele>554</ele>
        <time>2022-09-14T11:19:59Z</time>
      </trkpt>
      <trkpt lat="46.7532" lon="5.84865">
        <ele>555</ele>
        <time>2022-09-14T11:20:25Z</time>
      </trkpt>
      <trkpt lat="46.75312" lon="5.84845">
        <ele>556</ele>
        <time>2022-09-14T11:20:38Z</time>
      </trkpt>
      <trkpt lat="46.75298" lon="5.84785">
        <ele>558</ele>
        <time>2022-09-14T11:21:13Z</time>
      </trkpt>
      <trkpt lat="46.75165" lon="5.84003">
        <ele>542</ele>
        <time>2022-09-14T11:28:35Z</time>
      </trkpt>
      <trkpt lat="46.75163" lon="5.83951">
        <ele>540</ele>
        <time>2022-09-14T11:29:03Z</time>
      </trkpt>
      <trkpt lat="46.75173" lon="5.82708">
        <ele>535</ele>
        <time>2022-09-14T11:40:25Z</time>
      </trkpt>
      <trkpt lat="46.75177" lon="5.8237">
        <ele>532</ele>
        <time>2022-09-14T11:43:31Z</time>
      </trkpt>
      <trkpt lat="46.75179" lon="5.82314">
        <ele>532</ele>
        <time>2022-09-14T11:44:01Z</time>
      </trkpt>
      <trkpt lat="46.75183" lon="5.82282">
        <ele>532</ele>
        <time>2022-09-14T11:44:19Z</time>
      </trkpt>
      <trkpt lat="46.75193" lon="5.82236">
        <ele>533</ele>
        <time>2022-09-14T11:44:46Z</time>
      </trkpt>
      <trkpt lat="46.75203" lon="5.82204">
        <ele>533</ele>
        <time>2022-09-14T11:45:05Z</time>
      </trkpt>
      <trkpt lat="46.7522" lon="5.82162">
        <ele>533</ele>
        <time>2022-09-14T11:45:32Z</time>
      </trkpt>
      <trkpt lat="46.75232" lon="5.8214">
        <ele>532</ele>
        <time>2022-09-14T11:45:47Z</time>
      </trkpt>
      <trkpt lat="46.75359" lon="5.81947">
        <ele>529</ele>
        <time>2022-09-14T11:48:14Z</time>
      </trkpt>
      <trkpt lat="46.75377" lon="5.81912">
        <ele>529</ele>
        <time>2022-09-14T11:48:38Z</time>
      </trkpt>
      <trkpt lat="46.75384" lon="5.81881">
        <ele>528</ele>
        <time>2022-09-14T11:48:56Z</time>
      </trkpt>
      <trkpt lat="46.75385" lon="5.81845">
        <ele>528</ele>
        <time>2022-09-14T11:49:16Z</time>
      </trkpt>
      <trkpt lat="46.75383" lon="5.81828">
        <ele>527</ele>
        <time>2022-09-14T11:49:25Z</time>
      </trkpt>
      <trkpt lat="46.75374" lon="5.81798">
        <ele>527</ele>
        <time>2022-09-14T11:49:43Z</time>
      </trkpt>
      <trkpt lat="46.75411" lon="5.8173">
        <ele>526</ele>
        <time>2022-09-14T11:50:31Z</time>
      </trkpt>
      <trkpt lat="46.75408" lon="5.81726">
        <ele>526</ele>
        <time>2022-09-14T11:50:34Z</time>
      </trkpt>
      <trkpt lat="46.75383" lon="5.81675">
        <ele>526</ele>
        <time>2022-09-14T11:51:08Z</time>
      </trkpt>
      <trkpt lat="46.75376" lon="5.81655">
        <ele>526</ele>
        <time>2022-09-14T11:51:21Z</time>
      </trkpt>
      <trkpt lat="46.75374" lon="5.81641">
        <ele>526</ele>
        <time>2022-09-14T11:51:28Z</time>
      </trkpt>
      <trkpt lat="46.75373" lon="5.81595">
        <ele>527</ele>
        <time>2022-09-14T11:51:54Z</time>
      </trkpt>
      <trkpt lat="46.75381" lon="5.8154">
        <ele>527</ele>
        <time>2022-09-14T11:52:25Z</time>
      </trkpt>
      <trkpt lat="46.75385" lon="5.815">
        <ele>527</ele>
        <time>2022-09-14T11:52:47Z</time>
      </trkpt>
      <trkpt lat="46.75383" lon="5.81444">
        <ele>526</ele>
        <time>2022-09-14T11:53:17Z</time>
      </trkpt>
      <trkpt lat="46.75384" lon="5.81432">
        <ele>526</ele>
        <time>2022-09-14T11:53:24Z</time>
      </trkpt>
      <trkpt lat="46.75383" lon="5.81416">
        <ele>526</ele>
        <time>2022-09-14T11:53:33Z</time>
      </trkpt>
      <trkpt lat="46.75383" lon="5.81364">
        <ele>526</ele>
        <time>2022-09-14T11:54:01Z</time>
      </trkpt>
      <trkpt lat="46.7538" lon="5.81347">
        <ele>526</ele>
        <time>2022-09-14T11:54:11Z</time>
      </trkpt>
      <trkpt lat="46.75366" lon="5.81312">
        <ele>524</ele>
        <time>2022-09-14T11:54:33Z</time>
      </trkpt>
      <trkpt lat="46.75356" lon="5.81279">
        <ele>522</ele>
        <time>2022-09-14T11:54:53Z</time>
      </trkpt>
      <trkpt lat="46.75358" lon="5.81271">
        <ele>522</ele>
        <time>2022-09-14T11:54:58Z</time>
      </trkpt>
      <trkpt lat="46.75338" lon="5.8124">
        <ele>518</ele>
        <time>2022-09-14T11:55:21Z</time>
      </trkpt>
      <trkpt lat="46.75326" lon="5.81229">
        <ele>517</ele>
        <time>2022-09-14T11:55:32Z</time>
      </trkpt>
      <trkpt lat="46.75311" lon="5.81223">
        <ele>515</ele>
        <time>2022-09-14T11:55:45Z</time>
      </trkpt>
      <trkpt lat="46.75302" lon="5.81222">
        <ele>514</ele>
        <time>2022-09-14T11:55:52Z</time>
      </trkpt>
      <trkpt lat="46.75288" lon="5.81228">
        <ele>513</ele>
        <time>2022-09-14T11:56:04Z</time>
      </trkpt>
      <trkpt lat="46.75275" lon="5.81233">
        <ele>512</ele>
        <time>2022-09-14T11:56:15Z</time>
      </trkpt>
      <trkpt lat="46.75259" lon="5.81235">
        <ele>511</ele>
        <time>2022-09-14T11:56:27Z</time>
      </trkpt>
      <trkpt lat="46.75231" lon="5.8123">
        <ele>508</ele>
        <time>2022-09-14T11:56:50Z</time>
      </trkpt>
      <trkpt lat="46.75226" lon="5.81232">
        <ele>508</ele>
        <time>2022-09-14T11:56:54Z</time>
      </trkpt>
      <trkpt lat="46.75211" lon="5.81246">
        <ele>508</ele>
        <time>2022-09-14T11:57:08Z</time>
      </trkpt>
      <trkpt lat="46.75204" lon="5.81248">
        <ele>507</ele>
        <time>2022-09-14T11:57:14Z</time>
      </trkpt>
      <trkpt lat="46.75194" lon="5.81246">
        <ele>506</ele>
        <time>2022-09-14T11:57:22Z</time>
      </trkpt>
      <trkpt lat="46.75172" lon="5.81237">
        <ele>504</ele>
        <time>2022-09-14T11:57:41Z</time>
      </trkpt>
      <trkpt lat="46.75169" lon="5.81238">
        <ele>504</ele>
        <time>2022-09-14T11:57:43Z</time>
      </trkpt>
      <trkpt lat="46.7516" lon="5.81222">
        <ele>503</ele>
        <time>2022-09-14T11:57:54Z</time>
      </trkpt>
      <trkpt lat="46.75152" lon="5.81211">
        <ele>502</ele>
        <time>2022-09-14T11:58:03Z</time>
      </trkpt>
      <trkpt lat="46.75061" lon="5.81113">
        <ele>497</ele>
        <time>2022-09-14T11:59:34Z</time>
      </trkpt>
      <trkpt lat="46.75018" lon="5.81061">
        <ele>496</ele>
        <time>2022-09-14T12:00:18Z</time>
      </trkpt>
      <trkpt lat="46.74968" lon="5.80972">
        <ele>491</ele>
        <time>2022-09-14T12:01:22Z</time>
      </trkpt>
      <trkpt lat="46.74748" lon="5.80529">
        <ele>483</ele>
        <time>2022-09-14T12:06:22Z</time>
      </trkpt>
      <trkpt lat="46.74715" lon="5.80454">
        <ele>482</ele>
        <time>2022-09-14T12:07:11Z</time>
      </trkpt>
      <trkpt lat="46.74412" lon="5.79544">
        <ele>471</ele>
        <time>2022-09-14T12:16:26Z</time>
      </trkpt>
      <trkpt lat="46.74399" lon="5.79513">
        <ele>471</ele>
        <time>2022-09-14T12:16:46Z</time>
      </trkpt>
      <trkpt lat="46.74381" lon="5.7948">
        <ele>470</ele>
        <time>2022-09-14T12:17:09Z</time>
      </trkpt>
      <trkpt lat="46.74352" lon="5.79439">
        <ele>471</ele>
        <time>2022-09-14T12:17:41Z</time>
      </trkpt>
      <trkpt lat="46.7418" lon="5.79251">
        <ele>474</ele>
        <time>2022-09-14T12:20:33Z</time>
      </trkpt>
      <trkpt lat="46.74151" lon="5.79225">
        <ele>475</ele>
        <time>2022-09-14T12:21:00Z</time>
      </trkpt>
      <trkpt lat="46.74138" lon="5.79217">
        <ele>475</ele>
        <time>2022-09-14T12:21:12Z</time>
      </trkpt>
      <trkpt lat="46.74099" lon="5.79196">
        <ele>475</ele>
        <time>2022-09-14T12:21:45Z</time>
      </trkpt>
      <trkpt lat="46.73943" lon="5.79131">
        <ele>475</ele>
        <time>2022-09-14T12:23:55Z</time>
      </trkpt>
      <trkpt lat="46.73906" lon="5.79111">
        <ele>476</ele>
        <time>2022-09-14T12:24:27Z</time>
      </trkpt>
      <trkpt lat="46.73583" lon="5.78875">
        <ele>475</ele>
        <time>2022-09-14T12:29:16Z</time>
      </trkpt>
      <trkpt lat="46.73496" lon="5.78799">
        <ele>473</ele>
        <time>2022-09-14T12:30:37Z</time>
      </trkpt>
      <trkpt lat="46.73397" lon="5.78716">
        <ele>473</ele>
        <time>2022-09-14T12:32:08Z</time>
      </trkpt>
      <trkpt lat="46.73054" lon="5.78456">
        <ele>471</ele>
        <time>2022-09-14T12:37:18Z</time>
      </trkpt>
      <trkpt lat="46.73008" lon="5.78422">
        <ele>471</ele>
        <time>2022-09-14T12:37:59Z</time>
      </trkpt>
      <trkpt lat="46.72958" lon="5.78392">
        <ele>470</ele>
        <time>2022-09-14T12:38:42Z</time>
      </trkpt>
      <trkpt lat="46.72782" lon="5.78295">
        <ele>469</ele>
        <time>2022-09-14T12:41:13Z</time>
      </trkpt>
      <trkpt lat="46.72752" lon="5.78284">
        <ele>470</ele>
        <time>2022-09-14T12:41:38Z</time>
      </trkpt>
      <trkpt lat="46.72739" lon="5.78282">
        <ele>470</ele>
        <time>2022-09-14T12:41:48Z</time>
      </trkpt>
      <trkpt lat="46.72739" lon="5.78246">
        <ele>471</ele>
        <time>2022-09-14T12:42:08Z</time>
      </trkpt>
      <trkpt lat="46.72737" lon="5.78225">
        <ele>472</ele>
        <time>2022-09-14T12:42:20Z</time>
      </trkpt>
      <trkpt lat="46.72724" lon="5.78184">
        <ele>473</ele>
        <time>2022-09-14T12:42:45Z</time>
      </trkpt>
      <trkpt lat="46.72683" lon="5.7807">
        <ele>475</ele>
        <time>2022-09-14T12:43:55Z</time>
      </trkpt>
      <trkpt lat="46.72669" lon="5.78039">
        <ele>475</ele>
        <time>2022-09-14T12:44:16Z</time>
      </trkpt>
      <trkpt lat="46.72632" lon="5.77983">
        <ele>475</ele>
        <time>2022-09-14T12:44:58Z</time>
      </trkpt>
      <trkpt lat="46.72567" lon="5.77906">
        <ele>476</ele>
        <time>2022-09-14T12:46:05Z</time>
      </trkpt>
      <trkpt lat="46.72505" lon="5.77819">
        <ele>480</ele>
        <time>2022-09-14T12:47:14Z</time>
      </trkpt>
      <trkpt lat="46.72448" lon="5.77749">
        <ele>482</ele>
        <time>2022-09-14T12:48:14Z</time>
      </trkpt>
      <trkpt lat="46.72289" lon="5.77562">
        <ele>485</ele>
        <time>2022-09-14T12:50:57Z</time>
      </trkpt>
      <trkpt lat="46.71993" lon="5.77205">
        <ele>502</ele>
        <time>2022-09-14T12:56:05Z</time>
      </trkpt>
      <trkpt lat="46.71853" lon="5.77044">
        <ele>504</ele>
        <time>2022-09-14T12:58:28Z</time>
      </trkpt>
      <trkpt lat="46.71791" lon="5.76977">
        <ele>501</ele>
        <time>2022-09-14T12:59:29Z</time>
      </trkpt>
      <trkpt lat="46.71624" lon="5.76786">
        <ele>505</ele>
        <time>2022-09-14T13:02:19Z</time>
      </trkpt>
      <trkpt lat="46.71282" lon="5.76356">
        <ele>514</ele>
        <time>2022-09-14T13:08:21Z</time>
      </trkpt>
      <trkpt lat="46.71252" lon="5.76314">
        <ele>515</ele>
        <time>2022-09-14T13:08:54Z</time>
      </trkpt>
      <trkpt lat="46.71013" lon="5.75935">
        <ele>531</ele>
        <time>2022-09-14T13:13:37Z</time>
      </trkpt>
      <trkpt lat="46.70895" lon="5.75751">
        <ele>538</ele>
        <time>2022-09-14T13:15:55Z</time>
      </trkpt>
      <trkpt lat="46.70859" lon="5.75697">
        <ele>541</ele>
        <time>2022-09-14T13:16:36Z</time>
      </trkpt>
      <trkpt lat="46.70789" lon="5.75602">
        <ele>546</ele>
        <time>2022-09-14T13:17:53Z</time>
      </trkpt>
      <trkpt lat="46.70473" lon="5.75197">
        <ele>561</ele>
        <time>2022-09-14T13:23:30Z</time>
      </trkpt>
      <trkpt lat="46.70448" lon="5.75159">
        <ele>564</ele>
        <time>2022-09-14T13:23:59Z</time>
      </trkpt>
      <trkpt lat="46.70238" lon="5.74777">
        <ele>579</ele>
        <time>2022-09-14T13:28:28Z</time>
      </trkpt>
      <trkpt lat="46.70146" lon="5.74613">
        <ele>587</ele>
        <time>2022-09-14T13:30:24Z</time>
      </trkpt>
      <trkpt lat="46.70042" lon="5.7444">
        <ele>592</ele>
        <time>2022-09-14T13:32:30Z</time>
      </trkpt>
      <trkpt lat="46.69954" lon="5.74287">
        <ele>599</ele>
        <time>2022-09-14T13:34:20Z</time>
      </trkpt>
      <trkpt lat="46.69893" lon="5.74161">
        <ele>604</ele>
        <time>2022-09-14T13:35:45Z</time>
      </trkpt>
      <trkpt lat="46.69849" lon="5.74056">
        <ele>606</ele>
        <time>2022-09-14T13:36:52Z</time>
      </trkpt>
      <trkpt lat="46.69835" lon="5.74018">
        <ele>607</ele>
        <time>2022-09-14T13:37:16Z</time>
      </trkpt>
      <trkpt lat="46.6974" lon="5.73737">
        <ele>605</ele>
        <time>2022-09-14T13:40:08Z</time>
      </trkpt>
      <trkpt lat="46.69702" lon="5.73633">
        <ele>602</ele>
        <time>2022-09-14T13:41:13Z</time>
      </trkpt>
      <trkpt lat="46.6958" lon="5.73369">
        <ele>596</ele>
        <time>2022-09-14T13:44:07Z</time>
      </trkpt>
      <trkpt lat="46.69564" lon="5.73327">
        <ele>597</ele>
        <time>2022-09-14T13:44:34Z</time>
      </trkpt>
      <trkpt lat="46.69556" lon="5.733">
        <ele>597</ele>
        <time>2022-09-14T13:44:50Z</time>
      </trkpt>
      <trkpt lat="46.6955" lon="5.73269">
        <ele>596</ele>
        <time>2022-09-14T13:45:08Z</time>
      </trkpt>
      <trkpt lat="46.69543" lon="5.73201">
        <ele>595</ele>
        <time>2022-09-14T13:45:45Z</time>
      </trkpt>
      <trkpt lat="46.69543" lon="5.73178">
        <ele>595</ele>
        <time>2022-09-14T13:45:58Z</time>
      </trkpt>
      <trkpt lat="46.69546" lon="5.73137">
        <ele>594</ele>
        <time>2022-09-14T13:46:21Z</time>
      </trkpt>
      <trkpt lat="46.6955" lon="5.73103">
        <ele>594</ele>
        <time>2022-09-14T13:46:40Z</time>
      </trkpt>
      <trkpt lat="46.69558" lon="5.73065">
        <ele>593</ele>
        <time>2022-09-14T13:47:01Z</time>
      </trkpt>
      <trkpt lat="46.69578" lon="5.7301">
        <ele>591</ele>
        <time>2022-09-14T13:47:36Z</time>
      </trkpt>
      <trkpt lat="46.69606" lon="5.72938">
        <ele>587</ele>
        <time>2022-09-14T13:48:21Z</time>
      </trkpt>
      <trkpt lat="46.69635" lon="5.72837">
        <ele>585</ele>
        <time>2022-09-14T13:49:21Z</time>
      </trkpt>
      <trkpt lat="46.69653" lon="5.7276">
        <ele>584</ele>
        <time>2022-09-14T13:50:06Z</time>
      </trkpt>
      <trkpt lat="46.69665" lon="5.72679">
        <ele>583</ele>
        <time>2022-09-14T13:50:51Z</time>
      </trkpt>
      <trkpt lat="46.69666" lon="5.72644">
        <ele>584</ele>
        <time>2022-09-14T13:51:11Z</time>
      </trkpt>
      <trkpt lat="46.69656" lon="5.72494">
        <ele>585</ele>
        <time>2022-09-14T13:52:33Z</time>
      </trkpt>
      <trkpt lat="46.69646" lon="5.72413">
        <ele>581</ele>
        <time>2022-09-14T13:53:19Z</time>
      </trkpt>
      <trkpt lat="46.69639" lon="5.72273">
        <ele>576</ele>
        <time>2022-09-14T13:54:36Z</time>
      </trkpt>
      <trkpt lat="46.69631" lon="5.72188">
        <ele>574</ele>
        <time>2022-09-14T13:55:23Z</time>
      </trkpt>
      <trkpt lat="46.69609" lon="5.72043">
        <ele>567</ele>
        <time>2022-09-14T13:56:44Z</time>
      </trkpt>
      <trkpt lat="46.69585" lon="5.71916">
        <ele>565</ele>
        <time>2022-09-14T13:57:57Z</time>
      </trkpt>
      <trkpt lat="46.69553" lon="5.71817">
        <ele>565</ele>
        <time>2022-09-14T13:58:57Z</time>
      </trkpt>
      <trkpt lat="46.69548" lon="5.7179">
        <ele>565</ele>
        <time>2022-09-14T13:59:12Z</time>
      </trkpt>
      <trkpt lat="46.69532" lon="5.71509">
        <ele>562</ele>
        <time>2022-09-14T14:01:47Z</time>
      </trkpt>
      <trkpt lat="46.69514" lon="5.71266">
        <ele>561</ele>
        <time>2022-09-14T14:04:01Z</time>
      </trkpt>
      <trkpt lat="46.69511" lon="5.71243">
        <ele>560</ele>
        <time>2022-09-14T14:04:14Z</time>
      </trkpt>
      <trkpt lat="46.69498" lon="5.71181">
        <ele>559</ele>
        <time>2022-09-14T14:04:50Z</time>
      </trkpt>
      <trkpt lat="46.69485" lon="5.71143">
        <ele>558</ele>
        <time>2022-09-14T14:05:13Z</time>
      </trkpt>
      <trkpt lat="46.69455" lon="5.71063">
        <ele>557</ele>
        <time>2022-09-14T14:06:03Z</time>
      </trkpt>
      <trkpt lat="46.69443" lon="5.71016">
        <ele>556</ele>
        <time>2022-09-14T14:06:31Z</time>
      </trkpt>
      <trkpt lat="46.69434" lon="5.70967">
        <ele>555</ele>
        <time>2022-09-14T14:06:59Z</time>
      </trkpt>
      <trkpt lat="46.69421" lon="5.70854">
        <ele>553</ele>
        <time>2022-09-14T14:08:01Z</time>
      </trkpt>
      <trkpt lat="46.69387" lon="5.70608">
        <ele>553</ele>
        <time>2022-09-14T14:10:19Z</time>
      </trkpt>
      <trkpt lat="46.69378" lon="5.70516">
        <ele>556</ele>
        <time>2022-09-14T14:11:10Z</time>
      </trkpt>
      <trkpt lat="46.69371" lon="5.70388">
        <ele>561</ele>
        <time>2022-09-14T14:12:21Z</time>
      </trkpt>
      <trkpt lat="46.69357" lon="5.70053">
        <ele>562</ele>
        <time>2022-09-14T14:15:25Z</time>
      </trkpt>
      <trkpt lat="46.69325" lon="5.69424">
        <ele>553</ele>
        <time>2022-09-14T14:21:12Z</time>
      </trkpt>
      <trkpt lat="46.69315" lon="5.69367">
        <ele>552</ele>
        <time>2022-09-14T14:21:44Z</time>
      </trkpt>
      <trkpt lat="46.69291" lon="5.69272">
        <ele>549</ele>
        <time>2022-09-14T14:22:39Z</time>
      </trkpt>
      <trkpt lat="46.69287" lon="5.69235">
        <ele>547</ele>
        <time>2022-09-14T14:23:00Z</time>
      </trkpt>
      <trkpt lat="46.69284" lon="5.69154">
        <ele>544</ele>
        <time>2022-09-14T14:23:45Z</time>
      </trkpt>
      <trkpt lat="46.69284" lon="5.68909">
        <ele>533</ele>
        <time>2022-09-14T14:25:59Z</time>
      </trkpt>
      <trkpt lat="46.69283" lon="5.68874">
        <ele>532</ele>
        <time>2022-09-14T14:26:18Z</time>
      </trkpt>
      <trkpt lat="46.69279" lon="5.68841">
        <ele>531</ele>
        <time>2022-09-14T14:26:37Z</time>
      </trkpt>
      <trkpt lat="46.6924" lon="5.6866">
        <ele>526</ele>
        <time>2022-09-14T14:28:21Z</time>
      </trkpt>
      <trkpt lat="46.69202" lon="5.68491">
        <ele>521</ele>
        <time>2022-09-14T14:29:59Z</time>
      </trkpt>
      <trkpt lat="46.69173" lon="5.68402">
        <ele>519</ele>
        <time>2022-09-14T14:30:53Z</time>
      </trkpt>
      <trkpt lat="46.6911" lon="5.68176">
        <ele>512</ele>
        <time>2022-09-14T14:33:07Z</time>
      </trkpt>
      <trkpt lat="46.69101" lon="5.68125">
        <ele>513</ele>
        <time>2022-09-14T14:33:36Z</time>
      </trkpt>
      <trkpt lat="46.69045" lon="5.67666">
        <ele>517</ele>
        <time>2022-09-14T14:37:52Z</time>
      </trkpt>
      <trkpt lat="46.69019" lon="5.67476">
        <ele>517</ele>
        <time>2022-09-14T14:39:38Z</time>
      </trkpt>
      <trkpt lat="46.68973" lon="5.67199">
        <ele>519</ele>
        <time>2022-09-14T14:42:15Z</time>
      </trkpt>
      <trkpt lat="46.68889" lon="5.66732">
        <ele>516</ele>
        <time>2022-09-14T14:46:40Z</time>
      </trkpt>
      <trkpt lat="46.68875" lon="5.66637">
        <ele>513</ele>
        <time>2022-09-14T14:47:33Z</time>
      </trkpt>
      <trkpt lat="46.6887" lon="5.66579">
        <ele>513</ele>
        <time>2022-09-14T14:48:05Z</time>
      </trkpt>
      <trkpt lat="46.68871" lon="5.66571">
        <ele>513</ele>
        <time>2022-09-14T14:48:10Z</time>
      </trkpt>
      <trkpt lat="46.68874" lon="5.66561">
        <ele>513</ele>
        <time>2022-09-14T14:48:16Z</time>
      </trkpt>
      <trkpt lat="46.68874" lon="5.66553">
        <ele>513</ele>
        <time>2022-09-14T14:48:20Z</time>
      </trkpt>
      <trkpt lat="46.68871" lon="5.66545">
        <ele>513</ele>
        <time>2022-09-14T14:48:25Z</time>
      </trkpt>
      <trkpt lat="46.68867" lon="5.6654">
        <ele>513</ele>
        <time>2022-09-14T14:48:29Z</time>
      </trkpt>
      <trkpt lat="46.68864" lon="5.66519">
        <ele>512</ele>
        <time>2022-09-14T14:48:41Z</time>
      </trkpt>
      <trkpt lat="46.68862" lon="5.66469">
        <ele>513</ele>
        <time>2022-09-14T14:49:09Z</time>
      </trkpt>
      <trkpt lat="46.68852" lon="5.66308">
        <ele>514</ele>
        <time>2022-09-14T14:50:37Z</time>
      </trkpt>
      <trkpt lat="46.68823" lon="5.66017">
        <ele>513</ele>
        <time>2022-09-14T14:53:19Z</time>
      </trkpt>
      <trkpt lat="46.68805" lon="5.65802">
        <ele>512</ele>
        <time>2022-09-14T14:55:18Z</time>
      </trkpt>
      <trkpt lat="46.68768" lon="5.65446">
        <ele>514</ele>
        <time>2022-09-14T14:58:36Z</time>
      </trkpt>
      <trkpt lat="46.6869" lon="5.64814">
        <ele>510</ele>
        <time>2022-09-14T15:04:28Z</time>
      </trkpt>
      <trkpt lat="46.68605" lon="5.64122">
        <ele>503</ele>
        <time>2022-09-14T15:10:54Z</time>
      </trkpt>
      <trkpt lat="46.68594" lon="5.64058">
        <ele>504</ele>
        <time>2022-09-14T15:11:31Z</time>
      </trkpt>
      <trkpt lat="46.68581" lon="5.64001">
        <ele>506</ele>
        <time>2022-09-14T15:12:04Z</time>
      </trkpt>
      <trkpt lat="46.68568" lon="5.63958">
        <ele>507</ele>
        <time>2022-09-14T15:12:30Z</time>
      </trkpt>
      <trkpt lat="46.68546" lon="5.63899">
        <ele>508</ele>
        <time>2022-09-14T15:13:06Z</time>
      </trkpt>
      <trkpt lat="46.68518" lon="5.63831">
        <ele>508</ele>
        <time>2022-09-14T15:13:50Z</time>
      </trkpt>
      <trkpt lat="46.68503" lon="5.63799">
        <ele>508</ele>
        <time>2022-09-14T15:14:11Z</time>
      </trkpt>
      <trkpt lat="46.68485" lon="5.63768">
        <ele>507</ele>
        <time>2022-09-14T15:14:34Z</time>
      </trkpt>
      <trkpt lat="46.68437" lon="5.63699">
        <ele>505</ele>
        <time>2022-09-14T15:15:28Z</time>
      </trkpt>
      <trkpt lat="46.68398" lon="5.63653">
        <ele>505</ele>
        <time>2022-09-14T15:16:08Z</time>
      </trkpt>
      <trkpt lat="46.68356" lon="5.63606">
        <ele>507</ele>
        <time>2022-09-14T15:16:50Z</time>
      </trkpt>
      <trkpt lat="46.6793" lon="5.63172">
        <ele>527</ele>
        <time>2022-09-14T15:23:46Z</time>
      </trkpt>
      <trkpt lat="46.67888" lon="5.63125">
        <ele>528</ele>
        <time>2022-09-14T15:24:29Z</time>
      </trkpt>
      <trkpt lat="46.67854" lon="5.63076">
        <ele>531</ele>
        <time>2022-09-14T15:25:07Z</time>
      </trkpt>
      <trkpt lat="46.67837" lon="5.63044">
        <ele>532</ele>
        <time>2022-09-14T15:25:29Z</time>
      </trkpt>
      <trkpt lat="46.67816" lon="5.62991">
        <ele>535</ele>
        <time>2022-09-14T15:26:03Z</time>
      </trkpt>
      <trkpt lat="46.67807" lon="5.62954">
        <ele>537</ele>
        <time>2022-09-14T15:26:24Z</time>
      </trkpt>
      <trkpt lat="46.67802" lon="5.62923">
        <ele>538</ele>
        <time>2022-09-14T15:26:42Z</time>
      </trkpt>
      <trkpt lat="46.67799" lon="5.62894">
        <ele>538</ele>
        <time>2022-09-14T15:26:58Z</time>
      </trkpt>
      <trkpt lat="46.67798" lon="5.62864">
        <ele>538</ele>
        <time>2022-09-14T15:27:14Z</time>
      </trkpt>
      <trkpt lat="46.678" lon="5.62832">
        <ele>538</ele>
        <time>2022-09-14T15:27:32Z</time>
      </trkpt>
      <trkpt lat="46.67803" lon="5.62798">
        <ele>538</ele>
        <time>2022-09-14T15:27:51Z</time>
      </trkpt>
      <trkpt lat="46.67807" lon="5.62771">
        <ele>537</ele>
        <time>2022-09-14T15:28:06Z</time>
      </trkpt>
      <trkpt lat="46.67817" lon="5.62731">
        <ele>536</ele>
        <time>2022-09-14T15:28:29Z</time>
      </trkpt>
      <trkpt lat="46.67836" lon="5.6268">
        <ele>535</ele>
        <time>2022-09-14T15:29:01Z</time>
      </trkpt>
      <trkpt lat="46.679" lon="5.62562">
        <ele>538</ele>
        <time>2022-09-14T15:30:24Z</time>
      </trkpt>
      <trkpt lat="46.67959" lon="5.6244">
        <ele>543</ele>
        <time>2022-09-14T15:31:46Z</time>
      </trkpt>
      <trkpt lat="46.68146" lon="5.62085">
        <ele>548</ele>
        <time>2022-09-14T15:35:52Z</time>
      </trkpt>
      <trkpt lat="46.68182" lon="5.62027">
        <ele>547</ele>
        <time>2022-09-14T15:36:35Z</time>
      </trkpt>
      <trkpt lat="46.68229" lon="5.6196">
        <ele>546</ele>
        <time>2022-09-14T15:37:27Z</time>
      </trkpt>
      <trkpt lat="46.68462" lon="5.61646">
        <ele>533</ele>
        <time>2022-09-14T15:41:42Z</time>
      </trkpt>
      <trkpt lat="46.68486" lon="5.61616">
        <ele>531</ele>
        <time>2022-09-14T15:42:07Z</time>
      </trkpt>
      <trkpt lat="46.68591" lon="5.61508">
        <ele>522</ele>
        <time>2022-09-14T15:43:50Z</time>
      </trkpt>
      <trkpt lat="46.68626" lon="5.61465">
        <ele>521</ele>
        <time>2022-09-14T15:44:26Z</time>
      </trkpt>
      <trkpt lat="46.68649" lon="5.61432">
        <ele>520</ele>
        <time>2022-09-14T15:44:52Z</time>
      </trkpt>
      <trkpt lat="46.68773" lon="5.61223">
        <ele>510</ele>
        <time>2022-09-14T15:47:24Z</time>
      </trkpt>
      <trkpt lat="46.68792" lon="5.61193">
        <ele>510</ele>
        <time>2022-09-14T15:47:46Z</time>
      </trkpt>
      <trkpt lat="46.6881" lon="5.61169">
        <ele>509</ele>
        <time>2022-09-14T15:48:06Z</time>
      </trkpt>
      <trkpt lat="46.68853" lon="5.61124">
        <ele>507</ele>
        <time>2022-09-14T15:48:48Z</time>
      </trkpt>
      <trkpt lat="46.68886" lon="5.61097">
        <ele>506</ele>
        <time>2022-09-14T15:49:19Z</time>
      </trkpt>
      <trkpt lat="46.68929" lon="5.61073">
        <ele>504</ele>
        <time>2022-09-14T15:49:55Z</time>
      </trkpt>
      <trkpt lat="46.68967" lon="5.61059">
        <ele>504</ele>
        <time>2022-09-14T15:50:27Z</time>
      </trkpt>
      <trkpt lat="46.69055" lon="5.6103">
        <ele>497</ele>
        <time>2022-09-14T15:51:39Z</time>
      </trkpt>
      <trkpt lat="46.69094" lon="5.61012">
        <ele>494</ele>
        <time>2022-09-14T15:52:12Z</time>
      </trkpt>
      <trkpt lat="46.69116" lon="5.60998">
        <ele>493</ele>
        <time>2022-09-14T15:52:31Z</time>
      </trkpt>
      <trkpt lat="46.69145" lon="5.60975">
        <ele>493</ele>
        <time>2022-09-14T15:52:58Z</time>
      </trkpt>
      <trkpt lat="46.69164" lon="5.60957">
        <ele>492</ele>
        <time>2022-09-14T15:53:16Z</time>
      </trkpt>
      <trkpt lat="46.69221" lon="5.60894">
        <ele>491</ele>
        <time>2022-09-14T15:54:13Z</time>
      </trkpt>
      <trkpt lat="46.69248" lon="5.60869">
        <ele>488</ele>
        <time>2022-09-14T15:54:39Z</time>
      </trkpt>
      <trkpt lat="46.69278" lon="5.60848">
        <ele>486</ele>
        <time>2022-09-14T15:55:05Z</time>
      </trkpt>
      <trkpt lat="46.69315" lon="5.6083">
        <ele>483</ele>
        <time>2022-09-14T15:55:36Z</time>
      </trkpt>
      <trkpt lat="46.6942" lon="5.60785">
        <ele>481</ele>
        <time>2022-09-14T15:57:04Z</time>
      </trkpt>
      <trkpt lat="46.69443" lon="5.6077">
        <ele>478</ele>
        <time>2022-09-14T15:57:24Z</time>
      </trkpt>
      <trkpt lat="46.69484" lon="5.60729">
        <ele>472</ele>
        <time>2022-09-14T15:58:04Z</time>
      </trkpt>
      <trkpt lat="46.69557" lon="5.60643">
        <ele>461</ele>
        <time>2022-09-14T15:59:19Z</time>
      </trkpt>
      <trkpt lat="46.69573" lon="5.60619">
        <ele>459</ele>
        <time>2022-09-14T15:59:38Z</time>
      </trkpt>
      <trkpt lat="46.69587" lon="5.60589">
        <ele>458</ele>
        <time>2022-09-14T15:59:57Z</time>
      </trkpt>
      <trkpt lat="46.69628" lon="5.60486">
        <ele>455</ele>
        <time>2022-09-14T16:01:03Z</time>
      </trkpt>
      <trkpt lat="46.69647" lon="5.6045">
        <ele>453</ele>
        <time>2022-09-14T16:01:28Z</time>
      </trkpt>
      <trkpt lat="46.69662" lon="5.60432">
        <ele>452</ele>
        <time>2022-09-14T16:01:43Z</time>
      </trkpt>
      <trkpt lat="46.69681" lon="5.60414">
        <ele>450</ele>
        <time>2022-09-14T16:02:02Z</time>
      </trkpt>
      <trkpt lat="46.697" lon="5.60402">
        <ele>448</ele>
        <time>2022-09-14T16:02:18Z</time>
      </trkpt>
      <trkpt lat="46.69791" lon="5.60367">
        <ele>439</ele>
        <time>2022-09-14T16:03:33Z</time>
      </trkpt>
      <trkpt lat="46.69812" lon="5.60354">
        <ele>438</ele>
        <time>2022-09-14T16:03:52Z</time>
      </trkpt>
      <trkpt lat="46.6983" lon="5.60333">
        <ele>439</ele>
        <time>2022-09-14T16:04:10Z</time>
      </trkpt>
      <trkpt lat="46.69842" lon="5.60307">
        <ele>435</ele>
        <time>2022-09-14T16:04:27Z</time>
      </trkpt>
      <trkpt lat="46.69847" lon="5.60285">
        <ele>433</ele>
        <time>2022-09-14T16:04:40Z</time>
      </trkpt>
      <trkpt lat="46.69849" lon="5.60273">
        <ele>432</ele>
        <time>2022-09-14T16:04:47Z</time>
      </trkpt>
      <trkpt lat="46.69848" lon="5.60248">
        <ele>433</ele>
        <time>2022-09-14T16:05:01Z</time>
      </trkpt>
      <trkpt lat="46.69842" lon="5.60219">
        <ele>430</ele>
        <time>2022-09-14T16:05:17Z</time>
      </trkpt>
      <trkpt lat="46.69837" lon="5.60205">
        <ele>430</ele>
        <time>2022-09-14T16:05:26Z</time>
      </trkpt>
      <trkpt lat="46.69826" lon="5.60185">
        <ele>429</ele>
        <time>2022-09-14T16:05:40Z</time>
      </trkpt>
      <trkpt lat="46.69809" lon="5.60167">
        <ele>429</ele>
        <time>2022-09-14T16:05:57Z</time>
      </trkpt>
      <trkpt lat="46.69752" lon="5.60116">
        <ele>427</ele>
        <time>2022-09-14T16:06:50Z</time>
      </trkpt>
      <trkpt lat="46.69727" lon="5.60088">
        <ele>426</ele>
        <time>2022-09-14T16:07:16Z</time>
      </trkpt>
      <trkpt lat="46.69712" lon="5.60067">
        <ele>425</ele>
        <time>2022-09-14T16:07:32Z</time>
      </trkpt>
      <trkpt lat="46.69659" lon="5.59981">
        <ele>419</ele>
        <time>2022-09-14T16:08:36Z</time>
      </trkpt>
      <trkpt lat="46.69641" lon="5.59963">
        <ele>417</ele>
        <time>2022-09-14T16:08:53Z</time>
      </trkpt>
      <trkpt lat="46.69611" lon="5.59944">
        <ele>416</ele>
        <time>2022-09-14T16:09:19Z</time>
      </trkpt>
      <trkpt lat="46.69532" lon="5.59879">
        <ele>414</ele>
        <time>2022-09-14T16:10:32Z</time>
      </trkpt>
      <trkpt lat="46.69448" lon="5.59781">
        <ele>408</ele>
        <time>2022-09-14T16:11:58Z</time>
      </trkpt>
      <trkpt lat="46.6937" lon="5.59727">
        <ele>408</ele>
        <time>2022-09-14T16:13:07Z</time>
      </trkpt>
      <trkpt lat="46.69351" lon="5.59708">
        <ele>406</ele>
        <time>2022-09-14T16:13:26Z</time>
      </trkpt>
      <trkpt lat="46.69288" lon="5.59635">
        <ele>401</ele>
        <time>2022-09-14T16:14:30Z</time>
      </trkpt>
      <trkpt lat="46.6928" lon="5.59645">
        <ele>404</ele>
        <time>2022-09-14T16:14:39Z</time>
      </trkpt>
      <trkpt lat="46.69277" lon="5.59646">
        <ele>405</ele>
        <time>2022-09-14T16:14:41Z</time>
      </trkpt>
      <trkpt lat="46.69273" lon="5.59644">
        <ele>405</ele>
        <time>2022-09-14T16:14:45Z</time>
      </trkpt>
      <trkpt lat="46.69267" lon="5.59639">
        <ele>405</ele>
        <time>2022-09-14T16:14:50Z</time>
      </trkpt>
      <trkpt lat="46.6926" lon="5.59636">
        <ele>406</ele>
        <time>2022-09-14T16:14:56Z</time>
      </trkpt>
      <trkpt lat="46.69239" lon="5.5964">
        <ele>411</ele>
        <time>2022-09-14T16:15:13Z</time>
      </trkpt>
      <trkpt lat="46.69226" lon="5.5964">
        <ele>414</ele>
        <time>2022-09-14T16:15:23Z</time>
      </trkpt>
      <trkpt lat="46.69213" lon="5.59636">
        <ele>415</ele>
        <time>2022-09-14T16:15:34Z</time>
      </trkpt>
      <trkpt lat="46.69189" lon="5.59621">
        <ele>416</ele>
        <time>2022-09-14T16:15:55Z</time>
      </trkpt>
      <trkpt lat="46.69129" lon="5.59604">
        <ele>417</ele>
        <time>2022-09-14T16:16:44Z</time>
      </trkpt>
      <trkpt lat="46.69116" lon="5.59602">
        <ele>418</ele>
        <time>2022-09-14T16:16:54Z</time>
      </trkpt>
      <trkpt lat="46.6909" lon="5.5961">
        <ele>422</ele>
        <time>2022-09-14T16:17:16Z</time>
      </trkpt>
      <trkpt lat="46.69073" lon="5.59611">
        <ele>423</ele>
        <time>2022-09-14T16:17:29Z</time>
      </trkpt>
      <trkpt lat="46.69058" lon="5.59608">
        <ele>423</ele>
        <time>2022-09-14T16:17:41Z</time>
      </trkpt>
      <trkpt lat="46.69021" lon="5.59591">
        <ele>421</ele>
        <time>2022-09-14T16:18:12Z</time>
      </trkpt>
      <trkpt lat="46.68992" lon="5.59559">
        <ele>417</ele>
        <time>2022-09-14T16:18:41Z</time>
      </trkpt>
      <trkpt lat="46.68955" lon="5.59544">
        <ele>420</ele>
        <time>2022-09-14T16:19:12Z</time>
      </trkpt>
      <trkpt lat="46.68851" lon="5.59531">
        <ele>432</ele>
        <time>2022-09-14T16:20:36Z</time>
      </trkpt>
      <trkpt lat="46.68848" lon="5.59535">
        <ele>433</ele>
        <time>2022-09-14T16:20:39Z</time>
      </trkpt>
      <trkpt lat="46.6879" lon="5.59519">
        <ele>437</ele>
        <time>2022-09-14T16:21:26Z</time>
      </trkpt>
      <trkpt lat="46.68714" lon="5.59511">
        <ele>448</ele>
        <time>2022-09-14T16:22:27Z</time>
      </trkpt>
      <trkpt lat="46.68664" lon="5.59486">
        <ele>450</ele>
        <time>2022-09-14T16:23:10Z</time>
      </trkpt>
      <trkpt lat="46.68617" lon="5.59474">
        <ele>452</ele>
        <time>2022-09-14T16:23:48Z</time>
      </trkpt>
      <trkpt lat="46.6858" lon="5.5946">
        <ele>452</ele>
        <time>2022-09-14T16:24:18Z</time>
      </trkpt>
      <trkpt lat="46.68444" lon="5.59423">
        <ele>447</ele>
        <time>2022-09-14T16:26:09Z</time>
      </trkpt>
      <trkpt lat="46.68404" lon="5.59417">
        <ele>444</ele>
        <time>2022-09-14T16:26:41Z</time>
      </trkpt>
      <trkpt lat="46.68327" lon="5.59433">
        <ele>452</ele>
        <time>2022-09-14T16:27:44Z</time>
      </trkpt>
      <trkpt lat="46.68315" lon="5.59432">
        <ele>454</ele>
        <time>2022-09-14T16:27:53Z</time>
      </trkpt>
      <trkpt lat="46.68255" lon="5.59398">
        <ele>453</ele>
        <time>2022-09-14T16:28:45Z</time>
      </trkpt>
      <trkpt lat="46.68197" lon="5.5938">
        <ele>455</ele>
        <time>2022-09-14T16:29:32Z</time>
      </trkpt>
      <trkpt lat="46.68156" lon="5.5936">
        <ele>453</ele>
        <time>2022-09-14T16:30:07Z</time>
      </trkpt>
      <trkpt lat="46.68149" lon="5.59356">
        <ele>453</ele>
        <time>2022-09-14T16:30:13Z</time>
      </trkpt>
      <trkpt lat="46.68131" lon="5.59356">
        <ele>454</ele>
        <time>2022-09-14T16:30:27Z</time>
      </trkpt>
      <trkpt lat="46.68062" lon="5.59337">
        <ele>451</ele>
        <time>2022-09-14T16:31:24Z</time>
      </trkpt>
      <trkpt lat="46.68019" lon="5.59329">
        <ele>450</ele>
        <time>2022-09-14T16:31:58Z</time>
      </trkpt>
      <trkpt lat="46.6797" lon="5.59313">
        <ele>445</ele>
        <time>2022-09-14T16:32:38Z</time>
      </trkpt>
      <trkpt lat="46.67938" lon="5.59298">
        <ele>438</ele>
        <time>2022-09-14T16:33:05Z</time>
      </trkpt>
      <trkpt lat="46.67918" lon="5.59306">
        <ele>441</ele>
        <time>2022-09-14T16:33:22Z</time>
      </trkpt>
      <trkpt lat="46.67903" lon="5.59309">
        <ele>440</ele>
        <time>2022-09-14T16:33:34Z</time>
      </trkpt>
      <trkpt lat="46.67882" lon="5.59309">
        <ele>437</ele>
        <time>2022-09-14T16:33:51Z</time>
      </trkpt>
      <trkpt lat="46.67832" lon="5.59324">
        <ele>435</ele>
        <time>2022-09-14T16:34:32Z</time>
      </trkpt>
      <trkpt lat="46.67812" lon="5.59322">
        <ele>439</ele>
        <time>2022-09-14T16:34:48Z</time>
      </trkpt>
      <trkpt lat="46.67808" lon="5.59314">
        <ele>438</ele>
        <time>2022-09-14T16:34:53Z</time>
      </trkpt>
      <trkpt lat="46.678" lon="5.59285">
        <ele>430</ele>
        <time>2022-09-14T16:35:10Z</time>
      </trkpt>
      <trkpt lat="46.67801" lon="5.59239">
        <ele>417</ele>
        <time>2022-09-14T16:35:36Z</time>
      </trkpt>
      <trkpt lat="46.67798" lon="5.59212">
        <ele>411</ele>
        <time>2022-09-14T16:35:51Z</time>
      </trkpt>
      <trkpt lat="46.67776" lon="5.59121">
        <ele>398</ele>
        <time>2022-09-14T16:36:44Z</time>
      </trkpt>
      <trkpt lat="46.67771" lon="5.59057">
        <ele>390</ele>
        <time>2022-09-14T16:37:19Z</time>
      </trkpt>
      <trkpt lat="46.67764" lon="5.59032">
        <ele>388</ele>
        <time>2022-09-14T16:37:34Z</time>
      </trkpt>
      <trkpt lat="46.67754" lon="5.59007">
        <ele>385</ele>
        <time>2022-09-14T16:37:50Z</time>
      </trkpt>
      <trkpt lat="46.67732" lon="5.5897">
        <ele>380</ele>
        <time>2022-09-14T16:38:17Z</time>
      </trkpt>
      <trkpt lat="46.6772" lon="5.58934">
        <ele>373</ele>
        <time>2022-09-14T16:38:39Z</time>
      </trkpt>
      <trkpt lat="46.67703" lon="5.5889">
        <ele>367</ele>
        <time>2022-09-14T16:39:07Z</time>
      </trkpt>
      <trkpt lat="46.67689" lon="5.58869">
        <ele>363</ele>
        <time>2022-09-14T16:39:23Z</time>
      </trkpt>
      <trkpt lat="46.67657" lon="5.58834">
        <ele>357</ele>
        <time>2022-09-14T16:39:55Z</time>
      </trkpt>
      <trkpt lat="46.67648" lon="5.58818">
        <ele>355</ele>
        <time>2022-09-14T16:40:06Z</time>
      </trkpt>
      <trkpt lat="46.67644" lon="5.58788">
        <ele>351</ele>
        <time>2022-09-14T16:40:23Z</time>
      </trkpt>
      <trkpt lat="46.6764" lon="5.58782">
        <ele>350</ele>
        <time>2022-09-14T16:40:27Z</time>
      </trkpt>
      <trkpt lat="46.67626" lon="5.58775">
        <ele>349</ele>
        <time>2022-09-14T16:40:39Z</time>
      </trkpt>
      <trkpt lat="46.676" lon="5.58758">
        <ele>347</ele>
        <time>2022-09-14T16:41:02Z</time>
      </trkpt>
      <trkpt lat="46.67572" lon="5.587">
        <ele>338</ele>
        <time>2022-09-14T16:41:41Z</time>
      </trkpt>
      <trkpt lat="46.67553" lon="5.58648">
        <ele>332</ele>
        <time>2022-09-14T16:42:13Z</time>
      </trkpt>
      <trkpt lat="46.67548" lon="5.5864">
        <ele>331</ele>
        <time>2022-09-14T16:42:19Z</time>
      </trkpt>
      <trkpt lat="46.67541" lon="5.58637">
        <ele>331</ele>
        <time>2022-09-14T16:42:25Z</time>
      </trkpt>
      <trkpt lat="46.67503" lon="5.58633">
        <ele>331</ele>
        <time>2022-09-14T16:42:56Z</time>
      </trkpt>
      <trkpt lat="46.67327" lon="5.58626">
        <ele>333</ele>
        <time>2022-09-14T16:45:17Z</time>
      </trkpt>
      <trkpt lat="46.67286" lon="5.58634">
        <ele>334</ele>
        <time>2022-09-14T16:45:50Z</time>
      </trkpt>
      <trkpt lat="46.67245" lon="5.58637">
        <ele>334</ele>
        <time>2022-09-14T16:46:23Z</time>
      </trkpt>
      <trkpt lat="46.67204" lon="5.58647">
        <ele>336</ele>
        <time>2022-09-14T16:46:56Z</time>
      </trkpt>
      <trkpt lat="46.67195" lon="5.58647">
        <ele>337</ele>
        <time>2022-09-14T16:47:03Z</time>
      </trkpt>
      <trkpt lat="46.6719" lon="5.58636">
        <ele>335</ele>
        <time>2022-09-14T16:47:10Z</time>
      </trkpt>
      <trkpt lat="46.67182" lon="5.58595">
        <ele>330</ele>
        <time>2022-09-14T16:47:34Z</time>
      </trkpt>
      <trkpt lat="46.67185" lon="5.58588">
        <ele>329</ele>
        <time>2022-09-14T16:47:38Z</time>
      </trkpt>
      <trkpt lat="46.67195" lon="5.58578">
        <ele>327</ele>
        <time>2022-09-14T16:47:48Z</time>
      </trkpt>
      <trkpt lat="46.6719" lon="5.58539">
        <ele>324</ele>
        <time>2022-09-14T16:48:10Z</time>
      </trkpt>
      <trkpt lat="46.67183" lon="5.58503">
        <ele>321</ele>
        <time>2022-09-14T16:48:30Z</time>
      </trkpt>
      <trkpt lat="46.67177" lon="5.58447">
        <ele>315</ele>
        <time>2022-09-14T16:49:02Z</time>
      </trkpt>
      <trkpt lat="46.67186" lon="5.58353">
        <ele>306</ele>
        <time>2022-09-14T16:49:54Z</time>
      </trkpt>
      <trkpt lat="46.67189" lon="5.58343">
        <ele>305</ele>
        <time>2022-09-14T16:50:00Z</time>
      </trkpt>
      <trkpt lat="46.67193" lon="5.58333">
        <ele>304</ele>
        <time>2022-09-14T16:50:06Z</time>
      </trkpt>
      <trkpt lat="46.67179" lon="5.583">
        <ele>302</ele>
        <time>2022-09-14T16:50:27Z</time>
      </trkpt>
      <trkpt lat="46.67168" lon="5.58281">
        <ele>301</ele>
        <time>2022-09-14T16:50:41Z</time>
      </trkpt>
      <trkpt lat="46.67169" lon="5.58277">
        <ele>300</ele>
        <time>2022-09-14T16:50:43Z</time>
      </trkpt>
      <trkpt lat="46.67168" lon="5.58273">
        <ele>300</ele>
        <time>2022-09-14T16:50:46Z</time>
      </trkpt>
      <trkpt lat="46.67165" lon="5.58272">
        <ele>300</ele>
        <time>2022-09-14T16:50:48Z</time>
      </trkpt>
      <trkpt lat="46.67162" lon="5.58273">
        <ele>300</ele>
        <time>2022-09-14T16:50:51Z</time>
      </trkpt>
      <trkpt lat="46.67148" lon="5.5826">
        <ele>300</ele>
        <time>2022-09-14T16:51:04Z</time>
      </trkpt>
      <trkpt lat="46.67135" lon="5.58253">
        <ele>301</ele>
        <time>2022-09-14T16:51:15Z</time>
      </trkpt>
      <trkpt lat="46.6712" lon="5.58252">
        <ele>301</ele>
        <time>2022-09-14T16:51:27Z</time>
      </trkpt>
      <trkpt lat="46.67064" lon="5.58256">
        <ele>304</ele>
        <time>2022-09-14T16:52:12Z</time>
      </trkpt>
      <trkpt lat="46.67049" lon="5.58254">
        <ele>305</ele>
        <time>2022-09-14T16:52:24Z</time>
      </trkpt>
      <trkpt lat="46.67046" lon="5.5825">
        <ele>305</ele>
        <time>2022-09-14T16:52:27Z</time>
      </trkpt>
      <trkpt lat="46.67061" lon="5.58218">
        <ele>304</ele>
        <time>2022-09-14T16:52:49Z</time>
      </trkpt>
      <trkpt lat="46.6707" lon="5.58189">
        <ele>303</ele>
        <time>2022-09-14T16:53:06Z</time>
      </trkpt>
      <trkpt lat="46.67072" lon="5.58172">
        <ele>303</ele>
        <time>2022-09-14T16:53:16Z</time>
      </trkpt>
      <trkpt lat="46.67069" lon="5.57968">
        <ele>299</ele>
        <time>2022-09-14T16:55:08Z</time>
      </trkpt>
      <trkpt lat="46.67066" lon="5.57934">
        <ele>298</ele>
        <time>2022-09-14T16:55:26Z</time>
      </trkpt>
      <trkpt lat="46.67061" lon="5.57905">
        <ele>298</ele>
        <time>2022-09-14T16:55:43Z</time>
      </trkpt>
      <trkpt lat="46.67042" lon="5.57844">
        <ele>295</ele>
        <time>2022-09-14T16:56:20Z</time>
      </trkpt>
      <trkpt lat="46.67035" lon="5.57805">
        <ele>292</ele>
        <time>2022-09-14T16:56:42Z</time>
      </trkpt>
      <trkpt lat="46.67036" lon="5.57729">
        <ele>287</ele>
        <time>2022-09-14T16:57:24Z</time>
      </trkpt>
      <trkpt lat="46.67034" lon="5.57681">
        <ele>285</ele>
        <time>2022-09-14T16:57:50Z</time>
      </trkpt>
      <trkpt lat="46.67025" lon="5.57623">
        <ele>282</ele>
        <time>2022-09-14T16:58:23Z</time>
      </trkpt>
      <trkpt lat="46.6702" lon="5.57608">
        <ele>282</ele>
        <time>2022-09-14T16:58:32Z</time>
      </trkpt>
      <trkpt lat="46.66985" lon="5.57532">
        <ele>279</ele>
        <time>2022-09-14T16:59:22Z</time>
      </trkpt>
      <trkpt lat="46.66995" lon="5.57523">
        <ele>279</ele>
        <time>2022-09-14T16:59:32Z</time>
      </trkpt>
      <trkpt lat="46.66988" lon="5.57498">
        <ele>278</ele>
        <time>2022-09-14T16:59:46Z</time>
      </trkpt>
      <trkpt lat="46.66981" lon="5.57451">
        <ele>278</ele>
        <time>2022-09-14T17:00:13Z</time>
      </trkpt>
      <trkpt lat="46.66974" lon="5.5741">
        <ele>277</ele>
        <time>2022-09-14T17:00:36Z</time>
      </trkpt>
      <trkpt lat="46.66959" lon="5.57372">
        <ele>276</ele>
        <time>2022-09-14T17:01:00Z</time>
      </trkpt>
      <trkpt lat="46.66961" lon="5.57364">
        <ele>276</ele>
        <time>2022-09-14T17:01:05Z</time>
      </trkpt>
      <trkpt lat="46.6696" lon="5.57349">
        <ele>276</ele>
        <time>2022-09-14T17:01:13Z</time>
      </trkpt>
      <trkpt lat="46.66962" lon="5.57302">
        <ele>275</ele>
        <time>2022-09-14T17:01:39Z</time>
      </trkpt>
      <trkpt lat="46.66975" lon="5.57267">
        <ele>274</ele>
        <time>2022-09-14T17:02:01Z</time>
      </trkpt>
      <trkpt lat="46.66996" lon="5.57235">
        <ele>274</ele>
        <time>2022-09-14T17:02:25Z</time>
      </trkpt>
      <trkpt lat="46.67026" lon="5.57208">
        <ele>273</ele>
        <time>2022-09-14T17:02:53Z</time>
      </trkpt>
      <trkpt lat="46.67029" lon="5.57209">
        <ele>273</ele>
        <time>2022-09-14T17:02:56Z</time>
      </trkpt>
      <trkpt lat="46.67039" lon="5.57208">
        <ele>273</ele>
        <time>2022-09-14T17:03:04Z</time>
      </trkpt>
      <trkpt lat="46.67047" lon="5.57201">
        <ele>272</ele>
        <time>2022-09-14T17:03:11Z</time>
      </trkpt>
      <trkpt lat="46.67051" lon="5.57194">
        <ele>272</ele>
        <time>2022-09-14T17:03:16Z</time>
      </trkpt>
      <trkpt lat="46.67052" lon="5.57177">
        <ele>272</ele>
        <time>2022-09-14T17:03:26Z</time>
      </trkpt>
      <trkpt lat="46.67051" lon="5.57169">
        <ele>272</ele>
        <time>2022-09-14T17:03:30Z</time>
      </trkpt>
      <trkpt lat="46.67045" lon="5.57158">
        <ele>272</ele>
        <time>2022-09-14T17:03:38Z</time>
      </trkpt>
      <trkpt lat="46.67037" lon="5.57154">
        <ele>272</ele>
        <time>2022-09-14T17:03:45Z</time>
      </trkpt>
      <trkpt lat="46.67031" lon="5.57153">
        <ele>272</ele>
        <time>2022-09-14T17:03:49Z</time>
      </trkpt>
      <trkpt lat="46.67024" lon="5.57157">
        <ele>272</ele>
        <time>2022-09-14T17:03:56Z</time>
      </trkpt>
      <trkpt lat="46.67015" lon="5.57151">
        <ele>272</ele>
        <time>2022-09-14T17:04:03Z</time>
      </trkpt>
      <trkpt lat="46.67006" lon="5.57138">
        <ele>272</ele>
        <time>2022-09-14T17:04:14Z</time>
      </trkpt>
      <trkpt lat="46.6697" lon="5.57048">
        <ele>271</ele>
        <time>2022-09-14T17:05:11Z</time>
      </trkpt>
      <trkpt lat="46.66938" lon="5.56976">
        <ele>271</ele>
        <time>2022-09-14T17:05:58Z</time>
      </trkpt>
      <trkpt lat="46.669" lon="5.5687">
        <ele>274</ele>
        <time>2022-09-14T17:07:04Z</time>
      </trkpt>
      <trkpt lat="46.66867" lon="5.5675">
        <ele>273</ele>
        <time>2022-09-14T17:08:15Z</time>
      </trkpt>
      <trkpt lat="46.66849" lon="5.56656">
        <ele>269</ele>
        <time>2022-09-14T17:09:08Z</time>
      </trkpt>
      <trkpt lat="46.66842" lon="5.56583">
        <ele>269</ele>
        <time>2022-09-14T17:09:49Z</time>
      </trkpt>
      <trkpt lat="46.66841" lon="5.56545">
        <ele>269</ele>
        <time>2022-09-14T17:10:10Z</time>
      </trkpt>
      <trkpt lat="46.66841" lon="5.56483">
        <ele>270</ele>
        <time>2022-09-14T17:10:44Z</time>
      </trkpt>
      <trkpt lat="46.66845" lon="5.56432">
        <ele>271</ele>
        <time>2022-09-14T17:11:12Z</time>
      </trkpt>
      <trkpt lat="46.66854" lon="5.56358">
        <ele>271</ele>
        <time>2022-09-14T17:11:53Z</time>
      </trkpt>
      <trkpt lat="46.66874" lon="5.56254">
        <ele>272</ele>
        <time>2022-09-14T17:12:53Z</time>
      </trkpt>
      <trkpt lat="46.66912" lon="5.56093">
        <ele>270</ele>
        <time>2022-09-14T17:14:26Z</time>
      </trkpt>
      <trkpt lat="46.6692" lon="5.5605">
        <ele>270</ele>
        <time>2022-09-14T17:14:51Z</time>
      </trkpt>
      <trkpt lat="46.66922" lon="5.56043">
        <ele>270</ele>
        <time>2022-09-14T17:14:55Z</time>
      </trkpt>
      <trkpt lat="46.66962" lon="5.55831">
        <ele>269</ele>
        <time>2022-09-14T17:16:56Z</time>
      </trkpt>
      <trkpt lat="46.66967" lon="5.55782">
        <ele>268</ele>
        <time>2022-09-14T17:17:23Z</time>
      </trkpt>
      <trkpt lat="46.6697" lon="5.55712">
        <ele>268</ele>
        <time>2022-09-14T17:18:01Z</time>
      </trkpt>
      <trkpt lat="46.66969" lon="5.5568">
        <ele>269</ele>
        <time>2022-09-14T17:18:19Z</time>
      </trkpt>
      <trkpt lat="46.66962" lon="5.55605">
        <ele>269</ele>
        <time>2022-09-14T17:19:01Z</time>
      </trkpt>
      <trkpt lat="46.66958" lon="5.5558">
        <ele>269</ele>
        <time>2022-09-14T17:19:15Z</time>
      </trkpt>
      <trkpt lat="46.6693" lon="5.55453">
        <ele>266</ele>
        <time>2022-09-14T17:20:28Z</time>
      </trkpt>
      <trkpt lat="46.66924" lon="5.55411">
        <ele>265</ele>
        <time>2022-09-14T17:20:52Z</time>
      </trkpt>
      <trkpt lat="46.66905" lon="5.55218">
        <ele>266</ele>
        <time>2022-09-14T17:22:39Z</time>
      </trkpt>
      <trkpt lat="46.66893" lon="5.55073">
        <ele>267</ele>
        <time>2022-09-14T17:23:59Z</time>
      </trkpt>
      <trkpt lat="46.66892" lon="5.55055">
        <ele>267</ele>
        <time>2022-09-14T17:24:09Z</time>
      </trkpt>
      <trkpt lat="46.66895" lon="5.55004">
        <ele>265</ele>
        <time>2022-09-14T17:24:37Z</time>
      </trkpt>
      <trkpt lat="46.66922" lon="5.54763">
        <ele>264</ele>
        <time>2022-09-14T17:26:51Z</time>
      </trkpt>
      <trkpt lat="46.66927" lon="5.54736">
        <ele>264</ele>
        <time>2022-09-14T17:27:06Z</time>
      </trkpt>
      <trkpt lat="46.6693" lon="5.54725">
        <ele>264</ele>
        <time>2022-09-14T17:27:13Z</time>
      </trkpt>
      <trkpt lat="46.67032" lon="5.54576">
        <ele>260</ele>
        <time>2022-09-14T17:29:09Z</time>
      </trkpt>
      <trkpt lat="46.67229" lon="5.54302">
        <ele>254</ele>
        <time>2022-09-14T17:32:47Z</time>
      </trkpt>
      <trkpt lat="46.67249" lon="5.5428">
        <ele>253</ele>
        <time>2022-09-14T17:33:07Z</time>
      </trkpt>
      <trkpt lat="46.67255" lon="5.54284">
        <ele>253</ele>
        <time>2022-09-14T17:33:12Z</time>
      </trkpt>
      <trkpt lat="46.67264" lon="5.5427">
        <ele>253</ele>
        <time>2022-09-14T17:33:23Z</time>
      </trkpt>
      <trkpt lat="46.67262" lon="5.54263">
        <ele>253</ele>
        <time>2022-09-14T17:33:27Z</time>
      </trkpt>
      <trkpt lat="46.67266" lon="5.54253">
        <ele>253</ele>
        <time>2022-09-14T17:33:33Z</time>
      </trkpt>
      <trkpt lat="46.6727" lon="5.54231">
        <ele>253</ele>
        <time>2022-09-14T17:33:46Z</time>
      </trkpt>
      <trkpt lat="46.67323" lon="5.53866">
        <ele>249</ele>
        <time>2022-09-14T17:37:11Z</time>
      </trkpt>
      <trkpt lat="46.67323" lon="5.53686">
        <ele>249</ele>
        <time>2022-09-14T17:38:49Z</time>
      </trkpt>
      <trkpt lat="46.67324" lon="5.53633">
        <ele>249</ele>
        <time>2022-09-14T17:39:19Z</time>
      </trkpt>
      <trkpt lat="46.67328" lon="5.53579">
        <ele>248</ele>
        <time>2022-09-14T17:39:48Z</time>
      </trkpt>
      <trkpt lat="46.6737" lon="5.53174">
        <ele>252</ele>
        <time>2022-09-14T17:43:33Z</time>
      </trkpt>
      <trkpt lat="46.67372" lon="5.53126">
        <ele>253</ele>
        <time>2022-09-14T17:44:00Z</time>
      </trkpt>
      <trkpt lat="46.67371" lon="5.53104">
        <ele>254</ele>
        <time>2022-09-14T17:44:12Z</time>
      </trkpt>
      <trkpt lat="46.67361" lon="5.53044">
        <ele>255</ele>
        <time>2022-09-14T17:44:46Z</time>
      </trkpt>
      <trkpt lat="46.67339" lon="5.52976">
        <ele>255</ele>
        <time>2022-09-14T17:45:27Z</time>
      </trkpt>
      <trkpt lat="46.67318" lon="5.5294">
        <ele>256</ele>
        <time>2022-09-14T17:45:53Z</time>
      </trkpt>
      <trkpt lat="46.67295" lon="5.52913">
        <ele>255</ele>
        <time>2022-09-14T17:46:17Z</time>
      </trkpt>
      <trkpt lat="46.67271" lon="5.52892">
        <ele>255</ele>
        <time>2022-09-14T17:46:39Z</time>
      </trkpt>
      <trkpt lat="46.67106" lon="5.52779">
        <ele>257</ele>
        <time>2022-09-14T17:49:05Z</time>
      </trkpt>
      <trkpt lat="46.67078" lon="5.52752">
        <ele>257</ele>
        <time>2022-09-14T17:49:32Z</time>
      </trkpt>
      <trkpt lat="46.67035" lon="5.52721">
        <ele>257</ele>
        <time>2022-09-14T17:50:10Z</time>
      </trkpt>
      <trkpt lat="46.66969" lon="5.52683">
        <ele>257</ele>
        <time>2022-09-14T17:51:07Z</time>
      </trkpt>
      <trkpt lat="46.6694" lon="5.52672">
        <ele>258</ele>
        <time>2022-09-14T17:51:31Z</time>
      </trkpt>
      <trkpt lat="46.66893" lon="5.5266">
        <ele>259</ele>
        <time>2022-09-14T17:52:09Z</time>
      </trkpt>
      <trkpt lat="46.6683" lon="5.52633">
        <ele>260</ele>
        <time>2022-09-14T17:53:02Z</time>
      </trkpt>
      <trkpt lat="46.66734" lon="5.52575">
        <ele>259</ele>
        <time>2022-09-14T17:54:25Z</time>
      </trkpt>
      <trkpt lat="46.66721" lon="5.52565">
        <ele>259</ele>
        <time>2022-09-14T17:54:37Z</time>
      </trkpt>
      <trkpt lat="46.66702" lon="5.52546">
        <ele>259</ele>
        <time>2022-09-14T17:54:55Z</time>
      </trkpt>
      <trkpt lat="46.66695" lon="5.52537">
        <ele>259</ele>
        <time>2022-09-14T17:55:03Z</time>
      </trkpt>
      <trkpt lat="46.66693" lon="5.52527">
        <ele>259</ele>
        <time>2022-09-14T17:55:09Z</time>
      </trkpt>
      <trkpt lat="46.6669" lon="5.52516">
        <ele>259</ele>
        <time>2022-09-14T17:55:15Z</time>
      </trkpt>
      <trkpt lat="46.66685" lon="5.52506">
        <ele>259</ele>
        <time>2022-09-14T17:55:22Z</time>
      </trkpt>
      <trkpt lat="46.66678" lon="5.525">
        <ele>259</ele>
        <time>2022-09-14T17:55:28Z</time>
      </trkpt>
      <trkpt lat="46.6667" lon="5.52497">
        <ele>259</ele>
        <time>2022-09-14T17:55:35Z</time>
      </trkpt>
      <trkpt lat="46.66661" lon="5.52499">
        <ele>259</ele>
        <time>2022-09-14T17:55:42Z</time>
      </trkpt>
      <trkpt lat="46.66651" lon="5.5251">
        <ele>259</ele>
        <time>2022-09-14T17:55:52Z</time>
      </trkpt>
      <trkpt lat="46.66643" lon="5.52515">
        <ele>259</ele>
        <time>2022-09-14T17:55:59Z</time>
      </trkpt>
      <trkpt lat="46.66637" lon="5.52516">
        <ele>259</ele>
        <time>2022-09-14T17:56:04Z</time>
      </trkpt>
      <trkpt lat="46.66616" lon="5.52513">
        <ele>259</ele>
        <time>2022-09-14T17:56:21Z</time>
      </trkpt>
      <trkpt lat="46.66584" lon="5.52503">
        <ele>259</ele>
        <time>2022-09-14T17:56:47Z</time>
      </trkpt>
      <trkpt lat="46.66518" lon="5.52474">
        <ele>258</ele>
        <time>2022-09-14T17:57:43Z</time>
      </trkpt>
      <trkpt lat="46.66492" lon="5.52457">
        <ele>257</ele>
        <time>2022-09-14T17:58:05Z</time>
      </trkpt>
      <trkpt lat="46.66473" lon="5.52441">
        <ele>257</ele>
        <time>2022-09-14T17:58:23Z</time>
      </trkpt>
      <trkpt lat="46.66456" lon="5.52427">
        <ele>257</ele>
        <time>2022-09-14T17:58:39Z</time>
      </trkpt>
      <trkpt lat="46.66428" lon="5.52396">
        <ele>257</ele>
        <time>2022-09-14T17:59:07Z</time>
      </trkpt>
      <trkpt lat="46.66392" lon="5.52344">
        <ele>256</ele>
        <time>2022-09-14T17:59:47Z</time>
      </trkpt>
      <trkpt lat="46.66205" lon="5.52028">
        <ele>244</ele>
        <time>2022-09-14T18:03:37Z</time>
      </trkpt>
      <trkpt lat="46.66187" lon="5.51998">
        <ele>243</ele>
        <time>2022-09-14T18:03:58Z</time>
      </trkpt>
      <trkpt lat="46.66166" lon="5.51966">
        <ele>244</ele>
        <time>2022-09-14T18:04:23Z</time>
      </trkpt>
      <trkpt lat="46.66119" lon="5.51887">
        <ele>249</ele>
        <time>2022-09-14T18:05:20Z</time>
      </trkpt>
      <trkpt lat="46.661" lon="5.51861">
        <ele>250</ele>
        <time>2022-09-14T18:05:41Z</time>
      </trkpt>
      <trkpt lat="46.66002" lon="5.51749">
        <ele>251</ele>
        <time>2022-09-14T18:07:21Z</time>
      </trkpt>
      <trkpt lat="46.6586" lon="5.51598">
        <ele>252</ele>
        <time>2022-09-14T18:09:42Z</time>
      </trkpt>
      <trkpt lat="46.658" lon="5.51528">
        <ele>252</ele>
        <time>2022-09-14T18:10:43Z</time>
      </trkpt>
      <trkpt lat="46.65802" lon="5.5152">
        <ele>252</ele>
        <time>2022-09-14T18:10:48Z</time>
      </trkpt>
      <trkpt lat="46.658" lon="5.51509">
        <ele>252</ele>
        <time>2022-09-14T18:10:54Z</time>
      </trkpt>
      <trkpt lat="46.65796" lon="5.51506">
        <ele>252</ele>
        <time>2022-09-14T18:10:58Z</time>
      </trkpt>
      <trkpt lat="46.6579" lon="5.51505">
        <ele>252</ele>
        <time>2022-09-14T18:11:03Z</time>
      </trkpt>
      <trkpt lat="46.65784" lon="5.51512">
        <ele>252</ele>
        <time>2022-09-14T18:11:09Z</time>
      </trkpt>
      <trkpt lat="46.65683" lon="5.51398">
        <ele>250</ele>
        <time>2022-09-14T18:12:51Z</time>
      </trkpt>
      <trkpt lat="46.65419" lon="5.5111">
        <ele>251</ele>
        <time>2022-09-14T18:17:15Z</time>
      </trkpt>
      <trkpt lat="46.65353" lon="5.51042">
        <ele>257</ele>
        <time>2022-09-14T18:18:20Z</time>
      </trkpt>
      <trkpt lat="46.6528" lon="5.50962">
        <ele>257</ele>
        <time>2022-09-14T18:19:33Z</time>
      </trkpt>
      <trkpt lat="46.65283" lon="5.50951">
        <ele>257</ele>
        <time>2022-09-14T18:19:39Z</time>
      </trkpt>
      <trkpt lat="46.65284" lon="5.50939">
        <ele>256</ele>
        <time>2022-09-14T18:19:46Z</time>
      </trkpt>
      <trkpt lat="46.65282" lon="5.50928">
        <ele>256</ele>
        <time>2022-09-14T18:19:52Z</time>
      </trkpt>
      <trkpt lat="46.65274" lon="5.50915">
        <ele>255</ele>
        <time>2022-09-14T18:20:02Z</time>
      </trkpt>
      <trkpt lat="46.65263" lon="5.50909">
        <ele>255</ele>
        <time>2022-09-14T18:20:11Z</time>
      </trkpt>
      <trkpt lat="46.65252" lon="5.50911">
        <ele>256</ele>
        <time>2022-09-14T18:20:20Z</time>
      </trkpt>
      <trkpt lat="46.65247" lon="5.50915">
        <ele>256</ele>
        <time>2022-09-14T18:20:25Z</time>
      </trkpt>
      <trkpt lat="46.65239" lon="5.50928">
        <ele>256</ele>
        <time>2022-09-14T18:20:34Z</time>
      </trkpt>
      <trkpt lat="46.65225" lon="5.50922">
        <ele>256</ele>
        <time>2022-09-14T18:20:46Z</time>
      </trkpt>
      <trkpt lat="46.65015" lon="5.50792">
        <ele>260</ele>
        <time>2022-09-14T18:23:49Z</time>
      </trkpt>
      <trkpt lat="46.64874" lon="5.507">
        <ele>263</ele>
        <time>2022-09-14T18:25:52Z</time>
      </trkpt>
      <trkpt lat="46.64473" lon="5.50386">
        <ele>256</ele>
        <time>2022-09-14T18:31:57Z</time>
      </trkpt>
      <trkpt lat="46.64454" lon="5.50365">
        <ele>256</ele>
        <time>2022-09-14T18:32:16Z</time>
      </trkpt>
      <trkpt lat="46.64444" lon="5.50351">
        <ele>256</ele>
        <time>2022-09-14T18:32:27Z</time>
      </trkpt>
      <trkpt lat="46.64443" lon="5.50342">
        <ele>256</ele>
        <time>2022-09-14T18:32:32Z</time>
      </trkpt>
      <trkpt lat="46.64439" lon="5.50332">
        <ele>256</ele>
        <time>2022-09-14T18:32:39Z</time>
      </trkpt>
      <trkpt lat="46.64431" lon="5.50323">
        <ele>256</ele>
        <time>2022-09-14T18:32:47Z</time>
      </trkpt>
      <trkpt lat="46.64422" lon="5.50322">
        <ele>256</ele>
        <time>2022-09-14T18:32:54Z</time>
      </trkpt>
      <trkpt lat="46.64416" lon="5.50325">
        <ele>256</ele>
        <time>2022-09-14T18:32:59Z</time>
      </trkpt>
      <trkpt lat="46.64405" lon="5.50324">
        <ele>256</ele>
        <time>2022-09-14T18:33:08Z</time>
      </trkpt>
      <trkpt lat="46.64388" lon="5.50314">
        <ele>256</ele>
        <time>2022-09-14T18:33:22Z</time>
      </trkpt>
      <trkpt lat="46.64381" lon="5.50311">
        <ele>256</ele>
        <time>2022-09-14T18:33:28Z</time>
      </trkpt>
      <trkpt lat="46.64343" lon="5.50277">
        <ele>256</ele>
        <time>2022-09-14T18:34:04Z</time>
      </trkpt>
      <trkpt lat="46.64235" lon="5.50199">
        <ele>258</ele>
        <time>2022-09-14T18:35:40Z</time>
      </trkpt>
      <trkpt lat="46.64052" lon="5.50053">
        <ele>258</ele>
        <time>2022-09-14T18:38:28Z</time>
      </trkpt>
      <trkpt lat="46.63952" lon="5.49952">
        <ele>257</ele>
        <time>2022-09-14T18:40:05Z</time>
      </trkpt>
      <trkpt lat="46.63869" lon="5.49862">
        <ele>254</ele>
        <time>2022-09-14T18:41:28Z</time>
      </trkpt>
      <trkpt lat="46.63526" lon="5.49514">
        <ele>257</ele>
        <time>2022-09-14T18:47:03Z</time>
      </trkpt>
      <trkpt lat="46.63495" lon="5.49481">
        <ele>258</ele>
        <time>2022-09-14T18:47:33Z</time>
      </trkpt>
      <trkpt lat="46.6335" lon="5.49299">
        <ele>254</ele>
        <time>2022-09-14T18:50:07Z</time>
      </trkpt>
      <trkpt lat="46.63314" lon="5.4926">
        <ele>253</ele>
        <time>2022-09-14T18:50:42Z</time>
      </trkpt>
      <trkpt lat="46.63298" lon="5.49247">
        <ele>253</ele>
        <time>2022-09-14T18:50:57Z</time>
      </trkpt>
      <trkpt lat="46.6309" lon="5.4912">
        <ele>250</ele>
        <time>2022-09-14T18:53:58Z</time>
      </trkpt>
      <trkpt lat="46.62934" lon="5.49034">
        <ele>252</ele>
        <time>2022-09-14T18:56:11Z</time>
      </trkpt>
      <trkpt lat="46.62589" lon="5.48834">
        <ele>252</ele>
        <time>2022-09-14T19:01:09Z</time>
      </trkpt>
      <trkpt lat="46.62532" lon="5.488">
        <ele>252</ele>
        <time>2022-09-14T19:01:58Z</time>
      </trkpt>
      <trkpt lat="46.62429" lon="5.48734">
        <ele>249</ele>
        <time>2022-09-14T19:03:28Z</time>
      </trkpt>
      <trkpt lat="46.62402" lon="5.48714">
        <ele>248</ele>
        <time>2022-09-14T19:03:52Z</time>
      </trkpt>
      <trkpt lat="46.62381" lon="5.48697">
        <ele>247</ele>
        <time>2022-09-14T19:04:12Z</time>
      </trkpt>
      <trkpt lat="46.62295" lon="5.48616">
        <ele>243</ele>
        <time>2022-09-14T19:05:34Z</time>
      </trkpt>
      <trkpt lat="46.62028" lon="5.48355">
        <ele>233</ele>
        <time>2022-09-14T19:09:51Z</time>
      </trkpt>
      <trkpt lat="46.62013" lon="5.4834">
        <ele>233</ele>
        <time>2022-09-14T19:10:06Z</time>
      </trkpt>
      <trkpt lat="46.61775" lon="5.48109">
        <ele>231</ele>
        <time>2022-09-14T19:13:55Z</time>
      </trkpt>
      <trkpt lat="46.61428" lon="5.47764">
        <ele>231</ele>
        <time>2022-09-14T19:19:31Z</time>
      </trkpt>
      <trkpt lat="46.614" lon="5.47739">
        <ele>230</ele>
        <time>2022-09-14T19:19:57Z</time>
      </trkpt>
      <trkpt lat="46.61379" lon="5.47724">
        <ele>230</ele>
        <time>2022-09-14T19:20:16Z</time>
      </trkpt>
      <trkpt lat="46.61256" lon="5.47639">
        <ele>226</ele>
        <time>2022-09-14T19:22:05Z</time>
      </trkpt>
      <trkpt lat="46.61228" lon="5.47616">
        <ele>226</ele>
        <time>2022-09-14T19:22:31Z</time>
      </trkpt>
      <trkpt lat="46.60976" lon="5.47337">
        <ele>226</ele>
        <time>2022-09-14T19:26:44Z</time>
      </trkpt>
      <trkpt lat="46.60855" lon="5.47188">
        <ele>223</ele>
        <time>2022-09-14T19:28:51Z</time>
      </trkpt>
      <trkpt lat="46.60289" lon="5.46477">
        <ele>206</ele>
        <time>2022-09-14T19:38:50Z</time>
      </trkpt>
      <trkpt lat="46.60277" lon="5.46462">
        <ele>206</ele>
        <time>2022-09-14T19:39:03Z</time>
      </trkpt>
      <trkpt lat="46.59974" lon="5.46082">
        <ele>213</ele>
        <time>2022-09-14T19:44:23Z</time>
      </trkpt>
      <trkpt lat="46.59924" lon="5.46022">
        <ele>213</ele>
        <time>2022-09-14T19:45:15Z</time>
      </trkpt>
      <trkpt lat="46.59795" lon="5.45894">
        <ele>213</ele>
        <time>2022-09-14T19:47:20Z</time>
      </trkpt>
      <trkpt lat="46.59765" lon="5.45856">
        <ele>214</ele>
        <time>2022-09-14T19:47:52Z</time>
      </trkpt>
      <trkpt lat="46.59721" lon="5.45815">
        <ele>215</ele>
        <time>2022-09-14T19:48:33Z</time>
      </trkpt>
      <trkpt lat="46.59658" lon="5.45744">
        <ele>215</ele>
        <time>2022-09-14T19:49:37Z</time>
      </trkpt>
      <trkpt lat="46.59336" lon="5.45351">
        <ele>210</ele>
        <time>2022-09-14T19:55:14Z</time>
      </trkpt>
      <trkpt lat="46.5912" lon="5.45077">
        <ele>214</ele>
        <time>2022-09-14T19:59:03Z</time>
      </trkpt>
      <trkpt lat="46.58929" lon="5.44838">
        <ele>224</ele>
        <time>2022-09-14T20:02:25Z</time>
      </trkpt>
      <trkpt lat="46.58836" lon="5.44718">
        <ele>223</ele>
        <time>2022-09-14T20:04:04Z</time>
      </trkpt>
      <trkpt lat="46.58816" lon="5.44696">
        <ele>222</ele>
        <time>2022-09-14T20:04:24Z</time>
      </trkpt>
      <trkpt lat="46.58795" lon="5.44675">
        <ele>222</ele>
        <time>2022-09-14T20:04:45Z</time>
      </trkpt>
      <trkpt lat="46.58751" lon="5.4464">
        <ele>222</ele>
        <time>2022-09-14T20:05:25Z</time>
      </trkpt>
      <trkpt lat="46.58671" lon="5.44585">
        <ele>222</ele>
        <time>2022-09-14T20:06:36Z</time>
      </trkpt>
      <trkpt lat="46.58267" lon="5.44322">
        <ele>220</ele>
        <time>2022-09-14T20:12:30Z</time>
      </trkpt>
      <trkpt lat="46.57901" lon="5.44087">
        <ele>232</ele>
        <time>2022-09-14T20:17:50Z</time>
      </trkpt>
      <trkpt lat="46.57794" lon="5.4402">
        <ele>238</ele>
        <time>2022-09-14T20:19:24Z</time>
      </trkpt>
      <trkpt lat="46.5771" lon="5.43964">
        <ele>242</ele>
        <time>2022-09-14T20:20:38Z</time>
      </trkpt>
      <trkpt lat="46.57695" lon="5.43952">
        <ele>242</ele>
        <time>2022-09-14T20:20:51Z</time>
      </trkpt>
      <trkpt lat="46.57671" lon="5.43927">
        <ele>243</ele>
        <time>2022-09-14T20:21:15Z</time>
      </trkpt>
      <trkpt lat="46.57646" lon="5.43894">
        <ele>246</ele>
        <time>2022-09-14T20:21:42Z</time>
      </trkpt>
      <trkpt lat="46.57585" lon="5.43805">
        <ele>249</ele>
        <time>2022-09-14T20:22:51Z</time>
      </trkpt>
      <trkpt lat="46.5755" lon="5.43749">
        <ele>249</ele>
        <time>2022-09-14T20:23:33Z</time>
      </trkpt>
      <trkpt lat="46.57447" lon="5.43579">
        <ele>252</ele>
        <time>2022-09-14T20:25:38Z</time>
      </trkpt>
      <trkpt lat="46.57432" lon="5.43553">
        <ele>252</ele>
        <time>2022-09-14T20:25:56Z</time>
      </trkpt>
      <trkpt lat="46.57387" lon="5.43465">
        <ele>248</ele>
        <time>2022-09-14T20:26:57Z</time>
      </trkpt>
      <trkpt lat="46.57299" lon="5.43271">
        <ele>240</ele>
        <time>2022-09-14T20:29:05Z</time>
      </trkpt>
      <trkpt lat="46.57251" lon="5.43152">
        <ele>241</ele>
        <time>2022-09-14T20:30:21Z</time>
      </trkpt>
      <trkpt lat="46.57171" lon="5.42933">
        <ele>245</ele>
        <time>2022-09-14T20:32:37Z</time>
      </trkpt>
      <trkpt lat="46.57076" lon="5.4268">
        <ele>251</ele>
        <time>2022-09-14T20:35:16Z</time>
      </trkpt>
      <trkpt lat="46.56968" lon="5.42404">
        <ele>252</ele>
        <time>2022-09-14T20:38:11Z</time>
      </trkpt>
      <trkpt lat="46.56907" lon="5.42265">
        <ele>255</ele>
        <time>2022-09-14T20:39:41Z</time>
      </trkpt>
      <trkpt lat="46.56871" lon="5.42192">
        <ele>253</ele>
        <time>2022-09-14T20:40:31Z</time>
      </trkpt>
      <trkpt lat="46.56686" lon="5.41835">
        <ele>242</ele>
        <time>2022-09-14T20:44:37Z</time>
      </trkpt>
      <trkpt lat="46.56619" lon="5.41713">
        <ele>236</ele>
        <time>2022-09-14T20:46:03Z</time>
      </trkpt>
      <trkpt lat="46.56472" lon="5.41433">
        <ele>236</ele>
        <time>2022-09-14T20:49:17Z</time>
      </trkpt>
      <trkpt lat="46.56441" lon="5.41383">
        <ele>238</ele>
        <time>2022-09-14T20:49:54Z</time>
      </trkpt>
      <trkpt lat="46.56386" lon="5.41302">
        <ele>237</ele>
        <time>2022-09-14T20:50:56Z</time>
      </trkpt>
      <trkpt lat="46.56359" lon="5.41268">
        <ele>236</ele>
        <time>2022-09-14T20:51:25Z</time>
      </trkpt>
      <trkpt lat="46.56328" lon="5.41241">
        <ele>235</ele>
        <time>2022-09-14T20:51:54Z</time>
      </trkpt>
      <trkpt lat="46.56272" lon="5.41201">
        <ele>234</ele>
        <time>2022-09-14T20:52:44Z</time>
      </trkpt>
      <trkpt lat="46.56076" lon="5.41066">
        <ele>238</ele>
        <time>2022-09-14T20:55:38Z</time>
      </trkpt>
      <trkpt lat="46.55991" lon="5.4099">
        <ele>238</ele>
        <time>2022-09-14T20:56:57Z</time>
      </trkpt>
      <trkpt lat="46.55924" lon="5.40935">
        <ele>240</ele>
        <time>2022-09-14T20:57:59Z</time>
      </trkpt>
      <trkpt lat="46.55794" lon="5.4084">
        <ele>239</ele>
        <time>2022-09-14T20:59:56Z</time>
      </trkpt>
      <trkpt lat="46.55731" lon="5.40799">
        <ele>239</ele>
        <time>2022-09-14T21:00:51Z</time>
      </trkpt>
      <trkpt lat="46.55649" lon="5.40752">
        <ele>240</ele>
        <time>2022-09-14T21:02:01Z</time>
      </trkpt>
      <trkpt lat="46.5559" lon="5.40709">
        <ele>238</ele>
        <time>2022-09-14T21:02:54Z</time>
      </trkpt>
      <trkpt lat="46.55548" lon="5.40669">
        <ele>237</ele>
        <time>2022-09-14T21:03:34Z</time>
      </trkpt>
      <trkpt lat="46.55397" lon="5.40493">
        <ele>232</ele>
        <time>2022-09-14T21:06:09Z</time>
      </trkpt>
      <trkpt lat="46.55354" lon="5.40452">
        <ele>237</ele>
        <time>2022-09-14T21:06:51Z</time>
      </trkpt>
      <trkpt lat="46.55295" lon="5.40409">
        <ele>243</ele>
        <time>2022-09-14T21:07:43Z</time>
      </trkpt>
      <trkpt lat="46.55267" lon="5.40394">
        <ele>245</ele>
        <time>2022-09-14T21:08:07Z</time>
      </trkpt>
      <trkpt lat="46.55229" lon="5.40379">
        <ele>250</ele>
        <time>2022-09-14T21:08:39Z</time>
      </trkpt>
      <trkpt lat="46.5506" lon="5.40314">
        <ele>263</ele>
        <time>2022-09-14T21:10:59Z</time>
      </trkpt>
      <trkpt lat="46.5499" lon="5.4028">
        <ele>263</ele>
        <time>2022-09-14T21:11:58Z</time>
      </trkpt>
      <trkpt lat="46.54941" lon="5.40252">
        <ele>261</ele>
        <time>2022-09-14T21:12:40Z</time>
      </trkpt>
      <trkpt lat="46.54873" lon="5.40209">
        <ele>263</ele>
        <time>2022-09-14T21:13:39Z</time>
      </trkpt>
      <trkpt lat="46.54523" lon="5.39952">
        <ele>268</ele>
        <time>2022-09-14T21:18:53Z</time>
      </trkpt>
      <trkpt lat="46.54441" lon="5.39902">
        <ele>265</ele>
        <time>2022-09-14T21:20:05Z</time>
      </trkpt>
      <trkpt lat="46.54256" lon="5.39805">
        <ele>262</ele>
        <time>2022-09-14T21:22:42Z</time>
      </trkpt>
      <trkpt lat="46.54197" lon="5.39783">
        <ele>262</ele>
        <time>2022-09-14T21:23:31Z</time>
      </trkpt>
      <trkpt lat="46.54109" lon="5.39758">
        <ele>262</ele>
        <time>2022-09-14T21:24:43Z</time>
      </trkpt>
      <trkpt lat="46.54052" lon="5.39748">
        <ele>262</ele>
        <time>2022-09-14T21:25:29Z</time>
      </trkpt>
      <trkpt lat="46.52946" lon="5.39606">
        <ele>241</ele>
        <time>2022-09-14T21:40:18Z</time>
      </trkpt>
      <trkpt lat="46.52892" lon="5.39593">
        <ele>235</ele>
        <time>2022-09-14T21:41:01Z</time>
      </trkpt>
      <trkpt lat="46.52845" lon="5.39579">
        <ele>229</ele>
        <time>2022-09-14T21:41:40Z</time>
      </trkpt>
      <trkpt lat="46.52792" lon="5.39554">
        <ele>234</ele>
        <time>2022-09-14T21:42:24Z</time>
      </trkpt>
      <trkpt lat="46.52743" lon="5.39516">
        <ele>238</ele>
        <time>2022-09-14T21:43:09Z</time>
      </trkpt>
      <trkpt lat="46.52689" lon="5.3947">
        <ele>240</ele>
        <time>2022-09-14T21:43:59Z</time>
      </trkpt>
      <trkpt lat="46.52655" lon="5.39434">
        <ele>241</ele>
        <time>2022-09-14T21:44:33Z</time>
      </trkpt>
      <trkpt lat="46.52597" lon="5.39365">
        <ele>243</ele>
        <time>2022-09-14T21:45:33Z</time>
      </trkpt>
      <trkpt lat="46.52548" lon="5.39296">
        <ele>244</ele>
        <time>2022-09-14T21:46:27Z</time>
      </trkpt>
      <trkpt lat="46.52454" lon="5.39156">
        <ele>244</ele>
        <time>2022-09-14T21:48:15Z</time>
      </trkpt>
      <trkpt lat="46.5241" lon="5.39096">
        <ele>248</ele>
        <time>2022-09-14T21:49:03Z</time>
      </trkpt>
      <trkpt lat="46.52368" lon="5.39046">
        <ele>250</ele>
        <time>2022-09-14T21:49:47Z</time>
      </trkpt>
      <trkpt lat="46.52326" lon="5.39004">
        <ele>250</ele>
        <time>2022-09-14T21:50:28Z</time>
      </trkpt>
      <trkpt lat="46.52285" lon="5.38968">
        <ele>247</ele>
        <time>2022-09-14T21:51:06Z</time>
      </trkpt>
      <trkpt lat="46.52216" lon="5.38923">
        <ele>246</ele>
        <time>2022-09-14T21:52:07Z</time>
      </trkpt>
      <trkpt lat="46.5218" lon="5.38906">
        <ele>246</ele>
        <time>2022-09-14T21:52:37Z</time>
      </trkpt>
      <trkpt lat="46.52134" lon="5.38887">
        <ele>245</ele>
        <time>2022-09-14T21:53:15Z</time>
      </trkpt>
      <trkpt lat="46.52071" lon="5.38872">
        <ele>245</ele>
        <time>2022-09-14T21:54:06Z</time>
      </trkpt>
      <trkpt lat="46.51993" lon="5.38864">
        <ele>247</ele>
        <time>2022-09-14T21:55:09Z</time>
      </trkpt>
      <trkpt lat="46.51667" lon="5.38854">
        <ele>261</ele>
        <time>2022-09-14T21:59:30Z</time>
      </trkpt>
      <trkpt lat="46.51466" lon="5.38834">
        <ele>255</ele>
        <time>2022-09-14T22:02:11Z</time>
      </trkpt>
      <trkpt lat="46.51371" lon="5.38832">
        <ele>258</ele>
        <time>2022-09-14T22:03:27Z</time>
      </trkpt>
      <trkpt lat="46.5124" lon="5.38826">
        <ele>262</ele>
        <time>2022-09-14T22:05:12Z</time>
      </trkpt>
      <trkpt lat="46.51159" lon="5.3882">
        <ele>260</ele>
        <time>2022-09-14T22:06:17Z</time>
      </trkpt>
      <trkpt lat="46.51125" lon="5.38815">
        <ele>259</ele>
        <time>2022-09-14T22:06:45Z</time>
      </trkpt>
      <trkpt lat="46.51039" lon="5.38799">
        <ele>256</ele>
        <time>2022-09-14T22:07:54Z</time>
      </trkpt>
      <trkpt lat="46.50811" lon="5.38744">
        <ele>257</ele>
        <time>2022-09-14T22:10:59Z</time>
      </trkpt>
      <trkpt lat="46.50663" lon="5.38713">
        <ele>255</ele>
        <time>2022-09-14T22:12:59Z</time>
      </trkpt>
      <trkpt lat="46.50566" lon="5.38685">
        <ele>255</ele>
        <time>2022-09-14T22:14:18Z</time>
      </trkpt>
      <trkpt lat="46.50516" lon="5.38668">
        <ele>258</ele>
        <time>2022-09-14T22:14:59Z</time>
      </trkpt>
      <trkpt lat="46.50434" lon="5.3863">
        <ele>265</ele>
        <time>2022-09-14T22:16:08Z</time>
      </trkpt>
      <trkpt lat="46.5038" lon="5.386">
        <ele>266</ele>
        <time>2022-09-14T22:16:54Z</time>
      </trkpt>
      <trkpt lat="46.50325" lon="5.38566">
        <ele>265</ele>
        <time>2022-09-14T22:17:42Z</time>
      </trkpt>
      <trkpt lat="46.50288" lon="5.38539">
        <ele>265</ele>
        <time>2022-09-14T22:18:15Z</time>
      </trkpt>
      <trkpt lat="46.50214" lon="5.38476">
        <ele>263</ele>
        <time>2022-09-14T22:19:24Z</time>
      </trkpt>
      <trkpt lat="46.5015" lon="5.38416">
        <ele>261</ele>
        <time>2022-09-14T22:20:25Z</time>
      </trkpt>
      <trkpt lat="46.50109" lon="5.38373">
        <ele>260</ele>
        <time>2022-09-14T22:21:05Z</time>
      </trkpt>
      <trkpt lat="46.49933" lon="5.38157">
        <ele>259</ele>
        <time>2022-09-14T22:24:10Z</time>
      </trkpt>
      <trkpt lat="46.49869" lon="5.38085">
        <ele>262</ele>
        <time>2022-09-14T22:25:15Z</time>
      </trkpt>
      <trkpt lat="46.49837" lon="5.38052">
        <ele>263</ele>
        <time>2022-09-14T22:25:46Z</time>
      </trkpt>
      <trkpt lat="46.49793" lon="5.38011">
        <ele>265</ele>
        <time>2022-09-14T22:26:28Z</time>
      </trkpt>
      <trkpt lat="46.49745" lon="5.3797">
        <ele>264</ele>
        <time>2022-09-14T22:27:13Z</time>
      </trkpt>
      <trkpt lat="46.49678" lon="5.37921">
        <ele>262</ele>
        <time>2022-09-14T22:28:13Z</time>
      </trkpt>
      <trkpt lat="46.49607" lon="5.37877">
        <ele>259</ele>
        <time>2022-09-14T22:29:14Z</time>
      </trkpt>
      <trkpt lat="46.49575" lon="5.37859">
        <ele>257</ele>
        <time>2022-09-14T22:29:42Z</time>
      </trkpt>
      <trkpt lat="46.49504" lon="5.37826">
        <ele>257</ele>
        <time>2022-09-14T22:30:42Z</time>
      </trkpt>
      <trkpt lat="46.49418" lon="5.37794">
        <ele>257</ele>
        <time>2022-09-14T22:31:53Z</time>
      </trkpt>
      <trkpt lat="46.49268" lon="5.37746">
        <ele>250</ele>
        <time>2022-09-14T22:33:56Z</time>
      </trkpt>
      <trkpt lat="46.49177" lon="5.37709">
        <ele>246</ele>
        <time>2022-09-14T22:35:11Z</time>
      </trkpt>
      <trkpt lat="46.49124" lon="5.37683">
        <ele>245</ele>
        <time>2022-09-14T22:35:56Z</time>
      </trkpt>
      <trkpt lat="46.4909" lon="5.37663">
        <ele>245</ele>
        <time>2022-09-14T22:36:26Z</time>
      </trkpt>
      <trkpt lat="46.48989" lon="5.37592">
        <ele>244</ele>
        <time>2022-09-14T22:37:55Z</time>
      </trkpt>
      <trkpt lat="46.48939" lon="5.37551">
        <ele>244</ele>
        <time>2022-09-14T22:38:41Z</time>
      </trkpt>
      <trkpt lat="46.4888" lon="5.37498">
        <ele>247</ele>
        <time>2022-09-14T22:39:37Z</time>
      </trkpt>
      <trkpt lat="46.48819" lon="5.37434">
        <ele>248</ele>
        <time>2022-09-14T22:40:37Z</time>
      </trkpt>
      <trkpt lat="46.4865" lon="5.37234">
        <ele>250</ele>
        <time>2022-09-14T22:43:32Z</time>
      </trkpt>
      <trkpt lat="46.48593" lon="5.37174">
        <ele>252</ele>
        <time>2022-09-14T22:44:28Z</time>
      </trkpt>
      <trkpt lat="46.48515" lon="5.37083">
        <ele>254</ele>
        <time>2022-09-14T22:45:48Z</time>
      </trkpt>
      <trkpt lat="46.48403" lon="5.36934">
        <ele>261</ele>
        <time>2022-09-14T22:47:50Z</time>
      </trkpt>
      <trkpt lat="46.48153" lon="5.36641">
        <ele>248</ele>
        <time>2022-09-14T22:52:07Z</time>
      </trkpt>
      <trkpt lat="46.48021" lon="5.36482">
        <ele>252</ele>
        <time>2022-09-14T22:54:24Z</time>
      </trkpt>
      <trkpt lat="46.47974" lon="5.3643">
        <ele>257</ele>
        <time>2022-09-14T22:55:12Z</time>
      </trkpt>
      <trkpt lat="46.47933" lon="5.36391">
        <ele>260</ele>
        <time>2022-09-14T22:55:51Z</time>
      </trkpt>
      <trkpt lat="46.47893" lon="5.3636">
        <ele>263</ele>
        <time>2022-09-14T22:56:27Z</time>
      </trkpt>
      <trkpt lat="46.47839" lon="5.36326">
        <ele>267</ele>
        <time>2022-09-14T22:57:14Z</time>
      </trkpt>
      <trkpt lat="46.47802" lon="5.36308">
        <ele>268</ele>
        <time>2022-09-14T22:57:46Z</time>
      </trkpt>
      <trkpt lat="46.47779" lon="5.36299">
        <ele>269</ele>
        <time>2022-09-14T22:58:05Z</time>
      </trkpt>
      <trkpt lat="46.47579" lon="5.36238">
        <ele>281</ele>
        <time>2022-09-14T23:00:48Z</time>
      </trkpt>
      <trkpt lat="46.47518" lon="5.36216">
        <ele>280</ele>
        <time>2022-09-14T23:01:39Z</time>
      </trkpt>
      <trkpt lat="46.47025" lon="5.35999">
        <ele>272</ele>
        <time>2022-09-14T23:08:31Z</time>
      </trkpt>
      <trkpt lat="46.47002" lon="5.35984">
        <ele>273</ele>
        <time>2022-09-14T23:08:51Z</time>
      </trkpt>
      <trkpt lat="46.4699" lon="5.35972">
        <ele>273</ele>
        <time>2022-09-14T23:09:03Z</time>
      </trkpt>
      <trkpt lat="46.46988" lon="5.35963">
        <ele>272</ele>
        <time>2022-09-14T23:09:08Z</time>
      </trkpt>
      <trkpt lat="46.46985" lon="5.35958">
        <ele>272</ele>
        <time>2022-09-14T23:09:12Z</time>
      </trkpt>
      <trkpt lat="46.46977" lon="5.35952">
        <ele>272</ele>
        <time>2022-09-14T23:09:19Z</time>
      </trkpt>
      <trkpt lat="46.46969" lon="5.35952">
        <ele>272</ele>
        <time>2022-09-14T23:09:25Z</time>
      </trkpt>
      <trkpt lat="46.46965" lon="5.35954">
        <ele>273</ele>
        <time>2022-09-14T23:09:29Z</time>
      </trkpt>
      <trkpt lat="46.4696" lon="5.35959">
        <ele>273</ele>
        <time>2022-09-14T23:09:34Z</time>
      </trkpt>
      <trkpt lat="46.46919" lon="5.35952">
        <ele>273</ele>
        <time>2022-09-14T23:10:07Z</time>
      </trkpt>
      <trkpt lat="46.46665" lon="5.35842">
        <ele>263</ele>
        <time>2022-09-14T23:13:39Z</time>
      </trkpt>
      <trkpt lat="46.46594" lon="5.3581">
        <ele>262</ele>
        <time>2022-09-14T23:14:38Z</time>
      </trkpt>
      <trkpt lat="46.46512" lon="5.35776">
        <ele>267</ele>
        <time>2022-09-14T23:15:47Z</time>
      </trkpt>
      <trkpt lat="46.46488" lon="5.35771">
        <ele>268</ele>
        <time>2022-09-14T23:16:06Z</time>
      </trkpt>
      <trkpt lat="46.46252" lon="5.35746">
        <ele>264</ele>
        <time>2022-09-14T23:19:16Z</time>
      </trkpt>
      <trkpt lat="46.46221" lon="5.35737">
        <ele>260</ele>
        <time>2022-09-14T23:19:41Z</time>
      </trkpt>
      <trkpt lat="46.46202" lon="5.35728">
        <ele>258</ele>
        <time>2022-09-14T23:19:57Z</time>
      </trkpt>
      <trkpt lat="46.4617" lon="5.35709">
        <ele>255</ele>
        <time>2022-09-14T23:20:25Z</time>
      </trkpt>
      <trkpt lat="46.46061" lon="5.35629">
        <ele>256</ele>
        <time>2022-09-14T23:22:02Z</time>
      </trkpt>
      <trkpt lat="46.45943" lon="5.35532">
        <ele>264</ele>
        <time>2022-09-14T23:23:51Z</time>
      </trkpt>
      <trkpt lat="46.4588" lon="5.35492">
        <ele>264</ele>
        <time>2022-09-14T23:24:46Z</time>
      </trkpt>
      <trkpt lat="46.45834" lon="5.35456">
        <ele>263</ele>
        <time>2022-09-14T23:25:28Z</time>
      </trkpt>
      <trkpt lat="46.45777" lon="5.35411">
        <ele>259</ele>
        <time>2022-09-14T23:26:20Z</time>
      </trkpt>
      <trkpt lat="46.45702" lon="5.35341">
        <ele>255</ele>
        <time>2022-09-14T23:27:31Z</time>
      </trkpt>
      <trkpt lat="46.45602" lon="5.35231">
        <ele>249</ele>
        <time>2022-09-14T23:29:12Z</time>
      </trkpt>
      <trkpt lat="46.45579" lon="5.35203">
        <ele>247</ele>
        <time>2022-09-14T23:29:36Z</time>
      </trkpt>
      <trkpt lat="46.45496" lon="5.3506">
        <ele>240</ele>
        <time>2022-09-14T23:31:19Z</time>
      </trkpt>
      <trkpt lat="46.45476" lon="5.35033">
        <ele>240</ele>
        <time>2022-09-14T23:31:41Z</time>
      </trkpt>
      <trkpt lat="46.45418" lon="5.34969">
        <ele>240</ele>
        <time>2022-09-14T23:32:39Z</time>
      </trkpt>
      <trkpt lat="46.45412" lon="5.34959">
        <ele>240</ele>
        <time>2022-09-14T23:32:46Z</time>
      </trkpt>
      <trkpt lat="46.45406" lon="5.34945">
        <ele>241</ele>
        <time>2022-09-14T23:32:55Z</time>
      </trkpt>
      <trkpt lat="46.45405" lon="5.34932">
        <ele>241</ele>
        <time>2022-09-14T23:33:03Z</time>
      </trkpt>
      <trkpt lat="46.45398" lon="5.34921">
        <ele>241</ele>
        <time>2022-09-14T23:33:11Z</time>
      </trkpt>
      <trkpt lat="46.45389" lon="5.34917">
        <ele>241</ele>
        <time>2022-09-14T23:33:18Z</time>
      </trkpt>
      <trkpt lat="46.45384" lon="5.34918">
        <ele>241</ele>
        <time>2022-09-14T23:33:22Z</time>
      </trkpt>
      <trkpt lat="46.45376" lon="5.34926">
        <ele>240</ele>
        <time>2022-09-14T23:33:30Z</time>
      </trkpt>
      <trkpt lat="46.45368" lon="5.34928">
        <ele>240</ele>
        <time>2022-09-14T23:33:37Z</time>
      </trkpt>
      <trkpt lat="46.45354" lon="5.34925">
        <ele>240</ele>
        <time>2022-09-14T23:33:48Z</time>
      </trkpt>
      <trkpt lat="46.45292" lon="5.349">
        <ele>237</ele>
        <time>2022-09-14T23:34:40Z</time>
      </trkpt>
      <trkpt lat="46.45251" lon="5.34888">
        <ele>236</ele>
        <time>2022-09-14T23:35:13Z</time>
      </trkpt>
      <trkpt lat="46.44862" lon="5.34739">
        <ele>234</ele>
        <time>2022-09-14T23:40:35Z</time>
      </trkpt>
      <trkpt lat="46.448" lon="5.34721">
        <ele>236</ele>
        <time>2022-09-14T23:41:26Z</time>
      </trkpt>
      <trkpt lat="46.4474" lon="5.34709">
        <ele>238</ele>
        <time>2022-09-14T23:42:14Z</time>
      </trkpt>
      <trkpt lat="46.44697" lon="5.34705">
        <ele>239</ele>
        <time>2022-09-14T23:42:49Z</time>
      </trkpt>
      <trkpt lat="46.44657" lon="5.34704">
        <ele>239</ele>
        <time>2022-09-14T23:43:21Z</time>
      </trkpt>
      <trkpt lat="46.44595" lon="5.34708">
        <ele>239</ele>
        <time>2022-09-14T23:44:11Z</time>
      </trkpt>
      <trkpt lat="46.44534" lon="5.3472">
        <ele>241</ele>
        <time>2022-09-14T23:45:00Z</time>
      </trkpt>
      <trkpt lat="46.44464" lon="5.3474">
        <ele>244</ele>
        <time>2022-09-14T23:45:57Z</time>
      </trkpt>
      <trkpt lat="46.44434" lon="5.34752">
        <ele>246</ele>
        <time>2022-09-14T23:46:22Z</time>
      </trkpt>
      <trkpt lat="46.44403" lon="5.34764">
        <ele>248</ele>
        <time>2022-09-14T23:46:48Z</time>
      </trkpt>
      <trkpt lat="46.4435" lon="5.34791">
        <ele>254</ele>
        <time>2022-09-14T23:47:33Z</time>
      </trkpt>
      <trkpt lat="46.44293" lon="5.34825">
        <ele>258</ele>
        <time>2022-09-14T23:48:22Z</time>
      </trkpt>
      <trkpt lat="46.44204" lon="5.34896">
        <ele>268</ele>
        <time>2022-09-14T23:49:43Z</time>
      </trkpt>
      <trkpt lat="46.44169" lon="5.3493">
        <ele>270</ele>
        <time>2022-09-14T23:50:17Z</time>
      </trkpt>
      <trkpt lat="46.44144" lon="5.34957">
        <ele>269</ele>
        <time>2022-09-14T23:50:42Z</time>
      </trkpt>
      <trkpt lat="46.44089" lon="5.35026">
        <ele>266</ele>
        <time>2022-09-14T23:51:40Z</time>
      </trkpt>
      <trkpt lat="46.44015" lon="5.35116">
        <ele>266</ele>
        <time>2022-09-14T23:52:57Z</time>
      </trkpt>
      <trkpt lat="46.43975" lon="5.35159">
        <ele>274</ele>
        <time>2022-09-14T23:53:37Z</time>
      </trkpt>
      <trkpt lat="46.43901" lon="5.35229">
        <ele>286</ele>
        <time>2022-09-14T23:54:48Z</time>
      </trkpt>
      <trkpt lat="46.43852" lon="5.3527">
        <ele>287</ele>
        <time>2022-09-14T23:55:33Z</time>
      </trkpt>
      <trkpt lat="46.4382" lon="5.35292">
        <ele>286</ele>
        <time>2022-09-14T23:56:02Z</time>
      </trkpt>
      <trkpt lat="46.4374" lon="5.35335">
        <ele>279</ele>
        <time>2022-09-14T23:57:10Z</time>
      </trkpt>
      <trkpt lat="46.43647" lon="5.35372">
        <ele>277</ele>
        <time>2022-09-14T23:58:27Z</time>
      </trkpt>
      <trkpt lat="46.43576" lon="5.3539">
        <ele>278</ele>
        <time>2022-09-14T23:59:25Z</time>
      </trkpt>
      <trkpt lat="46.43477" lon="5.35404">
        <ele>282</ele>
        <time>2022-09-15T00:00:45Z</time>
      </trkpt>
      <trkpt lat="46.43447" lon="5.35405">
        <ele>284</ele>
        <time>2022-09-15T00:01:09Z</time>
      </trkpt>
      <trkpt lat="46.43377" lon="5.354">
        <ele>286</ele>
        <time>2022-09-15T00:02:05Z</time>
      </trkpt>
      <trkpt lat="46.43313" lon="5.3539">
        <ele>286</ele>
        <time>2022-09-15T00:02:56Z</time>
      </trkpt>
      <trkpt lat="46.43253" lon="5.35373">
        <ele>285</ele>
        <time>2022-09-15T00:03:45Z</time>
      </trkpt>
      <trkpt lat="46.43137" lon="5.35331">
        <ele>287</ele>
        <time>2022-09-15T00:05:21Z</time>
      </trkpt>
      <trkpt lat="46.42604" lon="5.35075">
        <ele>286</ele>
        <time>2022-09-15T00:12:50Z</time>
      </trkpt>
      <trkpt lat="46.42456" lon="5.35016">
        <ele>290</ele>
        <time>2022-09-15T00:14:53Z</time>
      </trkpt>
      <trkpt lat="46.42371" lon="5.34997">
        <ele>290</ele>
        <time>2022-09-15T00:16:02Z</time>
      </trkpt>
      <trkpt lat="46.4233" lon="5.34992">
        <ele>290</ele>
        <time>2022-09-15T00:16:35Z</time>
      </trkpt>
      <trkpt lat="46.42282" lon="5.3499">
        <ele>289</ele>
        <time>2022-09-15T00:17:14Z</time>
      </trkpt>
      <trkpt lat="46.4218" lon="5.34996">
        <ele>286</ele>
        <time>2022-09-15T00:18:35Z</time>
      </trkpt>
      <trkpt lat="46.42095" lon="5.35009">
        <ele>286</ele>
        <time>2022-09-15T00:19:44Z</time>
      </trkpt>
      <trkpt lat="46.4201" lon="5.35029">
        <ele>286</ele>
        <time>2022-09-15T00:20:53Z</time>
      </trkpt>
      <trkpt lat="46.41607" lon="5.35146">
        <ele>296</ele>
        <time>2022-09-15T00:26:22Z</time>
      </trkpt>
      <trkpt lat="46.41502" lon="5.35172">
        <ele>296</ele>
        <time>2022-09-15T00:27:47Z</time>
      </trkpt>
      <trkpt lat="46.41409" lon="5.35188">
        <ele>297</ele>
        <time>2022-09-15T00:29:02Z</time>
      </trkpt>
      <trkpt lat="46.4136" lon="5.35192">
        <ele>298</ele>
        <time>2022-09-15T00:29:41Z</time>
      </trkpt>
      <trkpt lat="46.41294" lon="5.35193">
        <ele>297</ele>
        <time>2022-09-15T00:30:34Z</time>
      </trkpt>
      <trkpt lat="46.4124" lon="5.35189">
        <ele>297</ele>
        <time>2022-09-15T00:31:17Z</time>
      </trkpt>
      <trkpt lat="46.41031" lon="5.35154">
        <ele>292</ele>
        <time>2022-09-15T00:34:06Z</time>
      </trkpt>
      <trkpt lat="46.40348" lon="5.35008">
        <ele>306</ele>
        <time>2022-09-15T00:43:19Z</time>
      </trkpt>
      <trkpt lat="46.40145" lon="5.34963">
        <ele>305</ele>
        <time>2022-09-15T00:46:03Z</time>
      </trkpt>
      <trkpt lat="46.40143" lon="5.34983">
        <ele>307</ele>
        <time>2022-09-15T00:46:14Z</time>
      </trkpt>
      <trkpt lat="46.41155" lon="5.352">
        <ele>297</ele>
        <time>2022-09-15T00:59:53Z</time>
      </trkpt>
      <trkpt lat="46.41235" lon="5.35215">
        <ele>298</ele>
        <time>2022-09-15T01:00:58Z</time>
      </trkpt>
      <trkpt lat="46.41315" lon="5.35224">
        <ele>300</ele>
        <time>2022-09-15T01:02:02Z</time>
      </trkpt>
      <trkpt lat="46.41361" lon="5.35223">
        <ele>300</ele>
        <time>2022-09-15T01:02:39Z</time>
      </trkpt>
      <trkpt lat="46.41362" lon="5.35239">
        <ele>301</ele>
        <time>2022-09-15T01:02:48Z</time>
      </trkpt>
      <trkpt lat="46.41354" lon="5.35301">
        <ele>306</ele>
        <time>2022-09-15T01:03:23Z</time>
      </trkpt>
      <trkpt lat="46.41362" lon="5.35239">
        <ele>301</ele>
        <time>2022-09-15T01:03:58Z</time>
      </trkpt>
      <trkpt lat="46.41361" lon="5.35223">
        <ele>300</ele>
        <time>2022-09-15T01:04:06Z</time>
      </trkpt>
      <trkpt lat="46.41459" lon="5.35202">
        <ele>297</ele>
        <time>2022-09-15T01:05:26Z</time>
      </trkpt>
      <trkpt lat="46.41656" lon="5.35153">
        <ele>296</ele>
        <time>2022-09-15T01:08:06Z</time>
      </trkpt>
      <trkpt lat="46.41658" lon="5.35148">
        <ele>296</ele>
        <time>2022-09-15T01:08:09Z</time>
      </trkpt>
      <trkpt lat="46.41657" lon="5.35136">
        <ele>295</ele>
        <time>2022-09-15T01:08:16Z</time>
      </trkpt>
      <trkpt lat="46.41655" lon="5.35132">
        <ele>295</ele>
        <time>2022-09-15T01:08:18Z</time>
      </trkpt>
      <trkpt lat="46.41607" lon="5.35146">
        <ele>296</ele>
        <time>2022-09-15T01:08:58Z</time>
      </trkpt>
      <trkpt lat="46.41502" lon="5.35172">
        <ele>296</ele>
        <time>2022-09-15T01:10:23Z</time>
      </trkpt>
      <trkpt lat="46.41409" lon="5.35188">
        <ele>297</ele>
        <time>2022-09-15T01:11:38Z</time>
      </trkpt>
      <trkpt lat="46.4136" lon="5.35192">
        <ele>298</ele>
        <time>2022-09-15T01:12:17Z</time>
      </trkpt>
      <trkpt lat="46.41294" lon="5.35193">
        <ele>297</ele>
        <time>2022-09-15T01:13:10Z</time>
      </trkpt>
      <trkpt lat="46.4124" lon="5.35189">
        <ele>297</ele>
        <time>2022-09-15T01:13:53Z</time>
      </trkpt>
      <trkpt lat="46.41031" lon="5.35154">
        <ele>292</ele>
        <time>2022-09-15T01:16:42Z</time>
      </trkpt>
      <trkpt lat="46.40348" lon="5.35008">
        <ele>306</ele>
        <time>2022-09-15T01:25:55Z</time>
      </trkpt>
      <trkpt lat="46.40145" lon="5.34963">
        <ele>305</ele>
        <time>2022-09-15T01:28:39Z</time>
      </trkpt>
      <trkpt lat="46.4009" lon="5.34955">
        <ele>304</ele>
        <time>2022-09-15T01:29:23Z</time>
      </trkpt>
      <trkpt lat="46.39954" lon="5.34944">
        <ele>302</ele>
        <time>2022-09-15T01:31:12Z</time>
      </trkpt>
      <trkpt lat="46.39822" lon="5.34916">
        <ele>305</ele>
        <time>2022-09-15T01:32:59Z</time>
      </trkpt>
      <trkpt lat="46.39299" lon="5.34774">
        <ele>307</ele>
        <time>2022-09-15T01:40:05Z</time>
      </trkpt>
      <trkpt lat="46.39123" lon="5.34728">
        <ele>307</ele>
        <time>2022-09-15T01:42:28Z</time>
      </trkpt>
      <trkpt lat="46.39085" lon="5.34722">
        <ele>307</ele>
        <time>2022-09-15T01:42:59Z</time>
      </trkpt>
      <trkpt lat="46.39003" lon="5.34716">
        <ele>298</ele>
        <time>2022-09-15T01:44:05Z</time>
      </trkpt>
      <trkpt lat="46.3898" lon="5.34718">
        <ele>297</ele>
        <time>2022-09-15T01:44:23Z</time>
      </trkpt>
      <trkpt lat="46.38941" lon="5.34729">
        <ele>297</ele>
        <time>2022-09-15T01:44:55Z</time>
      </trkpt>
      <trkpt lat="46.38918" lon="5.34733">
        <ele>296</ele>
        <time>2022-09-15T01:45:13Z</time>
      </trkpt>
      <trkpt lat="46.38906" lon="5.34733">
        <ele>296</ele>
        <time>2022-09-15T01:45:23Z</time>
      </trkpt>
      <trkpt lat="46.38866" lon="5.34718">
        <ele>293</ele>
        <time>2022-09-15T01:45:56Z</time>
      </trkpt>
      <trkpt lat="46.38847" lon="5.34717">
        <ele>293</ele>
        <time>2022-09-15T01:46:11Z</time>
      </trkpt>
      <trkpt lat="46.38832" lon="5.34722">
        <ele>293</ele>
        <time>2022-09-15T01:46:24Z</time>
      </trkpt>
      <trkpt lat="46.38792" lon="5.3475">
        <ele>295</ele>
        <time>2022-09-15T01:46:59Z</time>
      </trkpt>
      <trkpt lat="46.38772" lon="5.34759">
        <ele>294</ele>
        <time>2022-09-15T01:47:16Z</time>
      </trkpt>
      <trkpt lat="46.38762" lon="5.3476">
        <ele>294</ele>
        <time>2022-09-15T01:47:24Z</time>
      </trkpt>
      <trkpt lat="46.38752" lon="5.34756">
        <ele>293</ele>
        <time>2022-09-15T01:47:32Z</time>
      </trkpt>
      <trkpt lat="46.38748" lon="5.34753">
        <ele>293</ele>
        <time>2022-09-15T01:47:36Z</time>
      </trkpt>
      <trkpt lat="46.38712" lon="5.34697">
        <ele>293</ele>
        <time>2022-09-15T01:48:18Z</time>
      </trkpt>
      <trkpt lat="46.38702" lon="5.34687">
        <ele>293</ele>
        <time>2022-09-15T01:48:28Z</time>
      </trkpt>
      <trkpt lat="46.38684" lon="5.34671">
        <ele>293</ele>
        <time>2022-09-15T01:48:45Z</time>
      </trkpt>
      <trkpt lat="46.38668" lon="5.3466">
        <ele>293</ele>
        <time>2022-09-15T01:48:59Z</time>
      </trkpt>
      <trkpt lat="46.38637" lon="5.34646">
        <ele>293</ele>
        <time>2022-09-15T01:49:25Z</time>
      </trkpt>
      <trkpt lat="46.38584" lon="5.34633">
        <ele>292</ele>
        <time>2022-09-15T01:50:08Z</time>
      </trkpt>
      <trkpt lat="46.3857" lon="5.34627">
        <ele>291</ele>
        <time>2022-09-15T01:50:20Z</time>
      </trkpt>
      <trkpt lat="46.38519" lon="5.34596">
        <ele>285</ele>
        <time>2022-09-15T01:51:04Z</time>
      </trkpt>
      <trkpt lat="46.38479" lon="5.34582">
        <ele>285</ele>
        <time>2022-09-15T01:51:37Z</time>
      </trkpt>
      <trkpt lat="46.38421" lon="5.34583">
        <ele>289</ele>
        <time>2022-09-15T01:52:23Z</time>
      </trkpt>
      <trkpt lat="46.38411" lon="5.34581">
        <ele>289</ele>
        <time>2022-09-15T01:52:32Z</time>
      </trkpt>
      <trkpt lat="46.38402" lon="5.34578">
        <ele>289</ele>
        <time>2022-09-15T01:52:39Z</time>
      </trkpt>
      <trkpt lat="46.38307" lon="5.34545">
        <ele>288</ele>
        <time>2022-09-15T01:53:57Z</time>
      </trkpt>
      <trkpt lat="46.37896" lon="5.34425">
        <ele>290</ele>
        <time>2022-09-15T01:59:33Z</time>
      </trkpt>
      <trkpt lat="46.3786" lon="5.34405">
        <ele>289</ele>
        <time>2022-09-15T02:00:04Z</time>
      </trkpt>
      <trkpt lat="46.37449" lon="5.34148">
        <ele>273</ele>
        <time>2022-09-15T02:06:02Z</time>
      </trkpt>
      <trkpt lat="46.36949" lon="5.33846">
        <ele>263</ele>
        <time>2022-09-15T02:13:16Z</time>
      </trkpt>
      <trkpt lat="46.36852" lon="5.33784">
        <ele>259</ele>
        <time>2022-09-15T02:14:41Z</time>
      </trkpt>
      <trkpt lat="46.36792" lon="5.33738">
        <ele>259</ele>
        <time>2022-09-15T02:15:35Z</time>
      </trkpt>
      <trkpt lat="46.36774" lon="5.33722">
        <ele>260</ele>
        <time>2022-09-15T02:15:52Z</time>
      </trkpt>
      <trkpt lat="46.36747" lon="5.33691">
        <ele>262</ele>
        <time>2022-09-15T02:16:20Z</time>
      </trkpt>
      <trkpt lat="46.36345" lon="5.33166">
        <ele>251</ele>
        <time>2022-09-15T02:23:33Z</time>
      </trkpt>
      <trkpt lat="46.363" lon="5.3311">
        <ele>248</ele>
        <time>2022-09-15T02:24:20Z</time>
      </trkpt>
      <trkpt lat="46.36264" lon="5.33068">
        <ele>248</ele>
        <time>2022-09-15T02:24:57Z</time>
      </trkpt>
      <trkpt lat="46.3623" lon="5.33036">
        <ele>249</ele>
        <time>2022-09-15T02:25:30Z</time>
      </trkpt>
      <trkpt lat="46.36192" lon="5.33007">
        <ele>249</ele>
        <time>2022-09-15T02:26:04Z</time>
      </trkpt>
      <trkpt lat="46.36144" lon="5.32981">
        <ele>248</ele>
        <time>2022-09-15T02:26:45Z</time>
      </trkpt>
      <trkpt lat="46.36101" lon="5.32964">
        <ele>247</ele>
        <time>2022-09-15T02:27:21Z</time>
      </trkpt>
      <trkpt lat="46.36062" lon="5.32953">
        <ele>247</ele>
        <time>2022-09-15T02:27:53Z</time>
      </trkpt>
      <trkpt lat="46.35663" lon="5.32903">
        <ele>244</ele>
        <time>2022-09-15T02:33:13Z</time>
      </trkpt>
      <trkpt lat="46.35611" lon="5.32894">
        <ele>244</ele>
        <time>2022-09-15T02:33:55Z</time>
      </trkpt>
      <trkpt lat="46.35582" lon="5.32884">
        <ele>244</ele>
        <time>2022-09-15T02:34:19Z</time>
      </trkpt>
      <trkpt lat="46.35563" lon="5.32876">
        <ele>244</ele>
        <time>2022-09-15T02:34:35Z</time>
      </trkpt>
      <trkpt lat="46.35525" lon="5.32856">
        <ele>244</ele>
        <time>2022-09-15T02:35:07Z</time>
      </trkpt>
      <trkpt lat="46.35492" lon="5.32834">
        <ele>244</ele>
        <time>2022-09-15T02:35:36Z</time>
      </trkpt>
      <trkpt lat="46.35469" lon="5.32815">
        <ele>243</ele>
        <time>2022-09-15T02:35:58Z</time>
      </trkpt>
      <trkpt lat="46.354" lon="5.32753">
        <ele>240</ele>
        <time>2022-09-15T02:37:03Z</time>
      </trkpt>
      <trkpt lat="46.34961" lon="5.3235">
        <ele>239</ele>
        <time>2022-09-15T02:43:59Z</time>
      </trkpt>
      <trkpt lat="46.34723" lon="5.32118">
        <ele>242</ele>
        <time>2022-09-15T02:47:48Z</time>
      </trkpt>
      <trkpt lat="46.34702" lon="5.32105">
        <ele>243</ele>
        <time>2022-09-15T02:48:07Z</time>
      </trkpt>
      <trkpt lat="46.34674" lon="5.32094">
        <ele>244</ele>
        <time>2022-09-15T02:48:30Z</time>
      </trkpt>
      <trkpt lat="46.3434" lon="5.32001">
        <ele>243</ele>
        <time>2022-09-15T02:53:02Z</time>
      </trkpt>
      <trkpt lat="46.33821" lon="5.31859">
        <ele>242</ele>
        <time>2022-09-15T03:00:05Z</time>
      </trkpt>
      <trkpt lat="46.33616" lon="5.318">
        <ele>238</ele>
        <time>2022-09-15T03:02:53Z</time>
      </trkpt>
      <trkpt lat="46.33576" lon="5.31782">
        <ele>236</ele>
        <time>2022-09-15T03:03:26Z</time>
      </trkpt>
      <trkpt lat="46.33522" lon="5.31754">
        <ele>235</ele>
        <time>2022-09-15T03:04:12Z</time>
      </trkpt>
      <trkpt lat="46.33481" lon="5.31728">
        <ele>234</ele>
        <time>2022-09-15T03:04:48Z</time>
      </trkpt>
      <trkpt lat="46.33462" lon="5.31713">
        <ele>233</ele>
        <time>2022-09-15T03:05:05Z</time>
      </trkpt>
      <trkpt lat="46.33353" lon="5.31612">
        <ele>230</ele>
        <time>2022-09-15T03:06:49Z</time>
      </trkpt>
      <trkpt lat="46.33252" lon="5.31515">
        <ele>222</ele>
        <time>2022-09-15T03:08:26Z</time>
      </trkpt>
      <trkpt lat="46.33177" lon="5.31427">
        <ele>215</ele>
        <time>2022-09-15T03:09:43Z</time>
      </trkpt>
      <trkpt lat="46.33152" lon="5.31404">
        <ele>213</ele>
        <time>2022-09-15T03:10:07Z</time>
      </trkpt>
      <trkpt lat="46.33141" lon="5.31397">
        <ele>212</ele>
        <time>2022-09-15T03:10:16Z</time>
      </trkpt>
      <trkpt lat="46.33128" lon="5.31389">
        <ele>211</ele>
        <time>2022-09-15T03:10:28Z</time>
      </trkpt>
      <trkpt lat="46.33103" lon="5.3138">
        <ele>210</ele>
        <time>2022-09-15T03:10:48Z</time>
      </trkpt>
      <trkpt lat="46.33087" lon="5.31377">
        <ele>209</ele>
        <time>2022-09-15T03:11:01Z</time>
      </trkpt>
      <trkpt lat="46.33032" lon="5.31375">
        <ele>209</ele>
        <time>2022-09-15T03:11:45Z</time>
      </trkpt>
      <trkpt lat="46.33015" lon="5.31374">
        <ele>209</ele>
        <time>2022-09-15T03:11:59Z</time>
      </trkpt>
      <trkpt lat="46.33003" lon="5.31374">
        <ele>209</ele>
        <time>2022-09-15T03:12:09Z</time>
      </trkpt>
      <trkpt lat="46.33003" lon="5.31367">
        <ele>209</ele>
        <time>2022-09-15T03:12:12Z</time>
      </trkpt>
      <trkpt lat="46.32999" lon="5.31355">
        <ele>209</ele>
        <time>2022-09-15T03:12:20Z</time>
      </trkpt>
      <trkpt lat="46.32992" lon="5.31348">
        <ele>209</ele>
        <time>2022-09-15T03:12:27Z</time>
      </trkpt>
      <trkpt lat="46.32981" lon="5.31347">
        <ele>209</ele>
        <time>2022-09-15T03:12:35Z</time>
      </trkpt>
      <trkpt lat="46.32976" lon="5.31351">
        <ele>209</ele>
        <time>2022-09-15T03:12:40Z</time>
      </trkpt>
      <trkpt lat="46.3297" lon="5.31362">
        <ele>209</ele>
        <time>2022-09-15T03:12:48Z</time>
      </trkpt>
      <trkpt lat="46.32928" lon="5.31334">
        <ele>210</ele>
        <time>2022-09-15T03:13:25Z</time>
      </trkpt>
      <trkpt lat="46.32899" lon="5.31306">
        <ele>211</ele>
        <time>2022-09-15T03:13:53Z</time>
      </trkpt>
      <trkpt lat="46.32508" lon="5.30877">
        <ele>213</ele>
        <time>2022-09-15T03:20:25Z</time>
      </trkpt>
      <trkpt lat="46.32477" lon="5.30846">
        <ele>214</ele>
        <time>2022-09-15T03:20:56Z</time>
      </trkpt>
      <trkpt lat="46.32447" lon="5.30823">
        <ele>215</ele>
        <time>2022-09-15T03:21:23Z</time>
      </trkpt>
      <trkpt lat="46.32413" lon="5.30809">
        <ele>215</ele>
        <time>2022-09-15T03:21:51Z</time>
      </trkpt>
      <trkpt lat="46.32198" lon="5.30745">
        <ele>212</ele>
        <time>2022-09-15T03:24:47Z</time>
      </trkpt>
      <trkpt lat="46.32184" lon="5.30741">
        <ele>212</ele>
        <time>2022-09-15T03:24:58Z</time>
      </trkpt>
      <trkpt lat="46.32063" lon="5.30708">
        <ele>213</ele>
        <time>2022-09-15T03:26:37Z</time>
      </trkpt>
      <trkpt lat="46.31875" lon="5.30678">
        <ele>217</ele>
        <time>2022-09-15T03:29:08Z</time>
      </trkpt>
      <trkpt lat="46.31728" lon="5.30649">
        <ele>219</ele>
        <time>2022-09-15T03:31:07Z</time>
      </trkpt>
      <trkpt lat="46.31686" lon="5.30633">
        <ele>220</ele>
        <time>2022-09-15T03:31:42Z</time>
      </trkpt>
      <trkpt lat="46.31567" lon="5.30579">
        <ele>218</ele>
        <time>2022-09-15T03:33:22Z</time>
      </trkpt>
      <trkpt lat="46.3135" lon="5.3047">
        <ele>231</ele>
        <time>2022-09-15T03:36:26Z</time>
      </trkpt>
      <trkpt lat="46.31315" lon="5.30458">
        <ele>230</ele>
        <time>2022-09-15T03:36:54Z</time>
      </trkpt>
      <trkpt lat="46.31179" lon="5.30434">
        <ele>222</ele>
        <time>2022-09-15T03:38:44Z</time>
      </trkpt>
      <trkpt lat="46.30864" lon="5.30388">
        <ele>229</ele>
        <time>2022-09-15T03:42:58Z</time>
      </trkpt>
      <trkpt lat="46.30792" lon="5.30375">
        <ele>232</ele>
        <time>2022-09-15T03:43:56Z</time>
      </trkpt>
      <trkpt lat="46.30747" lon="5.30364">
        <ele>234</ele>
        <time>2022-09-15T03:44:32Z</time>
      </trkpt>
      <trkpt lat="46.30194" lon="5.30187">
        <ele>240</ele>
        <time>2022-09-15T03:52:06Z</time>
      </trkpt>
      <trkpt lat="46.29491" lon="5.29971">
        <ele>244</ele>
        <time>2022-09-15T04:01:41Z</time>
      </trkpt>
      <trkpt lat="46.29459" lon="5.29954">
        <ele>244</ele>
        <time>2022-09-15T04:02:08Z</time>
      </trkpt>
      <trkpt lat="46.29446" lon="5.29945">
        <ele>244</ele>
        <time>2022-09-15T04:02:20Z</time>
      </trkpt>
      <trkpt lat="46.29148" lon="5.29695">
        <ele>241</ele>
        <time>2022-09-15T04:06:56Z</time>
      </trkpt>
      <trkpt lat="46.28828" lon="5.29433">
        <ele>247</ele>
        <time>2022-09-15T04:11:50Z</time>
      </trkpt>
      <trkpt lat="46.28719" lon="5.2934">
        <ele>245</ele>
        <time>2022-09-15T04:13:31Z</time>
      </trkpt>
      <trkpt lat="46.28692" lon="5.29314">
        <ele>243</ele>
        <time>2022-09-15T04:13:57Z</time>
      </trkpt>
      <trkpt lat="46.28515" lon="5.29079">
        <ele>225</ele>
        <time>2022-09-15T04:17:10Z</time>
      </trkpt>
      <trkpt lat="46.28492" lon="5.29055">
        <ele>225</ele>
        <time>2022-09-15T04:17:32Z</time>
      </trkpt>
      <trkpt lat="46.28482" lon="5.29044">
        <ele>225</ele>
        <time>2022-09-15T04:17:43Z</time>
      </trkpt>
      <trkpt lat="46.2844" lon="5.29003">
        <ele>225</ele>
        <time>2022-09-15T04:18:23Z</time>
      </trkpt>
      <trkpt lat="46.2843" lon="5.28996">
        <ele>226</ele>
        <time>2022-09-15T04:18:32Z</time>
      </trkpt>
      <trkpt lat="46.28407" lon="5.28981">
        <ele>226</ele>
        <time>2022-09-15T04:18:52Z</time>
      </trkpt>
      <trkpt lat="46.28374" lon="5.28966">
        <ele>226</ele>
        <time>2022-09-15T04:19:20Z</time>
      </trkpt>
      <trkpt lat="46.2828" lon="5.2892">
        <ele>229</ele>
        <time>2022-09-15T04:20:39Z</time>
      </trkpt>
      <trkpt lat="46.28151" lon="5.28863">
        <ele>235</ele>
        <time>2022-09-15T04:22:27Z</time>
      </trkpt>
      <trkpt lat="46.2808" lon="5.28828">
        <ele>235</ele>
        <time>2022-09-15T04:23:27Z</time>
      </trkpt>
      <trkpt lat="46.279" lon="5.28744">
        <ele>238</ele>
        <time>2022-09-15T04:25:59Z</time>
      </trkpt>
      <trkpt lat="46.27484" lon="5.28554">
        <ele>244</ele>
        <time>2022-09-15T04:31:48Z</time>
      </trkpt>
      <trkpt lat="46.2728" lon="5.28464">
        <ele>243</ele>
        <time>2022-09-15T04:34:39Z</time>
      </trkpt>
      <trkpt lat="46.27265" lon="5.28454">
        <ele>243</ele>
        <time>2022-09-15T04:34:52Z</time>
      </trkpt>
      <trkpt lat="46.27266" lon="5.28447">
        <ele>242</ele>
        <time>2022-09-15T04:34:56Z</time>
      </trkpt>
      <trkpt lat="46.27264" lon="5.28439">
        <ele>242</ele>
        <time>2022-09-15T04:35:01Z</time>
      </trkpt>
      <trkpt lat="46.27258" lon="5.28433">
        <ele>242</ele>
        <time>2022-09-15T04:35:07Z</time>
      </trkpt>
      <trkpt lat="46.27253" lon="5.28432">
        <ele>242</ele>
        <time>2022-09-15T04:35:11Z</time>
      </trkpt>
      <trkpt lat="46.27247" lon="5.28435">
        <ele>242</ele>
        <time>2022-09-15T04:35:16Z</time>
      </trkpt>
      <trkpt lat="46.27243" lon="5.28444">
        <ele>242</ele>
        <time>2022-09-15T04:35:22Z</time>
      </trkpt>
      <trkpt lat="46.27071" lon="5.28366">
        <ele>244</ele>
        <time>2022-09-15T04:37:46Z</time>
      </trkpt>
      <trkpt lat="46.26883" lon="5.28275">
        <ele>237</ele>
        <time>2022-09-15T04:40:25Z</time>
      </trkpt>
      <trkpt lat="46.2687" lon="5.28268">
        <ele>237</ele>
        <time>2022-09-15T04:40:36Z</time>
      </trkpt>
      <trkpt lat="46.26553" lon="5.28109">
        <ele>244</ele>
        <time>2022-09-15T04:45:04Z</time>
      </trkpt>
      <trkpt lat="46.25662" lon="5.27668">
        <ele>244</ele>
        <time>2022-09-15T04:57:38Z</time>
      </trkpt>
    </trkseg>
  </trk>
</gpx>